<?xml version='1.0' encoding='UTF-8'?><gpx version="1.1" creator="JPX - https://github.com/jenetics/jpx" xmlns="http://www.topografix.com/GPX/1/1"><trk><trkseg><trkpt lat="40.557637601413624" lon="16.716944353593412"><ele>109.0</ele><time>2026-03-29T09:21:56Z</time></trkpt><trkpt lat="40.55762467152326" lon="16.71708308393569"><ele>109.0</ele><time>2026-03-29T09:21:57Z</time></trkpt><trkpt lat="40.55756980954396" lon="16.71726729388289"><ele>109.0</ele><time>2026-03-29T09:21:58Z</time></trkpt><trkpt lat="40.55753190779285" lon="16.71748052335213"><ele>109.0</ele><time>2026-03-29T09:21:59Z</time></trkpt><trkpt lat="40.55748594256863" lon="16.717739115718867"><ele>109.5</ele><time>2026-03-29T09:22:00Z</time></trkpt><trkpt lat="40.55742918716272" lon="16.718064458678267"><ele>110.0</ele><time>2026-03-29T09:22:01Z</time></trkpt><trkpt lat="40.557365328903494" lon="16.718433496553793"><ele>110.5</ele><time>2026-03-29T09:22:02Z</time></trkpt><trkpt lat="40.55729629507678" lon="16.71881894899869"><ele>111.0</ele><time>2026-03-29T09:22:03Z</time></trkpt><trkpt lat="40.557234929739835" lon="16.719161520944983"><ele>110.5</ele><time>2026-03-29T09:22:04Z</time></trkpt><trkpt lat="40.55717747403954" lon="16.719490437586426"><ele>110.0</ele><time>2026-03-29T09:22:05Z</time></trkpt><trkpt lat="40.55712170546359" lon="16.719815742377314"><ele>110.0</ele><time>2026-03-29T09:22:06Z</time></trkpt><trkpt lat="40.55706608654902" lon="16.720135550917664"><ele>110.0</ele><time>2026-03-29T09:22:07Z</time></trkpt><trkpt lat="40.557027748384314" lon="16.720448011882365"><ele>109.0</ele><time>2026-03-29T09:22:08Z</time></trkpt><trkpt lat="40.556956869535455" lon="16.720750852035938"><ele>108.0</ele><time>2026-03-29T09:22:09Z</time></trkpt><trkpt lat="40.556902444926955" lon="16.721054807831088"><ele>108.5</ele><time>2026-03-29T09:22:10Z</time></trkpt><trkpt lat="40.55684665533036" lon="16.721373768422975"><ele>109.0</ele><time>2026-03-29T09:22:11Z</time></trkpt><trkpt lat="40.55679136109725" lon="16.72169525288351"><ele>109.5</ele><time>2026-03-29T09:22:12Z</time></trkpt><trkpt lat="40.55674926942175" lon="16.722022466733833"><ele>110.0</ele><time>2026-03-29T09:22:13Z</time></trkpt><trkpt lat="40.556690299127354" lon="16.72235808365712"><ele>110.0</ele><time>2026-03-29T09:22:14Z</time></trkpt><trkpt lat="40.55663197757014" lon="16.722698481513543"><ele>110.0</ele><time>2026-03-29T09:22:15Z</time></trkpt><trkpt lat="40.556572372655275" lon="16.723031825482735"><ele>110.5</ele><time>2026-03-29T09:22:16Z</time></trkpt><trkpt lat="40.55652022570126" lon="16.7233440465949"><ele>111.0</ele><time>2026-03-29T09:22:17Z</time></trkpt><trkpt lat="40.55645375772345" lon="16.72362324228352"><ele>112.0</ele><time>2026-03-29T09:22:18Z</time></trkpt><trkpt lat="40.55642055641968" lon="16.723896322083007"><ele>113.0</ele><time>2026-03-29T09:22:19Z</time></trkpt><trkpt lat="40.556373435150164" lon="16.724142797279065"><ele>114.0</ele><time>2026-03-29T09:22:20Z</time></trkpt><trkpt lat="40.5563310601033" lon="16.72438776037429"><ele>115.66666666666666</ele><time>2026-03-29T09:22:21Z</time></trkpt><trkpt lat="40.55629622557933" lon="16.72461728348974"><ele>117.33333333333333</ele><time>2026-03-29T09:22:22Z</time></trkpt><trkpt lat="40.55624324566158" lon="16.724817701145277"><ele>119.0</ele><time>2026-03-29T09:22:23Z</time></trkpt><trkpt lat="40.55620239518254" lon="16.724994951500946"><ele>119.0</ele><time>2026-03-29T09:22:24Z</time></trkpt><trkpt lat="40.5561302495631" lon="16.72514408498836"><ele>119.0</ele><time>2026-03-29T09:22:25Z</time></trkpt><trkpt lat="40.55602378054825" lon="16.72524834596817"><ele>119.0</ele><time>2026-03-29T09:22:26Z</time></trkpt><trkpt lat="40.555880547889906" lon="16.72534243276601"><ele>119.0</ele><time>2026-03-29T09:22:27Z</time></trkpt><trkpt lat="40.5557130531519" lon="16.725463060757214"><ele>123.0</ele><time>2026-03-29T09:22:28Z</time></trkpt><trkpt lat="40.5555118600965" lon="16.725592224549736"><ele>127.0</ele><time>2026-03-29T09:22:29Z</time></trkpt><trkpt lat="40.55527419496417" lon="16.72572557770015"><ele>127.0</ele><time>2026-03-29T09:22:30Z</time></trkpt><trkpt lat="40.555032147927335" lon="16.72588250860922"><ele>127.0</ele><time>2026-03-29T09:22:31Z</time></trkpt><trkpt lat="40.55478112725008" lon="16.726045937823145"><ele>131.0</ele><time>2026-03-29T09:22:32Z</time></trkpt><trkpt lat="40.5545341830508" lon="16.726229860762984"><ele>135.0</ele><time>2026-03-29T09:22:33Z</time></trkpt><trkpt lat="40.554310590721016" lon="16.726368895703942"><ele>135.0</ele><time>2026-03-29T09:22:34Z</time></trkpt><trkpt lat="40.55409716532675" lon="16.72650442427416"><ele>135.0</ele><time>2026-03-29T09:22:35Z</time></trkpt><trkpt lat="40.553891214774836" lon="16.72661905571739"><ele>135.0</ele><time>2026-03-29T09:22:36Z</time></trkpt><trkpt lat="40.553716180819016" lon="16.72676012362881"><ele>135.0</ele><time>2026-03-29T09:22:37Z</time></trkpt><trkpt lat="40.553551124442585" lon="16.726875800011722"><ele>135.0</ele><time>2026-03-29T09:22:38Z</time></trkpt><trkpt lat="40.553391299609096" lon="16.727015139872016"><ele>137.0</ele><time>2026-03-29T09:22:39Z</time></trkpt><trkpt lat="40.55322919056166" lon="16.72718217045986"><ele>139.0</ele><time>2026-03-29T09:22:40Z</time></trkpt><trkpt lat="40.55307250571366" lon="16.72735944872975"><ele>141.0</ele><time>2026-03-29T09:22:41Z</time></trkpt><trkpt lat="40.552942740933936" lon="16.727520475437217"><ele>142.33333333333334</ele><time>2026-03-29T09:22:42Z</time></trkpt><trkpt lat="40.55282321828164" lon="16.72770255356932"><ele>143.66666666666669</ele><time>2026-03-29T09:22:43Z</time></trkpt><trkpt lat="40.55270824230718" lon="16.727922137604676"><ele>145.0</ele><time>2026-03-29T09:22:44Z</time></trkpt><trkpt lat="40.55260164816321" lon="16.72816449508018"><ele>145.0</ele><time>2026-03-29T09:22:45Z</time></trkpt><trkpt lat="40.552500663305" lon="16.72839259531813"><ele>145.0</ele><time>2026-03-29T09:22:46Z</time></trkpt><trkpt lat="40.55237756649438" lon="16.72860971009344"><ele>145.0</ele><time>2026-03-29T09:22:47Z</time></trkpt><trkpt lat="40.55222135890889" lon="16.728811883339564"><ele>146.0</ele><time>2026-03-29T09:22:48Z</time></trkpt><trkpt lat="40.55206382435182" lon="16.728986076870136"><ele>147.0</ele><time>2026-03-29T09:22:49Z</time></trkpt><trkpt lat="40.55192618585397" lon="16.7291370721322"><ele>148.0</ele><time>2026-03-29T09:22:50Z</time></trkpt><trkpt lat="40.55180816059295" lon="16.72927266930082"><ele>148.0</ele><time>2026-03-29T09:22:51Z</time></trkpt><trkpt lat="40.55170894308986" lon="16.72938842436286"><ele>148.0</ele><time>2026-03-29T09:22:52Z</time></trkpt><trkpt lat="40.55163519324931" lon="16.7294909938969"><ele>148.0</ele><time>2026-03-29T09:22:53Z</time></trkpt><trkpt lat="40.55160575401493" lon="16.729612934305667"><ele>148.0</ele><time>2026-03-29T09:22:54Z</time></trkpt><trkpt lat="40.5516252725695" lon="16.729750527572385"><ele>148.0</ele><time>2026-03-29T09:22:55Z</time></trkpt><trkpt lat="40.551698692642155" lon="16.72985559789621"><ele>149.5</ele><time>2026-03-29T09:22:56Z</time></trkpt><trkpt lat="40.55179805809975" lon="16.729889266767387"><ele>151.0</ele><time>2026-03-29T09:22:57Z</time></trkpt><trkpt lat="40.551913706696354" lon="16.72985716160044"><ele>152.5</ele><time>2026-03-29T09:22:58Z</time></trkpt><trkpt lat="40.552030890168446" lon="16.729754455253744"><ele>154.0</ele><time>2026-03-29T09:22:59Z</time></trkpt><trkpt lat="40.55214128168712" lon="16.729615082087644"><ele>156.75</ele><time>2026-03-29T09:23:00Z</time></trkpt><trkpt lat="40.55227693862966" lon="16.729543063714356"><ele>159.5</ele><time>2026-03-29T09:23:01Z</time></trkpt><trkpt lat="40.552440934637296" lon="16.729531595962573"><ele>162.25</ele><time>2026-03-29T09:23:02Z</time></trkpt><trkpt lat="40.5525301729489" lon="16.729514367046015"><ele>165.0</ele><time>2026-03-29T09:23:03Z</time></trkpt><trkpt lat="40.55263035535355" lon="16.72949502514588"><ele>165.0</ele><time>2026-03-29T09:23:05Z</time></trkpt><trkpt lat="40.5527270012591" lon="16.72951050607794"><ele>165.0</ele><time>2026-03-29T09:23:07Z</time></trkpt><trkpt lat="40.55266847555358" lon="16.729681032206468"><ele>165.0</ele><time>2026-03-29T09:23:09Z</time></trkpt><trkpt lat="40.55265580465432" lon="16.72983347014661"><ele>165.0</ele><time>2026-03-29T09:23:10Z</time></trkpt><trkpt lat="40.552606193734164" lon="16.730053149941387"><ele>170.66666666666666</ele><time>2026-03-29T09:23:11Z</time></trkpt><trkpt lat="40.55254826188876" lon="16.730316412273645"><ele>176.33333333333331</ele><time>2026-03-29T09:23:12Z</time></trkpt><trkpt lat="40.55247131490848" lon="16.73056798884676"><ele>182.0</ele><time>2026-03-29T09:23:13Z</time></trkpt><trkpt lat="40.552373450354466" lon="16.730782787783394"><ele>182.0</ele><time>2026-03-29T09:23:14Z</time></trkpt><trkpt lat="40.55225652877777" lon="16.730950242437427"><ele>182.0</ele><time>2026-03-29T09:23:15Z</time></trkpt><trkpt lat="40.552117236072384" lon="16.731094665012755"><ele>182.0</ele><time>2026-03-29T09:23:16Z</time></trkpt><trkpt lat="40.551952926617" lon="16.73122733301558"><ele>185.33333333333331</ele><time>2026-03-29T09:23:17Z</time></trkpt><trkpt lat="40.55176615572025" lon="16.73136336322676"><ele>188.66666666666666</ele><time>2026-03-29T09:23:18Z</time></trkpt><trkpt lat="40.55156671054127" lon="16.73149196191263"><ele>192.0</ele><time>2026-03-29T09:23:19Z</time></trkpt><trkpt lat="40.551364877913976" lon="16.731621353938344"><ele>188.66666666666666</ele><time>2026-03-29T09:23:20Z</time></trkpt><trkpt lat="40.551175375725585" lon="16.731754462818518"><ele>185.33333333333331</ele><time>2026-03-29T09:23:21Z</time></trkpt><trkpt lat="40.550993826155285" lon="16.731889642039263"><ele>182.0</ele><time>2026-03-29T09:23:22Z</time></trkpt><trkpt lat="40.550812817358256" lon="16.732046890817628"><ele>186.66666666666666</ele><time>2026-03-29T09:23:23Z</time></trkpt><trkpt lat="40.55064333197118" lon="16.73222440615551"><ele>191.33333333333331</ele><time>2026-03-29T09:23:24Z</time></trkpt><trkpt lat="40.550496131590045" lon="16.73237995390428"><ele>196.0</ele><time>2026-03-29T09:23:25Z</time></trkpt><trkpt lat="40.55035922084522" lon="16.732513885495006"><ele>196.0</ele><time>2026-03-29T09:23:26Z</time></trkpt><trkpt lat="40.55024075746408" lon="16.73262481978226"><ele>196.0</ele><time>2026-03-29T09:23:27Z</time></trkpt><trkpt lat="40.550131578891246" lon="16.73272344206946"><ele>196.0</ele><time>2026-03-29T09:23:28Z</time></trkpt><trkpt lat="40.55002727385419" lon="16.732812053230504"><ele>196.0</ele><time>2026-03-29T09:23:29Z</time></trkpt><trkpt lat="40.54991431820421" lon="16.732892513035498"><ele>195.33333333333331</ele><time>2026-03-29T09:23:30Z</time></trkpt><trkpt lat="40.5497883869904" lon="16.73296876045181"><ele>194.66666666666669</ele><time>2026-03-29T09:23:31Z</time></trkpt><trkpt lat="40.54964544767426" lon="16.733035856163227"><ele>194.0</ele><time>2026-03-29T09:23:32Z</time></trkpt><trkpt lat="40.549490082916215" lon="16.733091716259263"><ele>193.5</ele><time>2026-03-29T09:23:33Z</time></trkpt><trkpt lat="40.54934438833969" lon="16.73312833055115"><ele>193.0</ele><time>2026-03-29T09:23:34Z</time></trkpt><trkpt lat="40.54920867082811" lon="16.733153483078446"><ele>192.5</ele><time>2026-03-29T09:23:35Z</time></trkpt><trkpt lat="40.54906944681278" lon="16.73316187621095"><ele>192.0</ele><time>2026-03-29T09:23:36Z</time></trkpt><trkpt lat="40.54892079446491" lon="16.733161820410814"><ele>192.0</ele><time>2026-03-29T09:23:37Z</time></trkpt><trkpt lat="40.548777073877915" lon="16.73316527852777"><ele>192.0</ele><time>2026-03-29T09:23:38Z</time></trkpt><trkpt lat="40.54864705490784" lon="16.733176672457237"><ele>192.0</ele><time>2026-03-29T09:23:39Z</time></trkpt><trkpt lat="40.54852715806986" lon="16.733173877453673"><ele>192.0</ele><time>2026-03-29T09:23:40Z</time></trkpt><trkpt lat="40.54840969987102" lon="16.733167980536525"><ele>191.0</ele><time>2026-03-29T09:23:41Z</time></trkpt><trkpt lat="40.54830233704697" lon="16.73317191051012"><ele>190.0</ele><time>2026-03-29T09:23:42Z</time></trkpt><trkpt lat="40.548203264802055" lon="16.73317647050368"><ele>189.0</ele><time>2026-03-29T09:23:43Z</time></trkpt><trkpt lat="40.548115418295275" lon="16.733196915625125"><ele>188.0</ele><time>2026-03-29T09:23:44Z</time></trkpt><trkpt lat="40.548042739864556" lon="16.733266802146993"><ele>187.0</ele><time>2026-03-29T09:23:45Z</time></trkpt><trkpt lat="40.54799497360571" lon="16.733390519846708"><ele>187.0</ele><time>2026-03-29T09:23:46Z</time></trkpt><trkpt lat="40.54797715832776" lon="16.73354665275315"><ele>187.0</ele><time>2026-03-29T09:23:47Z</time></trkpt><trkpt lat="40.547967293155445" lon="16.73373414897676"><ele>187.0</ele><time>2026-03-29T09:23:48Z</time></trkpt><trkpt lat="40.5479487141155" lon="16.73395310424215"><ele>187.0</ele><time>2026-03-29T09:23:49Z</time></trkpt><trkpt lat="40.547912358593415" lon="16.73418939878781"><ele>185.66666666666669</ele><time>2026-03-29T09:23:50Z</time></trkpt><trkpt lat="40.54787127559246" lon="16.734434906065005"><ele>184.33333333333334</ele><time>2026-03-29T09:23:51Z</time></trkpt><trkpt lat="40.547833430814684" lon="16.734673375743807"><ele>183.0</ele><time>2026-03-29T09:23:52Z</time></trkpt><trkpt lat="40.54780131892959" lon="16.734880032422176"><ele>183.0</ele><time>2026-03-29T09:23:53Z</time></trkpt><trkpt lat="40.54778458959984" lon="16.735102902243977"><ele>183.0</ele><time>2026-03-29T09:23:54Z</time></trkpt><trkpt lat="40.54778617119274" lon="16.735350865184195"><ele>183.0</ele><time>2026-03-29T09:23:55Z</time></trkpt><trkpt lat="40.54779388135252" lon="16.735606160746123"><ele>181.66666666666666</ele><time>2026-03-29T09:23:56Z</time></trkpt><trkpt lat="40.54779363265083" lon="16.735850781565393"><ele>180.33333333333331</ele><time>2026-03-29T09:23:57Z</time></trkpt><trkpt lat="40.54779292289445" lon="16.736081543085643"><ele>179.0</ele><time>2026-03-29T09:23:58Z</time></trkpt><trkpt lat="40.547795817653444" lon="16.736302628771345"><ele>178.33333333333331</ele><time>2026-03-29T09:23:59Z</time></trkpt><trkpt lat="40.54777494242332" lon="16.736535922489832"><ele>177.66666666666666</ele><time>2026-03-29T09:24:00Z</time></trkpt><trkpt lat="40.54771824164365" lon="16.736777727976786"><ele>177.0</ele><time>2026-03-29T09:24:01Z</time></trkpt><trkpt lat="40.54762523893971" lon="16.73701993075731"><ele>175.0</ele><time>2026-03-29T09:24:02Z</time></trkpt><trkpt lat="40.547513774832076" lon="16.73726154346874"><ele>173.0</ele><time>2026-03-29T09:24:03Z</time></trkpt><trkpt lat="40.54740479959476" lon="16.73750414054346"><ele>171.0</ele><time>2026-03-29T09:24:04Z</time></trkpt><trkpt lat="40.54730472694857" lon="16.737730415554594"><ele>171.0</ele><time>2026-03-29T09:24:05Z</time></trkpt><trkpt lat="40.54720822799456" lon="16.737948580630814"><ele>171.0</ele><time>2026-03-29T09:24:06Z</time></trkpt><trkpt lat="40.5471152873852" lon="16.73815839547943"><ele>171.0</ele><time>2026-03-29T09:24:07Z</time></trkpt><trkpt lat="40.547028051349926" lon="16.7383557813435"><ele>171.0</ele><time>2026-03-29T09:24:08Z</time></trkpt><trkpt lat="40.54694538665555" lon="16.738543954788636"><ele>171.0</ele><time>2026-03-29T09:24:09Z</time></trkpt><trkpt lat="40.54685509707008" lon="16.738732146652527"><ele>171.0</ele><time>2026-03-29T09:24:10Z</time></trkpt><trkpt lat="40.546747501974814" lon="16.738923283694778"><ele>168.33333333333334</ele><time>2026-03-29T09:24:11Z</time></trkpt><trkpt lat="40.54662711160335" lon="16.739120124345046"><ele>165.66666666666669</ele><time>2026-03-29T09:24:12Z</time></trkpt><trkpt lat="40.5465087179078" lon="16.739324954448374"><ele>163.0</ele><time>2026-03-29T09:24:13Z</time></trkpt><trkpt lat="40.54639412381619" lon="16.73952209270424"><ele>162.33333333333334</ele><time>2026-03-29T09:24:14Z</time></trkpt><trkpt lat="40.546286444411145" lon="16.73970736116062"><ele>161.66666666666666</ele><time>2026-03-29T09:24:15Z</time></trkpt><trkpt lat="40.54618297953056" lon="16.739885288314138"><ele>161.0</ele><time>2026-03-29T09:24:16Z</time></trkpt><trkpt lat="40.54608923606026" lon="16.740059672714466"><ele>159.75</ele><time>2026-03-29T09:24:17Z</time></trkpt><trkpt lat="40.54602189874538" lon="16.74023751143824"><ele>158.5</ele><time>2026-03-29T09:24:18Z</time></trkpt><trkpt lat="40.54598023142571" lon="16.740423208194724"><ele>157.25</ele><time>2026-03-29T09:24:19Z</time></trkpt><trkpt lat="40.545961994888344" lon="16.740618890683795"><ele>156.0</ele><time>2026-03-29T09:24:20Z</time></trkpt><trkpt lat="40.54596701915027" lon="16.740824181371014"><ele>156.0</ele><time>2026-03-29T09:24:21Z</time></trkpt><trkpt lat="40.545995762395435" lon="16.741039721601737"><ele>156.0</ele><time>2026-03-29T09:24:22Z</time></trkpt><trkpt lat="40.54605800862197" lon="16.74125031794244"><ele>156.0</ele><time>2026-03-29T09:24:23Z</time></trkpt><trkpt lat="40.546144349691275" lon="16.74146462621896"><ele>153.66666666666666</ele><time>2026-03-29T09:24:24Z</time></trkpt><trkpt lat="40.54624744190798" lon="16.74169741346147"><ele>151.33333333333331</ele><time>2026-03-29T09:24:25Z</time></trkpt><trkpt lat="40.54634763381316" lon="16.74194359392878"><ele>149.0</ele><time>2026-03-29T09:24:26Z</time></trkpt><trkpt lat="40.546454624887254" lon="16.742199109309524"><ele>147.0</ele><time>2026-03-29T09:24:27Z</time></trkpt><trkpt lat="40.54656758467956" lon="16.74246133530881"><ele>145.0</ele><time>2026-03-29T09:24:28Z</time></trkpt><trkpt lat="40.54668469066141" lon="16.74273126022455"><ele>143.5</ele><time>2026-03-29T09:24:29Z</time></trkpt><trkpt lat="40.54680458847911" lon="16.743009505020403"><ele>142.0</ele><time>2026-03-29T09:24:30Z</time></trkpt><trkpt lat="40.54692544331356" lon="16.743290940435365"><ele>140.5</ele><time>2026-03-29T09:24:31Z</time></trkpt><trkpt lat="40.54704574359454" lon="16.743575660031404"><ele>139.0</ele><time>2026-03-29T09:24:32Z</time></trkpt><trkpt lat="40.547167519253215" lon="16.743865827950316"><ele>139.0</ele><time>2026-03-29T09:24:33Z</time></trkpt><trkpt lat="40.54729280866535" lon="16.74415741729188"><ele>139.0</ele><time>2026-03-29T09:24:34Z</time></trkpt><trkpt lat="40.547419495921545" lon="16.744452201031212"><ele>140.5</ele><time>2026-03-29T09:24:35Z</time></trkpt><trkpt lat="40.54754383981126" lon="16.74473826888233"><ele>142.0</ele><time>2026-03-29T09:24:36Z</time></trkpt><trkpt lat="40.54766787327244" lon="16.74502430649263"><ele>142.5</ele><time>2026-03-29T09:24:37Z</time></trkpt><trkpt lat="40.547786491018684" lon="16.745305503355947"><ele>143.0</ele><time>2026-03-29T09:24:38Z</time></trkpt><trkpt lat="40.54790623020414" lon="16.745585083228463"><ele>148.5</ele><time>2026-03-29T09:24:39Z</time></trkpt><trkpt lat="40.54802746417853" lon="16.74586859482257"><ele>154.0</ele><time>2026-03-29T09:24:40Z</time></trkpt><trkpt lat="40.548150795118104" lon="16.746151749968902"><ele>155.0</ele><time>2026-03-29T09:24:41Z</time></trkpt><trkpt lat="40.54827250905333" lon="16.746440177801215"><ele>156.0</ele><time>2026-03-29T09:24:42Z</time></trkpt><trkpt lat="40.5483926419065" lon="16.746731602555553"><ele>157.5</ele><time>2026-03-29T09:24:43Z</time></trkpt><trkpt lat="40.54851366706653" lon="16.74702336794031"><ele>159.0</ele><time>2026-03-29T09:24:44Z</time></trkpt><trkpt lat="40.548635897702574" lon="16.747316492224698"><ele>160.0</ele><time>2026-03-29T09:24:45Z</time></trkpt><trkpt lat="40.54875832863489" lon="16.747607158617345"><ele>161.0</ele><time>2026-03-29T09:24:46Z</time></trkpt><trkpt lat="40.5488759497749" lon="16.747895423388787"><ele>161.0</ele><time>2026-03-29T09:24:47Z</time></trkpt><trkpt lat="40.54898932276628" lon="16.748180701176082"><ele>161.0</ele><time>2026-03-29T09:24:48Z</time></trkpt><trkpt lat="40.549097904135934" lon="16.748454385519178"><ele>160.0</ele><time>2026-03-29T09:24:49Z</time></trkpt><trkpt lat="40.549199570221695" lon="16.748703481108294"><ele>159.0</ele><time>2026-03-29T09:24:50Z</time></trkpt><trkpt lat="40.54929536181344" lon="16.748935588301535"><ele>158.0</ele><time>2026-03-29T09:24:51Z</time></trkpt><trkpt lat="40.54938321813229" lon="16.749151488582164"><ele>158.0</ele><time>2026-03-29T09:24:52Z</time></trkpt><trkpt lat="40.54946602978433" lon="16.749355947997046"><ele>158.0</ele><time>2026-03-29T09:24:53Z</time></trkpt><trkpt lat="40.54954360310521" lon="16.74954752790158"><ele>158.0</ele><time>2026-03-29T09:24:54Z</time></trkpt><trkpt lat="40.54962891346338" lon="16.74974536196133"><ele>158.33333333333331</ele><time>2026-03-29T09:24:55Z</time></trkpt><trkpt lat="40.54971871234373" lon="16.749970080123333"><ele>158.66666666666666</ele><time>2026-03-29T09:24:56Z</time></trkpt><trkpt lat="40.549807510790096" lon="16.750199515091488"><ele>159.0</ele><time>2026-03-29T09:24:57Z</time></trkpt><trkpt lat="40.54990034448714" lon="16.7504280340582"><ele>159.0</ele><time>2026-03-29T09:24:58Z</time></trkpt><trkpt lat="40.54999555261047" lon="16.75065462639278"><ele>159.0</ele><time>2026-03-29T09:24:59Z</time></trkpt><trkpt lat="40.55009094770306" lon="16.750886555392242"><ele>159.0</ele><time>2026-03-29T09:25:00Z</time></trkpt><trkpt lat="40.55018899184814" lon="16.75112363676126"><ele>158.66666666666666</ele><time>2026-03-29T09:25:01Z</time></trkpt><trkpt lat="40.55028720902854" lon="16.7513638933821"><ele>158.33333333333331</ele><time>2026-03-29T09:25:02Z</time></trkpt><trkpt lat="40.550385295664206" lon="16.751605011230314"><ele>158.0</ele><time>2026-03-29T09:25:03Z</time></trkpt><trkpt lat="40.55048591730174" lon="16.751848613204533"><ele>158.66666666666666</ele><time>2026-03-29T09:25:04Z</time></trkpt><trkpt lat="40.55058648806616" lon="16.75209293436673"><ele>159.33333333333334</ele><time>2026-03-29T09:25:05Z</time></trkpt><trkpt lat="40.55068970237967" lon="16.752343492546196"><ele>160.0</ele><time>2026-03-29T09:25:06Z</time></trkpt><trkpt lat="40.55077878993251" lon="16.75256496801215"><ele>160.0</ele><time>2026-03-29T09:25:07Z</time></trkpt><trkpt lat="40.55083269328448" lon="16.752695930629685"><ele>160.0</ele><time>2026-03-29T09:25:08Z</time></trkpt><trkpt lat="40.55087374972574" lon="16.75277908484358"><ele>160.0</ele><time>2026-03-29T09:25:09Z</time></trkpt><trkpt lat="40.5509190964394" lon="16.75289801226278"><ele>160.0</ele><time>2026-03-29T09:25:12Z</time></trkpt><trkpt lat="40.55098477467684" lon="16.753068611524213"><ele>160.0</ele><time>2026-03-29T09:25:15Z</time></trkpt><trkpt lat="40.55104035736691" lon="16.753206075772287"><ele>160.33333333333334</ele><time>2026-03-29T09:25:16Z</time></trkpt><trkpt lat="40.551103875889666" lon="16.753365141704748"><ele>160.66666666666666</ele><time>2026-03-29T09:25:17Z</time></trkpt><trkpt lat="40.55117934363409" lon="16.753552143436323"><ele>161.0</ele><time>2026-03-29T09:25:18Z</time></trkpt><trkpt lat="40.55126255331899" lon="16.753752557315313"><ele>161.66666666666666</ele><time>2026-03-29T09:25:19Z</time></trkpt><trkpt lat="40.55135092663993" lon="16.753962569777443"><ele>162.33333333333334</ele><time>2026-03-29T09:25:20Z</time></trkpt><trkpt lat="40.5514426544287" lon="16.754183463913314"><ele>163.0</ele><time>2026-03-29T09:25:21Z</time></trkpt><trkpt lat="40.55153444785749" lon="16.75441628805387"><ele>163.0</ele><time>2026-03-29T09:25:22Z</time></trkpt><trkpt lat="40.551632736430186" lon="16.754654611655045"><ele>163.0</ele><time>2026-03-29T09:25:23Z</time></trkpt><trkpt lat="40.55173078690548" lon="16.754895615460956"><ele>163.0</ele><time>2026-03-29T09:25:24Z</time></trkpt><trkpt lat="40.551823067984536" lon="16.755120451972513"><ele>162.66666666666669</ele><time>2026-03-29T09:25:25Z</time></trkpt><trkpt lat="40.55190957128449" lon="16.755321892976323"><ele>162.33333333333334</ele><time>2026-03-29T09:25:26Z</time></trkpt><trkpt lat="40.55199371386173" lon="16.75552268362556"><ele>162.0</ele><time>2026-03-29T09:25:27Z</time></trkpt><trkpt lat="40.5520818007303" lon="16.75572399384472"><ele>162.0</ele><time>2026-03-29T09:25:28Z</time></trkpt><trkpt lat="40.55216858105947" lon="16.75592851597622"><ele>162.0</ele><time>2026-03-29T09:25:29Z</time></trkpt><trkpt lat="40.55225275434837" lon="16.75613046778697"><ele>162.0</ele><time>2026-03-29T09:25:30Z</time></trkpt><trkpt lat="40.55233962829647" lon="16.756333350596044"><ele>162.0</ele><time>2026-03-29T09:25:31Z</time></trkpt><trkpt lat="40.552427889694115" lon="16.756543613666814"><ele>162.0</ele><time>2026-03-29T09:25:32Z</time></trkpt><trkpt lat="40.552513047711905" lon="16.756740710647097"><ele>162.0</ele><time>2026-03-29T09:25:33Z</time></trkpt><trkpt lat="40.55259554728199" lon="16.756928405749285"><ele>161.66666666666666</ele><time>2026-03-29T09:25:34Z</time></trkpt><trkpt lat="40.552683652031874" lon="16.75710856957823"><ele>161.33333333333331</ele><time>2026-03-29T09:25:35Z</time></trkpt><trkpt lat="40.552760700259626" lon="16.757283102282383"><ele>161.0</ele><time>2026-03-29T09:25:36Z</time></trkpt><trkpt lat="40.5528324936746" lon="16.757454896887616"><ele>161.66666666666666</ele><time>2026-03-29T09:25:37Z</time></trkpt><trkpt lat="40.5529068096592" lon="16.75762673964521"><ele>162.33333333333334</ele><time>2026-03-29T09:25:38Z</time></trkpt><trkpt lat="40.55298217766694" lon="16.757805866520236"><ele>163.0</ele><time>2026-03-29T09:25:39Z</time></trkpt><trkpt lat="40.55305561354146" lon="16.757985248649867"><ele>163.0</ele><time>2026-03-29T09:25:40Z</time></trkpt><trkpt lat="40.553120879115106" lon="16.758141147189626"><ele>163.0</ele><time>2026-03-29T09:25:41Z</time></trkpt><trkpt lat="40.55317926638655" lon="16.75828932780434"><ele>163.0</ele><time>2026-03-29T09:25:42Z</time></trkpt><trkpt lat="40.553237839092986" lon="16.758423755285598"><ele>163.0</ele><time>2026-03-29T09:25:43Z</time></trkpt><trkpt lat="40.55328595170366" lon="16.758547543033224"><ele>162.5</ele><time>2026-03-29T09:25:44Z</time></trkpt><trkpt lat="40.55332911597458" lon="16.75865348703804"><ele>162.0</ele><time>2026-03-29T09:25:45Z</time></trkpt><trkpt lat="40.55336938175128" lon="16.758739616860446"><ele>161.5</ele><time>2026-03-29T09:25:46Z</time></trkpt><trkpt lat="40.55340837457358" lon="16.758827352094727"><ele>161.0</ele><time>2026-03-29T09:25:48Z</time></trkpt><trkpt lat="40.553443266908985" lon="16.758911051777755"><ele>160.5</ele><time>2026-03-29T09:25:56Z</time></trkpt><trkpt lat="40.55347440333995" lon="16.75898887950114"><ele>160.0</ele><time>2026-03-29T09:25:59Z</time></trkpt><trkpt lat="40.55354723820796" lon="16.75904384872386"><ele>160.0</ele><time>2026-03-29T09:26:01Z</time></trkpt><trkpt lat="40.553637198752995" lon="16.759023785401617"><ele>160.0</ele><time>2026-03-29T09:26:02Z</time></trkpt><trkpt lat="40.55373953277814" lon="16.758992594518805"><ele>160.0</ele><time>2026-03-29T09:26:03Z</time></trkpt><trkpt lat="40.553855308038145" lon="16.75896156268981"><ele>160.0</ele><time>2026-03-29T09:26:04Z</time></trkpt><trkpt lat="40.55398007354708" lon="16.758941762630343"><ele>160.0</ele><time>2026-03-29T09:26:05Z</time></trkpt><trkpt lat="40.55409854507495" lon="16.758936354077516"><ele>160.5</ele><time>2026-03-29T09:26:06Z</time></trkpt><trkpt lat="40.554201961468735" lon="16.758925968305405"><ele>161.0</ele><time>2026-03-29T09:26:07Z</time></trkpt><trkpt lat="40.55430489107395" lon="16.758908291944806"><ele>161.5</ele><time>2026-03-29T09:26:08Z</time></trkpt><trkpt lat="40.55443527513246" lon="16.75888201337741"><ele>162.0</ele><time>2026-03-29T09:26:09Z</time></trkpt><trkpt lat="40.55460303576063" lon="16.75885107176065"><ele>162.0</ele><time>2026-03-29T09:26:10Z</time></trkpt><trkpt lat="40.55479384710099" lon="16.758835169100113"><ele>162.0</ele><time>2026-03-29T09:26:11Z</time></trkpt><trkpt lat="40.55498033552338" lon="16.758818266507735"><ele>162.0</ele><time>2026-03-29T09:26:12Z</time></trkpt><trkpt lat="40.55513474966659" lon="16.758789663488542"><ele>162.0</ele><time>2026-03-29T09:26:13Z</time></trkpt><trkpt lat="40.55526998633138" lon="16.758740883550452"><ele>162.0</ele><time>2026-03-29T09:26:14Z</time></trkpt><trkpt lat="40.555398284894835" lon="16.758678832861992"><ele>162.0</ele><time>2026-03-29T09:26:15Z</time></trkpt><trkpt lat="40.55554501856242" lon="16.758671418747852"><ele>162.0</ele><time>2026-03-29T09:26:16Z</time></trkpt><trkpt lat="40.55570054281407" lon="16.758689371846188"><ele>161.75</ele><time>2026-03-29T09:26:17Z</time></trkpt><trkpt lat="40.555841342496436" lon="16.75875807311584"><ele>161.5</ele><time>2026-03-29T09:26:18Z</time></trkpt><trkpt lat="40.555966971411166" lon="16.758828447335333"><ele>161.25</ele><time>2026-03-29T09:26:19Z</time></trkpt><trkpt lat="40.55607788318017" lon="16.75887573779122"><ele>161.0</ele><time>2026-03-29T09:26:20Z</time></trkpt><trkpt lat="40.55617917625483" lon="16.758943814245917"><ele>160.25</ele><time>2026-03-29T09:26:21Z</time></trkpt><trkpt lat="40.556279626347575" lon="16.75902718963825"><ele>159.5</ele><time>2026-03-29T09:26:22Z</time></trkpt><trkpt lat="40.5563522301439" lon="16.759158109123668"><ele>158.75</ele><time>2026-03-29T09:26:23Z</time></trkpt><trkpt lat="40.556428663677494" lon="16.759304774309623"><ele>158.0</ele><time>2026-03-29T09:26:24Z</time></trkpt><trkpt lat="40.55650123976614" lon="16.75946397856878"><ele>157.5</ele><time>2026-03-29T09:26:25Z</time></trkpt><trkpt lat="40.55657688731868" lon="16.759599367621703"><ele>157.0</ele><time>2026-03-29T09:26:26Z</time></trkpt><trkpt lat="40.556630432640965" lon="16.759730387793283"><ele>156.5</ele><time>2026-03-29T09:26:27Z</time></trkpt><trkpt lat="40.55669091975959" lon="16.75984787845766"><ele>156.0</ele><time>2026-03-29T09:26:28Z</time></trkpt><trkpt lat="40.556764949450574" lon="16.75995653535826"><ele>156.0</ele><time>2026-03-29T09:26:29Z</time></trkpt><trkpt lat="40.55685885985832" lon="16.760058120192554"><ele>156.0</ele><time>2026-03-29T09:26:30Z</time></trkpt><trkpt lat="40.556950603793844" lon="16.760136247239924"><ele>156.0</ele><time>2026-03-29T09:26:31Z</time></trkpt><trkpt lat="40.55704776823894" lon="16.760203923747184"><ele>156.0</ele><time>2026-03-29T09:26:32Z</time></trkpt><trkpt lat="40.55714594419832" lon="16.76027635125221"><ele>154.25</ele><time>2026-03-29T09:26:33Z</time></trkpt><trkpt lat="40.55724347984547" lon="16.76034453175281"><ele>152.5</ele><time>2026-03-29T09:26:34Z</time></trkpt><trkpt lat="40.55734969448386" lon="16.76039586020131"><ele>150.75</ele><time>2026-03-29T09:26:35Z</time></trkpt><trkpt lat="40.557473995457066" lon="16.760422826442454"><ele>149.0</ele><time>2026-03-29T09:26:36Z</time></trkpt><trkpt lat="40.55760836813022" lon="16.76041879221822"><ele>149.0</ele><time>2026-03-29T09:26:37Z</time></trkpt><trkpt lat="40.55774970165272" lon="16.76037912095626"><ele>149.0</ele><time>2026-03-29T09:26:38Z</time></trkpt><trkpt lat="40.55791067741953" lon="16.76033645445187"><ele>149.0</ele><time>2026-03-29T09:26:39Z</time></trkpt><trkpt lat="40.55808126938817" lon="16.760267585075976"><ele>149.33333333333331</ele><time>2026-03-29T09:26:40Z</time></trkpt><trkpt lat="40.558250939483045" lon="16.76019638612444"><ele>149.66666666666666</ele><time>2026-03-29T09:26:41Z</time></trkpt><trkpt lat="40.55841390517932" lon="16.76012552128956"><ele>150.0</ele><time>2026-03-29T09:26:42Z</time></trkpt><trkpt lat="40.558581955403056" lon="16.76001923692455"><ele>149.75</ele><time>2026-03-29T09:26:43Z</time></trkpt><trkpt lat="40.55871727364026" lon="16.759907932326172"><ele>149.5</ele><time>2026-03-29T09:26:44Z</time></trkpt><trkpt lat="40.55883480243997" lon="16.759834855132777"><ele>149.25</ele><time>2026-03-29T09:26:45Z</time></trkpt><trkpt lat="40.558942017072845" lon="16.759767559776552"><ele>149.0</ele><time>2026-03-29T09:26:46Z</time></trkpt><trkpt lat="40.55903726872777" lon="16.759709146075416"><ele>149.0</ele><time>2026-03-29T09:26:47Z</time></trkpt><trkpt lat="40.55915146184794" lon="16.759678761826134"><ele>149.0</ele><time>2026-03-29T09:26:48Z</time></trkpt><trkpt lat="40.55929417318502" lon="16.75963370531098"><ele>149.0</ele><time>2026-03-29T09:26:49Z</time></trkpt><trkpt lat="40.55946042113383" lon="16.75960718685091"><ele>149.0</ele><time>2026-03-29T09:26:50Z</time></trkpt><trkpt lat="40.55962864395463" lon="16.759605412476876"><ele>149.5</ele><time>2026-03-29T09:26:51Z</time></trkpt><trkpt lat="40.55976860185841" lon="16.759603516955437"><ele>150.0</ele><time>2026-03-29T09:26:52Z</time></trkpt><trkpt lat="40.55988132810667" lon="16.75963641272616"><ele>150.5</ele><time>2026-03-29T09:26:53Z</time></trkpt><trkpt lat="40.559976760310875" lon="16.759729428451422"><ele>151.0</ele><time>2026-03-29T09:26:54Z</time></trkpt><trkpt lat="40.56008596716917" lon="16.75983006124321"><ele>151.0</ele><time>2026-03-29T09:26:55Z</time></trkpt><trkpt lat="40.56017454248466" lon="16.75997678671827"><ele>151.0</ele><time>2026-03-29T09:26:56Z</time></trkpt><trkpt lat="40.56026538998265" lon="16.76009362005708"><ele>151.0</ele><time>2026-03-29T09:26:57Z</time></trkpt><trkpt lat="40.5603886507338" lon="16.760155170888982"><ele>151.0</ele><time>2026-03-29T09:26:58Z</time></trkpt><trkpt lat="40.56053628060305" lon="16.760177991302754"><ele>151.66666666666669</ele><time>2026-03-29T09:26:59Z</time></trkpt><trkpt lat="40.560701006212334" lon="16.76019877354976"><ele>152.33333333333334</ele><time>2026-03-29T09:27:00Z</time></trkpt><trkpt lat="40.56087124451376" lon="16.760236594713387"><ele>153.0</ele><time>2026-03-29T09:27:01Z</time></trkpt><trkpt lat="40.56105696088755" lon="16.760280901220383"><ele>155.33333333333334</ele><time>2026-03-29T09:27:02Z</time></trkpt><trkpt lat="40.561245130004885" lon="16.760324570498028"><ele>157.66666666666669</ele><time>2026-03-29T09:27:03Z</time></trkpt><trkpt lat="40.561436484028576" lon="16.760360329936393"><ele>160.0</ele><time>2026-03-29T09:27:04Z</time></trkpt><trkpt lat="40.561615997735295" lon="16.760403735170808"><ele>160.0</ele><time>2026-03-29T09:27:05Z</time></trkpt><trkpt lat="40.561788926607825" lon="16.760486447785215"><ele>160.0</ele><time>2026-03-29T09:27:06Z</time></trkpt><trkpt lat="40.561955244551235" lon="16.760605765239852"><ele>160.0</ele><time>2026-03-29T09:27:07Z</time></trkpt><trkpt lat="40.56212017080084" lon="16.760734451354"><ele>161.66666666666669</ele><time>2026-03-29T09:27:08Z</time></trkpt><trkpt lat="40.56227280335255" lon="16.76085895071361"><ele>163.33333333333334</ele><time>2026-03-29T09:27:09Z</time></trkpt><trkpt lat="40.56241703574586" lon="16.760975356063952"><ele>165.0</ele><time>2026-03-29T09:27:10Z</time></trkpt><trkpt lat="40.56256029782032" lon="16.7610836126331"><ele>165.25</ele><time>2026-03-29T09:27:11Z</time></trkpt><trkpt lat="40.5626953667097" lon="16.761174490830953"><ele>165.5</ele><time>2026-03-29T09:27:12Z</time></trkpt><trkpt lat="40.562833101823664" lon="16.761227868955114"><ele>165.75</ele><time>2026-03-29T09:27:13Z</time></trkpt><trkpt lat="40.56297828710799" lon="16.761240832890955"><ele>166.0</ele><time>2026-03-29T09:27:14Z</time></trkpt><trkpt lat="40.56312858084462" lon="16.76122287262593"><ele>167.33333333333334</ele><time>2026-03-29T09:27:15Z</time></trkpt><trkpt lat="40.56328021750637" lon="16.761200576775337"><ele>168.66666666666666</ele><time>2026-03-29T09:27:16Z</time></trkpt><trkpt lat="40.56344196922455" lon="16.761182173383666"><ele>170.0</ele><time>2026-03-29T09:27:17Z</time></trkpt><trkpt lat="40.563599894941724" lon="16.761172197360022"><ele>170.5</ele><time>2026-03-29T09:27:18Z</time></trkpt><trkpt lat="40.56374974415211" lon="16.761166801749848"><ele>171.0</ele><time>2026-03-29T09:27:19Z</time></trkpt><trkpt lat="40.56389470785699" lon="16.76116127021425"><ele>171.5</ele><time>2026-03-29T09:27:20Z</time></trkpt><trkpt lat="40.56404079096513" lon="16.76115415516073"><ele>172.0</ele><time>2026-03-29T09:27:21Z</time></trkpt><trkpt lat="40.564188629540816" lon="16.761147360348673"><ele>172.0</ele><time>2026-03-29T09:27:22Z</time></trkpt><trkpt lat="40.564327114166915" lon="16.76114145055674"><ele>172.0</ele><time>2026-03-29T09:27:23Z</time></trkpt><trkpt lat="40.564464377626486" lon="16.761140560162357"><ele>172.0</ele><time>2026-03-29T09:27:24Z</time></trkpt><trkpt lat="40.56461471583653" lon="16.761138478069885"><ele>172.0</ele><time>2026-03-29T09:27:25Z</time></trkpt><trkpt lat="40.56477240601947" lon="16.761120609063923"><ele>172.75</ele><time>2026-03-29T09:27:26Z</time></trkpt><trkpt lat="40.564916310818326" lon="16.7611135994011"><ele>173.5</ele><time>2026-03-29T09:27:27Z</time></trkpt><trkpt lat="40.56503315003955" lon="16.76114464981967"><ele>174.25</ele><time>2026-03-29T09:27:28Z</time></trkpt><trkpt lat="40.56514232078121" lon="16.761143410122827"><ele>175.0</ele><time>2026-03-29T09:27:29Z</time></trkpt><trkpt lat="40.56524402479068" lon="16.76116504947844"><ele>175.0</ele><time>2026-03-29T09:27:30Z</time></trkpt><trkpt lat="40.56533410107355" lon="16.761189536048523"><ele>175.0</ele><time>2026-03-29T09:27:31Z</time></trkpt><trkpt lat="40.56541184117487" lon="16.761199369627594"><ele>175.0</ele><time>2026-03-29T09:27:32Z</time></trkpt><trkpt lat="40.565482603965926" lon="16.76120662996237"><ele>175.0</ele><time>2026-03-29T09:27:33Z</time></trkpt><trkpt lat="40.565570918636496" lon="16.761286637575502"><ele>175.0</ele><time>2026-03-29T09:27:35Z</time></trkpt><trkpt lat="40.56559965082529" lon="16.761372212596196"><ele>175.0</ele><time>2026-03-29T09:27:38Z</time></trkpt><trkpt lat="40.565630322372584" lon="16.76144919986808"><ele>175.33333333333334</ele><time>2026-03-29T09:27:40Z</time></trkpt><trkpt lat="40.56566954367555" lon="16.76152355366848"><ele>175.66666666666669</ele><time>2026-03-29T09:27:41Z</time></trkpt><trkpt lat="40.56572058664854" lon="16.761579349672218"><ele>176.0</ele><time>2026-03-29T09:27:42Z</time></trkpt><trkpt lat="40.56578443140791" lon="16.761607654277928"><ele>176.33333333333334</ele><time>2026-03-29T09:27:43Z</time></trkpt><trkpt lat="40.56585365958743" lon="16.761589307921174"><ele>176.66666666666666</ele><time>2026-03-29T09:27:44Z</time></trkpt><trkpt lat="40.56592680701203" lon="16.761537075025366"><ele>177.0</ele><time>2026-03-29T09:27:45Z</time></trkpt><trkpt lat="40.566028243289345" lon="16.761509520418784"><ele>177.0</ele><time>2026-03-29T09:27:46Z</time></trkpt><trkpt lat="40.56611414027103" lon="16.761461948522125"><ele>177.0</ele><time>2026-03-29T09:27:47Z</time></trkpt><trkpt lat="40.5661961402066" lon="16.761408465196748"><ele>177.0</ele><time>2026-03-29T09:27:48Z</time></trkpt><trkpt lat="40.566266406413064" lon="16.76135434523061"><ele>177.0</ele><time>2026-03-29T09:27:49Z</time></trkpt><trkpt lat="40.566353058757706" lon="16.761316913263457"><ele>177.0</ele><time>2026-03-29T09:27:50Z</time></trkpt><trkpt lat="40.56643904466857" lon="16.761285319135908"><ele>177.0</ele><time>2026-03-29T09:27:51Z</time></trkpt><trkpt lat="40.566534697191365" lon="16.761289328164832"><ele>177.6</ele><time>2026-03-29T09:27:52Z</time></trkpt><trkpt lat="40.56663039441827" lon="16.761251183749238"><ele>178.2</ele><time>2026-03-29T09:27:53Z</time></trkpt><trkpt lat="40.56672960379714" lon="16.761233048744298"><ele>178.8</ele><time>2026-03-29T09:27:54Z</time></trkpt><trkpt lat="40.5668284827801" lon="16.761218456682876"><ele>179.4</ele><time>2026-03-29T09:27:55Z</time></trkpt><trkpt lat="40.56692297838582" lon="16.76120324567323"><ele>180.0</ele><time>2026-03-29T09:27:56Z</time></trkpt><trkpt lat="40.56701771121197" lon="16.761188473455963"><ele>181.0</ele><time>2026-03-29T09:27:57Z</time></trkpt><trkpt lat="40.567110727595384" lon="16.761178363930668"><ele>182.0</ele><time>2026-03-29T09:27:58Z</time></trkpt><trkpt lat="40.567203771373876" lon="16.76116827611944"><ele>183.0</ele><time>2026-03-29T09:27:59Z</time></trkpt><trkpt lat="40.567296337989426" lon="16.761158043105667"><ele>184.0</ele><time>2026-03-29T09:28:00Z</time></trkpt><trkpt lat="40.56738844712223" lon="16.76115113968279"><ele>185.0</ele><time>2026-03-29T09:28:01Z</time></trkpt><trkpt lat="40.567481218579886" lon="16.761148791228685"><ele>185.0</ele><time>2026-03-29T09:28:02Z</time></trkpt><trkpt lat="40.56756732608597" lon="16.761157962601615"><ele>185.0</ele><time>2026-03-29T09:28:03Z</time></trkpt><trkpt lat="40.56762996451425" lon="16.76118834873176"><ele>185.0</ele><time>2026-03-29T09:28:04Z</time></trkpt><trkpt lat="40.56769205046481" lon="16.761207150102337"><ele>185.0</ele><time>2026-03-29T09:28:06Z</time></trkpt><trkpt lat="40.567683441951885" lon="16.76143047838391"><ele>185.0</ele><time>2026-03-29T09:28:07Z</time></trkpt><trkpt lat="40.5676422439329" lon="16.76156454545077"><ele>185.0</ele><time>2026-03-29T09:28:08Z</time></trkpt><trkpt lat="40.56761307028621" lon="16.76172409073654"><ele>185.0</ele><time>2026-03-29T09:28:09Z</time></trkpt><trkpt lat="40.56759279921913" lon="16.76191411660983"><ele>185.0</ele><time>2026-03-29T09:28:10Z</time></trkpt><trkpt lat="40.56758126171707" lon="16.76211621481755"><ele>185.0</ele><time>2026-03-29T09:28:11Z</time></trkpt><trkpt lat="40.56757203521393" lon="16.762302537163084"><ele>184.25</ele><time>2026-03-29T09:28:12Z</time></trkpt><trkpt lat="40.567568888373465" lon="16.76247388814198"><ele>183.5</ele><time>2026-03-29T09:28:13Z</time></trkpt><trkpt lat="40.56756428849777" lon="16.762629191930056"><ele>182.75</ele><time>2026-03-29T09:28:14Z</time></trkpt><trkpt lat="40.56755689961732" lon="16.762781046082146"><ele>182.0</ele><time>2026-03-29T09:28:15Z</time></trkpt><trkpt lat="40.5675463068971" lon="16.76294500821028"><ele>181.25</ele><time>2026-03-29T09:28:16Z</time></trkpt><trkpt lat="40.56754099177104" lon="16.763122961962033"><ele>180.5</ele><time>2026-03-29T09:28:17Z</time></trkpt><trkpt lat="40.56754604851144" lon="16.763297341929487"><ele>179.75</ele><time>2026-03-29T09:28:18Z</time></trkpt><trkpt lat="40.56756811586791" lon="16.763455206771816"><ele>179.0</ele><time>2026-03-29T09:28:19Z</time></trkpt><trkpt lat="40.56758842270143" lon="16.76360569686967"><ele>178.5</ele><time>2026-03-29T09:28:20Z</time></trkpt><trkpt lat="40.56760921031165" lon="16.763768297617595"><ele>178.0</ele><time>2026-03-29T09:28:21Z</time></trkpt><trkpt lat="40.567629245723374" lon="16.763940738380892"><ele>177.5</ele><time>2026-03-29T09:28:22Z</time></trkpt><trkpt lat="40.56764514588317" lon="16.76410413308979"><ele>177.0</ele><time>2026-03-29T09:28:23Z</time></trkpt><trkpt lat="40.56765990898128" lon="16.76425114657234"><ele>176.6</ele><time>2026-03-29T09:28:24Z</time></trkpt><trkpt lat="40.567676797297985" lon="16.76438543656658"><ele>176.2</ele><time>2026-03-29T09:28:25Z</time></trkpt><trkpt lat="40.56769156672081" lon="16.76451393580286"><ele>175.8</ele><time>2026-03-29T09:28:26Z</time></trkpt><trkpt lat="40.56770403345997" lon="16.7646543010696"><ele>175.4</ele><time>2026-03-29T09:28:27Z</time></trkpt><trkpt lat="40.56772033586705" lon="16.764810338411024"><ele>175.0</ele><time>2026-03-29T09:28:28Z</time></trkpt><trkpt lat="40.56773823579364" lon="16.764971451082108"><ele>175.0</ele><time>2026-03-29T09:28:29Z</time></trkpt><trkpt lat="40.567755496183665" lon="16.765123968000427"><ele>175.0</ele><time>2026-03-29T09:28:30Z</time></trkpt><trkpt lat="40.56777531979578" lon="16.765265705000587"><ele>175.0</ele><time>2026-03-29T09:28:31Z</time></trkpt><trkpt lat="40.56779860547314" lon="16.765410787314348"><ele>175.0</ele><time>2026-03-29T09:28:32Z</time></trkpt><trkpt lat="40.56781923127497" lon="16.765547886079624"><ele>175.0</ele><time>2026-03-29T09:28:33Z</time></trkpt><trkpt lat="40.56783581077166" lon="16.765700732482344"><ele>174.75</ele><time>2026-03-29T09:28:34Z</time></trkpt><trkpt lat="40.567856790633265" lon="16.76586274056455"><ele>174.5</ele><time>2026-03-29T09:28:35Z</time></trkpt><trkpt lat="40.56787884448034" lon="16.766012519048413"><ele>174.25</ele><time>2026-03-29T09:28:36Z</time></trkpt><trkpt lat="40.56790424429972" lon="16.766153720007125"><ele>174.0</ele><time>2026-03-29T09:28:37Z</time></trkpt><trkpt lat="40.567931371897544" lon="16.76630737569461"><ele>172.33333333333334</ele><time>2026-03-29T09:28:38Z</time></trkpt><trkpt lat="40.56797705583434" lon="16.76646843768433"><ele>170.66666666666669</ele><time>2026-03-29T09:28:39Z</time></trkpt><trkpt lat="40.56807068805965" lon="16.766629357835292"><ele>169.0</ele><time>2026-03-29T09:28:40Z</time></trkpt><trkpt lat="40.56819598432473" lon="16.766784408328515"><ele>167.66666666666669</ele><time>2026-03-29T09:28:41Z</time></trkpt><trkpt lat="40.56832752303251" lon="16.766942114939148"><ele>166.33333333333334</ele><time>2026-03-29T09:28:42Z</time></trkpt><trkpt lat="40.568454254917874" lon="16.76710278941137"><ele>165.0</ele><time>2026-03-29T09:28:43Z</time></trkpt><trkpt lat="40.56856541845782" lon="16.767246415993153"><ele>165.0</ele><time>2026-03-29T09:28:44Z</time></trkpt><trkpt lat="40.56864836569134" lon="16.76742282244449"><ele>165.0</ele><time>2026-03-29T09:28:45Z</time></trkpt><trkpt lat="40.56874449075523" lon="16.7676281258728"><ele>165.0</ele><time>2026-03-29T09:28:46Z</time></trkpt><trkpt lat="40.568821801690014" lon="16.7678628945677"><ele>162.66666666666666</ele><time>2026-03-29T09:28:47Z</time></trkpt><trkpt lat="40.56889059323197" lon="16.76812148928789"><ele>160.33333333333331</ele><time>2026-03-29T09:28:48Z</time></trkpt><trkpt lat="40.568935191548974" lon="16.768372433187764"><ele>158.0</ele><time>2026-03-29T09:28:49Z</time></trkpt><trkpt lat="40.56900695873681" lon="16.768601804471025"><ele>157.33333333333331</ele><time>2026-03-29T09:28:50Z</time></trkpt><trkpt lat="40.56905458765314" lon="16.768826455604597"><ele>156.66666666666666</ele><time>2026-03-29T09:28:51Z</time></trkpt><trkpt lat="40.56910142376589" lon="16.7690580550563"><ele>156.0</ele><time>2026-03-29T09:28:52Z</time></trkpt><trkpt lat="40.56915244806305" lon="16.769275390739928"><ele>155.5</ele><time>2026-03-29T09:28:53Z</time></trkpt><trkpt lat="40.56920528010533" lon="16.76947433614008"><ele>155.0</ele><time>2026-03-29T09:28:54Z</time></trkpt><trkpt lat="40.56924824432414" lon="16.769660302904683"><ele>154.5</ele><time>2026-03-29T09:28:55Z</time></trkpt><trkpt lat="40.56926120993681" lon="16.769842673182715"><ele>154.0</ele><time>2026-03-29T09:28:56Z</time></trkpt><trkpt lat="40.56924533740489" lon="16.770027750891902"><ele>154.0</ele><time>2026-03-29T09:28:57Z</time></trkpt><trkpt lat="40.569198808686906" lon="16.770215738145758"><ele>154.0</ele><time>2026-03-29T09:28:58Z</time></trkpt><trkpt lat="40.5691159700673" lon="16.77037916399754"><ele>154.0</ele><time>2026-03-29T09:28:59Z</time></trkpt><trkpt lat="40.56904947049195" lon="16.770532398333398"><ele>154.0</ele><time>2026-03-29T09:29:00Z</time></trkpt><trkpt lat="40.5689860402847" lon="16.77066816162353"><ele>154.0</ele><time>2026-03-29T09:29:01Z</time></trkpt><trkpt lat="40.56891114292104" lon="16.77082015977851"><ele>154.0</ele><time>2026-03-29T09:29:02Z</time></trkpt><trkpt lat="40.56881540010099" lon="16.77100112084579"><ele>154.0</ele><time>2026-03-29T09:29:03Z</time></trkpt><trkpt lat="40.56868588212709" lon="16.771231220966072"><ele>153.66666666666669</ele><time>2026-03-29T09:29:04Z</time></trkpt><trkpt lat="40.56854612024669" lon="16.771473885618537"><ele>153.33333333333334</ele><time>2026-03-29T09:29:05Z</time></trkpt><trkpt lat="40.568428063709355" lon="16.77169671740305"><ele>153.0</ele><time>2026-03-29T09:29:06Z</time></trkpt><trkpt lat="40.56831017271455" lon="16.771879378888034"><ele>153.5</ele><time>2026-03-29T09:29:07Z</time></trkpt><trkpt lat="40.5682128181627" lon="16.772046210723705"><ele>154.0</ele><time>2026-03-29T09:29:08Z</time></trkpt><trkpt lat="40.568122311914365" lon="16.772201221564927"><ele>154.5</ele><time>2026-03-29T09:29:09Z</time></trkpt><trkpt lat="40.56804561530038" lon="16.77233902622785"><ele>155.0</ele><time>2026-03-29T09:29:10Z</time></trkpt><trkpt lat="40.56798159253181" lon="16.77245652892136"><ele>155.0</ele><time>2026-03-29T09:29:11Z</time></trkpt><trkpt lat="40.56793931594333" lon="16.77255031844295"><ele>155.0</ele><time>2026-03-29T09:29:12Z</time></trkpt><trkpt lat="40.56791343808166" lon="16.77263502865419"><ele>155.0</ele><time>2026-03-29T09:29:13Z</time></trkpt><trkpt lat="40.56788579855745" lon="16.77275128247422"><ele>155.0</ele><time>2026-03-29T09:29:15Z</time></trkpt><trkpt lat="40.56806250406229" lon="16.77290115255654"><ele>155.25</ele><time>2026-03-29T09:29:17Z</time></trkpt><trkpt lat="40.56814570326463" lon="16.77299168427976"><ele>155.5</ele><time>2026-03-29T09:29:18Z</time></trkpt><trkpt lat="40.56824851325397" lon="16.77307605530658"><ele>155.75</ele><time>2026-03-29T09:29:19Z</time></trkpt><trkpt lat="40.568355950044456" lon="16.773169318757756"><ele>156.0</ele><time>2026-03-29T09:29:20Z</time></trkpt><trkpt lat="40.56846787472584" lon="16.773267212670255"><ele>156.0</ele><time>2026-03-29T09:29:21Z</time></trkpt><trkpt lat="40.56860317915017" lon="16.77338805406851"><ele>156.0</ele><time>2026-03-29T09:29:22Z</time></trkpt><trkpt lat="40.56875188822302" lon="16.77353029242822"><ele>156.0</ele><time>2026-03-29T09:29:23Z</time></trkpt><trkpt lat="40.56894049428731" lon="16.773642346192116"><ele>158.33333333333334</ele><time>2026-03-29T09:29:24Z</time></trkpt><trkpt lat="40.56911899798853" lon="16.77371639871083"><ele>160.66666666666669</ele><time>2026-03-29T09:29:25Z</time></trkpt><trkpt lat="40.569301983711256" lon="16.773781765356784"><ele>163.0</ele><time>2026-03-29T09:29:26Z</time></trkpt><trkpt lat="40.56947692265284" lon="16.77384632544573"><ele>166.33333333333334</ele><time>2026-03-29T09:29:27Z</time></trkpt><trkpt lat="40.56964070518719" lon="16.773914305392378"><ele>169.66666666666666</ele><time>2026-03-29T09:29:28Z</time></trkpt><trkpt lat="40.569797552511716" lon="16.77398527280785"><ele>173.0</ele><time>2026-03-29T09:29:29Z</time></trkpt><trkpt lat="40.569945467272944" lon="16.774068966768496"><ele>173.0</ele><time>2026-03-29T09:29:30Z</time></trkpt><trkpt lat="40.57008646230688" lon="16.774175241245"><ele>173.0</ele><time>2026-03-29T09:29:31Z</time></trkpt><trkpt lat="40.57021491589419" lon="16.77429375084373"><ele>173.0</ele><time>2026-03-29T09:29:32Z</time></trkpt><trkpt lat="40.57032961716455" lon="16.774412173971818"><ele>175.4</ele><time>2026-03-29T09:29:33Z</time></trkpt><trkpt lat="40.57043258104136" lon="16.774524641664108"><ele>177.8</ele><time>2026-03-29T09:29:34Z</time></trkpt><trkpt lat="40.570516592855654" lon="16.77462309526931"><ele>180.2</ele><time>2026-03-29T09:29:35Z</time></trkpt><trkpt lat="40.5705847233672" lon="16.774705391328187"><ele>182.6</ele><time>2026-03-29T09:29:36Z</time></trkpt><trkpt lat="40.570657486677455" lon="16.77476451102479"><ele>185.0</ele><time>2026-03-29T09:29:37Z</time></trkpt><trkpt lat="40.5707539506383" lon="16.774800146409554"><ele>185.0</ele><time>2026-03-29T09:29:38Z</time></trkpt><trkpt lat="40.57086744085157" lon="16.77480656210184"><ele>185.0</ele><time>2026-03-29T09:29:39Z</time></trkpt><trkpt lat="40.57098262002715" lon="16.774744639377058"><ele>185.0</ele><time>2026-03-29T09:29:40Z</time></trkpt><trkpt lat="40.57109214813301" lon="16.774638190443607"><ele>185.0</ele><time>2026-03-29T09:29:41Z</time></trkpt><trkpt lat="40.571183991221254" lon="16.774502134174515"><ele>187.5</ele><time>2026-03-29T09:29:42Z</time></trkpt><trkpt lat="40.571278923700866" lon="16.774394412021973"><ele>190.0</ele><time>2026-03-29T09:29:43Z</time></trkpt><trkpt lat="40.57137865608101" lon="16.774308135056582"><ele>192.5</ele><time>2026-03-29T09:29:44Z</time></trkpt><trkpt lat="40.57148525799835" lon="16.774251106170205"><ele>195.0</ele><time>2026-03-29T09:29:45Z</time></trkpt><trkpt lat="40.57159424072421" lon="16.77422745608039"><ele>195.0</ele><time>2026-03-29T09:29:46Z</time></trkpt><trkpt lat="40.571724432661476" lon="16.774224172037215"><ele>195.0</ele><time>2026-03-29T09:29:47Z</time></trkpt><trkpt lat="40.571877765230354" lon="16.774229547622102"><ele>195.0</ele><time>2026-03-29T09:29:48Z</time></trkpt><trkpt lat="40.57206522656748" lon="16.774238994726726"><ele>198.0</ele><time>2026-03-29T09:29:49Z</time></trkpt><trkpt lat="40.5722732910569" lon="16.774249764522306"><ele>201.0</ele><time>2026-03-29T09:29:50Z</time></trkpt><trkpt lat="40.572482540616924" lon="16.774251123516073"><ele>204.0</ele><time>2026-03-29T09:29:51Z</time></trkpt><trkpt lat="40.5726719072117" lon="16.774246887055913"><ele>204.0</ele><time>2026-03-29T09:29:52Z</time></trkpt><trkpt lat="40.572854765860995" lon="16.77420792007095"><ele>204.0</ele><time>2026-03-29T09:29:53Z</time></trkpt><trkpt lat="40.57303877897955" lon="16.774129322207155"><ele>204.0</ele><time>2026-03-29T09:29:54Z</time></trkpt><trkpt lat="40.57322027624435" lon="16.774023630925726"><ele>207.33333333333331</ele><time>2026-03-29T09:29:55Z</time></trkpt><trkpt lat="40.57340510815683" lon="16.773916011139654"><ele>210.66666666666666</ele><time>2026-03-29T09:29:56Z</time></trkpt><trkpt lat="40.57359212955468" lon="16.773813059258924"><ele>214.0</ele><time>2026-03-29T09:29:57Z</time></trkpt><trkpt lat="40.573781134802154" lon="16.77370572494867"><ele>214.66666666666666</ele><time>2026-03-29T09:29:58Z</time></trkpt><trkpt lat="40.57397231730015" lon="16.773591846040084"><ele>215.33333333333331</ele><time>2026-03-29T09:29:59Z</time></trkpt><trkpt lat="40.57416150940535" lon="16.773469168743496"><ele>216.0</ele><time>2026-03-29T09:30:00Z</time></trkpt><trkpt lat="40.57434197125514" lon="16.773336441649437"><ele>217.66666666666669</ele><time>2026-03-29T09:30:01Z</time></trkpt><trkpt lat="40.57453080973781" lon="16.77323191419252"><ele>219.33333333333334</ele><time>2026-03-29T09:30:02Z</time></trkpt><trkpt lat="40.574710372552765" lon="16.773116215121473"><ele>221.0</ele><time>2026-03-29T09:30:03Z</time></trkpt><trkpt lat="40.57489028309907" lon="16.773004152543972"><ele>221.0</ele><time>2026-03-29T09:30:04Z</time></trkpt><trkpt lat="40.57507097627559" lon="16.772898466244417"><ele>221.0</ele><time>2026-03-29T09:30:05Z</time></trkpt><trkpt lat="40.57526542324797" lon="16.772803365435234"><ele>221.0</ele><time>2026-03-29T09:30:06Z</time></trkpt><trkpt lat="40.57547409515914" lon="16.772722727849693"><ele>223.5</ele><time>2026-03-29T09:30:07Z</time></trkpt><trkpt lat="40.575683181934814" lon="16.772625485363005"><ele>226.0</ele><time>2026-03-29T09:30:08Z</time></trkpt><trkpt lat="40.57590646455782" lon="16.772547024559593"><ele>226.0</ele><time>2026-03-29T09:30:09Z</time></trkpt><trkpt lat="40.576129346894604" lon="16.77246723715822"><ele>226.0</ele><time>2026-03-29T09:30:10Z</time></trkpt><trkpt lat="40.57634698331851" lon="16.77239236613537"><ele>227.0</ele><time>2026-03-29T09:30:11Z</time></trkpt><trkpt lat="40.57655680012582" lon="16.772320839122038"><ele>228.0</ele><time>2026-03-29T09:30:12Z</time></trkpt><trkpt lat="40.57675001483451" lon="16.77224229374599"><ele>229.0</ele><time>2026-03-29T09:30:13Z</time></trkpt><trkpt lat="40.576944022770554" lon="16.77215461564345"><ele>229.66666666666666</ele><time>2026-03-29T09:30:14Z</time></trkpt><trkpt lat="40.577132901866875" lon="16.772042642877306"><ele>230.33333333333331</ele><time>2026-03-29T09:30:15Z</time></trkpt><trkpt lat="40.577316911313176" lon="16.77190398276601"><ele>231.0</ele><time>2026-03-29T09:30:16Z</time></trkpt><trkpt lat="40.57749229100376" lon="16.771751004200834"><ele>232.33333333333331</ele><time>2026-03-29T09:30:17Z</time></trkpt><trkpt lat="40.57766371454013" lon="16.771583295720912"><ele>233.66666666666666</ele><time>2026-03-29T09:30:18Z</time></trkpt><trkpt lat="40.57782508256888" lon="16.771404708228417"><ele>235.0</ele><time>2026-03-29T09:30:19Z</time></trkpt><trkpt lat="40.577978775225354" lon="16.77121006437601"><ele>239.33333333333331</ele><time>2026-03-29T09:30:20Z</time></trkpt><trkpt lat="40.578123256244275" lon="16.77100066897454"><ele>243.66666666666669</ele><time>2026-03-29T09:30:21Z</time></trkpt><trkpt lat="40.57826262213388" lon="16.770780366325475"><ele>248.0</ele><time>2026-03-29T09:30:22Z</time></trkpt><trkpt lat="40.57839863638327" lon="16.7705606394806"><ele>248.0</ele><time>2026-03-29T09:30:23Z</time></trkpt><trkpt lat="40.57853981466616" lon="16.77034150175991"><ele>248.0</ele><time>2026-03-29T09:30:24Z</time></trkpt><trkpt lat="40.578679653143865" lon="16.77012073155431"><ele>248.0</ele><time>2026-03-29T09:30:25Z</time></trkpt><trkpt lat="40.57881881753436" lon="16.769895715016343"><ele>254.5</ele><time>2026-03-29T09:30:26Z</time></trkpt><trkpt lat="40.57896043574801" lon="16.769669627800834"><ele>261.0</ele><time>2026-03-29T09:30:27Z</time></trkpt><trkpt lat="40.57910618755061" lon="16.76943943383536"><ele>262.0</ele><time>2026-03-29T09:30:28Z</time></trkpt><trkpt lat="40.57925478307088" lon="16.76921038868706"><ele>263.0</ele><time>2026-03-29T09:30:29Z</time></trkpt><trkpt lat="40.57940347319452" lon="16.76898523189012"><ele>266.5</ele><time>2026-03-29T09:30:30Z</time></trkpt><trkpt lat="40.57955073721957" lon="16.768758346515348"><ele>270.0</ele><time>2026-03-29T09:30:31Z</time></trkpt><trkpt lat="40.57969596014033" lon="16.768533366907523"><ele>270.3333333333333</ele><time>2026-03-29T09:30:32Z</time></trkpt><trkpt lat="40.579839659490155" lon="16.76831219683873"><ele>270.66666666666663</ele><time>2026-03-29T09:30:33Z</time></trkpt><trkpt lat="40.579978009723646" lon="16.76809553030535"><ele>271.0</ele><time>2026-03-29T09:30:34Z</time></trkpt><trkpt lat="40.580103181350836" lon="16.76789849839924"><ele>271.0</ele><time>2026-03-29T09:30:35Z</time></trkpt><trkpt lat="40.58022578663907" lon="16.767744541868044"><ele>271.0</ele><time>2026-03-29T09:30:36Z</time></trkpt><trkpt lat="40.5803283834024" lon="16.767590574636664"><ele>271.0</ele><time>2026-03-29T09:30:37Z</time></trkpt><trkpt lat="40.58043338159926" lon="16.767421367642918"><ele>272.66666666666663</ele><time>2026-03-29T09:30:38Z</time></trkpt><trkpt lat="40.58058709418574" lon="16.767281352194384"><ele>274.3333333333333</ele><time>2026-03-29T09:30:39Z</time></trkpt><trkpt lat="40.58075878613585" lon="16.767172944463198"><ele>276.0</ele><time>2026-03-29T09:30:40Z</time></trkpt><trkpt lat="40.58095371170797" lon="16.767094724807375"><ele>276.0</ele><time>2026-03-29T09:30:41Z</time></trkpt><trkpt lat="40.581160592029015" lon="16.767059599969304"><ele>276.0</ele><time>2026-03-29T09:30:42Z</time></trkpt><trkpt lat="40.58137512106191" lon="16.76706807901483"><ele>276.0</ele><time>2026-03-29T09:30:43Z</time></trkpt><trkpt lat="40.58159089482224" lon="16.767128506677903"><ele>277.0</ele><time>2026-03-29T09:30:44Z</time></trkpt><trkpt lat="40.581796228974945" lon="16.767230133909084"><ele>278.0</ele><time>2026-03-29T09:30:45Z</time></trkpt><trkpt lat="40.58197478889568" lon="16.767372688772713"><ele>279.0</ele><time>2026-03-29T09:30:46Z</time></trkpt><trkpt lat="40.58215229235617" lon="16.76754287167571"><ele>280.5</ele><time>2026-03-29T09:30:47Z</time></trkpt><trkpt lat="40.582336651115135" lon="16.76771558124671"><ele>282.0</ele><time>2026-03-29T09:30:48Z</time></trkpt><trkpt lat="40.58252606283221" lon="16.767879100323075"><ele>282.0</ele><time>2026-03-29T09:30:49Z</time></trkpt><trkpt lat="40.58272317539999" lon="16.768047833956654"><ele>282.0</ele><time>2026-03-29T09:30:50Z</time></trkpt><trkpt lat="40.58292493902465" lon="16.76822172171709"><ele>283.0</ele><time>2026-03-29T09:30:51Z</time></trkpt><trkpt lat="40.58313224837701" lon="16.768400135551147"><ele>284.0</ele><time>2026-03-29T09:30:52Z</time></trkpt><trkpt lat="40.58333604202734" lon="16.768588016236134"><ele>284.0</ele><time>2026-03-29T09:30:53Z</time></trkpt><trkpt lat="40.58354460530272" lon="16.768781270846382"><ele>284.0</ele><time>2026-03-29T09:30:54Z</time></trkpt><trkpt lat="40.58375654448894" lon="16.7689717790894"><ele>286.0</ele><time>2026-03-29T09:30:55Z</time></trkpt><trkpt lat="40.583976324488866" lon="16.769163291206983"><ele>288.0</ele><time>2026-03-29T09:30:56Z</time></trkpt><trkpt lat="40.58419491424342" lon="16.769352499901167"><ele>287.5</ele><time>2026-03-29T09:30:57Z</time></trkpt><trkpt lat="40.584415888124205" lon="16.76954457521924"><ele>287.0</ele><time>2026-03-29T09:30:58Z</time></trkpt><trkpt lat="40.58463854121898" lon="16.769730861689528"><ele>287.0</ele><time>2026-03-29T09:30:59Z</time></trkpt><trkpt lat="40.58485715370738" lon="16.769911873820046"><ele>287.0</ele><time>2026-03-29T09:31:00Z</time></trkpt><trkpt lat="40.58507660656072" lon="16.7700892845459"><ele>288.0</ele><time>2026-03-29T09:31:01Z</time></trkpt><trkpt lat="40.585299481557676" lon="16.770265527594425"><ele>289.0</ele><time>2026-03-29T09:31:02Z</time></trkpt><trkpt lat="40.58552524297051" lon="16.7704426606929"><ele>289.0</ele><time>2026-03-29T09:31:03Z</time></trkpt><trkpt lat="40.58574272067625" lon="16.770616031955917"><ele>289.0</ele><time>2026-03-29T09:31:04Z</time></trkpt><trkpt lat="40.58595947409057" lon="16.77078719684018"><ele>289.0</ele><time>2026-03-29T09:31:05Z</time></trkpt><trkpt lat="40.58617111774132" lon="16.770952531170582"><ele>289.0</ele><time>2026-03-29T09:31:06Z</time></trkpt><trkpt lat="40.58637323213941" lon="16.771110269234896"><ele>291.0</ele><time>2026-03-29T09:31:07Z</time></trkpt><trkpt lat="40.58655112236445" lon="16.771254468641875"><ele>293.0</ele><time>2026-03-29T09:31:08Z</time></trkpt><trkpt lat="40.586713782124264" lon="16.771386065581098"><ele>295.0</ele><time>2026-03-29T09:31:09Z</time></trkpt><trkpt lat="40.586858071081764" lon="16.77149831742888"><ele>295.0</ele><time>2026-03-29T09:31:10Z</time></trkpt><trkpt lat="40.586996064532094" lon="16.7715865442734"><ele>295.0</ele><time>2026-03-29T09:31:11Z</time></trkpt><trkpt lat="40.58714972789358" lon="16.771624458961757"><ele>295.0</ele><time>2026-03-29T09:31:12Z</time></trkpt><trkpt lat="40.58732272564839" lon="16.771612488075842"><ele>296.0</ele><time>2026-03-29T09:31:13Z</time></trkpt><trkpt lat="40.58749935322782" lon="16.77156148928937"><ele>297.0</ele><time>2026-03-29T09:31:14Z</time></trkpt><trkpt lat="40.5876888369553" lon="16.771510754665638"><ele>298.0</ele><time>2026-03-29T09:31:15Z</time></trkpt><trkpt lat="40.587885633688664" lon="16.77147276927748"><ele>299.3333333333333</ele><time>2026-03-29T09:31:16Z</time></trkpt><trkpt lat="40.58809201396956" lon="16.77144601626425"><ele>300.6666666666667</ele><time>2026-03-29T09:31:17Z</time></trkpt><trkpt lat="40.5882992713416" lon="16.77141900590865"><ele>302.0</ele><time>2026-03-29T09:31:18Z</time></trkpt><trkpt lat="40.58849680208616" lon="16.771380404910076"><ele>304.0</ele><time>2026-03-29T09:31:19Z</time></trkpt><trkpt lat="40.5886935026453" lon="16.771315364291297"><ele>306.0</ele><time>2026-03-29T09:31:20Z</time></trkpt><trkpt lat="40.58889438709719" lon="16.771222185375294"><ele>308.0</ele><time>2026-03-29T09:31:21Z</time></trkpt><trkpt lat="40.5890966157491" lon="16.771109575172286"><ele>305.0</ele><time>2026-03-29T09:31:22Z</time></trkpt><trkpt lat="40.58930083430768" lon="16.770976333464034"><ele>302.0</ele><time>2026-03-29T09:31:23Z</time></trkpt><trkpt lat="40.58950624097412" lon="16.770837449374607"><ele>306.0</ele><time>2026-03-29T09:31:24Z</time></trkpt><trkpt lat="40.5897129912016" lon="16.770702587110954"><ele>310.0</ele><time>2026-03-29T09:31:25Z</time></trkpt><trkpt lat="40.5899208406559" lon="16.77057379743993"><ele>310.0</ele><time>2026-03-29T09:31:26Z</time></trkpt><trkpt lat="40.59013230758448" lon="16.770444660321026"><ele>310.0</ele><time>2026-03-29T09:31:27Z</time></trkpt><trkpt lat="40.590344008647136" lon="16.770313145969197"><ele>307.5</ele><time>2026-03-29T09:31:28Z</time></trkpt><trkpt lat="40.59055286057911" lon="16.770183690110418"><ele>305.0</ele><time>2026-03-29T09:31:29Z</time></trkpt><trkpt lat="40.590757872321674" lon="16.77005298450425"><ele>305.0</ele><time>2026-03-29T09:31:30Z</time></trkpt><trkpt lat="40.59096014658817" lon="16.769913484617668"><ele>305.0</ele><time>2026-03-29T09:31:31Z</time></trkpt><trkpt lat="40.591154878411864" lon="16.769761511122802"><ele>305.0</ele><time>2026-03-29T09:31:32Z</time></trkpt><trkpt lat="40.591333611104844" lon="16.769569207767116"><ele>305.0</ele><time>2026-03-29T09:31:33Z</time></trkpt><trkpt lat="40.59148785408635" lon="16.769331038145587"><ele>305.0</ele><time>2026-03-29T09:31:34Z</time></trkpt><trkpt lat="40.59164531058665" lon="16.769083860339567"><ele>305.0</ele><time>2026-03-29T09:31:35Z</time></trkpt><trkpt lat="40.5918076357347" lon="16.76884257449932"><ele>305.0</ele><time>2026-03-29T09:31:36Z</time></trkpt><trkpt lat="40.59197804844064" lon="16.768592023015014"><ele>305.0</ele><time>2026-03-29T09:31:37Z</time></trkpt><trkpt lat="40.59215410280088" lon="16.768337347547806"><ele>304.0</ele><time>2026-03-29T09:31:38Z</time></trkpt><trkpt lat="40.59232887510463" lon="16.76808415584104"><ele>303.0</ele><time>2026-03-29T09:31:39Z</time></trkpt><trkpt lat="40.5925098526795" lon="16.767821419639798"><ele>303.0</ele><time>2026-03-29T09:31:40Z</time></trkpt><trkpt lat="40.59268347515341" lon="16.767567824296147"><ele>303.0</ele><time>2026-03-29T09:31:41Z</time></trkpt><trkpt lat="40.592848672198265" lon="16.767325196146427"><ele>303.0</ele><time>2026-03-29T09:31:42Z</time></trkpt><trkpt lat="40.59300922837065" lon="16.767089915282703"><ele>303.0</ele><time>2026-03-29T09:31:43Z</time></trkpt><trkpt lat="40.59316654175396" lon="16.76685470886881"><ele>301.5</ele><time>2026-03-29T09:31:44Z</time></trkpt><trkpt lat="40.593320406674934" lon="16.766626989071508"><ele>300.0</ele><time>2026-03-29T09:31:45Z</time></trkpt><trkpt lat="40.59347054107435" lon="16.766409614821086"><ele>300.0</ele><time>2026-03-29T09:31:46Z</time></trkpt><trkpt lat="40.59361286914659" lon="16.766196628996408"><ele>300.0</ele><time>2026-03-29T09:31:47Z</time></trkpt><trkpt lat="40.59374857795921" lon="16.765988167325943"><ele>300.0</ele><time>2026-03-29T09:31:48Z</time></trkpt><trkpt lat="40.5938807289564" lon="16.765778993796616"><ele>300.0</ele><time>2026-03-29T09:31:49Z</time></trkpt><trkpt lat="40.59399772008961" lon="16.76554676135613"><ele>300.0</ele><time>2026-03-29T09:31:50Z</time></trkpt><trkpt lat="40.59410268658308" lon="16.765288391112076"><ele>300.0</ele><time>2026-03-29T09:31:51Z</time></trkpt><trkpt lat="40.59419228513812" lon="16.76501144403086"><ele>300.0</ele><time>2026-03-29T09:31:52Z</time></trkpt><trkpt lat="40.59426136498799" lon="16.764742680727043"><ele>300.0</ele><time>2026-03-29T09:31:53Z</time></trkpt><trkpt lat="40.59430623717407" lon="16.764489081849888"><ele>300.0</ele><time>2026-03-29T09:31:54Z</time></trkpt><trkpt lat="40.59433930672198" lon="16.764226365045825"><ele>299.6666666666667</ele><time>2026-03-29T09:31:55Z</time></trkpt><trkpt lat="40.59435525794202" lon="16.76395629089328"><ele>299.33333333333337</ele><time>2026-03-29T09:31:56Z</time></trkpt><trkpt lat="40.59435823393758" lon="16.763693828508753"><ele>299.0</ele><time>2026-03-29T09:31:57Z</time></trkpt><trkpt lat="40.59435489037173" lon="16.76345348988958"><ele>299.0</ele><time>2026-03-29T09:31:58Z</time></trkpt><trkpt lat="40.594346584156625" lon="16.763228649221812"><ele>299.0</ele><time>2026-03-29T09:31:59Z</time></trkpt><trkpt lat="40.59432598381018" lon="16.763024369685855"><ele>299.0</ele><time>2026-03-29T09:32:00Z</time></trkpt><trkpt lat="40.59427992715697" lon="16.762844048085338"><ele>299.2</ele><time>2026-03-29T09:32:01Z</time></trkpt><trkpt lat="40.59422410502119" lon="16.762686139179866"><ele>299.4</ele><time>2026-03-29T09:32:02Z</time></trkpt><trkpt lat="40.59417556575871" lon="16.762540414439687"><ele>299.6</ele><time>2026-03-29T09:32:03Z</time></trkpt><trkpt lat="40.594134929779045" lon="16.762409880935305"><ele>299.8</ele><time>2026-03-29T09:32:04Z</time></trkpt><trkpt lat="40.59411585498978" lon="16.762302120429545"><ele>300.0</ele><time>2026-03-29T09:32:05Z</time></trkpt><trkpt lat="40.594096102191806" lon="16.762190153385628"><ele>300.0</ele><time>2026-03-29T09:32:07Z</time></trkpt><trkpt lat="40.59420507780016" lon="16.762111927651656"><ele>300.0</ele><time>2026-03-29T09:32:08Z</time></trkpt><trkpt lat="40.59430131117881" lon="16.762074810677678"><ele>300.0</ele><time>2026-03-29T09:32:09Z</time></trkpt><trkpt lat="40.59442399930803" lon="16.762017211919495"><ele>300.0</ele><time>2026-03-29T09:32:10Z</time></trkpt><trkpt lat="40.594559865525" lon="16.761953708717428"><ele>303.6666666666667</ele><time>2026-03-29T09:32:11Z</time></trkpt><trkpt lat="40.594706297220455" lon="16.761905620561368"><ele>307.33333333333337</ele><time>2026-03-29T09:32:12Z</time></trkpt><trkpt lat="40.59486180533301" lon="16.761894051943283"><ele>311.0</ele><time>2026-03-29T09:32:13Z</time></trkpt><trkpt lat="40.59502096246709" lon="16.761918461427104"><ele>311.0</ele><time>2026-03-29T09:32:14Z</time></trkpt><trkpt lat="40.595170811598926" lon="16.76197905719752"><ele>311.0</ele><time>2026-03-29T09:32:15Z</time></trkpt><trkpt lat="40.59530596708007" lon="16.762070710224158"><ele>311.0</ele><time>2026-03-29T09:32:16Z</time></trkpt><trkpt lat="40.59542142794942" lon="16.76217036085486"><ele>311.0</ele><time>2026-03-29T09:32:17Z</time></trkpt><trkpt lat="40.595520291829885" lon="16.76228137694039"><ele>312.5</ele><time>2026-03-29T09:32:18Z</time></trkpt><trkpt lat="40.59560716694493" lon="16.76241639804044"><ele>314.0</ele><time>2026-03-29T09:32:19Z</time></trkpt><trkpt lat="40.59568126838517" lon="16.76257215738458"><ele>315.5</ele><time>2026-03-29T09:32:20Z</time></trkpt><trkpt lat="40.595746069805216" lon="16.76274345943258"><ele>317.0</ele><time>2026-03-29T09:32:21Z</time></trkpt><trkpt lat="40.59578663264577" lon="16.762935389486792"><ele>317.0</ele><time>2026-03-29T09:32:22Z</time></trkpt><trkpt lat="40.59585039883948" lon="16.763127780983446"><ele>317.0</ele><time>2026-03-29T09:32:23Z</time></trkpt><trkpt lat="40.59589345032836" lon="16.76334364206815"><ele>317.0</ele><time>2026-03-29T09:32:24Z</time></trkpt><trkpt lat="40.59595125490532" lon="16.76357096726628"><ele>314.0</ele><time>2026-03-29T09:32:25Z</time></trkpt><trkpt lat="40.59601583349409" lon="16.763813742095056"><ele>311.0</ele><time>2026-03-29T09:32:26Z</time></trkpt><trkpt lat="40.59608262149268" lon="16.76407414917657"><ele>308.0</ele><time>2026-03-29T09:32:27Z</time></trkpt><trkpt lat="40.596154604686916" lon="16.7643472437079"><ele>312.0</ele><time>2026-03-29T09:32:28Z</time></trkpt><trkpt lat="40.59622863370747" lon="16.764630272751184"><ele>316.0</ele><time>2026-03-29T09:32:29Z</time></trkpt><trkpt lat="40.59630416261634" lon="16.764926464403093"><ele>318.5</ele><time>2026-03-29T09:32:30Z</time></trkpt><trkpt lat="40.59638514662719" lon="16.765233359707235"><ele>321.0</ele><time>2026-03-29T09:32:31Z</time></trkpt><trkpt lat="40.59646883259324" lon="16.765552475590287"><ele>321.0</ele><time>2026-03-29T09:32:32Z</time></trkpt><trkpt lat="40.59654907876743" lon="16.765879439329847"><ele>321.0</ele><time>2026-03-29T09:32:33Z</time></trkpt><trkpt lat="40.59662793929872" lon="16.7662004369337"><ele>323.5</ele><time>2026-03-29T09:32:34Z</time></trkpt><trkpt lat="40.596704018890215" lon="16.766501675105907"><ele>326.0</ele><time>2026-03-29T09:32:35Z</time></trkpt><trkpt lat="40.59677781580025" lon="16.76678866381566"><ele>327.0</ele><time>2026-03-29T09:32:36Z</time></trkpt><trkpt lat="40.59685523364283" lon="16.767081063798205"><ele>328.0</ele><time>2026-03-29T09:32:37Z</time></trkpt><trkpt lat="40.59693024220108" lon="16.76737956102755"><ele>328.0</ele><time>2026-03-29T09:32:38Z</time></trkpt><trkpt lat="40.5970024297019" lon="16.767681876824316"><ele>328.0</ele><time>2026-03-29T09:32:39Z</time></trkpt><trkpt lat="40.59707678834586" lon="16.76798484469618"><ele>330.0</ele><time>2026-03-29T09:32:40Z</time></trkpt><trkpt lat="40.59715445646483" lon="16.768289007529454"><ele>332.0</ele><time>2026-03-29T09:32:41Z</time></trkpt><trkpt lat="40.59723224010921" lon="16.768594757573105"><ele>333.0</ele><time>2026-03-29T09:32:42Z</time></trkpt><trkpt lat="40.59730700166182" lon="16.768897560892043"><ele>334.0</ele><time>2026-03-29T09:32:43Z</time></trkpt><trkpt lat="40.59738277143137" lon="16.769196704179347"><ele>335.0</ele><time>2026-03-29T09:32:44Z</time></trkpt><trkpt lat="40.59745688939751" lon="16.76949715832453"><ele>336.0</ele><time>2026-03-29T09:32:45Z</time></trkpt><trkpt lat="40.5975326777106" lon="16.76979892101378"><ele>336.0</ele><time>2026-03-29T09:32:46Z</time></trkpt><trkpt lat="40.59761283543808" lon="16.77010014027908"><ele>336.0</ele><time>2026-03-29T09:32:47Z</time></trkpt><trkpt lat="40.59769201727685" lon="16.770403570561815"><ele>337.5</ele><time>2026-03-29T09:32:48Z</time></trkpt><trkpt lat="40.59777156941127" lon="16.770705455899897"><ele>339.0</ele><time>2026-03-29T09:32:49Z</time></trkpt><trkpt lat="40.597850202848825" lon="16.771003743119536"><ele>341.0</ele><time>2026-03-29T09:32:50Z</time></trkpt><trkpt lat="40.59793434009957" lon="16.771293196857805"><ele>343.0</ele><time>2026-03-29T09:32:51Z</time></trkpt><trkpt lat="40.59803503951924" lon="16.771568414969845"><ele>343.0</ele><time>2026-03-29T09:32:52Z</time></trkpt><trkpt lat="40.598159021848815" lon="16.771825930710403"><ele>343.0</ele><time>2026-03-29T09:32:53Z</time></trkpt><trkpt lat="40.59830089011482" lon="16.77206039504948"><ele>343.0</ele><time>2026-03-29T09:32:54Z</time></trkpt><trkpt lat="40.598458585525805" lon="16.772268515710483"><ele>343.0</ele><time>2026-03-29T09:32:55Z</time></trkpt><trkpt lat="40.59864448161395" lon="16.77247131184341"><ele>343.0</ele><time>2026-03-29T09:32:56Z</time></trkpt><trkpt lat="40.59884924503781" lon="16.77267966875903"><ele>343.0</ele><time>2026-03-29T09:32:57Z</time></trkpt><trkpt lat="40.599063960076194" lon="16.772896988858374"><ele>343.0</ele><time>2026-03-29T09:32:58Z</time></trkpt><trkpt lat="40.59927268714057" lon="16.773122691085142"><ele>343.0</ele><time>2026-03-29T09:32:59Z</time></trkpt><trkpt lat="40.5994732778582" lon="16.773339795419357"><ele>344.5</ele><time>2026-03-29T09:33:00Z</time></trkpt><trkpt lat="40.599671400406336" lon="16.773552668186458"><ele>346.0</ele><time>2026-03-29T09:33:01Z</time></trkpt><trkpt lat="40.59986972526917" lon="16.773764772723933"><ele>346.0</ele><time>2026-03-29T09:33:02Z</time></trkpt><trkpt lat="40.600066937153784" lon="16.773978296933272"><ele>346.0</ele><time>2026-03-29T09:33:03Z</time></trkpt><trkpt lat="40.60026427891582" lon="16.774190129805874"><ele>345.5</ele><time>2026-03-29T09:33:04Z</time></trkpt><trkpt lat="40.60046222359095" lon="16.774400599462815"><ele>345.0</ele><time>2026-03-29T09:33:05Z</time></trkpt><trkpt lat="40.60065840716276" lon="16.77461530421702"><ele>345.0</ele><time>2026-03-29T09:33:06Z</time></trkpt><trkpt lat="40.60085632253375" lon="16.774829189921487"><ele>345.0</ele><time>2026-03-29T09:33:07Z</time></trkpt><trkpt lat="40.60105754881065" lon="16.77504171874099"><ele>344.5</ele><time>2026-03-29T09:33:08Z</time></trkpt><trkpt lat="40.601263379559434" lon="16.77525587805274"><ele>344.0</ele><time>2026-03-29T09:33:09Z</time></trkpt><trkpt lat="40.60146874898594" lon="16.775476152539134"><ele>344.0</ele><time>2026-03-29T09:33:10Z</time></trkpt><trkpt lat="40.601676129529466" lon="16.775701795496975"><ele>344.0</ele><time>2026-03-29T09:33:11Z</time></trkpt><trkpt lat="40.601890143824576" lon="16.77593788246522"><ele>344.5</ele><time>2026-03-29T09:33:12Z</time></trkpt><trkpt lat="40.60210869950531" lon="16.776176327543844"><ele>345.0</ele><time>2026-03-29T09:33:13Z</time></trkpt><trkpt lat="40.602332595201325" lon="16.776415912660347"><ele>345.0</ele><time>2026-03-29T09:33:14Z</time></trkpt><trkpt lat="40.60256259713208" lon="16.77666090378202"><ele>345.0</ele><time>2026-03-29T09:33:15Z</time></trkpt><trkpt lat="40.60279301612795" lon="16.776909276717067"><ele>344.0</ele><time>2026-03-29T09:33:16Z</time></trkpt><trkpt lat="40.603024352014735" lon="16.77715764131697"><ele>343.0</ele><time>2026-03-29T09:33:17Z</time></trkpt><trkpt lat="40.60325538919547" lon="16.777405680266146"><ele>343.0</ele><time>2026-03-29T09:33:18Z</time></trkpt><trkpt lat="40.603488348725826" lon="16.777656251351296"><ele>343.0</ele><time>2026-03-29T09:33:19Z</time></trkpt><trkpt lat="40.603723363414616" lon="16.77790962973238"><ele>342.5</ele><time>2026-03-29T09:33:20Z</time></trkpt><trkpt lat="40.60395827728732" lon="16.77816266871761"><ele>342.0</ele><time>2026-03-29T09:33:21Z</time></trkpt><trkpt lat="40.60419254002505" lon="16.778413041251483"><ele>341.5</ele><time>2026-03-29T09:33:22Z</time></trkpt><trkpt lat="40.60442621122748" lon="16.778663597364275"><ele>341.0</ele><time>2026-03-29T09:33:23Z</time></trkpt><trkpt lat="40.604660474918376" lon="16.77891663552277"><ele>340.5</ele><time>2026-03-29T09:33:24Z</time></trkpt><trkpt lat="40.60489346250033" lon="16.779169913285646"><ele>340.0</ele><time>2026-03-29T09:33:25Z</time></trkpt><trkpt lat="40.605126560533044" lon="16.779420521274588"><ele>339.5</ele><time>2026-03-29T09:33:26Z</time></trkpt><trkpt lat="40.60535927347433" lon="16.779669238270888"><ele>339.0</ele><time>2026-03-29T09:33:27Z</time></trkpt><trkpt lat="40.60558972752618" lon="16.779915359598327"><ele>339.0</ele><time>2026-03-29T09:33:28Z</time></trkpt><trkpt lat="40.60581645351437" lon="16.78015991344816"><ele>339.0</ele><time>2026-03-29T09:33:29Z</time></trkpt><trkpt lat="40.60604100854591" lon="16.780403070927996"><ele>338.5</ele><time>2026-03-29T09:33:30Z</time></trkpt><trkpt lat="40.606264595061404" lon="16.78064552875724"><ele>338.0</ele><time>2026-03-29T09:33:31Z</time></trkpt><trkpt lat="40.606491741386044" lon="16.78088989580495"><ele>337.5</ele><time>2026-03-29T09:33:32Z</time></trkpt><trkpt lat="40.60672151127118" lon="16.78113775708094"><ele>337.0</ele><time>2026-03-29T09:33:33Z</time></trkpt><trkpt lat="40.606953546002735" lon="16.781387342893446"><ele>337.0</ele><time>2026-03-29T09:33:34Z</time></trkpt><trkpt lat="40.6071882808375" lon="16.78164217101399"><ele>337.0</ele><time>2026-03-29T09:33:35Z</time></trkpt><trkpt lat="40.60742284073319" lon="16.781899073374404"><ele>336.0</ele><time>2026-03-29T09:33:36Z</time></trkpt><trkpt lat="40.607657768811926" lon="16.78215508279147"><ele>335.0</ele><time>2026-03-29T09:33:37Z</time></trkpt><trkpt lat="40.60789391710252" lon="16.782405722203976"><ele>335.0</ele><time>2026-03-29T09:33:38Z</time></trkpt><trkpt lat="40.608131295866094" lon="16.782656112241753"><ele>335.0</ele><time>2026-03-29T09:33:39Z</time></trkpt><trkpt lat="40.60836536702616" lon="16.782901510291513"><ele>334.5</ele><time>2026-03-29T09:33:40Z</time></trkpt><trkpt lat="40.60859450860754" lon="16.783148812529618"><ele>334.0</ele><time>2026-03-29T09:33:41Z</time></trkpt><trkpt lat="40.60882265825554" lon="16.78339795939876"><ele>335.0</ele><time>2026-03-29T09:33:42Z</time></trkpt><trkpt lat="40.609052031652354" lon="16.783642325408728"><ele>336.0</ele><time>2026-03-29T09:33:43Z</time></trkpt><trkpt lat="40.609280014490466" lon="16.783885080321838"><ele>336.0</ele><time>2026-03-29T09:33:44Z</time></trkpt><trkpt lat="40.609510690898105" lon="16.784130114257014"><ele>336.0</ele><time>2026-03-29T09:33:45Z</time></trkpt><trkpt lat="40.6097404433768" lon="16.784376524118017"><ele>336.0</ele><time>2026-03-29T09:33:46Z</time></trkpt><trkpt lat="40.60996519919038" lon="16.7846200704668"><ele>336.0</ele><time>2026-03-29T09:33:47Z</time></trkpt><trkpt lat="40.610187552866456" lon="16.784861481945548"><ele>336.0</ele><time>2026-03-29T09:33:48Z</time></trkpt><trkpt lat="40.61040136969821" lon="16.785086894855237"><ele>336.0</ele><time>2026-03-29T09:33:49Z</time></trkpt><trkpt lat="40.61060283068467" lon="16.785298626007666"><ele>336.0</ele><time>2026-03-29T09:33:50Z</time></trkpt><trkpt lat="40.61080593674558" lon="16.78551506702053"><ele>336.0</ele><time>2026-03-29T09:33:51Z</time></trkpt><trkpt lat="40.61101624164417" lon="16.785733419423003"><ele>336.0</ele><time>2026-03-29T09:33:52Z</time></trkpt><trkpt lat="40.611227294054295" lon="16.785948470142515"><ele>336.0</ele><time>2026-03-29T09:33:53Z</time></trkpt><trkpt lat="40.61144567135049" lon="16.78617149385835"><ele>337.0</ele><time>2026-03-29T09:33:54Z</time></trkpt><trkpt lat="40.61167723837785" lon="16.786416151174468"><ele>338.0</ele><time>2026-03-29T09:33:55Z</time></trkpt><trkpt lat="40.61192546154295" lon="16.786680531635554"><ele>337.5</ele><time>2026-03-29T09:33:56Z</time></trkpt><trkpt lat="40.6121680925445" lon="16.78694607523928"><ele>337.0</ele><time>2026-03-29T09:33:57Z</time></trkpt><trkpt lat="40.61237992133076" lon="16.78717905413748"><ele>337.0</ele><time>2026-03-29T09:33:58Z</time></trkpt><trkpt lat="40.61257776473329" lon="16.78739496091452"><ele>337.0</ele><time>2026-03-29T09:33:59Z</time></trkpt><trkpt lat="40.612761863483165" lon="16.787594447975234"><ele>337.3333333333333</ele><time>2026-03-29T09:34:00Z</time></trkpt><trkpt lat="40.61293419620209" lon="16.78778620149927"><ele>337.6666666666667</ele><time>2026-03-29T09:34:01Z</time></trkpt><trkpt lat="40.61310132812927" lon="16.78796814616697"><ele>338.0</ele><time>2026-03-29T09:34:02Z</time></trkpt><trkpt lat="40.61325518463232" lon="16.788136957964447"><ele>338.0</ele><time>2026-03-29T09:34:03Z</time></trkpt><trkpt lat="40.613398230280566" lon="16.788297852446373"><ele>338.0</ele><time>2026-03-29T09:34:04Z</time></trkpt><trkpt lat="40.61353731449254" lon="16.788465955429995"><ele>338.0</ele><time>2026-03-29T09:34:05Z</time></trkpt><trkpt lat="40.613673582059135" lon="16.78864794724246"><ele>338.6666666666667</ele><time>2026-03-29T09:34:06Z</time></trkpt><trkpt lat="40.61380790268523" lon="16.7888407664341"><ele>339.3333333333333</ele><time>2026-03-29T09:34:07Z</time></trkpt><trkpt lat="40.61393121935174" lon="16.78903995790692"><ele>340.0</ele><time>2026-03-29T09:34:08Z</time></trkpt><trkpt lat="40.6140464476074" lon="16.789256141683744"><ele>340.0</ele><time>2026-03-29T09:34:09Z</time></trkpt><trkpt lat="40.614151588816846" lon="16.78948307286412"><ele>340.0</ele><time>2026-03-29T09:34:10Z</time></trkpt><trkpt lat="40.614225154447084" lon="16.789732706912105"><ele>340.0</ele><time>2026-03-29T09:34:11Z</time></trkpt><trkpt lat="40.61431546800268" lon="16.789999515189905"><ele>341.0</ele><time>2026-03-29T09:34:12Z</time></trkpt><trkpt lat="40.61439956467866" lon="16.79030628337706"><ele>342.0</ele><time>2026-03-29T09:34:13Z</time></trkpt><trkpt lat="40.61448101191549" lon="16.79063683568796"><ele>344.5</ele><time>2026-03-29T09:34:14Z</time></trkpt><trkpt lat="40.614562611986564" lon="16.790956855662575"><ele>347.0</ele><time>2026-03-29T09:34:15Z</time></trkpt><trkpt lat="40.614624394999694" lon="16.791270649070082"><ele>347.5</ele><time>2026-03-29T09:34:16Z</time></trkpt><trkpt lat="40.614699288415814" lon="16.791579635702877"><ele>348.0</ele><time>2026-03-29T09:34:17Z</time></trkpt><trkpt lat="40.6147778301907" lon="16.79189328461317"><ele>348.5</ele><time>2026-03-29T09:34:18Z</time></trkpt><trkpt lat="40.61485296915432" lon="16.792210162577863"><ele>349.0</ele><time>2026-03-29T09:34:19Z</time></trkpt><trkpt lat="40.61494037957039" lon="16.792520292969396"><ele>350.0</ele><time>2026-03-29T09:34:20Z</time></trkpt><trkpt lat="40.615056179177216" lon="16.79281632068157"><ele>351.0</ele><time>2026-03-29T09:34:21Z</time></trkpt><trkpt lat="40.615200497706645" lon="16.79309169551825"><ele>352.0</ele><time>2026-03-29T09:34:22Z</time></trkpt><trkpt lat="40.615367173362614" lon="16.79334627892492"><ele>353.0</ele><time>2026-03-29T09:34:23Z</time></trkpt><trkpt lat="40.615570212068015" lon="16.793559805357646"><ele>353.0</ele><time>2026-03-29T09:34:24Z</time></trkpt><trkpt lat="40.615772829590135" lon="16.793759266013335"><ele>353.0</ele><time>2026-03-29T09:34:25Z</time></trkpt><trkpt lat="40.61599130548662" lon="16.793921718272415"><ele>352.0</ele><time>2026-03-29T09:34:26Z</time></trkpt><trkpt lat="40.61621679619381" lon="16.794048834085846"><ele>351.0</ele><time>2026-03-29T09:34:27Z</time></trkpt><trkpt lat="40.616453596803325" lon="16.794153702521424"><ele>351.0</ele><time>2026-03-29T09:34:28Z</time></trkpt><trkpt lat="40.616691335907596" lon="16.794251317677244"><ele>351.0</ele><time>2026-03-29T09:34:29Z</time></trkpt><trkpt lat="40.61692518283134" lon="16.7943484681722"><ele>348.6666666666667</ele><time>2026-03-29T09:34:30Z</time></trkpt><trkpt lat="40.61714255631399" lon="16.79444319502391"><ele>346.33333333333337</ele><time>2026-03-29T09:34:31Z</time></trkpt><trkpt lat="40.617350997454245" lon="16.794529870484634"><ele>344.0</ele><time>2026-03-29T09:34:32Z</time></trkpt><trkpt lat="40.617559442051714" lon="16.794616407314432"><ele>344.0</ele><time>2026-03-29T09:34:33Z</time></trkpt><trkpt lat="40.61777096819147" lon="16.794707727631586"><ele>344.0</ele><time>2026-03-29T09:34:34Z</time></trkpt><trkpt lat="40.6179721060883" lon="16.794793970598256"><ele>344.0</ele><time>2026-03-29T09:34:35Z</time></trkpt><trkpt lat="40.61816072547819" lon="16.794874159905465"><ele>342.6666666666667</ele><time>2026-03-29T09:34:36Z</time></trkpt><trkpt lat="40.61835207130524" lon="16.794956865546364"><ele>341.3333333333333</ele><time>2026-03-29T09:34:37Z</time></trkpt><trkpt lat="40.61855125764841" lon="16.795037023866364"><ele>340.0</ele><time>2026-03-29T09:34:38Z</time></trkpt><trkpt lat="40.61874232598095" lon="16.79511771184147"><ele>339.3333333333333</ele><time>2026-03-29T09:34:39Z</time></trkpt><trkpt lat="40.618920340136675" lon="16.795189942613366"><ele>338.6666666666667</ele><time>2026-03-29T09:34:40Z</time></trkpt><trkpt lat="40.619096588798705" lon="16.79526160621396"><ele>338.0</ele><time>2026-03-29T09:34:41Z</time></trkpt><trkpt lat="40.61926645340586" lon="16.79533460636625"><ele>338.0</ele><time>2026-03-29T09:34:42Z</time></trkpt><trkpt lat="40.619422887156176" lon="16.795404754042053"><ele>338.0</ele><time>2026-03-29T09:34:43Z</time></trkpt><trkpt lat="40.61956217549619" lon="16.79546687641306"><ele>338.0</ele><time>2026-03-29T09:34:44Z</time></trkpt><trkpt lat="40.61969026327214" lon="16.79552171996324"><ele>338.0</ele><time>2026-03-29T09:34:45Z</time></trkpt><trkpt lat="40.61980610201681" lon="16.795573883990212"><ele>337.2</ele><time>2026-03-29T09:34:46Z</time></trkpt><trkpt lat="40.61990241024335" lon="16.79563161218531"><ele>336.4</ele><time>2026-03-29T09:34:47Z</time></trkpt><trkpt lat="40.61998554649336" lon="16.795690756339063"><ele>335.59999999999997</ele><time>2026-03-29T09:34:48Z</time></trkpt><trkpt lat="40.62006760342227" lon="16.795725553881752"><ele>334.79999999999995</ele><time>2026-03-29T09:34:49Z</time></trkpt><trkpt lat="40.62013759707613" lon="16.79571304283743"><ele>334.0</ele><time>2026-03-29T09:34:50Z</time></trkpt><trkpt lat="40.620221423833684" lon="16.79555962466685"><ele>334.0</ele><time>2026-03-29T09:34:52Z</time></trkpt><trkpt lat="40.620221983607614" lon="16.795444104428107"><ele>334.0</ele><time>2026-03-29T09:34:53Z</time></trkpt><trkpt lat="40.62022556740623" lon="16.795297298706593"><ele>334.0</ele><time>2026-03-29T09:34:54Z</time></trkpt><trkpt lat="40.62024968869849" lon="16.795140379766085"><ele>334.0</ele><time>2026-03-29T09:34:55Z</time></trkpt><trkpt lat="40.62027999559366" lon="16.7949779427575"><ele>334.0</ele><time>2026-03-29T09:34:56Z</time></trkpt><trkpt lat="40.6203103207582" lon="16.794804973655317"><ele>334.5</ele><time>2026-03-29T09:34:57Z</time></trkpt><trkpt lat="40.620341661042524" lon="16.794618794029855"><ele>335.0</ele><time>2026-03-29T09:34:58Z</time></trkpt><trkpt lat="40.62037567941628" lon="16.79442039923363"><ele>335.5</ele><time>2026-03-29T09:34:59Z</time></trkpt><trkpt lat="40.62040511034897" lon="16.794228147577247"><ele>336.0</ele><time>2026-03-29T09:35:00Z</time></trkpt><trkpt lat="40.62043665201966" lon="16.794065078116354"><ele>336.0</ele><time>2026-03-29T09:35:01Z</time></trkpt><trkpt lat="40.62046539467373" lon="16.793934550983444"><ele>336.0</ele><time>2026-03-29T09:35:02Z</time></trkpt><trkpt lat="40.62048364058388" lon="16.793806092705207"><ele>336.0</ele><time>2026-03-29T09:35:03Z</time></trkpt><trkpt lat="40.620509190300155" lon="16.793672042690975"><ele>336.0</ele><time>2026-03-29T09:35:04Z</time></trkpt><trkpt lat="40.62053627137156" lon="16.793513726785797"><ele>336.0</ele><time>2026-03-29T09:35:05Z</time></trkpt><trkpt lat="40.620563152522706" lon="16.793370300893052"><ele>336.0</ele><time>2026-03-29T09:35:06Z</time></trkpt><trkpt lat="40.620586015853014" lon="16.793242957757208"><ele>336.0</ele><time>2026-03-29T09:35:07Z</time></trkpt><trkpt lat="40.62060322566177" lon="16.793088973396227"><ele>336.0</ele><time>2026-03-29T09:35:08Z</time></trkpt><trkpt lat="40.62062069571923" lon="16.792913924544322"><ele>336.0</ele><time>2026-03-29T09:35:09Z</time></trkpt><trkpt lat="40.620631319889405" lon="16.79271979053558"><ele>336.3333333333333</ele><time>2026-03-29T09:35:10Z</time></trkpt><trkpt lat="40.62061250611046" lon="16.792509755313546"><ele>336.66666666666663</ele><time>2026-03-29T09:35:11Z</time></trkpt><trkpt lat="40.620577364694746" lon="16.792293565878186"><ele>337.0</ele><time>2026-03-29T09:35:12Z</time></trkpt><trkpt lat="40.620543053940786" lon="16.792102760747504"><ele>337.0</ele><time>2026-03-29T09:35:13Z</time></trkpt><trkpt lat="40.620494409562745" lon="16.791936105278847"><ele>337.0</ele><time>2026-03-29T09:35:14Z</time></trkpt><trkpt lat="40.62045305060232" lon="16.791765263132916"><ele>337.0</ele><time>2026-03-29T09:35:15Z</time></trkpt><trkpt lat="40.62041984329758" lon="16.791609678312003"><ele>337.0</ele><time>2026-03-29T09:35:16Z</time></trkpt><trkpt lat="40.62040274598632" lon="16.791473243281622"><ele>336.5</ele><time>2026-03-29T09:35:17Z</time></trkpt><trkpt lat="40.62041033991551" lon="16.791354188438692"><ele>336.0</ele><time>2026-03-29T09:35:18Z</time></trkpt><trkpt lat="40.62044490499422" lon="16.79127266370192"><ele>335.5</ele><time>2026-03-29T09:35:19Z</time></trkpt><trkpt lat="40.62049803395462" lon="16.79113959565571"><ele>335.0</ele><time>2026-03-29T09:35:21Z</time></trkpt><trkpt lat="40.62084579378446" lon="16.791097644177288"><ele>335.0</ele><time>2026-03-29T09:35:23Z</time></trkpt><trkpt lat="40.62097283051906" lon="16.791035307364133"><ele>335.0</ele><time>2026-03-29T09:35:24Z</time></trkpt><trkpt lat="40.62108741942949" lon="16.79098574211613"><ele>335.0</ele><time>2026-03-29T09:35:25Z</time></trkpt><trkpt lat="40.62120091485751" lon="16.790940581050005"><ele>335.0</ele><time>2026-03-29T09:35:26Z</time></trkpt><trkpt lat="40.621309582109376" lon="16.790905824669228"><ele>334.0</ele><time>2026-03-29T09:35:27Z</time></trkpt><trkpt lat="40.621407416769856" lon="16.790884631257548"><ele>333.0</ele><time>2026-03-29T09:35:28Z</time></trkpt><trkpt lat="40.621503732276544" lon="16.79089664058684"><ele>332.0</ele><time>2026-03-29T09:35:29Z</time></trkpt><trkpt lat="40.62160354450405" lon="16.79093187154859"><ele>331.0</ele><time>2026-03-29T09:35:30Z</time></trkpt><trkpt lat="40.62170302806919" lon="16.7909997654472"><ele>330.0</ele><time>2026-03-29T09:35:31Z</time></trkpt><trkpt lat="40.621794123302195" lon="16.791092959879382"><ele>330.0</ele><time>2026-03-29T09:35:32Z</time></trkpt><trkpt lat="40.621891779843764" lon="16.791188395588108"><ele>330.0</ele><time>2026-03-29T09:35:33Z</time></trkpt><trkpt lat="40.62200380158149" lon="16.791291173175164"><ele>330.0</ele><time>2026-03-29T09:35:34Z</time></trkpt><trkpt lat="40.62211871959666" lon="16.79140208372303"><ele>330.0</ele><time>2026-03-29T09:35:35Z</time></trkpt><trkpt lat="40.6222423947931" lon="16.791522753095023"><ele>328.6666666666667</ele><time>2026-03-29T09:35:36Z</time></trkpt><trkpt lat="40.62236884350103" lon="16.791645353429175"><ele>327.33333333333337</ele><time>2026-03-29T09:35:37Z</time></trkpt><trkpt lat="40.622491469766175" lon="16.791765115960697"><ele>326.0</ele><time>2026-03-29T09:35:38Z</time></trkpt><trkpt lat="40.622605063031266" lon="16.791875925652935"><ele>326.0</ele><time>2026-03-29T09:35:39Z</time></trkpt><trkpt lat="40.62271901585038" lon="16.791989342227218"><ele>326.0</ele><time>2026-03-29T09:35:40Z</time></trkpt><trkpt lat="40.6228378104363" lon="16.79210445673357"><ele>326.0</ele><time>2026-03-29T09:35:41Z</time></trkpt><trkpt lat="40.62295662946002" lon="16.79222409727054"><ele>326.0</ele><time>2026-03-29T09:35:42Z</time></trkpt><trkpt lat="40.623055706648856" lon="16.79234856092863"><ele>324.25</ele><time>2026-03-29T09:35:43Z</time></trkpt><trkpt lat="40.62314408204431" lon="16.792469326957118"><ele>322.5</ele><time>2026-03-29T09:35:44Z</time></trkpt><trkpt lat="40.62322631862178" lon="16.792585476434994"><ele>320.75</ele><time>2026-03-29T09:35:45Z</time></trkpt><trkpt lat="40.62330125737909" lon="16.79269235701264"><ele>319.0</ele><time>2026-03-29T09:35:46Z</time></trkpt><trkpt lat="40.623382519900524" lon="16.792790999453302"><ele>319.0</ele><time>2026-03-29T09:35:47Z</time></trkpt><trkpt lat="40.62346172308598" lon="16.792882387265223"><ele>319.0</ele><time>2026-03-29T09:35:48Z</time></trkpt><trkpt lat="40.62352824709968" lon="16.79297242281742"><ele>319.0</ele><time>2026-03-29T09:35:49Z</time></trkpt><trkpt lat="40.623578830271654" lon="16.79305522615696"><ele>319.0</ele><time>2026-03-29T09:35:50Z</time></trkpt><trkpt lat="40.623627867920895" lon="16.79311811936651"><ele>319.0</ele><time>2026-03-29T09:35:51Z</time></trkpt><trkpt lat="40.62369378327774" lon="16.79316213639359"><ele>319.0</ele><time>2026-03-29T09:35:52Z</time></trkpt><trkpt lat="40.623771194866315" lon="16.793228648970288"><ele>319.79999999999995</ele><time>2026-03-29T09:35:53Z</time></trkpt><trkpt lat="40.62387537320676" lon="16.79322951036958"><ele>320.59999999999997</ele><time>2026-03-29T09:35:54Z</time></trkpt><trkpt lat="40.62398220588171" lon="16.793243271884204"><ele>321.4</ele><time>2026-03-29T09:35:55Z</time></trkpt><trkpt lat="40.62409297844199" lon="16.793290354831786"><ele>322.2</ele><time>2026-03-29T09:35:56Z</time></trkpt><trkpt lat="40.62419157933801" lon="16.793369022010584"><ele>323.0</ele><time>2026-03-29T09:35:57Z</time></trkpt><trkpt lat="40.62428826596212" lon="16.79344467812217"><ele>324.0</ele><time>2026-03-29T09:35:58Z</time></trkpt><trkpt lat="40.62438016184286" lon="16.793514635158843"><ele>325.0</ele><time>2026-03-29T09:35:59Z</time></trkpt><trkpt lat="40.62446619854455" lon="16.79358062518768"><ele>326.0</ele><time>2026-03-29T09:36:00Z</time></trkpt><trkpt lat="40.62454817500169" lon="16.793645411003208"><ele>327.0</ele><time>2026-03-29T09:36:01Z</time></trkpt><trkpt lat="40.62462916724088" lon="16.79370848363738"><ele>328.0</ele><time>2026-03-29T09:36:02Z</time></trkpt><trkpt lat="40.62469611238781" lon="16.793764530298507"><ele>329.16666666666663</ele><time>2026-03-29T09:36:03Z</time></trkpt><trkpt lat="40.62475455698623" lon="16.793812193408687"><ele>330.3333333333333</ele><time>2026-03-29T09:36:04Z</time></trkpt><trkpt lat="40.62482525618931" lon="16.79388392405228"><ele>331.5</ele><time>2026-03-29T09:36:06Z</time></trkpt><trkpt lat="40.62493931570443" lon="16.793937684073857"><ele>332.6666666666667</ele><time>2026-03-29T09:36:14Z</time></trkpt><trkpt lat="40.62500297522854" lon="16.793986394904653"><ele>333.83333333333337</ele><time>2026-03-29T09:36:15Z</time></trkpt><trkpt lat="40.62507318057328" lon="16.794034939047627"><ele>335.0</ele><time>2026-03-29T09:36:16Z</time></trkpt><trkpt lat="40.6251779383046" lon="16.794067274723563"><ele>335.0</ele><time>2026-03-29T09:36:18Z</time></trkpt><trkpt lat="40.62528297240577" lon="16.79402186535418"><ele>335.0</ele><time>2026-03-29T09:36:20Z</time></trkpt><trkpt lat="40.62540715520724" lon="16.793991089256643"><ele>335.0</ele><time>2026-03-29T09:36:22Z</time></trkpt><trkpt lat="40.62550211151327" lon="16.793978704255544"><ele>335.0</ele><time>2026-03-29T09:36:24Z</time></trkpt><trkpt lat="40.62557525416594" lon="16.79397164314142"><ele>335.0</ele><time>2026-03-29T09:36:27Z</time></trkpt><trkpt lat="40.62563812045219" lon="16.793957417411647"><ele>335.83333333333337</ele><time>2026-03-29T09:36:30Z</time></trkpt><trkpt lat="40.62571030210761" lon="16.79393489316672"><ele>336.6666666666667</ele><time>2026-03-29T09:36:35Z</time></trkpt><trkpt lat="40.62577896015763" lon="16.793918392571648"><ele>337.5</ele><time>2026-03-29T09:36:38Z</time></trkpt><trkpt lat="40.625857563340986" lon="16.794046554416656"><ele>338.3333333333333</ele><time>2026-03-29T09:36:45Z</time></trkpt><trkpt lat="40.6259457295421" lon="16.794034935855645"><ele>339.16666666666663</ele><time>2026-03-29T09:36:47Z</time></trkpt><trkpt lat="40.62599490560446" lon="16.79397443844835"><ele>340.0</ele><time>2026-03-29T09:36:48Z</time></trkpt><trkpt lat="40.626045701618935" lon="16.793909792370773"><ele>340.0</ele><time>2026-03-29T09:36:49Z</time></trkpt><trkpt lat="40.62610127867961" lon="16.793841359519245"><ele>340.0</ele><time>2026-03-29T09:36:50Z</time></trkpt><trkpt lat="40.626201049884074" lon="16.793787518835583"><ele>340.0</ele><time>2026-03-29T09:36:52Z</time></trkpt><trkpt lat="40.626142914755455" lon="16.793842628334314"><ele>340.0</ele><time>2026-03-29T09:36:58Z</time></trkpt><trkpt lat="40.6260840613576" lon="16.793735332730236"><ele>340.0</ele><time>2026-03-29T09:36:59Z</time></trkpt><trkpt lat="40.62601241072517" lon="16.793720987161286"><ele>340.0</ele><time>2026-03-29T09:37:01Z</time></trkpt><trkpt lat="40.625830887141795" lon="16.793950292970703"><ele>340.0</ele><time>2026-03-29T09:37:05Z</time></trkpt><trkpt lat="40.62580091131819" lon="16.794030727074546"><ele>340.0</ele><time>2026-03-29T09:37:07Z</time></trkpt><trkpt lat="40.625771718641886" lon="16.79410678324696"><ele>340.0</ele><time>2026-03-29T09:37:09Z</time></trkpt><trkpt lat="40.625858782094205" lon="16.7942019512023"><ele>340.0</ele><time>2026-03-29T09:37:10Z</time></trkpt><trkpt lat="40.625926399293704" lon="16.79429136371639"><ele>340.0</ele><time>2026-03-29T09:37:12Z</time></trkpt><trkpt lat="40.625996289468674" lon="16.79433308201778"><ele>340.0</ele><time>2026-03-29T09:37:13Z</time></trkpt><trkpt lat="40.62609777584109" lon="16.79439383848611"><ele>341.3333333333333</ele><time>2026-03-29T09:37:15Z</time></trkpt><trkpt lat="40.62620868607758" lon="16.794469907390926"><ele>342.66666666666663</ele><time>2026-03-29T09:37:17Z</time></trkpt><trkpt lat="40.62626998639157" lon="16.794518910813764"><ele>344.0</ele><time>2026-03-29T09:37:18Z</time></trkpt><trkpt lat="40.626330353056424" lon="16.7945732059293"><ele>345.3333333333333</ele><time>2026-03-29T09:37:19Z</time></trkpt><trkpt lat="40.62639677980739" lon="16.79463329251839"><ele>346.6666666666667</ele><time>2026-03-29T09:37:20Z</time></trkpt><trkpt lat="40.626464639245825" lon="16.794697192645085"><ele>348.0</ele><time>2026-03-29T09:37:21Z</time></trkpt><trkpt lat="40.62654734464268" lon="16.794731221178093"><ele>348.0</ele><time>2026-03-29T09:37:22Z</time></trkpt><trkpt lat="40.62662721086391" lon="16.794781776346788"><ele>348.0</ele><time>2026-03-29T09:37:23Z</time></trkpt><trkpt lat="40.62670563035698" lon="16.794838868996695"><ele>348.0</ele><time>2026-03-29T09:37:24Z</time></trkpt><trkpt lat="40.62678195985824" lon="16.794899596326413"><ele>348.0</ele><time>2026-03-29T09:37:25Z</time></trkpt><trkpt lat="40.626856861138094" lon="16.7949449104417"><ele>348.0</ele><time>2026-03-29T09:37:26Z</time></trkpt><trkpt lat="40.62693883884931" lon="16.794992376414033"><ele>348.0</ele><time>2026-03-29T09:37:27Z</time></trkpt><trkpt lat="40.62702110168269" lon="16.795040885898022"><ele>348.0</ele><time>2026-03-29T09:37:28Z</time></trkpt><trkpt lat="40.62710123229949" lon="16.795083157039844"><ele>348.0</ele><time>2026-03-29T09:37:29Z</time></trkpt><trkpt lat="40.627181158496796" lon="16.79512666225498"><ele>348.0</ele><time>2026-03-29T09:37:30Z</time></trkpt><trkpt lat="40.62725490818201" lon="16.795170535085365"><ele>348.0</ele><time>2026-03-29T09:37:31Z</time></trkpt><trkpt lat="40.62732947051171" lon="16.79521281409518"><ele>348.0</ele><time>2026-03-29T09:37:32Z</time></trkpt><trkpt lat="40.62739295000873" lon="16.795247791208464"><ele>348.0</ele><time>2026-03-29T09:37:33Z</time></trkpt><trkpt lat="40.62745906067291" lon="16.795285106901577"><ele>348.1666666666667</ele><time>2026-03-29T09:37:34Z</time></trkpt><trkpt lat="40.62752886349926" lon="16.79531824768642"><ele>348.3333333333333</ele><time>2026-03-29T09:37:35Z</time></trkpt><trkpt lat="40.62760332232072" lon="16.795354593691407"><ele>348.5</ele><time>2026-03-29T09:37:36Z</time></trkpt><trkpt lat="40.62768463365917" lon="16.795383290197964"><ele>348.66666666666663</ele><time>2026-03-29T09:37:37Z</time></trkpt><trkpt lat="40.62775376628855" lon="16.795420091472028"><ele>348.8333333333333</ele><time>2026-03-29T09:37:38Z</time></trkpt><trkpt lat="40.62782752466506" lon="16.795461781164853"><ele>349.0</ele><time>2026-03-29T09:37:39Z</time></trkpt><trkpt lat="40.62789437406838" lon="16.795487263431088"><ele>349.3333333333333</ele><time>2026-03-29T09:37:40Z</time></trkpt><trkpt lat="40.62796600731554" lon="16.79549204214683"><ele>349.66666666666663</ele><time>2026-03-29T09:37:41Z</time></trkpt><trkpt lat="40.62802814973287" lon="16.795517392832316"><ele>350.0</ele><time>2026-03-29T09:37:42Z</time></trkpt><trkpt lat="40.62811928144448" lon="16.795556719957812"><ele>350.3333333333333</ele><time>2026-03-29T09:37:44Z</time></trkpt><trkpt lat="40.628196786396344" lon="16.795584686060696"><ele>350.6666666666667</ele><time>2026-03-29T09:37:46Z</time></trkpt><trkpt lat="40.62832448934365" lon="16.79564440101409"><ele>351.0</ele><time>2026-03-29T09:37:48Z</time></trkpt><trkpt lat="40.62839603571908" lon="16.795675116161156"><ele>351.00000000000006</ele><time>2026-03-29T09:37:49Z</time></trkpt><trkpt lat="40.62846264033752" lon="16.79569977421074"><ele>351.0</ele><time>2026-03-29T09:37:50Z</time></trkpt><trkpt lat="40.62853095585636" lon="16.79572315078976"><ele>351.0</ele><time>2026-03-29T09:37:51Z</time></trkpt><trkpt lat="40.62859692974932" lon="16.795765532841365"><ele>351.0</ele><time>2026-03-29T09:37:52Z</time></trkpt><trkpt lat="40.628669233488836" lon="16.795795007788744"><ele>351.0</ele><time>2026-03-29T09:37:53Z</time></trkpt><trkpt lat="40.62873923423652" lon="16.79582231187975"><ele>351.00000000000006</ele><time>2026-03-29T09:37:54Z</time></trkpt><trkpt lat="40.62879765751588" lon="16.795853983418823"><ele>351.0</ele><time>2026-03-29T09:37:55Z</time></trkpt><trkpt lat="40.62892726591608" lon="16.79591243111045"><ele>351.5</ele><time>2026-03-29T09:37:57Z</time></trkpt><trkpt lat="40.629033058180326" lon="16.795946907350775"><ele>352.0</ele><time>2026-03-29T09:37:59Z</time></trkpt><trkpt lat="40.62908850271306" lon="16.79598676829947"><ele>352.5</ele><time>2026-03-29T09:38:01Z</time></trkpt><trkpt lat="40.62917226734748" lon="16.79601401549244"><ele>353.0</ele><time>2026-03-29T09:38:03Z</time></trkpt><trkpt lat="40.62923457142351" lon="16.79604715752522"><ele>353.5</ele><time>2026-03-29T09:38:04Z</time></trkpt><trkpt lat="40.62929770517762" lon="16.796075146985178"><ele>354.0</ele><time>2026-03-29T09:38:05Z</time></trkpt><trkpt lat="40.629359789278205" lon="16.79610194182669"><ele>354.0</ele><time>2026-03-29T09:38:06Z</time></trkpt><trkpt lat="40.6294256437857" lon="16.796130915173624"><ele>354.0</ele><time>2026-03-29T09:38:07Z</time></trkpt><trkpt lat="40.629493360681096" lon="16.796153042662173"><ele>354.0</ele><time>2026-03-29T09:38:08Z</time></trkpt><trkpt lat="40.62957984535808" lon="16.79618249959518"><ele>354.0</ele><time>2026-03-29T09:38:10Z</time></trkpt><trkpt lat="40.629642734930485" lon="16.79622661919969"><ele>354.0</ele><time>2026-03-29T09:38:13Z</time></trkpt><trkpt lat="40.629645627142395" lon="16.796373038563228"><ele>354.0</ele><time>2026-03-29T09:38:15Z</time></trkpt><trkpt lat="40.629612437900605" lon="16.796450188480474"><ele>354.1666666666667</ele><time>2026-03-29T09:38:16Z</time></trkpt><trkpt lat="40.62958514378163" lon="16.79653806924041"><ele>354.3333333333333</ele><time>2026-03-29T09:38:17Z</time></trkpt><trkpt lat="40.6295631202165" lon="16.796634728759713"><ele>354.5</ele><time>2026-03-29T09:38:18Z</time></trkpt><trkpt lat="40.629543296433994" lon="16.79674084045581"><ele>354.66666666666663</ele><time>2026-03-29T09:38:19Z</time></trkpt><trkpt lat="40.62952337860622" lon="16.79683886235785"><ele>354.8333333333333</ele><time>2026-03-29T09:38:20Z</time></trkpt><trkpt lat="40.629491051113376" lon="16.79694556512912"><ele>355.0</ele><time>2026-03-29T09:38:21Z</time></trkpt><trkpt lat="40.629462533652635" lon="16.797050538100788"><ele>354.66666666666663</ele><time>2026-03-29T09:38:22Z</time></trkpt><trkpt lat="40.62943859109806" lon="16.79714779117992"><ele>354.3333333333333</ele><time>2026-03-29T09:38:23Z</time></trkpt><trkpt lat="40.629414376054626" lon="16.79723401390975"><ele>354.0</ele><time>2026-03-29T09:38:24Z</time></trkpt><trkpt lat="40.6293853274663" lon="16.79732820952566"><ele>353.6666666666667</ele><time>2026-03-29T09:38:25Z</time></trkpt><trkpt lat="40.62936462303165" lon="16.797435684116344"><ele>353.33333333333337</ele><time>2026-03-29T09:38:26Z</time></trkpt><trkpt lat="40.62933278990178" lon="16.79754718690949"><ele>353.0</ele><time>2026-03-29T09:38:27Z</time></trkpt><trkpt lat="40.62930032302394" lon="16.79764686976823"><ele>353.0</ele><time>2026-03-29T09:38:28Z</time></trkpt><trkpt lat="40.62927496891754" lon="16.797757924889158"><ele>353.0</ele><time>2026-03-29T09:38:29Z</time></trkpt><trkpt lat="40.62924430920701" lon="16.797866398873843"><ele>353.0</ele><time>2026-03-29T09:38:30Z</time></trkpt><trkpt lat="40.62921695535145" lon="16.797967912552455"><ele>353.0</ele><time>2026-03-29T09:38:31Z</time></trkpt><trkpt lat="40.629196210278636" lon="16.798064607043415"><ele>353.0</ele><time>2026-03-29T09:38:32Z</time></trkpt><trkpt lat="40.62917089841032" lon="16.798150990579536"><ele>353.0</ele><time>2026-03-29T09:38:33Z</time></trkpt><trkpt lat="40.62913981762721" lon="16.798245082693633"><ele>353.0</ele><time>2026-03-29T09:38:34Z</time></trkpt><trkpt lat="40.62911029389393" lon="16.798333512584527"><ele>353.0</ele><time>2026-03-29T09:38:35Z</time></trkpt><trkpt lat="40.629076325250374" lon="16.79844875039774"><ele>353.0</ele><time>2026-03-29T09:38:37Z</time></trkpt><trkpt lat="40.62905656220763" lon="16.798533979079043"><ele>353.0</ele><time>2026-03-29T09:38:45Z</time></trkpt><trkpt lat="40.629154867695966" lon="16.798607184282528"><ele>353.0</ele><time>2026-03-29T09:38:47Z</time></trkpt><trkpt lat="40.629220081888555" lon="16.798611179057392"><ele>353.0</ele><time>2026-03-29T09:38:48Z</time></trkpt><trkpt lat="40.62934425728809" lon="16.798660055510343"><ele>352.5</ele><time>2026-03-29T09:38:50Z</time></trkpt><trkpt lat="40.629417092859256" lon="16.798687830293257"><ele>352.0</ele><time>2026-03-29T09:38:51Z</time></trkpt><trkpt lat="40.62949490819894" lon="16.79872159422911"><ele>351.5</ele><time>2026-03-29T09:38:52Z</time></trkpt><trkpt lat="40.62957914724253" lon="16.7987622896633"><ele>351.0</ele><time>2026-03-29T09:38:53Z</time></trkpt><trkpt lat="40.62966559718831" lon="16.798804911477642"><ele>350.5</ele><time>2026-03-29T09:38:54Z</time></trkpt><trkpt lat="40.629766272534546" lon="16.798855348137735"><ele>350.0</ele><time>2026-03-29T09:38:55Z</time></trkpt><trkpt lat="40.62986655580474" lon="16.798899113303772"><ele>349.75</ele><time>2026-03-29T09:38:56Z</time></trkpt><trkpt lat="40.629972117534244" lon="16.79894846560599"><ele>349.5</ele><time>2026-03-29T09:38:57Z</time></trkpt><trkpt lat="40.63009199537151" lon="16.79899805203456"><ele>349.25</ele><time>2026-03-29T09:38:58Z</time></trkpt><trkpt lat="40.63021760275532" lon="16.79904482004951"><ele>349.0</ele><time>2026-03-29T09:38:59Z</time></trkpt><trkpt lat="40.630341547673304" lon="16.79909620860156"><ele>347.75</ele><time>2026-03-29T09:39:00Z</time></trkpt><trkpt lat="40.6304598586916" lon="16.79914279305328"><ele>346.5</ele><time>2026-03-29T09:39:01Z</time></trkpt><trkpt lat="40.630581682030694" lon="16.79919516997913"><ele>345.25</ele><time>2026-03-29T09:39:02Z</time></trkpt><trkpt lat="40.630689529172514" lon="16.799245110767348"><ele>344.0</ele><time>2026-03-29T09:39:03Z</time></trkpt><trkpt lat="40.6307921371869" lon="16.799290351446885"><ele>343.4</ele><time>2026-03-29T09:39:04Z</time></trkpt><trkpt lat="40.63088281629011" lon="16.799350736995443"><ele>342.79999999999995</ele><time>2026-03-29T09:39:05Z</time></trkpt><trkpt lat="40.63097704939698" lon="16.79939070344054"><ele>342.20000000000005</ele><time>2026-03-29T09:39:06Z</time></trkpt><trkpt lat="40.63107571791348" lon="16.799420221247924"><ele>341.6</ele><time>2026-03-29T09:39:07Z</time></trkpt><trkpt lat="40.63117344219282" lon="16.799458883621654"><ele>341.0</ele><time>2026-03-29T09:39:08Z</time></trkpt><trkpt lat="40.63127852651874" lon="16.799499505715282"><ele>340.4</ele><time>2026-03-29T09:39:09Z</time></trkpt><trkpt lat="40.63138430692638" lon="16.79954683534214"><ele>339.8</ele><time>2026-03-29T09:39:10Z</time></trkpt><trkpt lat="40.63147801020271" lon="16.79959071593512"><ele>339.2</ele><time>2026-03-29T09:39:11Z</time></trkpt><trkpt lat="40.63157623034431" lon="16.799634264988782"><ele>338.59999999999997</ele><time>2026-03-29T09:39:12Z</time></trkpt><trkpt lat="40.63168826991899" lon="16.799676316271523"><ele>338.0</ele><time>2026-03-29T09:39:13Z</time></trkpt><trkpt lat="40.63180700562123" lon="16.799727761449148"><ele>338.0</ele><time>2026-03-29T09:39:14Z</time></trkpt><trkpt lat="40.63193062491003" lon="16.79978740389434"><ele>338.0</ele><time>2026-03-29T09:39:15Z</time></trkpt><trkpt lat="40.63204595136448" lon="16.79984119707478"><ele>338.0</ele><time>2026-03-29T09:39:16Z</time></trkpt><trkpt lat="40.63215381068125" lon="16.799889296444267"><ele>338.0</ele><time>2026-03-29T09:39:17Z</time></trkpt><trkpt lat="40.632269636033264" lon="16.799941199605936"><ele>337.75</ele><time>2026-03-29T09:39:18Z</time></trkpt><trkpt lat="40.63239530073355" lon="16.799995472121257"><ele>337.5</ele><time>2026-03-29T09:39:19Z</time></trkpt><trkpt lat="40.632525889351584" lon="16.8000510964393"><ele>337.25</ele><time>2026-03-29T09:39:20Z</time></trkpt><trkpt lat="40.63265743932916" lon="16.800109025070732"><ele>337.0</ele><time>2026-03-29T09:39:21Z</time></trkpt><trkpt lat="40.632789098740304" lon="16.80016851758666"><ele>338.5</ele><time>2026-03-29T09:39:22Z</time></trkpt><trkpt lat="40.63291878945772" lon="16.800225986841628"><ele>340.0</ele><time>2026-03-29T09:39:23Z</time></trkpt><trkpt lat="40.63304814367231" lon="16.800284439042798"><ele>341.5</ele><time>2026-03-29T09:39:24Z</time></trkpt><trkpt lat="40.63318332858915" lon="16.80034246529434"><ele>343.0</ele><time>2026-03-29T09:39:25Z</time></trkpt><trkpt lat="40.63332022891757" lon="16.800403478164"><ele>343.0</ele><time>2026-03-29T09:39:26Z</time></trkpt><trkpt lat="40.63346056084163" lon="16.800466388440363"><ele>343.0</ele><time>2026-03-29T09:39:27Z</time></trkpt><trkpt lat="40.633594987737695" lon="16.800529147780374"><ele>343.0</ele><time>2026-03-29T09:39:28Z</time></trkpt><trkpt lat="40.63372409581343" lon="16.800588358907397"><ele>343.0</ele><time>2026-03-29T09:39:29Z</time></trkpt><trkpt lat="40.63384555023299" lon="16.80064214712583"><ele>343.25</ele><time>2026-03-29T09:39:30Z</time></trkpt><trkpt lat="40.633977358268666" lon="16.800696473112325"><ele>343.5</ele><time>2026-03-29T09:39:31Z</time></trkpt><trkpt lat="40.63411884305384" lon="16.800757253284907"><ele>343.75</ele><time>2026-03-29T09:39:32Z</time></trkpt><trkpt lat="40.63425873105369" lon="16.800821233720807"><ele>344.0</ele><time>2026-03-29T09:39:33Z</time></trkpt><trkpt lat="40.63440065942934" lon="16.800898092125514"><ele>347.0</ele><time>2026-03-29T09:39:34Z</time></trkpt><trkpt lat="40.634537200831446" lon="16.801001831174556"><ele>350.0</ele><time>2026-03-29T09:39:35Z</time></trkpt><trkpt lat="40.63465029868558" lon="16.801135893900817"><ele>353.0</ele><time>2026-03-29T09:39:36Z</time></trkpt><trkpt lat="40.634717580689646" lon="16.801314702742925"><ele>353.0</ele><time>2026-03-29T09:39:37Z</time></trkpt><trkpt lat="40.63477920962688" lon="16.801504229675217"><ele>353.0</ele><time>2026-03-29T09:39:38Z</time></trkpt><trkpt lat="40.63484698054087" lon="16.801691565134494"><ele>353.0</ele><time>2026-03-29T09:39:39Z</time></trkpt><trkpt lat="40.634894282790356" lon="16.801857705245745"><ele>353.0</ele><time>2026-03-29T09:39:40Z</time></trkpt><trkpt lat="40.63494730457408" lon="16.80201934154915"><ele>353.6666666666667</ele><time>2026-03-29T09:39:41Z</time></trkpt><trkpt lat="40.634995516190294" lon="16.802181666981152"><ele>354.3333333333333</ele><time>2026-03-29T09:39:42Z</time></trkpt><trkpt lat="40.63504696398735" lon="16.802392714725205"><ele>355.0</ele><time>2026-03-29T09:39:43Z</time></trkpt><trkpt lat="40.6351222993916" lon="16.80263982425459"><ele>355.66666666666663</ele><time>2026-03-29T09:39:44Z</time></trkpt><trkpt lat="40.63521653569517" lon="16.802897088626487"><ele>356.3333333333333</ele><time>2026-03-29T09:39:45Z</time></trkpt><trkpt lat="40.63528415867476" lon="16.803158737981658"><ele>357.0</ele><time>2026-03-29T09:39:46Z</time></trkpt><trkpt lat="40.635357340130184" lon="16.80340372640385"><ele>357.3333333333333</ele><time>2026-03-29T09:39:47Z</time></trkpt><trkpt lat="40.63543146587073" lon="16.803645146834974"><ele>357.66666666666663</ele><time>2026-03-29T09:39:48Z</time></trkpt><trkpt lat="40.63548948886062" lon="16.80388459465253"><ele>358.0</ele><time>2026-03-29T09:39:49Z</time></trkpt><trkpt lat="40.63550581170313" lon="16.804147317261414"><ele>357.66666666666663</ele><time>2026-03-29T09:39:50Z</time></trkpt><trkpt lat="40.63554492767622" lon="16.804424449979948"><ele>357.3333333333333</ele><time>2026-03-29T09:39:51Z</time></trkpt><trkpt lat="40.63556435140787" lon="16.8047170693547"><ele>357.0</ele><time>2026-03-29T09:39:52Z</time></trkpt><trkpt lat="40.63559152961316" lon="16.805017764503216"><ele>356.5</ele><time>2026-03-29T09:39:53Z</time></trkpt><trkpt lat="40.635620314582496" lon="16.80532047913123"><ele>356.0</ele><time>2026-03-29T09:39:54Z</time></trkpt><trkpt lat="40.63564883209175" lon="16.80561303325706"><ele>356.0</ele><time>2026-03-29T09:39:55Z</time></trkpt><trkpt lat="40.635677497731834" lon="16.805911014266417"><ele>356.0</ele><time>2026-03-29T09:39:56Z</time></trkpt><trkpt lat="40.63570540432597" lon="16.80619365328805"><ele>356.0</ele><time>2026-03-29T09:39:57Z</time></trkpt><trkpt lat="40.63573318001399" lon="16.806472846034307"><ele>356.33333333333337</ele><time>2026-03-29T09:39:58Z</time></trkpt><trkpt lat="40.63576266405527" lon="16.806758807466935"><ele>356.6666666666667</ele><time>2026-03-29T09:39:59Z</time></trkpt><trkpt lat="40.63579056314408" lon="16.807045626441955"><ele>357.0</ele><time>2026-03-29T09:40:00Z</time></trkpt><trkpt lat="40.635819225620224" lon="16.807335689170028"><ele>357.0</ele><time>2026-03-29T09:40:01Z</time></trkpt><trkpt lat="40.635848130257486" lon="16.807632624954056"><ele>357.0</ele><time>2026-03-29T09:40:02Z</time></trkpt><trkpt lat="40.6358804613721" lon="16.807940857692028"><ele>357.0</ele><time>2026-03-29T09:40:03Z</time></trkpt><trkpt lat="40.63591154190719" lon="16.80825492153291"><ele>357.0</ele><time>2026-03-29T09:40:04Z</time></trkpt><trkpt lat="40.63594295400965" lon="16.808577037709075"><ele>356.5</ele><time>2026-03-29T09:40:05Z</time></trkpt><trkpt lat="40.63597694799457" lon="16.808907574896477"><ele>356.0</ele><time>2026-03-29T09:40:06Z</time></trkpt><trkpt lat="40.636008438127945" lon="16.809237603206178"><ele>355.0</ele><time>2026-03-29T09:40:07Z</time></trkpt><trkpt lat="40.636025006840406" lon="16.809561174375254"><ele>354.0</ele><time>2026-03-29T09:40:08Z</time></trkpt><trkpt lat="40.63605607816656" lon="16.80988135789108"><ele>354.0</ele><time>2026-03-29T09:40:09Z</time></trkpt><trkpt lat="40.63608707785127" lon="16.810200803191535"><ele>354.0</ele><time>2026-03-29T09:40:10Z</time></trkpt><trkpt lat="40.6361171697877" lon="16.810510646538575"><ele>354.0</ele><time>2026-03-29T09:40:11Z</time></trkpt><trkpt lat="40.636144687177" lon="16.810793592942368"><ele>354.0</ele><time>2026-03-29T09:40:12Z</time></trkpt><trkpt lat="40.63616985621775" lon="16.811056987576034"><ele>354.0</ele><time>2026-03-29T09:40:13Z</time></trkpt><trkpt lat="40.63620612136301" lon="16.811300470848444"><ele>354.0</ele><time>2026-03-29T09:40:14Z</time></trkpt><trkpt lat="40.636228831057565" lon="16.811530198779874"><ele>354.0</ele><time>2026-03-29T09:40:15Z</time></trkpt><trkpt lat="40.63626281413556" lon="16.81175116088479"><ele>354.0</ele><time>2026-03-29T09:40:16Z</time></trkpt><trkpt lat="40.63631789572609" lon="16.811956231250647"><ele>353.6666666666667</ele><time>2026-03-29T09:40:17Z</time></trkpt><trkpt lat="40.63639489749401" lon="16.8121623450158"><ele>353.33333333333337</ele><time>2026-03-29T09:40:18Z</time></trkpt><trkpt lat="40.63650051177723" lon="16.812359366127865"><ele>353.0</ele><time>2026-03-29T09:40:19Z</time></trkpt><trkpt lat="40.63663139196697" lon="16.812549747298878"><ele>352.33333333333337</ele><time>2026-03-29T09:40:20Z</time></trkpt><trkpt lat="40.636782207840085" lon="16.81272942661236"><ele>351.6666666666667</ele><time>2026-03-29T09:40:21Z</time></trkpt><trkpt lat="40.636952642366" lon="16.812899421632043"><ele>351.0</ele><time>2026-03-29T09:40:22Z</time></trkpt><trkpt lat="40.63714077466236" lon="16.813059792663548"><ele>348.0</ele><time>2026-03-29T09:40:23Z</time></trkpt><trkpt lat="40.63733708885221" lon="16.813228817025628"><ele>345.0</ele><time>2026-03-29T09:40:24Z</time></trkpt><trkpt lat="40.637535653107406" lon="16.813411152050097"><ele>344.0</ele><time>2026-03-29T09:40:25Z</time></trkpt><trkpt lat="40.63773704583081" lon="16.813595373312378"><ele>343.0</ele><time>2026-03-29T09:40:26Z</time></trkpt><trkpt lat="40.6379399962326" lon="16.813778527264326"><ele>342.5</ele><time>2026-03-29T09:40:27Z</time></trkpt><trkpt lat="40.63814541409465" lon="16.813965695634245"><ele>342.0</ele><time>2026-03-29T09:40:28Z</time></trkpt><trkpt lat="40.6383510944506" lon="16.814153498998024"><ele>341.0</ele><time>2026-03-29T09:40:29Z</time></trkpt><trkpt lat="40.63855623100912" lon="16.814342969180085"><ele>340.0</ele><time>2026-03-29T09:40:30Z</time></trkpt><trkpt lat="40.63876112890719" lon="16.814531639029358"><ele>339.5</ele><time>2026-03-29T09:40:31Z</time></trkpt><trkpt lat="40.63896934879645" lon="16.814720240826418"><ele>339.0</ele><time>2026-03-29T09:40:32Z</time></trkpt><trkpt lat="40.63917543173368" lon="16.814906775795897"><ele>339.0</ele><time>2026-03-29T09:40:33Z</time></trkpt><trkpt lat="40.63938264353602" lon="16.815093834010334"><ele>339.0</ele><time>2026-03-29T09:40:34Z</time></trkpt><trkpt lat="40.63958519076865" lon="16.81527770653724"><ele>337.5</ele><time>2026-03-29T09:40:35Z</time></trkpt><trkpt lat="40.63978550310604" lon="16.815457346681892"><ele>336.0</ele><time>2026-03-29T09:40:36Z</time></trkpt><trkpt lat="40.63998753034465" lon="16.815639210279063"><ele>336.0</ele><time>2026-03-29T09:40:37Z</time></trkpt><trkpt lat="40.64018919089341" lon="16.815820697127876"><ele>336.0</ele><time>2026-03-29T09:40:38Z</time></trkpt><trkpt lat="40.64039326512806" lon="16.81600348899624"><ele>336.0</ele><time>2026-03-29T09:40:39Z</time></trkpt><trkpt lat="40.640594421214885" lon="16.81618273415085"><ele>336.0</ele><time>2026-03-29T09:40:40Z</time></trkpt><trkpt lat="40.640781752871874" lon="16.816353159102857"><ele>336.0</ele><time>2026-03-29T09:40:41Z</time></trkpt><trkpt lat="40.64095473074915" lon="16.816512182090285"><ele>336.0</ele><time>2026-03-29T09:40:42Z</time></trkpt><trkpt lat="40.64112624337868" lon="16.816667424053215"><ele>336.0</ele><time>2026-03-29T09:40:43Z</time></trkpt><trkpt lat="40.64129852886899" lon="16.816826222518056"><ele>335.6666666666667</ele><time>2026-03-29T09:40:44Z</time></trkpt><trkpt lat="40.64147478056354" lon="16.816986580028477"><ele>335.33333333333337</ele><time>2026-03-29T09:40:45Z</time></trkpt><trkpt lat="40.64164538683708" lon="16.817140855913454"><ele>335.0</ele><time>2026-03-29T09:40:46Z</time></trkpt><trkpt lat="40.64181364731829" lon="16.817299186768306"><ele>335.0</ele><time>2026-03-29T09:40:47Z</time></trkpt><trkpt lat="40.64198584129516" lon="16.81745794874998"><ele>335.0</ele><time>2026-03-29T09:40:48Z</time></trkpt><trkpt lat="40.64216217710519" lon="16.81761379039723"><ele>335.0</ele><time>2026-03-29T09:40:49Z</time></trkpt><trkpt lat="40.64234032659309" lon="16.817774759942022"><ele>335.0</ele><time>2026-03-29T09:40:50Z</time></trkpt><trkpt lat="40.64252648608657" lon="16.81794123601629"><ele>335.0</ele><time>2026-03-29T09:40:51Z</time></trkpt><trkpt lat="40.642727846921616" lon="16.818115141336044"><ele>336.0</ele><time>2026-03-29T09:40:52Z</time></trkpt><trkpt lat="40.64294638896043" lon="16.81830163422279"><ele>337.0</ele><time>2026-03-29T09:40:53Z</time></trkpt><trkpt lat="40.64316970286545" lon="16.818507460226044"><ele>338.5</ele><time>2026-03-29T09:40:54Z</time></trkpt><trkpt lat="40.643393002093745" lon="16.81871648914636"><ele>340.0</ele><time>2026-03-29T09:40:55Z</time></trkpt><trkpt lat="40.643613782831345" lon="16.818924842946334"><ele>341.0</ele><time>2026-03-29T09:40:56Z</time></trkpt><trkpt lat="40.64382189630863" lon="16.819116099565022"><ele>342.0</ele><time>2026-03-29T09:40:57Z</time></trkpt><trkpt lat="40.64402396739621" lon="16.819302942572946"><ele>343.0</ele><time>2026-03-29T09:40:58Z</time></trkpt><trkpt lat="40.64421024018541" lon="16.819475430660397"><ele>344.0</ele><time>2026-03-29T09:40:59Z</time></trkpt><trkpt lat="40.644398822154386" lon="16.819643877283568"><ele>343.0</ele><time>2026-03-29T09:41:00Z</time></trkpt><trkpt lat="40.644591131170024" lon="16.819815600524265"><ele>342.0</ele><time>2026-03-29T09:41:01Z</time></trkpt><trkpt lat="40.64478562194477" lon="16.81999270754498"><ele>343.0</ele><time>2026-03-29T09:41:02Z</time></trkpt><trkpt lat="40.64498008658266" lon="16.820174515185688"><ele>344.0</ele><time>2026-03-29T09:41:03Z</time></trkpt><trkpt lat="40.64516454291963" lon="16.8203441306937"><ele>342.5</ele><time>2026-03-29T09:41:04Z</time></trkpt><trkpt lat="40.64534973781953" lon="16.820506052088458"><ele>341.0</ele><time>2026-03-29T09:41:05Z</time></trkpt><trkpt lat="40.64554428338544" lon="16.820702044045813"><ele>341.0</ele><time>2026-03-29T09:41:06Z</time></trkpt><trkpt lat="40.64576079900675" lon="16.820899127642395"><ele>341.0</ele><time>2026-03-29T09:41:07Z</time></trkpt><trkpt lat="40.64598392464267" lon="16.82110273351286"><ele>341.5</ele><time>2026-03-29T09:41:08Z</time></trkpt><trkpt lat="40.6462115908536" lon="16.82131086028395"><ele>342.0</ele><time>2026-03-29T09:41:09Z</time></trkpt><trkpt lat="40.64644826285583" lon="16.8215049055322"><ele>342.0</ele><time>2026-03-29T09:41:10Z</time></trkpt><trkpt lat="40.6466754500021" lon="16.821713192127994"><ele>342.0</ele><time>2026-03-29T09:41:11Z</time></trkpt><trkpt lat="40.646888944328104" lon="16.82191068289008"><ele>342.0</ele><time>2026-03-29T09:41:12Z</time></trkpt><trkpt lat="40.64709436745447" lon="16.82209999726245"><ele>342.0</ele><time>2026-03-29T09:41:13Z</time></trkpt><trkpt lat="40.64729624676686" lon="16.82228657370826"><ele>342.0</ele><time>2026-03-29T09:41:14Z</time></trkpt><trkpt lat="40.64748013383108" lon="16.82245830620431"><ele>342.0</ele><time>2026-03-29T09:41:15Z</time></trkpt><trkpt lat="40.64766501961208" lon="16.822636059634785"><ele>340.6666666666667</ele><time>2026-03-29T09:41:16Z</time></trkpt><trkpt lat="40.647836799023736" lon="16.82281060803106"><ele>339.33333333333337</ele><time>2026-03-29T09:41:17Z</time></trkpt><trkpt lat="40.64799242673292" lon="16.82297903288886"><ele>338.0</ele><time>2026-03-29T09:41:18Z</time></trkpt><trkpt lat="40.64813814760745" lon="16.823145649544504"><ele>338.0</ele><time>2026-03-29T09:41:19Z</time></trkpt><trkpt lat="40.64827490257076" lon="16.82332686070291"><ele>338.0</ele><time>2026-03-29T09:41:20Z</time></trkpt><trkpt lat="40.64839850862193" lon="16.823532941314486"><ele>338.0</ele><time>2026-03-29T09:41:21Z</time></trkpt><trkpt lat="40.648504520285286" lon="16.82376318578138"><ele>338.0</ele><time>2026-03-29T09:41:22Z</time></trkpt><trkpt lat="40.64859400594637" lon="16.82398565243097"><ele>338.0</ele><time>2026-03-29T09:41:23Z</time></trkpt><trkpt lat="40.64868653962127" lon="16.82419805614813"><ele>338.0</ele><time>2026-03-29T09:41:24Z</time></trkpt><trkpt lat="40.648773779874695" lon="16.82443431278586"><ele>337.6666666666667</ele><time>2026-03-29T09:41:25Z</time></trkpt><trkpt lat="40.64883218383297" lon="16.824693684271658"><ele>337.3333333333333</ele><time>2026-03-29T09:41:26Z</time></trkpt><trkpt lat="40.648856649905625" lon="16.824966771940126"><ele>337.0</ele><time>2026-03-29T09:41:27Z</time></trkpt><trkpt lat="40.64888663247319" lon="16.82523538577041"><ele>337.0</ele><time>2026-03-29T09:41:28Z</time></trkpt><trkpt lat="40.6488326457415" lon="16.82553896081584"><ele>337.0</ele><time>2026-03-29T09:41:29Z</time></trkpt><trkpt lat="40.648818743751725" lon="16.825847076691243"><ele>336.5</ele><time>2026-03-29T09:41:30Z</time></trkpt><trkpt lat="40.64880535772809" lon="16.826169998248364"><ele>336.0</ele><time>2026-03-29T09:41:31Z</time></trkpt><trkpt lat="40.64879062483503" lon="16.82650726416112"><ele>335.0</ele><time>2026-03-29T09:41:32Z</time></trkpt><trkpt lat="40.64877016338851" lon="16.82685075545394"><ele>334.0</ele><time>2026-03-29T09:41:33Z</time></trkpt><trkpt lat="40.648750711873156" lon="16.82720478400465"><ele>334.0</ele><time>2026-03-29T09:41:34Z</time></trkpt><trkpt lat="40.64873438892056" lon="16.827565273425538"><ele>334.0</ele><time>2026-03-29T09:41:35Z</time></trkpt><trkpt lat="40.64870874560403" lon="16.82792872059644"><ele>334.5</ele><time>2026-03-29T09:41:36Z</time></trkpt><trkpt lat="40.64870468581625" lon="16.828292337877865"><ele>335.0</ele><time>2026-03-29T09:41:37Z</time></trkpt><trkpt lat="40.64870885445049" lon="16.828642213121622"><ele>335.0</ele><time>2026-03-29T09:41:38Z</time></trkpt><trkpt lat="40.64873106731708" lon="16.82897598967539"><ele>335.0</ele><time>2026-03-29T09:41:39Z</time></trkpt><trkpt lat="40.64874065168787" lon="16.82931165814077"><ele>333.0</ele><time>2026-03-29T09:41:40Z</time></trkpt><trkpt lat="40.64875360798531" lon="16.829652559013812"><ele>331.0</ele><time>2026-03-29T09:41:41Z</time></trkpt><trkpt lat="40.64875010401469" lon="16.830001473505103"><ele>330.5</ele><time>2026-03-29T09:41:42Z</time></trkpt><trkpt lat="40.648762105885744" lon="16.830354968622625"><ele>330.0</ele><time>2026-03-29T09:41:43Z</time></trkpt><trkpt lat="40.648774249219336" lon="16.83071170691049"><ele>329.0</ele><time>2026-03-29T09:41:44Z</time></trkpt><trkpt lat="40.648786746368785" lon="16.83107884077187"><ele>328.0</ele><time>2026-03-29T09:41:45Z</time></trkpt><trkpt lat="40.648799498488245" lon="16.831453483013192"><ele>327.0</ele><time>2026-03-29T09:41:46Z</time></trkpt><trkpt lat="40.64881241036379" lon="16.831832818672186"><ele>326.0</ele><time>2026-03-29T09:41:47Z</time></trkpt><trkpt lat="40.648853804664114" lon="16.832211828011825"><ele>326.0</ele><time>2026-03-29T09:41:48Z</time></trkpt><trkpt lat="40.64886041981785" lon="16.832580691953254"><ele>326.0</ele><time>2026-03-29T09:41:49Z</time></trkpt><trkpt lat="40.648869085064206" lon="16.832928875433968"><ele>326.0</ele><time>2026-03-29T09:41:50Z</time></trkpt><trkpt lat="40.6488797131933" lon="16.833255712392397"><ele>326.0</ele><time>2026-03-29T09:41:51Z</time></trkpt><trkpt lat="40.648890792136854" lon="16.833563371784333"><ele>325.6666666666667</ele><time>2026-03-29T09:41:52Z</time></trkpt><trkpt lat="40.64890088970558" lon="16.83385455839832"><ele>325.3333333333333</ele><time>2026-03-29T09:41:53Z</time></trkpt><trkpt lat="40.648914182071216" lon="16.834149331847687"><ele>325.0</ele><time>2026-03-29T09:41:54Z</time></trkpt><trkpt lat="40.64893595468226" lon="16.834472504282303"><ele>324.0</ele><time>2026-03-29T09:41:55Z</time></trkpt><trkpt lat="40.64895151485812" lon="16.834823571167593"><ele>323.0</ele><time>2026-03-29T09:41:56Z</time></trkpt><trkpt lat="40.6489584919195" lon="16.83519553208208"><ele>322.5</ele><time>2026-03-29T09:41:57Z</time></trkpt><trkpt lat="40.648962850370836" lon="16.8355823225582"><ele>322.0</ele><time>2026-03-29T09:41:58Z</time></trkpt><trkpt lat="40.64897029374218" lon="16.835978731838015"><ele>322.0</ele><time>2026-03-29T09:41:59Z</time></trkpt><trkpt lat="40.64898472770835" lon="16.836372099122595"><ele>322.0</ele><time>2026-03-29T09:42:00Z</time></trkpt><trkpt lat="40.648997453674774" lon="16.836770923731297"><ele>322.0</ele><time>2026-03-29T09:42:01Z</time></trkpt><trkpt lat="40.64900829954203" lon="16.83717051541353"><ele>322.0</ele><time>2026-03-29T09:42:02Z</time></trkpt><trkpt lat="40.64901845594465" lon="16.837568726684793"><ele>320.5</ele><time>2026-03-29T09:42:03Z</time></trkpt><trkpt lat="40.64903078043092" lon="16.837967509139034"><ele>319.0</ele><time>2026-03-29T09:42:04Z</time></trkpt><trkpt lat="40.6490445078984" lon="16.8383666925087"><ele>318.0</ele><time>2026-03-29T09:42:05Z</time></trkpt><trkpt lat="40.64905911359838" lon="16.83876440531425"><ele>317.0</ele><time>2026-03-29T09:42:06Z</time></trkpt><trkpt lat="40.64907427379244" lon="16.839164090118278"><ele>319.0</ele><time>2026-03-29T09:42:07Z</time></trkpt><trkpt lat="40.64908499675789" lon="16.839561446696838"><ele>321.0</ele><time>2026-03-29T09:42:08Z</time></trkpt><trkpt lat="40.64909582343763" lon="16.83995690299132"><ele>320.5</ele><time>2026-03-29T09:42:09Z</time></trkpt><trkpt lat="40.64910920068854" lon="16.840355111540717"><ele>320.0</ele><time>2026-03-29T09:42:10Z</time></trkpt><trkpt lat="40.649121461665246" lon="16.840751125955386"><ele>319.0</ele><time>2026-03-29T09:42:11Z</time></trkpt><trkpt lat="40.64913491790395" lon="16.841149193590702"><ele>318.0</ele><time>2026-03-29T09:42:12Z</time></trkpt><trkpt lat="40.64914814137643" lon="16.841548999959056"><ele>318.5</ele><time>2026-03-29T09:42:13Z</time></trkpt><trkpt lat="40.64916075012232" lon="16.841949001875868"><ele>319.0</ele><time>2026-03-29T09:42:14Z</time></trkpt><trkpt lat="40.64917476391395" lon="16.842345300738767"><ele>319.0</ele><time>2026-03-29T09:42:15Z</time></trkpt><trkpt lat="40.64918780945467" lon="16.842743312852036"><ele>319.0</ele><time>2026-03-29T09:42:16Z</time></trkpt><trkpt lat="40.649202040746125" lon="16.84313999752198"><ele>318.5</ele><time>2026-03-29T09:42:17Z</time></trkpt><trkpt lat="40.649213821478526" lon="16.84353698729825"><ele>318.0</ele><time>2026-03-29T09:42:18Z</time></trkpt><trkpt lat="40.64922490076079" lon="16.84393230902383"><ele>317.5</ele><time>2026-03-29T09:42:19Z</time></trkpt><trkpt lat="40.649235693419804" lon="16.844327586668374"><ele>317.0</ele><time>2026-03-29T09:42:20Z</time></trkpt><trkpt lat="40.64924696804914" lon="16.844723062572687"><ele>317.0</ele><time>2026-03-29T09:42:21Z</time></trkpt><trkpt lat="40.6492588466767" lon="16.845118094682135"><ele>317.0</ele><time>2026-03-29T09:42:22Z</time></trkpt><trkpt lat="40.649271815586566" lon="16.845512955503246"><ele>316.5</ele><time>2026-03-29T09:42:23Z</time></trkpt><trkpt lat="40.64928561613353" lon="16.845905649948442"><ele>316.0</ele><time>2026-03-29T09:42:24Z</time></trkpt><trkpt lat="40.64930013181431" lon="16.846302940265655"><ele>316.0</ele><time>2026-03-29T09:42:25Z</time></trkpt><trkpt lat="40.64931552818406" lon="16.84669487067579"><ele>316.0</ele><time>2026-03-29T09:42:26Z</time></trkpt><trkpt lat="40.64932980552524" lon="16.847085155247566"><ele>315.0</ele><time>2026-03-29T09:42:27Z</time></trkpt><trkpt lat="40.64934574987178" lon="16.847473892353353"><ele>314.0</ele><time>2026-03-29T09:42:28Z</time></trkpt><trkpt lat="40.64936019117576" lon="16.84786202729182"><ele>313.5</ele><time>2026-03-29T09:42:29Z</time></trkpt><trkpt lat="40.649373682422365" lon="16.848252228405034"><ele>313.0</ele><time>2026-03-29T09:42:30Z</time></trkpt><trkpt lat="40.649386730713815" lon="16.848642914013023"><ele>312.0</ele><time>2026-03-29T09:42:31Z</time></trkpt><trkpt lat="40.64939800425217" lon="16.849036063861437"><ele>311.0</ele><time>2026-03-29T09:42:32Z</time></trkpt><trkpt lat="40.64940912517767" lon="16.849430410980904"><ele>311.0</ele><time>2026-03-29T09:42:33Z</time></trkpt><trkpt lat="40.649421879746896" lon="16.849826523707375"><ele>311.0</ele><time>2026-03-29T09:42:34Z</time></trkpt><trkpt lat="40.649434581513304" lon="16.850224481513848"><ele>310.0</ele><time>2026-03-29T09:42:35Z</time></trkpt><trkpt lat="40.64944684293384" lon="16.85062610327699"><ele>309.0</ele><time>2026-03-29T09:42:36Z</time></trkpt><trkpt lat="40.649461642533865" lon="16.85102752405493"><ele>307.5</ele><time>2026-03-29T09:42:37Z</time></trkpt><trkpt lat="40.649477326777514" lon="16.85142773450458"><ele>306.0</ele><time>2026-03-29T09:42:38Z</time></trkpt><trkpt lat="40.64947381228561" lon="16.851826645936555"><ele>306.0</ele><time>2026-03-29T09:42:39Z</time></trkpt><trkpt lat="40.64948798293995" lon="16.85222548310463"><ele>306.0</ele><time>2026-03-29T09:42:40Z</time></trkpt><trkpt lat="40.649502194263675" lon="16.852624943765658"><ele>306.0</ele><time>2026-03-29T09:42:41Z</time></trkpt><trkpt lat="40.649516338243245" lon="16.853022111207096"><ele>306.0</ele><time>2026-03-29T09:42:42Z</time></trkpt><trkpt lat="40.649530109107324" lon="16.853418050384395"><ele>305.5</ele><time>2026-03-29T09:42:43Z</time></trkpt><trkpt lat="40.649543591072174" lon="16.853814276987382"><ele>305.0</ele><time>2026-03-29T09:42:44Z</time></trkpt><trkpt lat="40.649556863824984" lon="16.854210727606592"><ele>305.0</ele><time>2026-03-29T09:42:45Z</time></trkpt><trkpt lat="40.64956938329247" lon="16.85458467762637"><ele>305.0</ele><time>2026-03-29T09:42:46Z</time></trkpt><trkpt lat="40.64958135227991" lon="16.854942184745795"><ele>304.0</ele><time>2026-03-29T09:42:47Z</time></trkpt><trkpt lat="40.649593200238286" lon="16.855291041175246"><ele>303.0</ele><time>2026-03-29T09:42:48Z</time></trkpt><trkpt lat="40.6496217921593" lon="16.855641343273863"><ele>302.5</ele><time>2026-03-29T09:42:49Z</time></trkpt><trkpt lat="40.6496302014006" lon="16.855994113847856"><ele>302.0</ele><time>2026-03-29T09:42:50Z</time></trkpt><trkpt lat="40.649638289999" lon="16.856350744966694"><ele>302.0</ele><time>2026-03-29T09:42:51Z</time></trkpt><trkpt lat="40.649652615012045" lon="16.856706907923478"><ele>302.0</ele><time>2026-03-29T09:42:52Z</time></trkpt><trkpt lat="40.64966942404416" lon="16.85706503709913"><ele>301.0</ele><time>2026-03-29T09:42:53Z</time></trkpt><trkpt lat="40.649683697125546" lon="16.85742494753818"><ele>300.0</ele><time>2026-03-29T09:42:54Z</time></trkpt><trkpt lat="40.649678745697614" lon="16.857790304101723"><ele>299.0</ele><time>2026-03-29T09:42:55Z</time></trkpt><trkpt lat="40.649690691072074" lon="16.8581710206363"><ele>298.0</ele><time>2026-03-29T09:42:56Z</time></trkpt><trkpt lat="40.64970292467423" lon="16.858560923391"><ele>297.5</ele><time>2026-03-29T09:42:57Z</time></trkpt><trkpt lat="40.64971625378623" lon="16.858954616024487"><ele>297.0</ele><time>2026-03-29T09:42:58Z</time></trkpt><trkpt lat="40.64973113603103" lon="16.85935535997074"><ele>296.5</ele><time>2026-03-29T09:42:59Z</time></trkpt><trkpt lat="40.64974620930856" lon="16.859761247949457"><ele>296.0</ele><time>2026-03-29T09:43:00Z</time></trkpt><trkpt lat="40.64977366750273" lon="16.860173779721084"><ele>296.0</ele><time>2026-03-29T09:43:01Z</time></trkpt><trkpt lat="40.64978479079991" lon="16.860591204620444"><ele>296.0</ele><time>2026-03-29T09:43:02Z</time></trkpt><trkpt lat="40.649796279115115" lon="16.86099967731138"><ele>296.0</ele><time>2026-03-29T09:43:03Z</time></trkpt><trkpt lat="40.649804103751535" lon="16.86139290113883"><ele>296.0</ele><time>2026-03-29T09:43:04Z</time></trkpt><trkpt lat="40.64980853623289" lon="16.861786133352812"><ele>296.0</ele><time>2026-03-29T09:43:05Z</time></trkpt><trkpt lat="40.64981423436928" lon="16.86218105581612"><ele>296.0</ele><time>2026-03-29T09:43:06Z</time></trkpt><trkpt lat="40.64982543438925" lon="16.862575181559617"><ele>296.5</ele><time>2026-03-29T09:43:07Z</time></trkpt><trkpt lat="40.649836911068306" lon="16.86297285395957"><ele>297.0</ele><time>2026-03-29T09:43:08Z</time></trkpt><trkpt lat="40.64985106099518" lon="16.86337057156582"><ele>297.5</ele><time>2026-03-29T09:43:09Z</time></trkpt><trkpt lat="40.649866252665426" lon="16.863764524995315"><ele>298.0</ele><time>2026-03-29T09:43:10Z</time></trkpt><trkpt lat="40.64988536675447" lon="16.864152262936663"><ele>299.0</ele><time>2026-03-29T09:43:11Z</time></trkpt><trkpt lat="40.64991126641449" lon="16.864541130018296"><ele>300.0</ele><time>2026-03-29T09:43:12Z</time></trkpt><trkpt lat="40.64993131994288" lon="16.86493356539124"><ele>302.0</ele><time>2026-03-29T09:43:13Z</time></trkpt><trkpt lat="40.64994722941253" lon="16.865333492579403"><ele>304.0</ele><time>2026-03-29T09:43:14Z</time></trkpt><trkpt lat="40.649961966351405" lon="16.865734901136765"><ele>305.0</ele><time>2026-03-29T09:43:15Z</time></trkpt><trkpt lat="40.649974140318214" lon="16.86612696070378"><ele>306.0</ele><time>2026-03-29T09:43:16Z</time></trkpt><trkpt lat="40.649981269486354" lon="16.866483459429837"><ele>306.0</ele><time>2026-03-29T09:43:17Z</time></trkpt><trkpt lat="40.649980061348" lon="16.866834365178732"><ele>306.0</ele><time>2026-03-29T09:43:18Z</time></trkpt><trkpt lat="40.64997396064441" lon="16.867197575209573"><ele>306.0</ele><time>2026-03-29T09:43:19Z</time></trkpt><trkpt lat="40.649971051047146" lon="16.867569598436518"><ele>306.0</ele><time>2026-03-29T09:43:20Z</time></trkpt><trkpt lat="40.649969003454316" lon="16.867951653651065"><ele>305.5</ele><time>2026-03-29T09:43:21Z</time></trkpt><trkpt lat="40.64996675403475" lon="16.868341741318314"><ele>305.0</ele><time>2026-03-29T09:43:22Z</time></trkpt><trkpt lat="40.64995929101202" lon="16.868738715574974"><ele>305.0</ele><time>2026-03-29T09:43:23Z</time></trkpt><trkpt lat="40.64995262754061" lon="16.869144992530668"><ele>305.0</ele><time>2026-03-29T09:43:24Z</time></trkpt><trkpt lat="40.64994563230587" lon="16.86955834557577"><ele>305.0</ele><time>2026-03-29T09:43:25Z</time></trkpt><trkpt lat="40.64993969471275" lon="16.869977695865074"><ele>305.0</ele><time>2026-03-29T09:43:26Z</time></trkpt><trkpt lat="40.64993515068436" lon="16.870403512715974"><ele>305.0</ele><time>2026-03-29T09:43:27Z</time></trkpt><trkpt lat="40.64992961575405" lon="16.87083313326377"><ele>305.0</ele><time>2026-03-29T09:43:28Z</time></trkpt><trkpt lat="40.64992496175908" lon="16.87126423828508"><ele>304.5</ele><time>2026-03-29T09:43:29Z</time></trkpt><trkpt lat="40.649919704212365" lon="16.871687443019965"><ele>304.0</ele><time>2026-03-29T09:43:30Z</time></trkpt><trkpt lat="40.649918099633815" lon="16.872104469446843"><ele>303.5</ele><time>2026-03-29T09:43:31Z</time></trkpt><trkpt lat="40.64991377126892" lon="16.872521297451257"><ele>303.0</ele><time>2026-03-29T09:43:32Z</time></trkpt><trkpt lat="40.649908903315556" lon="16.872935460234917"><ele>303.0</ele><time>2026-03-29T09:43:33Z</time></trkpt><trkpt lat="40.649903490176165" lon="16.873346456123137"><ele>303.0</ele><time>2026-03-29T09:43:34Z</time></trkpt><trkpt lat="40.64989943245554" lon="16.87376068309718"><ele>303.0</ele><time>2026-03-29T09:43:35Z</time></trkpt><trkpt lat="40.64989418556326" lon="16.874172097326692"><ele>303.0</ele><time>2026-03-29T09:43:36Z</time></trkpt><trkpt lat="40.649885912537606" lon="16.874584704051177"><ele>302.5</ele><time>2026-03-29T09:43:37Z</time></trkpt><trkpt lat="40.64988110868654" lon="16.87499929073317"><ele>302.0</ele><time>2026-03-29T09:43:38Z</time></trkpt><trkpt lat="40.64987364129989" lon="16.8754140266597"><ele>301.5</ele><time>2026-03-29T09:43:39Z</time></trkpt><trkpt lat="40.64986776352713" lon="16.87582560689731"><ele>301.0</ele><time>2026-03-29T09:43:40Z</time></trkpt><trkpt lat="40.64986234027383" lon="16.876237072753344"><ele>301.0</ele><time>2026-03-29T09:43:41Z</time></trkpt><trkpt lat="40.64985731989065" lon="16.876648239956737"><ele>301.0</ele><time>2026-03-29T09:43:42Z</time></trkpt><trkpt lat="40.64985325253055" lon="16.877060477972844"><ele>300.5</ele><time>2026-03-29T09:43:43Z</time></trkpt><trkpt lat="40.649849456920414" lon="16.877473201774574"><ele>300.0</ele><time>2026-03-29T09:43:44Z</time></trkpt><trkpt lat="40.64984362755479" lon="16.877887673395623"><ele>300.0</ele><time>2026-03-29T09:43:45Z</time></trkpt><trkpt lat="40.649838245144544" lon="16.878304395714665"><ele>300.0</ele><time>2026-03-29T09:43:46Z</time></trkpt><trkpt lat="40.649833603353706" lon="16.87871727820742"><ele>300.0</ele><time>2026-03-29T09:43:47Z</time></trkpt><trkpt lat="40.64982743157243" lon="16.879120174803152"><ele>300.0</ele><time>2026-03-29T09:43:48Z</time></trkpt><trkpt lat="40.64982363743013" lon="16.879526081676346"><ele>300.0</ele><time>2026-03-29T09:43:49Z</time></trkpt><trkpt lat="40.64981781230162" lon="16.87993788088908"><ele>300.0</ele><time>2026-03-29T09:43:50Z</time></trkpt><trkpt lat="40.64981265539944" lon="16.88035240555058"><ele>300.0</ele><time>2026-03-29T09:43:51Z</time></trkpt><trkpt lat="40.64980642995939" lon="16.8807720650037"><ele>300.0</ele><time>2026-03-29T09:43:52Z</time></trkpt><trkpt lat="40.649799259392104" lon="16.88119317116062"><ele>299.5</ele><time>2026-03-29T09:43:53Z</time></trkpt><trkpt lat="40.64979394978468" lon="16.88161484391748"><ele>299.0</ele><time>2026-03-29T09:43:54Z</time></trkpt><trkpt lat="40.64978845365973" lon="16.882039812702924"><ele>298.0</ele><time>2026-03-29T09:43:55Z</time></trkpt><trkpt lat="40.64978242277433" lon="16.882467030479386"><ele>297.0</ele><time>2026-03-29T09:43:56Z</time></trkpt><trkpt lat="40.64977651386134" lon="16.88289346402861"><ele>297.0</ele><time>2026-03-29T09:43:57Z</time></trkpt><trkpt lat="40.64976936359977" lon="16.883326344510845"><ele>297.0</ele><time>2026-03-29T09:43:58Z</time></trkpt><trkpt lat="40.64976382973996" lon="16.88375848835294"><ele>296.5</ele><time>2026-03-29T09:43:59Z</time></trkpt><trkpt lat="40.649757481749404" lon="16.884191441774245"><ele>296.0</ele><time>2026-03-29T09:44:00Z</time></trkpt><trkpt lat="40.64975096586203" lon="16.88462780486623"><ele>296.0</ele><time>2026-03-29T09:44:01Z</time></trkpt><trkpt lat="40.64974417778539" lon="16.885065172550256"><ele>296.0</ele><time>2026-03-29T09:44:02Z</time></trkpt><trkpt lat="40.64973621973597" lon="16.885502418326638"><ele>293.5</ele><time>2026-03-29T09:44:03Z</time></trkpt><trkpt lat="40.64973071761412" lon="16.885942362530347"><ele>291.0</ele><time>2026-03-29T09:44:04Z</time></trkpt><trkpt lat="40.64972521041169" lon="16.886377798981574"><ele>290.0</ele><time>2026-03-29T09:44:05Z</time></trkpt><trkpt lat="40.64971805843337" lon="16.886809684651535"><ele>289.0</ele><time>2026-03-29T09:44:06Z</time></trkpt><trkpt lat="40.64971217841905" lon="16.887242421593612"><ele>288.5</ele><time>2026-03-29T09:44:07Z</time></trkpt><trkpt lat="40.64970950158467" lon="16.887671195109025"><ele>288.0</ele><time>2026-03-29T09:44:08Z</time></trkpt><trkpt lat="40.64970466044963" lon="16.888094865835495"><ele>288.0</ele><time>2026-03-29T09:44:09Z</time></trkpt><trkpt lat="40.649698499769684" lon="16.88851890514459"><ele>288.0</ele><time>2026-03-29T09:44:10Z</time></trkpt><trkpt lat="40.64969276387848" lon="16.88893802601648"><ele>287.5</ele><time>2026-03-29T09:44:11Z</time></trkpt><trkpt lat="40.649689698499145" lon="16.889356526219277"><ele>287.0</ele><time>2026-03-29T09:44:12Z</time></trkpt><trkpt lat="40.649686399563954" lon="16.889771225665694"><ele>286.5</ele><time>2026-03-29T09:44:13Z</time></trkpt><trkpt lat="40.64968061177615" lon="16.890184783357583"><ele>286.0</ele><time>2026-03-29T09:44:14Z</time></trkpt><trkpt lat="40.64967498876764" lon="16.890597301689834"><ele>286.0</ele><time>2026-03-29T09:44:15Z</time></trkpt><trkpt lat="40.6496689542884" lon="16.891014716289593"><ele>286.0</ele><time>2026-03-29T09:44:16Z</time></trkpt><trkpt lat="40.649663347176386" lon="16.89142888619514"><ele>285.5</ele><time>2026-03-29T09:44:17Z</time></trkpt><trkpt lat="40.64965844495243" lon="16.89184436033779"><ele>285.0</ele><time>2026-03-29T09:44:18Z</time></trkpt><trkpt lat="40.649655383376775" lon="16.89225708669507"><ele>284.5</ele><time>2026-03-29T09:44:19Z</time></trkpt><trkpt lat="40.64964859450786" lon="16.892664812885968"><ele>284.0</ele><time>2026-03-29T09:44:20Z</time></trkpt><trkpt lat="40.64964702940714" lon="16.89307355555411"><ele>283.5</ele><time>2026-03-29T09:44:21Z</time></trkpt><trkpt lat="40.64962905249429" lon="16.893479038265497"><ele>283.0</ele><time>2026-03-29T09:44:22Z</time></trkpt><trkpt lat="40.649622745848184" lon="16.893887517802426"><ele>282.5</ele><time>2026-03-29T09:44:23Z</time></trkpt><trkpt lat="40.64961662221911" lon="16.894300045535278"><ele>282.0</ele><time>2026-03-29T09:44:24Z</time></trkpt><trkpt lat="40.64961192895662" lon="16.894707466714962"><ele>281.5</ele><time>2026-03-29T09:44:25Z</time></trkpt><trkpt lat="40.64960724226139" lon="16.895114317587247"><ele>281.0</ele><time>2026-03-29T09:44:26Z</time></trkpt><trkpt lat="40.64960255325985" lon="16.895521368648314"><ele>280.5</ele><time>2026-03-29T09:44:27Z</time></trkpt><trkpt lat="40.64959766021481" lon="16.895931102064214"><ele>280.0</ele><time>2026-03-29T09:44:28Z</time></trkpt><trkpt lat="40.64959138903772" lon="16.89633968016778"><ele>280.0</ele><time>2026-03-29T09:44:29Z</time></trkpt><trkpt lat="40.64958608319431" lon="16.896747561798406"><ele>280.0</ele><time>2026-03-29T09:44:30Z</time></trkpt><trkpt lat="40.64958144816928" lon="16.897154608746618"><ele>280.0</ele><time>2026-03-29T09:44:31Z</time></trkpt><trkpt lat="40.64957561356908" lon="16.897558519122285"><ele>280.0</ele><time>2026-03-29T09:44:32Z</time></trkpt><trkpt lat="40.64956974245417" lon="16.897961160553574"><ele>280.0</ele><time>2026-03-29T09:44:33Z</time></trkpt><trkpt lat="40.6495642987097" lon="16.898364525290543"><ele>280.0</ele><time>2026-03-29T09:44:34Z</time></trkpt><trkpt lat="40.649573839892874" lon="16.898767899104776"><ele>279.0</ele><time>2026-03-29T09:44:35Z</time></trkpt><trkpt lat="40.64956723644302" lon="16.899169047572432"><ele>278.0</ele><time>2026-03-29T09:44:36Z</time></trkpt><trkpt lat="40.64956060220898" lon="16.89956877628678"><ele>277.0</ele><time>2026-03-29T09:44:37Z</time></trkpt><trkpt lat="40.64955393616786" lon="16.899968836568558"><ele>276.0</ele><time>2026-03-29T09:44:38Z</time></trkpt><trkpt lat="40.64954648962377" lon="16.90036622890176"><ele>276.0</ele><time>2026-03-29T09:44:39Z</time></trkpt><trkpt lat="40.64953993624241" lon="16.90076458679837"><ele>276.0</ele><time>2026-03-29T09:44:40Z</time></trkpt><trkpt lat="40.64953370021525" lon="16.901164847860677"><ele>275.0</ele><time>2026-03-29T09:44:41Z</time></trkpt><trkpt lat="40.649527681279125" lon="16.90156663123852"><ele>274.0</ele><time>2026-03-29T09:44:42Z</time></trkpt><trkpt lat="40.64952163853876" lon="16.901969430788395"><ele>274.0</ele><time>2026-03-29T09:44:43Z</time></trkpt><trkpt lat="40.64951655772168" lon="16.902371178058033"><ele>274.0</ele><time>2026-03-29T09:44:44Z</time></trkpt><trkpt lat="40.649510943249695" lon="16.90277210926423"><ele>274.0</ele><time>2026-03-29T09:44:45Z</time></trkpt><trkpt lat="40.64950372937207" lon="16.90317313283675"><ele>274.0</ele><time>2026-03-29T09:44:46Z</time></trkpt><trkpt lat="40.64949735982206" lon="16.90357232848123"><ele>275.0</ele><time>2026-03-29T09:44:47Z</time></trkpt><trkpt lat="40.64949152086469" lon="16.903969911819797"><ele>276.0</ele><time>2026-03-29T09:44:48Z</time></trkpt><trkpt lat="40.64948700100883" lon="16.90437091947733"><ele>276.0</ele><time>2026-03-29T09:44:49Z</time></trkpt><trkpt lat="40.6494816228091" lon="16.90477319589898"><ele>276.0</ele><time>2026-03-29T09:44:50Z</time></trkpt><trkpt lat="40.64947770951055" lon="16.90517473067121"><ele>276.0</ele><time>2026-03-29T09:44:51Z</time></trkpt><trkpt lat="40.64947197758718" lon="16.9055735372277"><ele>276.0</ele><time>2026-03-29T09:44:52Z</time></trkpt><trkpt lat="40.64946886138639" lon="16.90597300525966"><ele>276.0</ele><time>2026-03-29T09:44:53Z</time></trkpt><trkpt lat="40.649467403332835" lon="16.906372495092846"><ele>276.0</ele><time>2026-03-29T09:44:54Z</time></trkpt><trkpt lat="40.649465681643306" lon="16.906766494352645"><ele>276.0</ele><time>2026-03-29T09:44:55Z</time></trkpt><trkpt lat="40.64945999434562" lon="16.9071592826416"><ele>276.0</ele><time>2026-03-29T09:44:56Z</time></trkpt><trkpt lat="40.64945346262219" lon="16.907554345166172"><ele>275.0</ele><time>2026-03-29T09:44:57Z</time></trkpt><trkpt lat="40.64944588970554" lon="16.907950666045295"><ele>274.0</ele><time>2026-03-29T09:44:58Z</time></trkpt><trkpt lat="40.649437933389414" lon="16.90834563340594"><ele>274.0</ele><time>2026-03-29T09:44:59Z</time></trkpt><trkpt lat="40.649428897951104" lon="16.908744191951772"><ele>274.0</ele><time>2026-03-29T09:45:00Z</time></trkpt><trkpt lat="40.64942255602927" lon="16.909148937098816"><ele>274.0</ele><time>2026-03-29T09:45:01Z</time></trkpt><trkpt lat="40.64942163727821" lon="16.909553691031032"><ele>274.0</ele><time>2026-03-29T09:45:02Z</time></trkpt><trkpt lat="40.64941917888157" lon="16.909956741245594"><ele>274.0</ele><time>2026-03-29T09:45:03Z</time></trkpt><trkpt lat="40.64941465501312" lon="16.910365176739703"><ele>274.0</ele><time>2026-03-29T09:45:04Z</time></trkpt><trkpt lat="40.64940749536674" lon="16.91077681514311"><ele>273.5</ele><time>2026-03-29T09:45:05Z</time></trkpt><trkpt lat="40.64939778843483" lon="16.911191476701134"><ele>273.0</ele><time>2026-03-29T09:45:06Z</time></trkpt><trkpt lat="40.64939511912744" lon="16.91160732026788"><ele>271.5</ele><time>2026-03-29T09:45:07Z</time></trkpt><trkpt lat="40.64939193872035" lon="16.912022317474392"><ele>270.0</ele><time>2026-03-29T09:45:08Z</time></trkpt><trkpt lat="40.64938622457267" lon="16.912437860654844"><ele>270.5</ele><time>2026-03-29T09:45:09Z</time></trkpt><trkpt lat="40.649379995394206" lon="16.912848796792183"><ele>271.0</ele><time>2026-03-29T09:45:10Z</time></trkpt><trkpt lat="40.64937185256607" lon="16.913237090626975"><ele>271.0</ele><time>2026-03-29T09:45:11Z</time></trkpt><trkpt lat="40.6493683029467" lon="16.913605333579078"><ele>271.0</ele><time>2026-03-29T09:45:12Z</time></trkpt><trkpt lat="40.64936322962151" lon="16.913945840268884"><ele>271.0</ele><time>2026-03-29T09:45:13Z</time></trkpt><trkpt lat="40.649357264803456" lon="16.91426619071359"><ele>271.0</ele><time>2026-03-29T09:45:14Z</time></trkpt><trkpt lat="40.649351990629874" lon="16.914562638678404"><ele>271.0</ele><time>2026-03-29T09:45:15Z</time></trkpt><trkpt lat="40.64934679799034" lon="16.914846658214593"><ele>271.0</ele><time>2026-03-29T09:45:16Z</time></trkpt><trkpt lat="40.64934163258478" lon="16.91511394976511"><ele>271.0</ele><time>2026-03-29T09:45:17Z</time></trkpt><trkpt lat="40.64933583593406" lon="16.91536118390451"><ele>271.0</ele><time>2026-03-29T09:45:18Z</time></trkpt><trkpt lat="40.649313970511535" lon="16.915577084018793"><ele>271.0</ele><time>2026-03-29T09:45:19Z</time></trkpt><trkpt lat="40.649280970018076" lon="16.915767360201134"><ele>271.0</ele><time>2026-03-29T09:45:20Z</time></trkpt><trkpt lat="40.64923922028371" lon="16.915935464483344"><ele>271.0</ele><time>2026-03-29T09:45:21Z</time></trkpt><trkpt lat="40.64918469065881" lon="16.916071930480435"><ele>270.8</ele><time>2026-03-29T09:45:22Z</time></trkpt><trkpt lat="40.6491073208313" lon="16.91617013590863"><ele>270.6</ele><time>2026-03-29T09:45:23Z</time></trkpt><trkpt lat="40.649018489679854" lon="16.916233748897877"><ele>270.4</ele><time>2026-03-29T09:45:24Z</time></trkpt><trkpt lat="40.648936682184946" lon="16.916287662714502"><ele>270.2</ele><time>2026-03-29T09:45:25Z</time></trkpt><trkpt lat="40.648878689275314" lon="16.916369927790146"><ele>270.0</ele><time>2026-03-29T09:45:26Z</time></trkpt><trkpt lat="40.648857816167904" lon="16.91648924344507"><ele>270.0</ele><time>2026-03-29T09:45:27Z</time></trkpt><trkpt lat="40.64889925273654" lon="16.91661135987708"><ele>270.0</ele><time>2026-03-29T09:45:28Z</time></trkpt><trkpt lat="40.64895895587889" lon="16.91670588489804"><ele>270.0</ele><time>2026-03-29T09:45:29Z</time></trkpt><trkpt lat="40.64904767237763" lon="16.91676124379751"><ele>270.0</ele><time>2026-03-29T09:45:30Z</time></trkpt><trkpt lat="40.64915260907972" lon="16.916768891468944"><ele>270.0</ele><time>2026-03-29T09:45:31Z</time></trkpt><trkpt lat="40.649264817277725" lon="16.916748016108432"><ele>270.0</ele><time>2026-03-29T09:45:32Z</time></trkpt><trkpt lat="40.649387080068024" lon="16.916753537791116"><ele>270.0</ele><time>2026-03-29T09:45:33Z</time></trkpt><trkpt lat="40.64949777874614" lon="16.916794257588585"><ele>270.0</ele><time>2026-03-29T09:45:34Z</time></trkpt><trkpt lat="40.649608176229364" lon="16.916865114975465"><ele>270.0</ele><time>2026-03-29T09:45:35Z</time></trkpt><trkpt lat="40.64972265745255" lon="16.91695734348618"><ele>270.0</ele><time>2026-03-29T09:45:36Z</time></trkpt><trkpt lat="40.64985148421263" lon="16.917064518674337"><ele>270.0</ele><time>2026-03-29T09:45:37Z</time></trkpt><trkpt lat="40.649996521515355" lon="16.91719175844749"><ele>270.0</ele><time>2026-03-29T09:45:38Z</time></trkpt><trkpt lat="40.650158118254524" lon="16.91733679192857"><ele>270.3333333333333</ele><time>2026-03-29T09:45:39Z</time></trkpt><trkpt lat="40.650330155708176" lon="16.91749334601962"><ele>270.66666666666663</ele><time>2026-03-29T09:45:40Z</time></trkpt><trkpt lat="40.6505122457662" lon="16.917660302683913"><ele>271.0</ele><time>2026-03-29T09:45:41Z</time></trkpt><trkpt lat="40.65070076302849" lon="16.917832096573918"><ele>270.0</ele><time>2026-03-29T09:45:42Z</time></trkpt><trkpt lat="40.65090002191075" lon="16.918010927865826"><ele>269.0</ele><time>2026-03-29T09:45:43Z</time></trkpt><trkpt lat="40.65111032882459" lon="16.918197199314896"><ele>269.5</ele><time>2026-03-29T09:45:44Z</time></trkpt><trkpt lat="40.65132383622316" lon="16.91838875859355"><ele>270.0</ele><time>2026-03-29T09:45:45Z</time></trkpt><trkpt lat="40.65153838783432" lon="16.918584669785695"><ele>270.0</ele><time>2026-03-29T09:45:46Z</time></trkpt><trkpt lat="40.65175928459922" lon="16.91878734924824"><ele>270.0</ele><time>2026-03-29T09:45:47Z</time></trkpt><trkpt lat="40.65198364144384" lon="16.918987388892923"><ele>270.0</ele><time>2026-03-29T09:45:48Z</time></trkpt><trkpt lat="40.65221216727952" lon="16.919190672768774"><ele>270.0</ele><time>2026-03-29T09:45:49Z</time></trkpt><trkpt lat="40.652440545100006" lon="16.91939899054887"><ele>270.0</ele><time>2026-03-29T09:45:50Z</time></trkpt><trkpt lat="40.6526690607458" lon="16.91960674677469"><ele>270.0</ele><time>2026-03-29T09:45:51Z</time></trkpt><trkpt lat="40.652898947615284" lon="16.919812845489286"><ele>270.0</ele><time>2026-03-29T09:45:52Z</time></trkpt><trkpt lat="40.65313065988002" lon="16.920017781513366"><ele>270.0</ele><time>2026-03-29T09:45:53Z</time></trkpt><trkpt lat="40.65336226539847" lon="16.92022472784405"><ele>270.0</ele><time>2026-03-29T09:45:54Z</time></trkpt><trkpt lat="40.65359185849831" lon="16.920432735926582"><ele>270.0</ele><time>2026-03-29T09:45:55Z</time></trkpt><trkpt lat="40.65382360353658" lon="16.920640500489213"><ele>270.0</ele><time>2026-03-29T09:45:56Z</time></trkpt><trkpt lat="40.65405381650446" lon="16.92084823042563"><ele>270.0</ele><time>2026-03-29T09:45:57Z</time></trkpt><trkpt lat="40.65428405909757" lon="16.921055064174663"><ele>270.0</ele><time>2026-03-29T09:45:58Z</time></trkpt><trkpt lat="40.65451349642154" lon="16.921260251967666"><ele>270.0</ele><time>2026-03-29T09:45:59Z</time></trkpt><trkpt lat="40.654742427062246" lon="16.921462407510212"><ele>270.0</ele><time>2026-03-29T09:46:00Z</time></trkpt><trkpt lat="40.65497113149878" lon="16.921663115135743"><ele>270.0</ele><time>2026-03-29T09:46:01Z</time></trkpt><trkpt lat="40.655197898268895" lon="16.921862563432995"><ele>270.5</ele><time>2026-03-29T09:46:02Z</time></trkpt><trkpt lat="40.655424381941266" lon="16.92206185065116"><ele>271.0</ele><time>2026-03-29T09:46:03Z</time></trkpt><trkpt lat="40.65564984416082" lon="16.922264371240004"><ele>271.0</ele><time>2026-03-29T09:46:04Z</time></trkpt><trkpt lat="40.655874207453294" lon="16.922466645504965"><ele>271.0</ele><time>2026-03-29T09:46:05Z</time></trkpt><trkpt lat="40.656098560084786" lon="16.922667952157468"><ele>271.5</ele><time>2026-03-29T09:46:06Z</time></trkpt><trkpt lat="40.65632430650678" lon="16.922866745057483"><ele>272.0</ele><time>2026-03-29T09:46:07Z</time></trkpt><trkpt lat="40.65654775423148" lon="16.923065765829552"><ele>272.0</ele><time>2026-03-29T09:46:08Z</time></trkpt><trkpt lat="40.6567716586792" lon="16.923266355325314"><ele>272.0</ele><time>2026-03-29T09:46:09Z</time></trkpt><trkpt lat="40.65699633597122" lon="16.923461521596384"><ele>271.5</ele><time>2026-03-29T09:46:10Z</time></trkpt><trkpt lat="40.65722611341801" lon="16.923663267311465"><ele>271.0</ele><time>2026-03-29T09:46:11Z</time></trkpt><trkpt lat="40.657457128048236" lon="16.923867414408658"><ele>271.0</ele><time>2026-03-29T09:46:12Z</time></trkpt><trkpt lat="40.65769199088989" lon="16.924076556697567"><ele>271.0</ele><time>2026-03-29T09:46:13Z</time></trkpt><trkpt lat="40.65792714746281" lon="16.924285805597556"><ele>270.0</ele><time>2026-03-29T09:46:14Z</time></trkpt><trkpt lat="40.65816156964383" lon="16.924496164914885"><ele>269.0</ele><time>2026-03-29T09:46:15Z</time></trkpt><trkpt lat="40.658397954048645" lon="16.924711265738946"><ele>270.0</ele><time>2026-03-29T09:46:16Z</time></trkpt><trkpt lat="40.658635752380825" lon="16.924924913556815"><ele>271.0</ele><time>2026-03-29T09:46:17Z</time></trkpt><trkpt lat="40.658875870644934" lon="16.925138884658264"><ele>271.0</ele><time>2026-03-29T09:46:18Z</time></trkpt><trkpt lat="40.65911582776142" lon="16.925351662609913"><ele>271.0</ele><time>2026-03-29T09:46:19Z</time></trkpt><trkpt lat="40.659350971745035" lon="16.925565743795477"><ele>271.0</ele><time>2026-03-29T09:46:20Z</time></trkpt><trkpt lat="40.65958679816563" lon="16.925779241755215"><ele>271.0</ele><time>2026-03-29T09:46:21Z</time></trkpt><trkpt lat="40.65982139720733" lon="16.925992282343792"><ele>271.0</ele><time>2026-03-29T09:46:22Z</time></trkpt><trkpt lat="40.66005596460273" lon="16.92620555984821"><ele>271.0</ele><time>2026-03-29T09:46:23Z</time></trkpt><trkpt lat="40.66029048262255" lon="16.926416987083307"><ele>270.5</ele><time>2026-03-29T09:46:24Z</time></trkpt><trkpt lat="40.66052380243685" lon="16.926625806065527"><ele>270.0</ele><time>2026-03-29T09:46:25Z</time></trkpt><trkpt lat="40.66075742993078" lon="16.926832619615467"><ele>270.0</ele><time>2026-03-29T09:46:26Z</time></trkpt><trkpt lat="40.66099001251897" lon="16.927036996561963"><ele>270.0</ele><time>2026-03-29T09:46:27Z</time></trkpt><trkpt lat="40.661219613517396" lon="16.927240116992355"><ele>270.0</ele><time>2026-03-29T09:46:28Z</time></trkpt><trkpt lat="40.66144419717337" lon="16.92743941797761"><ele>270.0</ele><time>2026-03-29T09:46:29Z</time></trkpt><trkpt lat="40.66165920242071" lon="16.927632581306145"><ele>270.0</ele><time>2026-03-29T09:46:30Z</time></trkpt><trkpt lat="40.66185848328" lon="16.92781077382289"><ele>270.0</ele><time>2026-03-29T09:46:31Z</time></trkpt><trkpt lat="40.662043009171846" lon="16.927978464342996"><ele>270.6666666666667</ele><time>2026-03-29T09:46:32Z</time></trkpt><trkpt lat="40.66222016784206" lon="16.92813783922442"><ele>271.33333333333337</ele><time>2026-03-29T09:46:33Z</time></trkpt><trkpt lat="40.66238691656223" lon="16.92826666995146"><ele>272.0</ele><time>2026-03-29T09:46:34Z</time></trkpt><trkpt lat="40.662561443178404" lon="16.928359312836275"><ele>270.6666666666667</ele><time>2026-03-29T09:46:35Z</time></trkpt><trkpt lat="40.66275346417133" lon="16.928418995916008"><ele>269.3333333333333</ele><time>2026-03-29T09:46:36Z</time></trkpt><trkpt lat="40.66294790187598" lon="16.928421801000432"><ele>268.0</ele><time>2026-03-29T09:46:37Z</time></trkpt><trkpt lat="40.66314804623883" lon="16.928385516916908"><ele>268.0</ele><time>2026-03-29T09:46:38Z</time></trkpt><trkpt lat="40.66335888044843" lon="16.928342014358595"><ele>268.0</ele><time>2026-03-29T09:46:39Z</time></trkpt><trkpt lat="40.663579553011246" lon="16.928303174334804"><ele>268.0</ele><time>2026-03-29T09:46:40Z</time></trkpt><trkpt lat="40.663811362496105" lon="16.928270157527308"><ele>266.5</ele><time>2026-03-29T09:46:41Z</time></trkpt><trkpt lat="40.66405067063524" lon="16.92823154390225"><ele>265.0</ele><time>2026-03-29T09:46:42Z</time></trkpt><trkpt lat="40.66429689532028" lon="16.92819155776171"><ele>263.5</ele><time>2026-03-29T09:46:43Z</time></trkpt><trkpt lat="40.664545804661735" lon="16.928152238038148"><ele>262.0</ele><time>2026-03-29T09:46:44Z</time></trkpt><trkpt lat="40.664794144205544" lon="16.92811219213063"><ele>262.0</ele><time>2026-03-29T09:46:45Z</time></trkpt><trkpt lat="40.665022289713214" lon="16.928076093800062"><ele>262.0</ele><time>2026-03-29T09:46:46Z</time></trkpt><trkpt lat="40.66523660332168" lon="16.928038455574782"><ele>262.0</ele><time>2026-03-29T09:46:47Z</time></trkpt><trkpt lat="40.66543894235336" lon="16.928003378073825"><ele>261.0</ele><time>2026-03-29T09:46:48Z</time></trkpt><trkpt lat="40.66562916046903" lon="16.92797322985718"><ele>260.0</ele><time>2026-03-29T09:46:49Z</time></trkpt><trkpt lat="40.66581073381518" lon="16.927944061788715"><ele>259.0</ele><time>2026-03-29T09:46:50Z</time></trkpt><trkpt lat="40.66600193763824" lon="16.927915595747713"><ele>257.0</ele><time>2026-03-29T09:46:51Z</time></trkpt><trkpt lat="40.66619523577797" lon="16.927888568030514"><ele>255.0</ele><time>2026-03-29T09:46:52Z</time></trkpt><trkpt lat="40.6663900534734" lon="16.927857432983757"><ele>253.0</ele><time>2026-03-29T09:46:53Z</time></trkpt><trkpt lat="40.66658898789422" lon="16.927823796209445"><ele>253.0</ele><time>2026-03-29T09:46:54Z</time></trkpt><trkpt lat="40.66678876333988" lon="16.927786616653755"><ele>253.0</ele><time>2026-03-29T09:46:55Z</time></trkpt><trkpt lat="40.66699008242394" lon="16.927749893423325"><ele>253.0</ele><time>2026-03-29T09:46:56Z</time></trkpt><trkpt lat="40.66719141233592" lon="16.927716729856808"><ele>250.66666666666666</ele><time>2026-03-29T09:46:57Z</time></trkpt><trkpt lat="40.66739195715685" lon="16.92768486447671"><ele>248.33333333333331</ele><time>2026-03-29T09:46:58Z</time></trkpt><trkpt lat="40.667590915938426" lon="16.92765008206327"><ele>246.0</ele><time>2026-03-29T09:46:59Z</time></trkpt><trkpt lat="40.667792155067616" lon="16.92761287421705"><ele>245.33333333333331</ele><time>2026-03-29T09:47:00Z</time></trkpt><trkpt lat="40.667996427182025" lon="16.92757866047418"><ele>244.66666666666666</ele><time>2026-03-29T09:47:01Z</time></trkpt><trkpt lat="40.66819841123275" lon="16.927544167547794"><ele>244.0</ele><time>2026-03-29T09:47:02Z</time></trkpt><trkpt lat="40.66839422951686" lon="16.927512954823275"><ele>244.0</ele><time>2026-03-29T09:47:03Z</time></trkpt><trkpt lat="40.66859047713171" lon="16.927481079375006"><ele>244.0</ele><time>2026-03-29T09:47:04Z</time></trkpt><trkpt lat="40.66879045716356" lon="16.9274477683758"><ele>244.0</ele><time>2026-03-29T09:47:05Z</time></trkpt><trkpt lat="40.668992033165416" lon="16.927414067633464"><ele>242.33333333333331</ele><time>2026-03-29T09:47:06Z</time></trkpt><trkpt lat="40.669194266263645" lon="16.927382027292058"><ele>240.66666666666669</ele><time>2026-03-29T09:47:07Z</time></trkpt><trkpt lat="40.669393427107224" lon="16.927350655162925"><ele>239.0</ele><time>2026-03-29T09:47:08Z</time></trkpt><trkpt lat="40.66958957989333" lon="16.927315659789937"><ele>238.33333333333334</ele><time>2026-03-29T09:47:09Z</time></trkpt><trkpt lat="40.66977022515776" lon="16.927282204235528"><ele>237.66666666666669</ele><time>2026-03-29T09:47:10Z</time></trkpt><trkpt lat="40.66993994528572" lon="16.92724196646552"><ele>237.0</ele><time>2026-03-29T09:47:11Z</time></trkpt><trkpt lat="40.67010862386667" lon="16.927203303167076"><ele>237.0</ele><time>2026-03-29T09:47:12Z</time></trkpt><trkpt lat="40.67026433645078" lon="16.927170652747755"><ele>237.0</ele><time>2026-03-29T09:47:13Z</time></trkpt><trkpt lat="40.67041601873155" lon="16.92714783121138"><ele>237.0</ele><time>2026-03-29T09:47:14Z</time></trkpt><trkpt lat="40.67056467880742" lon="16.927144377500365"><ele>236.75</ele><time>2026-03-29T09:47:15Z</time></trkpt><trkpt lat="40.67070101953901" lon="16.927175143157775"><ele>236.5</ele><time>2026-03-29T09:47:16Z</time></trkpt><trkpt lat="40.670820580214254" lon="16.9272520584357"><ele>236.25</ele><time>2026-03-29T09:47:17Z</time></trkpt><trkpt lat="40.67092586858736" lon="16.927356483937945"><ele>236.0</ele><time>2026-03-29T09:47:18Z</time></trkpt><trkpt lat="40.67101210605374" lon="16.927503997300786"><ele>235.0</ele><time>2026-03-29T09:47:19Z</time></trkpt><trkpt lat="40.67106347756596" lon="16.927684567563396"><ele>234.0</ele><time>2026-03-29T09:47:20Z</time></trkpt><trkpt lat="40.671094567732005" lon="16.92788716375827"><ele>233.0</ele><time>2026-03-29T09:47:21Z</time></trkpt><trkpt lat="40.671123195954266" lon="16.92812279383465"><ele>232.66666666666669</ele><time>2026-03-29T09:47:22Z</time></trkpt><trkpt lat="40.67115770520894" lon="16.928394767702414"><ele>232.33333333333331</ele><time>2026-03-29T09:47:23Z</time></trkpt><trkpt lat="40.67119034866035" lon="16.928694723635747"><ele>232.0</ele><time>2026-03-29T09:47:24Z</time></trkpt><trkpt lat="40.671226220399674" lon="16.92898701384499"><ele>232.5</ele><time>2026-03-29T09:47:25Z</time></trkpt><trkpt lat="40.67128485594572" lon="16.929277194147122"><ele>233.0</ele><time>2026-03-29T09:47:26Z</time></trkpt><trkpt lat="40.67131866939078" lon="16.92958630184927"><ele>233.0</ele><time>2026-03-29T09:47:27Z</time></trkpt><trkpt lat="40.67137467940818" lon="16.92989906770856"><ele>233.0</ele><time>2026-03-29T09:47:28Z</time></trkpt><trkpt lat="40.671637863576954" lon="16.930169214045677"><ele>233.5</ele><time>2026-03-29T09:47:29Z</time></trkpt><trkpt lat="40.67176975018749" lon="16.930487359412503"><ele>234.0</ele><time>2026-03-29T09:47:30Z</time></trkpt><trkpt lat="40.67189727410222" lon="16.930809207303774"><ele>235.0</ele><time>2026-03-29T09:47:31Z</time></trkpt><trkpt lat="40.672027998297516" lon="16.931134129755637"><ele>236.0</ele><time>2026-03-29T09:47:32Z</time></trkpt><trkpt lat="40.67216056175422" lon="16.931467609104185"><ele>235.5</ele><time>2026-03-29T09:47:33Z</time></trkpt><trkpt lat="40.672297170503995" lon="16.931800757021097"><ele>235.0</ele><time>2026-03-29T09:47:34Z</time></trkpt><trkpt lat="40.672429742688756" lon="16.932129788952366"><ele>235.0</ele><time>2026-03-29T09:47:35Z</time></trkpt><trkpt lat="40.67256103379447" lon="16.932460904773887"><ele>235.0</ele><time>2026-03-29T09:47:36Z</time></trkpt><trkpt lat="40.67269588014166" lon="16.9327961860104"><ele>235.0</ele><time>2026-03-29T09:47:37Z</time></trkpt><trkpt lat="40.67283124774249" lon="16.9331348908013"><ele>235.0</ele><time>2026-03-29T09:47:38Z</time></trkpt><trkpt lat="40.67296409095297" lon="16.933471237027376"><ele>235.0</ele><time>2026-03-29T09:47:39Z</time></trkpt><trkpt lat="40.673097985471884" lon="16.933807270522408"><ele>235.0</ele><time>2026-03-29T09:47:40Z</time></trkpt><trkpt lat="40.67323077391158" lon="16.934143579464745"><ele>234.0</ele><time>2026-03-29T09:47:41Z</time></trkpt><trkpt lat="40.673365290968576" lon="16.934477576410654"><ele>233.0</ele><time>2026-03-29T09:47:42Z</time></trkpt><trkpt lat="40.6735004007236" lon="16.93481019849456"><ele>233.5</ele><time>2026-03-29T09:47:43Z</time></trkpt><trkpt lat="40.67363730946521" lon="16.9351443763595"><ele>234.0</ele><time>2026-03-29T09:47:44Z</time></trkpt><trkpt lat="40.67377256936568" lon="16.935477891881007"><ele>234.0</ele><time>2026-03-29T09:47:45Z</time></trkpt><trkpt lat="40.67390577296894" lon="16.93581139293632"><ele>234.0</ele><time>2026-03-29T09:47:46Z</time></trkpt><trkpt lat="40.67403857424163" lon="16.936142318122297"><ele>234.5</ele><time>2026-03-29T09:47:47Z</time></trkpt><trkpt lat="40.674170277901204" lon="16.936473420169136"><ele>235.0</ele><time>2026-03-29T09:47:48Z</time></trkpt><trkpt lat="40.67430006012741" lon="16.93680549728025"><ele>235.0</ele><time>2026-03-29T09:47:49Z</time></trkpt><trkpt lat="40.67443146753336" lon="16.93713323676075"><ele>235.0</ele><time>2026-03-29T09:47:50Z</time></trkpt><trkpt lat="40.67456703146243" lon="16.937461456687508"><ele>236.5</ele><time>2026-03-29T09:47:51Z</time></trkpt><trkpt lat="40.67469812895921" lon="16.937789087065966"><ele>238.0</ele><time>2026-03-29T09:47:52Z</time></trkpt><trkpt lat="40.674829169482855" lon="16.938110867110645"><ele>237.5</ele><time>2026-03-29T09:47:53Z</time></trkpt><trkpt lat="40.6749615739303" lon="16.938437228816454"><ele>237.0</ele><time>2026-03-29T09:47:54Z</time></trkpt><trkpt lat="40.67509307460623" lon="16.93876232394677"><ele>237.0</ele><time>2026-03-29T09:47:55Z</time></trkpt><trkpt lat="40.67522289845498" lon="16.939086514041826"><ele>237.0</ele><time>2026-03-29T09:47:56Z</time></trkpt><trkpt lat="40.675353798950354" lon="16.939411363383936"><ele>237.0</ele><time>2026-03-29T09:47:57Z</time></trkpt><trkpt lat="40.67548302593322" lon="16.939736335227256"><ele>237.0</ele><time>2026-03-29T09:47:58Z</time></trkpt><trkpt lat="40.67561399107556" lon="16.94006025548023"><ele>237.0</ele><time>2026-03-29T09:47:59Z</time></trkpt><trkpt lat="40.67574311969252" lon="16.940382180296147"><ele>237.0</ele><time>2026-03-29T09:48:00Z</time></trkpt><trkpt lat="40.675869023346785" lon="16.940703337057947"><ele>238.0</ele><time>2026-03-29T09:48:01Z</time></trkpt><trkpt lat="40.67599572219253" lon="16.941020183476365"><ele>239.0</ele><time>2026-03-29T09:48:02Z</time></trkpt><trkpt lat="40.67612264527744" lon="16.941335200598502"><ele>239.0</ele><time>2026-03-29T09:48:03Z</time></trkpt><trkpt lat="40.67624831405062" lon="16.941650180107526"><ele>239.0</ele><time>2026-03-29T09:48:04Z</time></trkpt><trkpt lat="40.676372533390904" lon="16.941963819822238"><ele>241.0</ele><time>2026-03-29T09:48:05Z</time></trkpt><trkpt lat="40.67649911656799" lon="16.942278107845073"><ele>243.0</ele><time>2026-03-29T09:48:06Z</time></trkpt><trkpt lat="40.6766225612661" lon="16.94259234073587"><ele>245.5</ele><time>2026-03-29T09:48:07Z</time></trkpt><trkpt lat="40.67674631511528" lon="16.942904479716507"><ele>248.0</ele><time>2026-03-29T09:48:08Z</time></trkpt><trkpt lat="40.676869236609754" lon="16.943213160909057"><ele>245.0</ele><time>2026-03-29T09:48:09Z</time></trkpt><trkpt lat="40.67699291126734" lon="16.9435214518436"><ele>242.0</ele><time>2026-03-29T09:48:10Z</time></trkpt><trkpt lat="40.67711981663239" lon="16.943835002910227"><ele>242.0</ele><time>2026-03-29T09:48:11Z</time></trkpt><trkpt lat="40.67724871688747" lon="16.944157039307278"><ele>242.0</ele><time>2026-03-29T09:48:12Z</time></trkpt><trkpt lat="40.677376891942366" lon="16.944478863647486"><ele>241.0</ele><time>2026-03-29T09:48:13Z</time></trkpt><trkpt lat="40.677508488189055" lon="16.944806216270653"><ele>240.0</ele><time>2026-03-29T09:48:14Z</time></trkpt><trkpt lat="40.67764041127551" lon="16.945133926159283"><ele>240.5</ele><time>2026-03-29T09:48:15Z</time></trkpt><trkpt lat="40.67777153687594" lon="16.945464364940385"><ele>241.0</ele><time>2026-03-29T09:48:16Z</time></trkpt><trkpt lat="40.67790230594339" lon="16.945790953785732"><ele>242.0</ele><time>2026-03-29T09:48:17Z</time></trkpt><trkpt lat="40.67803341306762" lon="16.946118049048142"><ele>243.0</ele><time>2026-03-29T09:48:18Z</time></trkpt><trkpt lat="40.678163748042266" lon="16.946445908549123"><ele>243.0</ele><time>2026-03-29T09:48:19Z</time></trkpt><trkpt lat="40.67829234562163" lon="16.946773321827514"><ele>243.0</ele><time>2026-03-29T09:48:20Z</time></trkpt><trkpt lat="40.678422573818004" lon="16.947101706172578"><ele>243.0</ele><time>2026-03-29T09:48:21Z</time></trkpt><trkpt lat="40.67855488999367" lon="16.94743045648167"><ele>243.0</ele><time>2026-03-29T09:48:22Z</time></trkpt><trkpt lat="40.67868677521212" lon="16.947762073645606"><ele>243.0</ele><time>2026-03-29T09:48:23Z</time></trkpt><trkpt lat="40.67881721053648" lon="16.94809460460019"><ele>243.0</ele><time>2026-03-29T09:48:24Z</time></trkpt><trkpt lat="40.67895009248236" lon="16.948429391924634"><ele>244.0</ele><time>2026-03-29T09:48:25Z</time></trkpt><trkpt lat="40.679082120665335" lon="16.948774117383905"><ele>245.0</ele><time>2026-03-29T09:48:26Z</time></trkpt><trkpt lat="40.6792158067613" lon="16.949121355841317"><ele>245.5</ele><time>2026-03-29T09:48:27Z</time></trkpt><trkpt lat="40.67934963696207" lon="16.949461977488422"><ele>246.0</ele><time>2026-03-29T09:48:28Z</time></trkpt><trkpt lat="40.6794835482212" lon="16.949796114981662"><ele>247.0</ele><time>2026-03-29T09:48:29Z</time></trkpt><trkpt lat="40.679617531345635" lon="16.95012827206792"><ele>248.0</ele><time>2026-03-29T09:48:30Z</time></trkpt><trkpt lat="40.679751872917535" lon="16.950457792909056"><ele>248.0</ele><time>2026-03-29T09:48:31Z</time></trkpt><trkpt lat="40.67988520804808" lon="16.95078501447884"><ele>248.0</ele><time>2026-03-29T09:48:32Z</time></trkpt><trkpt lat="40.680014431613785" lon="16.95110912623445"><ele>248.0</ele><time>2026-03-29T09:48:33Z</time></trkpt><trkpt lat="40.68014041703201" lon="16.951433011455723"><ele>248.0</ele><time>2026-03-29T09:48:34Z</time></trkpt><trkpt lat="40.68026734716437" lon="16.9517561674523"><ele>248.5</ele><time>2026-03-29T09:48:35Z</time></trkpt><trkpt lat="40.68039705898181" lon="16.95207860436648"><ele>249.0</ele><time>2026-03-29T09:48:36Z</time></trkpt><trkpt lat="40.68052740138464" lon="16.952403956889125"><ele>250.0</ele><time>2026-03-29T09:48:37Z</time></trkpt><trkpt lat="40.68065746840342" lon="16.952731911487003"><ele>251.0</ele><time>2026-03-29T09:48:38Z</time></trkpt><trkpt lat="40.680788016549" lon="16.95305905392063"><ele>250.5</ele><time>2026-03-29T09:48:39Z</time></trkpt><trkpt lat="40.68091914810567" lon="16.953386310348264"><ele>250.0</ele><time>2026-03-29T09:48:40Z</time></trkpt><trkpt lat="40.68105035180511" lon="16.953712745133227"><ele>251.0</ele><time>2026-03-29T09:48:41Z</time></trkpt><trkpt lat="40.68118286279223" lon="16.954040010504357"><ele>252.0</ele><time>2026-03-29T09:48:42Z</time></trkpt><trkpt lat="40.681315103634844" lon="16.954368152807966"><ele>252.0</ele><time>2026-03-29T09:48:43Z</time></trkpt><trkpt lat="40.68144694901374" lon="16.95469843540573"><ele>252.0</ele><time>2026-03-29T09:48:44Z</time></trkpt><trkpt lat="40.681577809998814" lon="16.955028128410223"><ele>253.0</ele><time>2026-03-29T09:48:45Z</time></trkpt><trkpt lat="40.68170770216892" lon="16.955356510947396"><ele>254.0</ele><time>2026-03-29T09:48:46Z</time></trkpt><trkpt lat="40.681841676783776" lon="16.955684498496343"><ele>254.0</ele><time>2026-03-29T09:48:47Z</time></trkpt><trkpt lat="40.681976658408345" lon="16.956013925127976"><ele>254.0</ele><time>2026-03-29T09:48:48Z</time></trkpt><trkpt lat="40.68210974823929" lon="16.95634150280664"><ele>254.0</ele><time>2026-03-29T09:48:49Z</time></trkpt><trkpt lat="40.68223817778708" lon="16.956665079567113"><ele>254.0</ele><time>2026-03-29T09:48:50Z</time></trkpt><trkpt lat="40.68236612018398" lon="16.956983600976386"><ele>254.0</ele><time>2026-03-29T09:48:51Z</time></trkpt><trkpt lat="40.68249387594693" lon="16.957299096421956"><ele>254.0</ele><time>2026-03-29T09:48:52Z</time></trkpt><trkpt lat="40.682622403758245" lon="16.95761437702365"><ele>254.0</ele><time>2026-03-29T09:48:53Z</time></trkpt><trkpt lat="40.68275182749682" lon="16.957935186535412"><ele>254.0</ele><time>2026-03-29T09:48:54Z</time></trkpt><trkpt lat="40.68288102406874" lon="16.95825545710044"><ele>254.5</ele><time>2026-03-29T09:48:55Z</time></trkpt><trkpt lat="40.683011858430476" lon="16.95857930029496"><ele>255.0</ele><time>2026-03-29T09:48:56Z</time></trkpt><trkpt lat="40.68314391126207" lon="16.958901501658662"><ele>255.5</ele><time>2026-03-29T09:48:57Z</time></trkpt><trkpt lat="40.68327679199192" lon="16.959226393871155"><ele>256.0</ele><time>2026-03-29T09:48:58Z</time></trkpt><trkpt lat="40.68341132689612" lon="16.95954864738901"><ele>256.0</ele><time>2026-03-29T09:48:59Z</time></trkpt><trkpt lat="40.68354622288692" lon="16.959870752705577"><ele>256.0</ele><time>2026-03-29T09:49:00Z</time></trkpt><trkpt lat="40.68368170373477" lon="16.96019473452406"><ele>256.0</ele><time>2026-03-29T09:49:01Z</time></trkpt><trkpt lat="40.68381986004676" lon="16.96051972130332"><ele>256.0</ele><time>2026-03-29T09:49:02Z</time></trkpt><trkpt lat="40.68394059168502" lon="16.96085647512352"><ele>256.0</ele><time>2026-03-29T09:49:03Z</time></trkpt><trkpt lat="40.684076089519536" lon="16.961183377220223"><ele>256.0</ele><time>2026-03-29T09:49:04Z</time></trkpt><trkpt lat="40.684224612977445" lon="16.961497779191575"><ele>256.0</ele><time>2026-03-29T09:49:05Z</time></trkpt><trkpt lat="40.684359897799595" lon="16.96182391251383"><ele>256.0</ele><time>2026-03-29T09:49:06Z</time></trkpt><trkpt lat="40.68449554394576" lon="16.96214927935634"><ele>256.0</ele><time>2026-03-29T09:49:07Z</time></trkpt><trkpt lat="40.6846311232397" lon="16.962470949825327"><ele>256.0</ele><time>2026-03-29T09:49:08Z</time></trkpt><trkpt lat="40.68476672336488" lon="16.96279322036739"><ele>256.0</ele><time>2026-03-29T09:49:09Z</time></trkpt><trkpt lat="40.68490286737978" lon="16.96311634796177"><ele>256.0</ele><time>2026-03-29T09:49:10Z</time></trkpt><trkpt lat="40.68503955400445" lon="16.963432588304997"><ele>256.0</ele><time>2026-03-29T09:49:11Z</time></trkpt><trkpt lat="40.68517278048623" lon="16.963749090023565"><ele>256.0</ele><time>2026-03-29T09:49:12Z</time></trkpt><trkpt lat="40.68530532466118" lon="16.9640626543806"><ele>257.0</ele><time>2026-03-29T09:49:13Z</time></trkpt><trkpt lat="40.685437523270586" lon="16.96437011374621"><ele>258.0</ele><time>2026-03-29T09:49:14Z</time></trkpt><trkpt lat="40.68556664816168" lon="16.96468180693241"><ele>258.0</ele><time>2026-03-29T09:49:15Z</time></trkpt><trkpt lat="40.68569556644848" lon="16.964990890358173"><ele>258.0</ele><time>2026-03-29T09:49:16Z</time></trkpt><trkpt lat="40.6858269928745" lon="16.965303301262235"><ele>258.5</ele><time>2026-03-29T09:49:17Z</time></trkpt><trkpt lat="40.68595604300105" lon="16.965611232200715"><ele>259.0</ele><time>2026-03-29T09:49:18Z</time></trkpt><trkpt lat="40.68608694667596" lon="16.965919822330964"><ele>258.5</ele><time>2026-03-29T09:49:19Z</time></trkpt><trkpt lat="40.686217752930084" lon="16.966229141652814"><ele>258.0</ele><time>2026-03-29T09:49:20Z</time></trkpt><trkpt lat="40.68634557956368" lon="16.96653921518516"><ele>258.0</ele><time>2026-03-29T09:49:21Z</time></trkpt><trkpt lat="40.68647182209919" lon="16.966847415873573"><ele>258.0</ele><time>2026-03-29T09:49:22Z</time></trkpt><trkpt lat="40.68659937993069" lon="16.967154028413873"><ele>258.0</ele><time>2026-03-29T09:49:23Z</time></trkpt><trkpt lat="40.686724046419144" lon="16.96745445496127"><ele>258.0</ele><time>2026-03-29T09:49:24Z</time></trkpt><trkpt lat="40.68684909907976" lon="16.967749115794568"><ele>259.0</ele><time>2026-03-29T09:49:25Z</time></trkpt><trkpt lat="40.686969909633724" lon="16.96803711143048"><ele>260.0</ele><time>2026-03-29T09:49:26Z</time></trkpt><trkpt lat="40.687078940324604" lon="16.968305026880444"><ele>260.0</ele><time>2026-03-29T09:49:27Z</time></trkpt><trkpt lat="40.68718137405697" lon="16.968553239281743"><ele>260.0</ele><time>2026-03-29T09:49:28Z</time></trkpt><trkpt lat="40.687279787411285" lon="16.96878347250162"><ele>260.0</ele><time>2026-03-29T09:49:29Z</time></trkpt><trkpt lat="40.68737314513581" lon="16.968997530118564"><ele>260.33333333333337</ele><time>2026-03-29T09:49:30Z</time></trkpt><trkpt lat="40.687459397119625" lon="16.96919911673563"><ele>260.6666666666667</ele><time>2026-03-29T09:49:31Z</time></trkpt><trkpt lat="40.68753637011948" lon="16.96938330381653"><ele>261.0</ele><time>2026-03-29T09:49:32Z</time></trkpt><trkpt lat="40.68760979203" lon="16.96955122848727"><ele>261.0</ele><time>2026-03-29T09:49:33Z</time></trkpt><trkpt lat="40.68768002582868" lon="16.96971922999105"><ele>261.0</ele><time>2026-03-29T09:49:34Z</time></trkpt><trkpt lat="40.68775210064753" lon="16.969892862998897"><ele>261.0</ele><time>2026-03-29T09:49:35Z</time></trkpt><trkpt lat="40.687828680139674" lon="16.97007456697811"><ele>261.3333333333333</ele><time>2026-03-29T09:49:36Z</time></trkpt><trkpt lat="40.68790602012898" lon="16.970269838508106"><ele>261.66666666666663</ele><time>2026-03-29T09:49:37Z</time></trkpt><trkpt lat="40.687987977402905" lon="16.970472299077382"><ele>262.0</ele><time>2026-03-29T09:49:38Z</time></trkpt><trkpt lat="40.68807548459732" lon="16.970674496827268"><ele>262.0</ele><time>2026-03-29T09:49:39Z</time></trkpt><trkpt lat="40.68816403095784" lon="16.97087674766297"><ele>262.0</ele><time>2026-03-29T09:49:40Z</time></trkpt><trkpt lat="40.68825238251512" lon="16.971079571606666"><ele>262.0</ele><time>2026-03-29T09:49:41Z</time></trkpt><trkpt lat="40.688350209420385" lon="16.971289055678554"><ele>262.0</ele><time>2026-03-29T09:49:42Z</time></trkpt><trkpt lat="40.68845109390246" lon="16.971512771861068"><ele>262.0</ele><time>2026-03-29T09:49:43Z</time></trkpt><trkpt lat="40.68855508636622" lon="16.97175913865684"><ele>262.0</ele><time>2026-03-29T09:49:44Z</time></trkpt><trkpt lat="40.688654911830945" lon="16.972025470120364"><ele>263.0</ele><time>2026-03-29T09:49:45Z</time></trkpt><trkpt lat="40.688757027980486" lon="16.972289169470038"><ele>264.0</ele><time>2026-03-29T09:49:46Z</time></trkpt><trkpt lat="40.68885127515464" lon="16.972524916459562"><ele>265.0</ele><time>2026-03-29T09:49:47Z</time></trkpt><trkpt lat="40.688942422173284" lon="16.972735610831016"><ele>265.66666666666663</ele><time>2026-03-29T09:49:48Z</time></trkpt><trkpt lat="40.68902393533751" lon="16.972934881650197"><ele>266.3333333333333</ele><time>2026-03-29T09:49:49Z</time></trkpt><trkpt lat="40.689100423992855" lon="16.97311758152008"><ele>267.0</ele><time>2026-03-29T09:49:50Z</time></trkpt><trkpt lat="40.689169053990845" lon="16.97328188095421"><ele>266.75</ele><time>2026-03-29T09:49:51Z</time></trkpt><trkpt lat="40.68922991138529" lon="16.973434353798197"><ele>266.5</ele><time>2026-03-29T09:49:52Z</time></trkpt><trkpt lat="40.68927631453511" lon="16.973571092756984"><ele>266.25</ele><time>2026-03-29T09:49:53Z</time></trkpt><trkpt lat="40.68930021450631" lon="16.973711947112356"><ele>266.0</ele><time>2026-03-29T09:49:54Z</time></trkpt><trkpt lat="40.68929663852219" lon="16.973857632796033"><ele>266.0</ele><time>2026-03-29T09:49:55Z</time></trkpt><trkpt lat="40.68926184359763" lon="16.974008293820845"><ele>266.0</ele><time>2026-03-29T09:49:56Z</time></trkpt><trkpt lat="40.68920478403019" lon="16.97416024731728"><ele>266.0</ele><time>2026-03-29T09:49:57Z</time></trkpt><trkpt lat="40.68912694720886" lon="16.97429966439779"><ele>266.0</ele><time>2026-03-29T09:49:58Z</time></trkpt><trkpt lat="40.689028386276654" lon="16.974421174705114"><ele>266.0</ele><time>2026-03-29T09:49:59Z</time></trkpt><trkpt lat="40.68888255296221" lon="16.97453988810811"><ele>266.0</ele><time>2026-03-29T09:50:00Z</time></trkpt><trkpt lat="40.688720487325654" lon="16.974673389230457"><ele>266.0</ele><time>2026-03-29T09:50:01Z</time></trkpt><trkpt lat="40.688536780997474" lon="16.97482395168507"><ele>267.0</ele><time>2026-03-29T09:50:02Z</time></trkpt><trkpt lat="40.688352790808075" lon="16.97499446566179"><ele>268.0</ele><time>2026-03-29T09:50:03Z</time></trkpt><trkpt lat="40.68816939494504" lon="16.975189886005452"><ele>268.5</ele><time>2026-03-29T09:50:04Z</time></trkpt><trkpt lat="40.68798811148007" lon="16.975405098363275"><ele>269.0</ele><time>2026-03-29T09:50:05Z</time></trkpt><trkpt lat="40.687817291053825" lon="16.975642146545734"><ele>269.0</ele><time>2026-03-29T09:50:06Z</time></trkpt><trkpt lat="40.687648167767804" lon="16.975897769133983"><ele>269.0</ele><time>2026-03-29T09:50:07Z</time></trkpt><trkpt lat="40.687478209062355" lon="16.97616565371123"><ele>269.0</ele><time>2026-03-29T09:50:08Z</time></trkpt><trkpt lat="40.68730620538639" lon="16.97644897471925"><ele>269.0</ele><time>2026-03-29T09:50:09Z</time></trkpt><trkpt lat="40.68712630270704" lon="16.976737743978592"><ele>269.0</ele><time>2026-03-29T09:50:10Z</time></trkpt><trkpt lat="40.68694607665058" lon="16.977023878498034"><ele>269.0</ele><time>2026-03-29T09:50:11Z</time></trkpt><trkpt lat="40.68676217176112" lon="16.977313003096466"><ele>268.5</ele><time>2026-03-29T09:50:12Z</time></trkpt><trkpt lat="40.68657286110891" lon="16.977609179983546"><ele>268.0</ele><time>2026-03-29T09:50:13Z</time></trkpt><trkpt lat="40.686384360362005" lon="16.977910219282915"><ele>268.0</ele><time>2026-03-29T09:50:14Z</time></trkpt><trkpt lat="40.68619790136064" lon="16.978209388235765"><ele>268.0</ele><time>2026-03-29T09:50:15Z</time></trkpt><trkpt lat="40.68601097532871" lon="16.978509356764093"><ele>268.0</ele><time>2026-03-29T09:50:16Z</time></trkpt><trkpt lat="40.685823433619355" lon="16.978808758288356"><ele>268.0</ele><time>2026-03-29T09:50:17Z</time></trkpt><trkpt lat="40.68563484362397" lon="16.97910783772158"><ele>268.5</ele><time>2026-03-29T09:50:18Z</time></trkpt><trkpt lat="40.68544618433737" lon="16.979404979552694"><ele>269.0</ele><time>2026-03-29T09:50:19Z</time></trkpt><trkpt lat="40.685258611088315" lon="16.979706150729683"><ele>269.0</ele><time>2026-03-29T09:50:20Z</time></trkpt><trkpt lat="40.68506817576266" lon="16.980010085483833"><ele>269.0</ele><time>2026-03-29T09:50:21Z</time></trkpt><trkpt lat="40.68487639476267" lon="16.980311400235752"><ele>270.5</ele><time>2026-03-29T09:50:22Z</time></trkpt><trkpt lat="40.68468286171694" lon="16.980613799559777"><ele>272.0</ele><time>2026-03-29T09:50:23Z</time></trkpt><trkpt lat="40.68449297246538" lon="16.980917776086336"><ele>273.5</ele><time>2026-03-29T09:50:24Z</time></trkpt><trkpt lat="40.684301325242004" lon="16.981221620316415"><ele>275.0</ele><time>2026-03-29T09:50:25Z</time></trkpt><trkpt lat="40.68411049587985" lon="16.981523690503074"><ele>275.5</ele><time>2026-03-29T09:50:26Z</time></trkpt><trkpt lat="40.68391925425387" lon="16.981822853768087"><ele>276.0</ele><time>2026-03-29T09:50:27Z</time></trkpt><trkpt lat="40.683730512423224" lon="16.982120918927848"><ele>276.0</ele><time>2026-03-29T09:50:28Z</time></trkpt><trkpt lat="40.683544519058636" lon="16.982418122905706"><ele>276.0</ele><time>2026-03-29T09:50:29Z</time></trkpt><trkpt lat="40.683355911687315" lon="16.98271726191303"><ele>276.0</ele><time>2026-03-29T09:50:30Z</time></trkpt><trkpt lat="40.68316983307764" lon="16.983013415519785"><ele>276.0</ele><time>2026-03-29T09:50:31Z</time></trkpt><trkpt lat="40.682978991508314" lon="16.98331537581805"><ele>276.0</ele><time>2026-03-29T09:50:32Z</time></trkpt><trkpt lat="40.68277957113699" lon="16.98360993244733"><ele>276.0</ele><time>2026-03-29T09:50:33Z</time></trkpt><trkpt lat="40.6825712673703" lon="16.983895259829975"><ele>276.0</ele><time>2026-03-29T09:50:34Z</time></trkpt><trkpt lat="40.68236004088976" lon="16.984174031129317"><ele>276.0</ele><time>2026-03-29T09:50:35Z</time></trkpt><trkpt lat="40.68214435457057" lon="16.984452778505688"><ele>276.5</ele><time>2026-03-29T09:50:36Z</time></trkpt><trkpt lat="40.68192598596323" lon="16.984731674209304"><ele>277.0</ele><time>2026-03-29T09:50:37Z</time></trkpt><trkpt lat="40.681710465401416" lon="16.98501443043479"><ele>277.0</ele><time>2026-03-29T09:50:38Z</time></trkpt><trkpt lat="40.681496082827344" lon="16.9852965673396"><ele>277.0</ele><time>2026-03-29T09:50:39Z</time></trkpt><trkpt lat="40.68128261398217" lon="16.985577533365927"><ele>277.0</ele><time>2026-03-29T09:50:40Z</time></trkpt><trkpt lat="40.68106695002154" lon="16.98585944883019"><ele>277.0</ele><time>2026-03-29T09:50:41Z</time></trkpt><trkpt lat="40.68085191168737" lon="16.986141063796804"><ele>277.0</ele><time>2026-03-29T09:50:42Z</time></trkpt><trkpt lat="40.68063581791988" lon="16.986422089237404"><ele>277.0</ele><time>2026-03-29T09:50:43Z</time></trkpt><trkpt lat="40.6804236490147" lon="16.986703828505767"><ele>277.5</ele><time>2026-03-29T09:50:44Z</time></trkpt><trkpt lat="40.68020889827147" lon="16.986987340708723"><ele>278.0</ele><time>2026-03-29T09:50:45Z</time></trkpt><trkpt lat="40.67999504679415" lon="16.98726928567074"><ele>278.5</ele><time>2026-03-29T09:50:46Z</time></trkpt><trkpt lat="40.67978112515061" lon="16.98754942575004"><ele>279.0</ele><time>2026-03-29T09:50:47Z</time></trkpt><trkpt lat="40.67956579699453" lon="16.987825930948432"><ele>278.0</ele><time>2026-03-29T09:50:48Z</time></trkpt><trkpt lat="40.67935244210519" lon="16.98810380787945"><ele>277.0</ele><time>2026-03-29T09:50:49Z</time></trkpt><trkpt lat="40.67913826877922" lon="16.988384846906925"><ele>277.0</ele><time>2026-03-29T09:50:50Z</time></trkpt><trkpt lat="40.67892486321686" lon="16.98866692086133"><ele>277.0</ele><time>2026-03-29T09:50:51Z</time></trkpt><trkpt lat="40.67871164739534" lon="16.988949882181764"><ele>276.0</ele><time>2026-03-29T09:50:52Z</time></trkpt><trkpt lat="40.67849874828602" lon="16.989230837818717"><ele>275.0</ele><time>2026-03-29T09:50:53Z</time></trkpt><trkpt lat="40.678282664604424" lon="16.98951392396984"><ele>275.0</ele><time>2026-03-29T09:50:54Z</time></trkpt><trkpt lat="40.67806655344658" lon="16.989796119074537"><ele>275.0</ele><time>2026-03-29T09:50:55Z</time></trkpt><trkpt lat="40.67785015438277" lon="16.990078779831503"><ele>274.5</ele><time>2026-03-29T09:50:56Z</time></trkpt><trkpt lat="40.67763461219211" lon="16.990360936069493"><ele>274.0</ele><time>2026-03-29T09:50:57Z</time></trkpt><trkpt lat="40.67741973307421" lon="16.99064242401573"><ele>274.0</ele><time>2026-03-29T09:50:58Z</time></trkpt><trkpt lat="40.67720503258816" lon="16.990924046762814"><ele>274.0</ele><time>2026-03-29T09:50:59Z</time></trkpt><trkpt lat="40.676992298625315" lon="16.991206310033526"><ele>273.0</ele><time>2026-03-29T09:51:00Z</time></trkpt><trkpt lat="40.6767793624288" lon="16.991491567424347"><ele>272.0</ele><time>2026-03-29T09:51:01Z</time></trkpt><trkpt lat="40.67656610964816" lon="16.991777950018484"><ele>272.0</ele><time>2026-03-29T09:51:02Z</time></trkpt><trkpt lat="40.67635473533789" lon="16.99206291613883"><ele>272.0</ele><time>2026-03-29T09:51:03Z</time></trkpt><trkpt lat="40.676141197517126" lon="16.992346393232484"><ele>271.5</ele><time>2026-03-29T09:51:04Z</time></trkpt><trkpt lat="40.675924736926554" lon="16.992631587594396"><ele>271.0</ele><time>2026-03-29T09:51:05Z</time></trkpt><trkpt lat="40.675708288858765" lon="16.992918342305874"><ele>271.0</ele><time>2026-03-29T09:51:06Z</time></trkpt><trkpt lat="40.67549301114588" lon="16.993205372070115"><ele>271.0</ele><time>2026-03-29T09:51:07Z</time></trkpt><trkpt lat="40.67527495933354" lon="16.993494763258564"><ele>271.0</ele><time>2026-03-29T09:51:08Z</time></trkpt><trkpt lat="40.675056495661664" lon="16.993784547606232"><ele>271.0</ele><time>2026-03-29T09:51:09Z</time></trkpt><trkpt lat="40.67483866402771" lon="16.99407382246658"><ele>271.5</ele><time>2026-03-29T09:51:10Z</time></trkpt><trkpt lat="40.67461869039" lon="16.994360219776674"><ele>272.0</ele><time>2026-03-29T09:51:11Z</time></trkpt><trkpt lat="40.674399397465066" lon="16.994649087904754"><ele>272.0</ele><time>2026-03-29T09:51:12Z</time></trkpt><trkpt lat="40.67417948187632" lon="16.994939969883173"><ele>272.0</ele><time>2026-03-29T09:51:13Z</time></trkpt><trkpt lat="40.673959461124696" lon="16.995233885107194"><ele>272.0</ele><time>2026-03-29T09:51:14Z</time></trkpt><trkpt lat="40.673740113110284" lon="16.99552508374423"><ele>272.0</ele><time>2026-03-29T09:51:15Z</time></trkpt><trkpt lat="40.673521855519894" lon="16.99581126542374"><ele>272.0</ele><time>2026-03-29T09:51:16Z</time></trkpt><trkpt lat="40.67330220625493" lon="16.99609875545916"><ele>272.0</ele><time>2026-03-29T09:51:17Z</time></trkpt><trkpt lat="40.67308177862095" lon="16.996388369233355"><ele>272.5</ele><time>2026-03-29T09:51:18Z</time></trkpt><trkpt lat="40.67286397194497" lon="16.996677045232406"><ele>273.0</ele><time>2026-03-29T09:51:19Z</time></trkpt><trkpt lat="40.672645383656395" lon="16.996966009448737"><ele>272.5</ele><time>2026-03-29T09:51:20Z</time></trkpt><trkpt lat="40.672427003641225" lon="16.997252327819048"><ele>272.0</ele><time>2026-03-29T09:51:21Z</time></trkpt><trkpt lat="40.67221519516968" lon="16.997530348732113"><ele>272.0</ele><time>2026-03-29T09:51:22Z</time></trkpt><trkpt lat="40.67201561543315" lon="16.99779070841914"><ele>272.0</ele><time>2026-03-29T09:51:23Z</time></trkpt><trkpt lat="40.671820068681086" lon="16.99804973713362"><ele>272.0</ele><time>2026-03-29T09:51:24Z</time></trkpt><trkpt lat="40.67162327379901" lon="16.9983120076029"><ele>272.0</ele><time>2026-03-29T09:51:25Z</time></trkpt><trkpt lat="40.67142466648872" lon="16.998576368006173"><ele>272.0</ele><time>2026-03-29T09:51:26Z</time></trkpt><trkpt lat="40.671223012163175" lon="16.99883881863696"><ele>272.0</ele><time>2026-03-29T09:51:27Z</time></trkpt><trkpt lat="40.671020759829084" lon="16.999101580956236"><ele>270.5</ele><time>2026-03-29T09:51:28Z</time></trkpt><trkpt lat="40.67081697612274" lon="16.99937078904004"><ele>269.0</ele><time>2026-03-29T09:51:29Z</time></trkpt><trkpt lat="40.670612798255" lon="16.999642618841055"><ele>269.0</ele><time>2026-03-29T09:51:30Z</time></trkpt><trkpt lat="40.67040632884405" lon="16.999913197887583"><ele>269.0</ele><time>2026-03-29T09:51:31Z</time></trkpt><trkpt lat="40.670198071554275" lon="17.00018231593963"><ele>269.0</ele><time>2026-03-29T09:51:32Z</time></trkpt><trkpt lat="40.66999324064305" lon="17.0004511406684"><ele>269.0</ele><time>2026-03-29T09:51:33Z</time></trkpt><trkpt lat="40.669789201797514" lon="17.00071772025756"><ele>269.0</ele><time>2026-03-29T09:51:34Z</time></trkpt><trkpt lat="40.669583590735314" lon="17.000982601594995"><ele>269.0</ele><time>2026-03-29T09:51:35Z</time></trkpt><trkpt lat="40.66938050512898" lon="17.001249830851712"><ele>269.0</ele><time>2026-03-29T09:51:36Z</time></trkpt><trkpt lat="40.669178007021976" lon="17.00151493296328"><ele>269.0</ele><time>2026-03-29T09:51:37Z</time></trkpt><trkpt lat="40.66897612373605" lon="17.001786484390493"><ele>268.0</ele><time>2026-03-29T09:51:38Z</time></trkpt><trkpt lat="40.668769722583434" lon="17.002059612662528"><ele>267.0</ele><time>2026-03-29T09:51:39Z</time></trkpt><trkpt lat="40.66856000946179" lon="17.0023387590261"><ele>267.0</ele><time>2026-03-29T09:51:40Z</time></trkpt><trkpt lat="40.66835019553944" lon="17.002621172883316"><ele>267.0</ele><time>2026-03-29T09:51:41Z</time></trkpt><trkpt lat="40.6681375367991" lon="17.002906885572354"><ele>267.0</ele><time>2026-03-29T09:51:42Z</time></trkpt><trkpt lat="40.667921461006806" lon="17.003192783123016"><ele>267.0</ele><time>2026-03-29T09:51:43Z</time></trkpt><trkpt lat="40.66769931047083" lon="17.003476996800607"><ele>267.0</ele><time>2026-03-29T09:51:44Z</time></trkpt><trkpt lat="40.667475907530054" lon="17.003762897307595"><ele>267.0</ele><time>2026-03-29T09:51:45Z</time></trkpt><trkpt lat="40.667248777362424" lon="17.004049512461776"><ele>267.0</ele><time>2026-03-29T09:51:46Z</time></trkpt><trkpt lat="40.66702326962318" lon="17.004338587900136"><ele>267.0</ele><time>2026-03-29T09:51:47Z</time></trkpt><trkpt lat="40.66679734217204" lon="17.004630266806384"><ele>267.0</ele><time>2026-03-29T09:51:48Z</time></trkpt><trkpt lat="40.66657302541679" lon="17.0049235909128"><ele>267.0</ele><time>2026-03-29T09:51:49Z</time></trkpt><trkpt lat="40.66635085776125" lon="17.00521504075013"><ele>267.0</ele><time>2026-03-29T09:51:50Z</time></trkpt><trkpt lat="40.666126255562915" lon="17.005506296549672"><ele>267.0</ele><time>2026-03-29T09:51:51Z</time></trkpt><trkpt lat="40.665902592849434" lon="17.005792334804447"><ele>267.0</ele><time>2026-03-29T09:51:52Z</time></trkpt><trkpt lat="40.665683610110676" lon="17.006081911801882"><ele>267.0</ele><time>2026-03-29T09:51:53Z</time></trkpt><trkpt lat="40.66546529362548" lon="17.00636769426351"><ele>267.0</ele><time>2026-03-29T09:51:54Z</time></trkpt><trkpt lat="40.665246225374595" lon="17.006659033180544"><ele>267.0</ele><time>2026-03-29T09:51:55Z</time></trkpt><trkpt lat="40.66502709634102" lon="17.006949125960382"><ele>267.0</ele><time>2026-03-29T09:51:56Z</time></trkpt><trkpt lat="40.664809675001564" lon="17.0072369766376"><ele>267.0</ele><time>2026-03-29T09:51:57Z</time></trkpt><trkpt lat="40.6645944769474" lon="17.007521037020485"><ele>267.5</ele><time>2026-03-29T09:51:58Z</time></trkpt><trkpt lat="40.66437584908351" lon="17.007800318044925"><ele>268.0</ele><time>2026-03-29T09:51:59Z</time></trkpt><trkpt lat="40.66415486268129" lon="17.008067941219593"><ele>268.0</ele><time>2026-03-29T09:52:00Z</time></trkpt><trkpt lat="40.66392672032123" lon="17.008333028498523"><ele>268.0</ele><time>2026-03-29T09:52:01Z</time></trkpt><trkpt lat="40.66369469075957" lon="17.008593432027194"><ele>268.5</ele><time>2026-03-29T09:52:02Z</time></trkpt><trkpt lat="40.663462045663664" lon="17.008853826633135"><ele>269.0</ele><time>2026-03-29T09:52:03Z</time></trkpt><trkpt lat="40.663227689283865" lon="17.00911562707969"><ele>269.0</ele><time>2026-03-29T09:52:04Z</time></trkpt><trkpt lat="40.66299183966601" lon="17.009381567582516"><ele>269.0</ele><time>2026-03-29T09:52:05Z</time></trkpt><trkpt lat="40.66276019954174" lon="17.0096473411245"><ele>269.0</ele><time>2026-03-29T09:52:06Z</time></trkpt><trkpt lat="40.66252316865296" lon="17.009912343632102"><ele>269.0</ele><time>2026-03-29T09:52:07Z</time></trkpt><trkpt lat="40.66228426596635" lon="17.010179521118683"><ele>269.0</ele><time>2026-03-29T09:52:08Z</time></trkpt><trkpt lat="40.66204433748533" lon="17.010446658293343"><ele>269.0</ele><time>2026-03-29T09:52:09Z</time></trkpt><trkpt lat="40.66180446091994" lon="17.010712769370688"><ele>270.0</ele><time>2026-03-29T09:52:10Z</time></trkpt><trkpt lat="40.66156703524492" lon="17.010981083215253"><ele>271.0</ele><time>2026-03-29T09:52:11Z</time></trkpt><trkpt lat="40.661330507096224" lon="17.011246754869315"><ele>271.0</ele><time>2026-03-29T09:52:12Z</time></trkpt><trkpt lat="40.66109276262215" lon="17.011513543485105"><ele>271.0</ele><time>2026-03-29T09:52:13Z</time></trkpt><trkpt lat="40.660855493611486" lon="17.01178028728989"><ele>270.5</ele><time>2026-03-29T09:52:14Z</time></trkpt><trkpt lat="40.66061928721903" lon="17.01204289487789"><ele>270.0</ele><time>2026-03-29T09:52:15Z</time></trkpt><trkpt lat="40.66038501607237" lon="17.012304702405324"><ele>269.5</ele><time>2026-03-29T09:52:16Z</time></trkpt><trkpt lat="40.66015332859892" lon="17.01256397394236"><ele>269.0</ele><time>2026-03-29T09:52:17Z</time></trkpt><trkpt lat="40.65992161336861" lon="17.012825137191655"><ele>269.0</ele><time>2026-03-29T09:52:18Z</time></trkpt><trkpt lat="40.659689319805324" lon="17.01308614403687"><ele>269.0</ele><time>2026-03-29T09:52:19Z</time></trkpt><trkpt lat="40.65945582946004" lon="17.013348411570764"><ele>269.0</ele><time>2026-03-29T09:52:20Z</time></trkpt><trkpt lat="40.659222893446454" lon="17.013610034548446"><ele>269.0</ele><time>2026-03-29T09:52:21Z</time></trkpt><trkpt lat="40.658991607786824" lon="17.013872934082723"><ele>269.0</ele><time>2026-03-29T09:52:22Z</time></trkpt><trkpt lat="40.6587617889572" lon="17.01413352728802"><ele>269.0</ele><time>2026-03-29T09:52:23Z</time></trkpt><trkpt lat="40.658544659194405" lon="17.014379859854593"><ele>269.0</ele><time>2026-03-29T09:52:24Z</time></trkpt><trkpt lat="40.658338338675634" lon="17.014612145691682"><ele>269.0</ele><time>2026-03-29T09:52:25Z</time></trkpt><trkpt lat="40.65814351065867" lon="17.01482924394447"><ele>269.5</ele><time>2026-03-29T09:52:26Z</time></trkpt><trkpt lat="40.65795746060935" lon="17.015036530622233"><ele>270.0</ele><time>2026-03-29T09:52:27Z</time></trkpt><trkpt lat="40.657776582599084" lon="17.015238521376514"><ele>270.5</ele><time>2026-03-29T09:52:28Z</time></trkpt><trkpt lat="40.657595158690874" lon="17.015442433173135"><ele>271.0</ele><time>2026-03-29T09:52:29Z</time></trkpt><trkpt lat="40.65741195572493" lon="17.015647769003643"><ele>271.0</ele><time>2026-03-29T09:52:30Z</time></trkpt><trkpt lat="40.65722908145764" lon="17.01585767094719"><ele>271.0</ele><time>2026-03-29T09:52:31Z</time></trkpt><trkpt lat="40.657045978727865" lon="17.01607122040472"><ele>271.5</ele><time>2026-03-29T09:52:32Z</time></trkpt><trkpt lat="40.65685828452569" lon="17.016283564971605"><ele>272.0</ele><time>2026-03-29T09:52:33Z</time></trkpt><trkpt lat="40.65666811226335" lon="17.016497294331344"><ele>271.0</ele><time>2026-03-29T09:52:34Z</time></trkpt><trkpt lat="40.656477184833406" lon="17.016712726823755"><ele>270.0</ele><time>2026-03-29T09:52:35Z</time></trkpt><trkpt lat="40.65628320490885" lon="17.016929020978097"><ele>269.5</ele><time>2026-03-29T09:52:36Z</time></trkpt><trkpt lat="40.656090554124134" lon="17.017146958663496"><ele>269.0</ele><time>2026-03-29T09:52:37Z</time></trkpt><trkpt lat="40.655899182407246" lon="17.01736478268301"><ele>268.0</ele><time>2026-03-29T09:52:38Z</time></trkpt><trkpt lat="40.65570671840004" lon="17.017587654029036"><ele>267.0</ele><time>2026-03-29T09:52:39Z</time></trkpt><trkpt lat="40.655510649663405" lon="17.017810775966105"><ele>267.0</ele><time>2026-03-29T09:52:40Z</time></trkpt><trkpt lat="40.65531396938487" lon="17.018033682920915"><ele>267.0</ele><time>2026-03-29T09:52:41Z</time></trkpt><trkpt lat="40.6551192148689" lon="17.01825447361714"><ele>268.0</ele><time>2026-03-29T09:52:42Z</time></trkpt><trkpt lat="40.65492255487354" lon="17.018474397734014"><ele>269.0</ele><time>2026-03-29T09:52:43Z</time></trkpt><trkpt lat="40.654724655118066" lon="17.01870053378815"><ele>269.0</ele><time>2026-03-29T09:52:44Z</time></trkpt><trkpt lat="40.65451403425212" lon="17.018914732236134"><ele>269.0</ele><time>2026-03-29T09:52:45Z</time></trkpt><trkpt lat="40.654309779547056" lon="17.019144791386818"><ele>270.0</ele><time>2026-03-29T09:52:46Z</time></trkpt><trkpt lat="40.65410374393554" lon="17.019376811997248"><ele>271.0</ele><time>2026-03-29T09:52:47Z</time></trkpt><trkpt lat="40.65390622187875" lon="17.019627370216835"><ele>271.0</ele><time>2026-03-29T09:52:48Z</time></trkpt><trkpt lat="40.65369516023772" lon="17.019862347595815"><ele>271.0</ele><time>2026-03-29T09:52:49Z</time></trkpt><trkpt lat="40.65348371211681" lon="17.020098604517187"><ele>272.5</ele><time>2026-03-29T09:52:50Z</time></trkpt><trkpt lat="40.65327343842886" lon="17.02033667896252"><ele>274.0</ele><time>2026-03-29T09:52:51Z</time></trkpt><trkpt lat="40.65306625809279" lon="17.020571783584963"><ele>274.0</ele><time>2026-03-29T09:52:52Z</time></trkpt><trkpt lat="40.65285214788105" lon="17.02078592237956"><ele>274.0</ele><time>2026-03-29T09:52:53Z</time></trkpt><trkpt lat="40.65264950404691" lon="17.021013942900044"><ele>273.5</ele><time>2026-03-29T09:52:54Z</time></trkpt><trkpt lat="40.65245888793661" lon="17.02125623343271"><ele>273.0</ele><time>2026-03-29T09:52:55Z</time></trkpt><trkpt lat="40.65225618024262" lon="17.02147948422165"><ele>273.0</ele><time>2026-03-29T09:52:56Z</time></trkpt><trkpt lat="40.65205307973153" lon="17.021701405833657"><ele>273.0</ele><time>2026-03-29T09:52:57Z</time></trkpt><trkpt lat="40.65184906031041" lon="17.021927729317774"><ele>273.0</ele><time>2026-03-29T09:52:58Z</time></trkpt><trkpt lat="40.65164952155149" lon="17.022151427013295"><ele>273.0</ele><time>2026-03-29T09:52:59Z</time></trkpt><trkpt lat="40.65145199116349" lon="17.022372752680244"><ele>273.0</ele><time>2026-03-29T09:53:00Z</time></trkpt><trkpt lat="40.6512565232711" lon="17.022591385559636"><ele>273.0</ele><time>2026-03-29T09:53:01Z</time></trkpt><trkpt lat="40.65106308947911" lon="17.022806413354413"><ele>273.5</ele><time>2026-03-29T09:53:02Z</time></trkpt><trkpt lat="40.65087029328577" lon="17.023025999334408"><ele>274.0</ele><time>2026-03-29T09:53:03Z</time></trkpt><trkpt lat="40.65067846864923" lon="17.023249507442678"><ele>274.0</ele><time>2026-03-29T09:53:04Z</time></trkpt><trkpt lat="40.65048536446498" lon="17.023471350051725"><ele>274.0</ele><time>2026-03-29T09:53:05Z</time></trkpt><trkpt lat="40.65029320323482" lon="17.0236901871787"><ele>275.0</ele><time>2026-03-29T09:53:06Z</time></trkpt><trkpt lat="40.65009909673359" lon="17.023905546060334"><ele>276.0</ele><time>2026-03-29T09:53:07Z</time></trkpt><trkpt lat="40.64990343457156" lon="17.02411598033983"><ele>275.5</ele><time>2026-03-29T09:53:08Z</time></trkpt><trkpt lat="40.649707833920615" lon="17.024326078578724"><ele>275.0</ele><time>2026-03-29T09:53:09Z</time></trkpt><trkpt lat="40.649512097751405" lon="17.02453893648147"><ele>277.5</ele><time>2026-03-29T09:53:10Z</time></trkpt><trkpt lat="40.64931663698565" lon="17.024753006097153"><ele>280.0</ele><time>2026-03-29T09:53:11Z</time></trkpt><trkpt lat="40.649120190104696" lon="17.024968163336002"><ele>280.0</ele><time>2026-03-29T09:53:12Z</time></trkpt><trkpt lat="40.648922682879494" lon="17.02518374494332"><ele>280.0</ele><time>2026-03-29T09:53:13Z</time></trkpt><trkpt lat="40.64872624891747" lon="17.025401718609807"><ele>280.5</ele><time>2026-03-29T09:53:14Z</time></trkpt><trkpt lat="40.64852829232266" lon="17.025623621364392"><ele>281.0</ele><time>2026-03-29T09:53:15Z</time></trkpt><trkpt lat="40.648328023375875" lon="17.025848624751855"><ele>281.5</ele><time>2026-03-29T09:53:16Z</time></trkpt><trkpt lat="40.64812731947306" lon="17.026077165540837"><ele>282.0</ele><time>2026-03-29T09:53:17Z</time></trkpt><trkpt lat="40.64792323405913" lon="17.026307216667448"><ele>282.0</ele><time>2026-03-29T09:53:18Z</time></trkpt><trkpt lat="40.64771823857831" lon="17.02653993410886"><ele>282.0</ele><time>2026-03-29T09:53:19Z</time></trkpt><trkpt lat="40.647510203610494" lon="17.026773380536415"><ele>282.0</ele><time>2026-03-29T09:53:20Z</time></trkpt><trkpt lat="40.64730431243107" lon="17.027003153609144"><ele>282.0</ele><time>2026-03-29T09:53:21Z</time></trkpt><trkpt lat="40.64710226129003" lon="17.027229667387395"><ele>282.0</ele><time>2026-03-29T09:53:22Z</time></trkpt><trkpt lat="40.6469038468106" lon="17.027452481379957"><ele>282.0</ele><time>2026-03-29T09:53:23Z</time></trkpt><trkpt lat="40.64671791187138" lon="17.027662578444115"><ele>282.3333333333333</ele><time>2026-03-29T09:53:24Z</time></trkpt><trkpt lat="40.64654237036339" lon="17.027858706682164"><ele>282.66666666666663</ele><time>2026-03-29T09:53:25Z</time></trkpt><trkpt lat="40.646375367081674" lon="17.02804572633513"><ele>283.0</ele><time>2026-03-29T09:53:26Z</time></trkpt><trkpt lat="40.64621097911255" lon="17.02823115446609"><ele>283.0</ele><time>2026-03-29T09:53:27Z</time></trkpt><trkpt lat="40.64604387761993" lon="17.028421442510027"><ele>283.0</ele><time>2026-03-29T09:53:28Z</time></trkpt><trkpt lat="40.6458764020119" lon="17.02861189440031"><ele>283.0</ele><time>2026-03-29T09:53:29Z</time></trkpt><trkpt lat="40.64570620268247" lon="17.028806270373025"><ele>283.0</ele><time>2026-03-29T09:53:30Z</time></trkpt><trkpt lat="40.645535780245446" lon="17.028999907935784"><ele>283.0</ele><time>2026-03-29T09:53:31Z</time></trkpt><trkpt lat="40.64536104425245" lon="17.029196223394546"><ele>284.0</ele><time>2026-03-29T09:53:32Z</time></trkpt><trkpt lat="40.64519139070942" lon="17.02939633779897"><ele>285.0</ele><time>2026-03-29T09:53:33Z</time></trkpt><trkpt lat="40.64502727799502" lon="17.029601284440538"><ele>285.0</ele><time>2026-03-29T09:53:34Z</time></trkpt><trkpt lat="40.64486912314004" lon="17.029816080113413"><ele>285.0</ele><time>2026-03-29T09:53:35Z</time></trkpt><trkpt lat="40.64472104718893" lon="17.0300399988154"><ele>284.5</ele><time>2026-03-29T09:53:36Z</time></trkpt><trkpt lat="40.64457091426679" lon="17.030270837348947"><ele>284.0</ele><time>2026-03-29T09:53:37Z</time></trkpt><trkpt lat="40.64442531341366" lon="17.03050691528871"><ele>286.0</ele><time>2026-03-29T09:53:38Z</time></trkpt><trkpt lat="40.64428592371586" lon="17.030744684985596"><ele>288.0</ele><time>2026-03-29T09:53:39Z</time></trkpt><trkpt lat="40.64415013575507" lon="17.03098785422914"><ele>288.0</ele><time>2026-03-29T09:53:40Z</time></trkpt><trkpt lat="40.644016090968556" lon="17.03123219161074"><ele>288.0</ele><time>2026-03-29T09:53:41Z</time></trkpt><trkpt lat="40.64388462650571" lon="17.03148156434551"><ele>288.5</ele><time>2026-03-29T09:53:42Z</time></trkpt><trkpt lat="40.64375684269043" lon="17.0317325487173"><ele>289.0</ele><time>2026-03-29T09:53:43Z</time></trkpt><trkpt lat="40.64363770727141" lon="17.031986914877557"><ele>290.0</ele><time>2026-03-29T09:53:44Z</time></trkpt><trkpt lat="40.64352909265771" lon="17.03224904080679"><ele>291.0</ele><time>2026-03-29T09:53:45Z</time></trkpt><trkpt lat="40.64342414759763" lon="17.032513853031634"><ele>292.0</ele><time>2026-03-29T09:53:46Z</time></trkpt><trkpt lat="40.643331050546024" lon="17.032784633306356"><ele>293.0</ele><time>2026-03-29T09:53:47Z</time></trkpt><trkpt lat="40.64323681622647" lon="17.03305627355447"><ele>292.5</ele><time>2026-03-29T09:53:48Z</time></trkpt><trkpt lat="40.6431504303644" lon="17.033328493816057"><ele>292.0</ele><time>2026-03-29T09:53:49Z</time></trkpt><trkpt lat="40.64306446439678" lon="17.03360382085481"><ele>292.0</ele><time>2026-03-29T09:53:50Z</time></trkpt><trkpt lat="40.642978056722015" lon="17.03388328171822"><ele>292.0</ele><time>2026-03-29T09:53:51Z</time></trkpt><trkpt lat="40.64289681280027" lon="17.03416204848019"><ele>291.5</ele><time>2026-03-29T09:53:52Z</time></trkpt><trkpt lat="40.642816419603506" lon="17.034444700667535"><ele>291.0</ele><time>2026-03-29T09:53:53Z</time></trkpt><trkpt lat="40.64273459913669" lon="17.034731831347223"><ele>295.5</ele><time>2026-03-29T09:53:54Z</time></trkpt><trkpt lat="40.64264900415579" lon="17.035021430762367"><ele>300.0</ele><time>2026-03-29T09:53:55Z</time></trkpt><trkpt lat="40.642561468310404" lon="17.035314440559695"><ele>300.0</ele><time>2026-03-29T09:53:56Z</time></trkpt><trkpt lat="40.642471738052464" lon="17.0356091197654"><ele>300.0</ele><time>2026-03-29T09:53:57Z</time></trkpt><trkpt lat="40.64237972306912" lon="17.035909037906286"><ele>301.5</ele><time>2026-03-29T09:53:58Z</time></trkpt><trkpt lat="40.64228942548779" lon="17.036210359228164"><ele>303.0</ele><time>2026-03-29T09:53:59Z</time></trkpt><trkpt lat="40.642200822789384" lon="17.036512731494213"><ele>304.0</ele><time>2026-03-29T09:54:00Z</time></trkpt><trkpt lat="40.64211102518374" lon="17.03682368476513"><ele>305.0</ele><time>2026-03-29T09:54:01Z</time></trkpt><trkpt lat="40.64201787445837" lon="17.037141685997618"><ele>308.0</ele><time>2026-03-29T09:54:02Z</time></trkpt><trkpt lat="40.64192257919252" lon="17.037463552780753"><ele>311.0</ele><time>2026-03-29T09:54:03Z</time></trkpt><trkpt lat="40.64182396381403" lon="17.037793036240632"><ele>311.0</ele><time>2026-03-29T09:54:04Z</time></trkpt><trkpt lat="40.64172348883094" lon="17.038128532514627"><ele>311.0</ele><time>2026-03-29T09:54:05Z</time></trkpt><trkpt lat="40.64162061961014" lon="17.038465911269004"><ele>309.5</ele><time>2026-03-29T09:54:06Z</time></trkpt><trkpt lat="40.641518571635615" lon="17.0388076025214"><ele>308.0</ele><time>2026-03-29T09:54:07Z</time></trkpt><trkpt lat="40.641416130642" lon="17.03915354697177"><ele>306.5</ele><time>2026-03-29T09:54:08Z</time></trkpt><trkpt lat="40.641313505818765" lon="17.039500354226607"><ele>305.0</ele><time>2026-03-29T09:54:09Z</time></trkpt><trkpt lat="40.64121008003273" lon="17.039851806192903"><ele>308.0</ele><time>2026-03-29T09:54:10Z</time></trkpt><trkpt lat="40.64110497137218" lon="17.040210105967038"><ele>311.0</ele><time>2026-03-29T09:54:11Z</time></trkpt><trkpt lat="40.640998977627824" lon="17.040565491644706"><ele>311.0</ele><time>2026-03-29T09:54:12Z</time></trkpt><trkpt lat="40.640892667694516" lon="17.040923240079895"><ele>311.0</ele><time>2026-03-29T09:54:13Z</time></trkpt><trkpt lat="40.64079161850953" lon="17.041270120187278"><ele>311.0</ele><time>2026-03-29T09:54:14Z</time></trkpt><trkpt lat="40.64068326983462" lon="17.04161327923535"><ele>311.0</ele><time>2026-03-29T09:54:15Z</time></trkpt><trkpt lat="40.64057829131299" lon="17.041961196836652"><ele>310.5</ele><time>2026-03-29T09:54:16Z</time></trkpt><trkpt lat="40.640475466865944" lon="17.042303854331376"><ele>310.0</ele><time>2026-03-29T09:54:17Z</time></trkpt><trkpt lat="40.6403748219315" lon="17.042643639488603"><ele>310.5</ele><time>2026-03-29T09:54:18Z</time></trkpt><trkpt lat="40.64027702219083" lon="17.04296741313252"><ele>311.0</ele><time>2026-03-29T09:54:19Z</time></trkpt><trkpt lat="40.640183976382495" lon="17.043278495090025"><ele>310.0</ele><time>2026-03-29T09:54:20Z</time></trkpt><trkpt lat="40.640094744260836" lon="17.043582949959625"><ele>309.0</ele><time>2026-03-29T09:54:21Z</time></trkpt><trkpt lat="40.640007669067955" lon="17.04388119965904"><ele>307.0</ele><time>2026-03-29T09:54:22Z</time></trkpt><trkpt lat="40.639922095761015" lon="17.04417321761827"><ele>305.0</ele><time>2026-03-29T09:54:23Z</time></trkpt><trkpt lat="40.639838143896185" lon="17.044455350811017"><ele>305.0</ele><time>2026-03-29T09:54:24Z</time></trkpt><trkpt lat="40.63975996081499" lon="17.04474158594039"><ele>305.0</ele><time>2026-03-29T09:54:25Z</time></trkpt><trkpt lat="40.63968032168167" lon="17.04503074336564"><ele>301.5</ele><time>2026-03-29T09:54:26Z</time></trkpt><trkpt lat="40.639597175999384" lon="17.045320784323792"><ele>298.0</ele><time>2026-03-29T09:54:27Z</time></trkpt><trkpt lat="40.639505674004624" lon="17.04561280900817"><ele>295.5</ele><time>2026-03-29T09:54:28Z</time></trkpt><trkpt lat="40.63941221347219" lon="17.045909558674218"><ele>293.0</ele><time>2026-03-29T09:54:29Z</time></trkpt><trkpt lat="40.63931969077798" lon="17.046207110984497"><ele>293.0</ele><time>2026-03-29T09:54:30Z</time></trkpt><trkpt lat="40.63922654667237" lon="17.04651171785813"><ele>293.0</ele><time>2026-03-29T09:54:31Z</time></trkpt><trkpt lat="40.63913704767381" lon="17.046809564236902"><ele>292.6666666666667</ele><time>2026-03-29T09:54:32Z</time></trkpt><trkpt lat="40.63905699675101" lon="17.047088328003863"><ele>292.3333333333333</ele><time>2026-03-29T09:54:33Z</time></trkpt><trkpt lat="40.638980203622886" lon="17.047350923980222"><ele>292.0</ele><time>2026-03-29T09:54:34Z</time></trkpt><trkpt lat="40.63890058415961" lon="17.047611851268275"><ele>289.66666666666663</ele><time>2026-03-29T09:54:35Z</time></trkpt><trkpt lat="40.6388214603097" lon="17.047873648044977"><ele>287.3333333333333</ele><time>2026-03-29T09:54:36Z</time></trkpt><trkpt lat="40.63874412115465" lon="17.04813404457266"><ele>285.0</ele><time>2026-03-29T09:54:37Z</time></trkpt><trkpt lat="40.63867421480898" lon="17.048381340883495"><ele>284.0</ele><time>2026-03-29T09:54:38Z</time></trkpt><trkpt lat="40.638609977393486" lon="17.048618790383227"><ele>283.0</ele><time>2026-03-29T09:54:39Z</time></trkpt><trkpt lat="40.63854158220184" lon="17.048858274698198"><ele>282.0</ele><time>2026-03-29T09:54:40Z</time></trkpt><trkpt lat="40.6384692872629" lon="17.04910634344781"><ele>281.0</ele><time>2026-03-29T09:54:41Z</time></trkpt><trkpt lat="40.63839390873654" lon="17.049368847969898"><ele>280.0</ele><time>2026-03-29T09:54:42Z</time></trkpt><trkpt lat="40.63831516189457" lon="17.0496288902636"><ele>279.0</ele><time>2026-03-29T09:54:43Z</time></trkpt><trkpt lat="40.638232729016195" lon="17.04989140068956"><ele>277.3333333333333</ele><time>2026-03-29T09:54:44Z</time></trkpt><trkpt lat="40.638149111820255" lon="17.05015661907642"><ele>275.66666666666663</ele><time>2026-03-29T09:54:45Z</time></trkpt><trkpt lat="40.63806786001466" lon="17.050424843827017"><ele>274.0</ele><time>2026-03-29T09:54:46Z</time></trkpt><trkpt lat="40.63799053033824" lon="17.05068705494028"><ele>273.0</ele><time>2026-03-29T09:54:47Z</time></trkpt><trkpt lat="40.63791862980666" lon="17.050955018306006"><ele>272.0</ele><time>2026-03-29T09:54:48Z</time></trkpt><trkpt lat="40.637837126140816" lon="17.05122022710721"><ele>271.0</ele><time>2026-03-29T09:54:49Z</time></trkpt><trkpt lat="40.637750285166575" lon="17.051486503569866"><ele>270.3333333333333</ele><time>2026-03-29T09:54:50Z</time></trkpt><trkpt lat="40.63766446942573" lon="17.05175779242685"><ele>269.6666666666667</ele><time>2026-03-29T09:54:51Z</time></trkpt><trkpt lat="40.63758044677972" lon="17.05202946242541"><ele>269.0</ele><time>2026-03-29T09:54:52Z</time></trkpt><trkpt lat="40.63749673904325" lon="17.05230504304828"><ele>269.5</ele><time>2026-03-29T09:54:53Z</time></trkpt><trkpt lat="40.63741258827154" lon="17.052580736500293"><ele>270.0</ele><time>2026-03-29T09:54:54Z</time></trkpt><trkpt lat="40.63732984143639" lon="17.05286014064727"><ele>270.0</ele><time>2026-03-29T09:54:55Z</time></trkpt><trkpt lat="40.63724631135284" lon="17.05314054736458"><ele>270.0</ele><time>2026-03-29T09:54:56Z</time></trkpt><trkpt lat="40.637161990603154" lon="17.053422028888043"><ele>271.5</ele><time>2026-03-29T09:54:57Z</time></trkpt><trkpt lat="40.63707734919747" lon="17.05370745526123"><ele>273.0</ele><time>2026-03-29T09:54:58Z</time></trkpt><trkpt lat="40.63699196388468" lon="17.053995894752195"><ele>273.0</ele><time>2026-03-29T09:54:59Z</time></trkpt><trkpt lat="40.63690516350266" lon="17.0542841069327"><ele>273.0</ele><time>2026-03-29T09:55:00Z</time></trkpt><trkpt lat="40.63681616008904" lon="17.054572173818563"><ele>273.0</ele><time>2026-03-29T09:55:01Z</time></trkpt><trkpt lat="40.636729987697855" lon="17.054857945447207"><ele>273.0</ele><time>2026-03-29T09:55:02Z</time></trkpt><trkpt lat="40.63664830364124" lon="17.05513385349434"><ele>272.0</ele><time>2026-03-29T09:55:03Z</time></trkpt><trkpt lat="40.63656782096655" lon="17.055411202404787"><ele>271.0</ele><time>2026-03-29T09:55:04Z</time></trkpt><trkpt lat="40.63648388859007" lon="17.05569037578764"><ele>270.5</ele><time>2026-03-29T09:55:05Z</time></trkpt><trkpt lat="40.63639833789428" lon="17.055970401051393"><ele>270.0</ele><time>2026-03-29T09:55:06Z</time></trkpt><trkpt lat="40.63631574499695" lon="17.056247724856274"><ele>270.0</ele><time>2026-03-29T09:55:07Z</time></trkpt><trkpt lat="40.63623227288414" lon="17.05653168220486"><ele>270.0</ele><time>2026-03-29T09:55:08Z</time></trkpt><trkpt lat="40.636149824033424" lon="17.05681839284925"><ele>267.5</ele><time>2026-03-29T09:55:09Z</time></trkpt><trkpt lat="40.636065638424384" lon="17.057102006987364"><ele>265.0</ele><time>2026-03-29T09:55:10Z</time></trkpt><trkpt lat="40.6359836476563" lon="17.05738595309058"><ele>265.5</ele><time>2026-03-29T09:55:11Z</time></trkpt><trkpt lat="40.63590041910808" lon="17.05766788072426"><ele>266.0</ele><time>2026-03-29T09:55:12Z</time></trkpt><trkpt lat="40.63581500565571" lon="17.057952837454764"><ele>266.0</ele><time>2026-03-29T09:55:13Z</time></trkpt><trkpt lat="40.63572794981797" lon="17.058242958466472"><ele>266.0</ele><time>2026-03-29T09:55:14Z</time></trkpt><trkpt lat="40.63564011768631" lon="17.058538630133146"><ele>265.5</ele><time>2026-03-29T09:55:15Z</time></trkpt><trkpt lat="40.63555094407123" lon="17.058835101839843"><ele>265.0</ele><time>2026-03-29T09:55:16Z</time></trkpt><trkpt lat="40.635459784797774" lon="17.0591282643017"><ele>264.5</ele><time>2026-03-29T09:55:17Z</time></trkpt><trkpt lat="40.63536974430944" lon="17.05943209113748"><ele>264.0</ele><time>2026-03-29T09:55:18Z</time></trkpt><trkpt lat="40.63527783697541" lon="17.059738939460594"><ele>261.0</ele><time>2026-03-29T09:55:19Z</time></trkpt><trkpt lat="40.63518541202625" lon="17.060049509584605"><ele>258.0</ele><time>2026-03-29T09:55:20Z</time></trkpt><trkpt lat="40.635095604744954" lon="17.0603607367721"><ele>258.0</ele><time>2026-03-29T09:55:21Z</time></trkpt><trkpt lat="40.635002266065115" lon="17.06065807226969"><ele>258.0</ele><time>2026-03-29T09:55:22Z</time></trkpt><trkpt lat="40.63490822003137" lon="17.060940897232893"><ele>258.0</ele><time>2026-03-29T09:55:23Z</time></trkpt><trkpt lat="40.6348092877481" lon="17.06121819705918"><ele>258.0</ele><time>2026-03-29T09:55:24Z</time></trkpt><trkpt lat="40.63469804771813" lon="17.061470686068905"><ele>258.0</ele><time>2026-03-29T09:55:25Z</time></trkpt><trkpt lat="40.63457473004426" lon="17.06171704985678"><ele>258.0</ele><time>2026-03-29T09:55:26Z</time></trkpt><trkpt lat="40.634442087581924" lon="17.061966149737703"><ele>255.5</ele><time>2026-03-29T09:55:27Z</time></trkpt><trkpt lat="40.63429752391372" lon="17.06221229011804"><ele>253.0</ele><time>2026-03-29T09:55:28Z</time></trkpt><trkpt lat="40.6341413434241" lon="17.062447602451346"><ele>253.5</ele><time>2026-03-29T09:55:29Z</time></trkpt><trkpt lat="40.633974632114764" lon="17.062674974920313"><ele>254.0</ele><time>2026-03-29T09:55:30Z</time></trkpt><trkpt lat="40.63380351784699" lon="17.062885620950134"><ele>252.5</ele><time>2026-03-29T09:55:31Z</time></trkpt><trkpt lat="40.63361774305572" lon="17.06308803528849"><ele>251.0</ele><time>2026-03-29T09:55:32Z</time></trkpt><trkpt lat="40.6334264964489" lon="17.063281663326666"><ele>250.0</ele><time>2026-03-29T09:55:33Z</time></trkpt><trkpt lat="40.633227505774926" lon="17.063451567943638"><ele>249.0</ele><time>2026-03-29T09:55:34Z</time></trkpt><trkpt lat="40.63303013011121" lon="17.063596789724258"><ele>249.0</ele><time>2026-03-29T09:55:35Z</time></trkpt><trkpt lat="40.63282978314054" lon="17.06372790705191"><ele>249.0</ele><time>2026-03-29T09:55:36Z</time></trkpt><trkpt lat="40.632620995082576" lon="17.0638530467348"><ele>249.0</ele><time>2026-03-29T09:55:37Z</time></trkpt><trkpt lat="40.63241787429678" lon="17.063962666219012"><ele>249.0</ele><time>2026-03-29T09:55:38Z</time></trkpt><trkpt lat="40.632216762989046" lon="17.064054649671935"><ele>249.0</ele><time>2026-03-29T09:55:39Z</time></trkpt><trkpt lat="40.632007025373554" lon="17.06414026852375"><ele>248.0</ele><time>2026-03-29T09:55:40.021Z</time></trkpt><trkpt lat="40.63180245312308" lon="17.064215341150117"><ele>247.0</ele><time>2026-03-29T09:55:41.015Z</time></trkpt><trkpt lat="40.63159849560422" lon="17.064292528587764"><ele>246.0</ele><time>2026-03-29T09:55:42.019Z</time></trkpt><trkpt lat="40.63139447073772" lon="17.064375842278242"><ele>246.0</ele><time>2026-03-29T09:55:43.018Z</time></trkpt><trkpt lat="40.631191018346726" lon="17.064465659261085"><ele>246.0</ele><time>2026-03-29T09:55:44.014Z</time></trkpt><trkpt lat="40.630989404827496" lon="17.064560940559154"><ele>246.0</ele><time>2026-03-29T09:55:45.023Z</time></trkpt><trkpt lat="40.630799774765585" lon="17.06465271954064"><ele>225.0</ele><time>2026-03-29T09:55:46Z</time></trkpt><trkpt lat="40.6302719856026" lon="17.064641748757488"><ele>225.0</ele><time>2026-03-29T09:55:47Z</time></trkpt><trkpt lat="40.63003544416652" lon="17.064709320842486"><ele>225.0</ele><time>2026-03-29T09:55:48Z</time></trkpt><trkpt lat="40.62979400290462" lon="17.064778970996084"><ele>225.0</ele><time>2026-03-29T09:55:49Z</time></trkpt><trkpt lat="40.62955341208031" lon="17.06485039539269"><ele>225.0</ele><time>2026-03-29T09:55:50Z</time></trkpt><trkpt lat="40.62932266287392" lon="17.064920254681066"><ele>222.5</ele><time>2026-03-29T09:55:51Z</time></trkpt><trkpt lat="40.629097611877484" lon="17.064983310422196"><ele>220.0</ele><time>2026-03-29T09:55:52Z</time></trkpt><trkpt lat="40.62886408226695" lon="17.065047166372338"><ele>217.5</ele><time>2026-03-29T09:55:53Z</time></trkpt><trkpt lat="40.628628237612695" lon="17.06512081481812"><ele>215.0</ele><time>2026-03-29T09:55:54Z</time></trkpt><trkpt lat="40.62839052994514" lon="17.065190928666876"><ele>215.0</ele><time>2026-03-29T09:55:55Z</time></trkpt><trkpt lat="40.628158131540715" lon="17.065252728512508"><ele>215.0</ele><time>2026-03-29T09:55:56Z</time></trkpt><trkpt lat="40.62791968907734" lon="17.065316629707763"><ele>212.0</ele><time>2026-03-29T09:55:57Z</time></trkpt><trkpt lat="40.62767600664461" lon="17.06538967510686"><ele>209.0</ele><time>2026-03-29T09:55:58Z</time></trkpt><trkpt lat="40.62743247429592" lon="17.065466089584696"><ele>209.0</ele><time>2026-03-29T09:55:59Z</time></trkpt><trkpt lat="40.62719258327605" lon="17.065537429853322"><ele>209.0</ele><time>2026-03-29T09:56:00Z</time></trkpt><trkpt lat="40.626950275101365" lon="17.065610891123253"><ele>207.0</ele><time>2026-03-29T09:56:01Z</time></trkpt><trkpt lat="40.62671372864901" lon="17.06568184454898"><ele>205.0</ele><time>2026-03-29T09:56:02Z</time></trkpt><trkpt lat="40.626473448400475" lon="17.065756683419348"><ele>206.0</ele><time>2026-03-29T09:56:03Z</time></trkpt><trkpt lat="40.62623376004066" lon="17.065835027991632"><ele>207.0</ele><time>2026-03-29T09:56:04Z</time></trkpt><trkpt lat="40.62598861424253" lon="17.06591886370252"><ele>205.0</ele><time>2026-03-29T09:56:05Z</time></trkpt><trkpt lat="40.62573890600048" lon="17.065984784395134"><ele>203.0</ele><time>2026-03-29T09:56:06Z</time></trkpt><trkpt lat="40.6254876463051" lon="17.066054213026963"><ele>200.5</ele><time>2026-03-29T09:56:07Z</time></trkpt><trkpt lat="40.625229018803545" lon="17.06611800253037"><ele>198.0</ele><time>2026-03-29T09:56:08Z</time></trkpt><trkpt lat="40.62496990883091" lon="17.066186588529348"><ele>198.0</ele><time>2026-03-29T09:56:09Z</time></trkpt><trkpt lat="40.62470089261012" lon="17.066267715624917"><ele>198.0</ele><time>2026-03-29T09:56:10Z</time></trkpt><trkpt lat="40.62444046482895" lon="17.066350657393052"><ele>194.0</ele><time>2026-03-29T09:56:11Z</time></trkpt><trkpt lat="40.62418123967197" lon="17.066430844619155"><ele>190.0</ele><time>2026-03-29T09:56:12Z</time></trkpt><trkpt lat="40.6239238943948" lon="17.066505256114038"><ele>190.0</ele><time>2026-03-29T09:56:13Z</time></trkpt><trkpt lat="40.6236672849455" lon="17.06657832371111"><ele>190.0</ele><time>2026-03-29T09:56:14Z</time></trkpt><trkpt lat="40.62340952193119" lon="17.0666497764406"><ele>190.0</ele><time>2026-03-29T09:56:15Z</time></trkpt><trkpt lat="40.62314870922417" lon="17.06672313766275"><ele>190.0</ele><time>2026-03-29T09:56:16Z</time></trkpt><trkpt lat="40.62288458646997" lon="17.06679753700618"><ele>188.0</ele><time>2026-03-29T09:56:17Z</time></trkpt><trkpt lat="40.62262265514849" lon="17.066872505563854"><ele>186.0</ele><time>2026-03-29T09:56:18Z</time></trkpt><trkpt lat="40.62236087068656" lon="17.066951510508957"><ele>186.0</ele><time>2026-03-29T09:56:19Z</time></trkpt><trkpt lat="40.62210169448649" lon="17.067022749225575"><ele>186.0</ele><time>2026-03-29T09:56:20Z</time></trkpt><trkpt lat="40.62184013623491" lon="17.0670866719087"><ele>184.5</ele><time>2026-03-29T09:56:21Z</time></trkpt><trkpt lat="40.62156914254137" lon="17.067136497848857"><ele>183.0</ele><time>2026-03-29T09:56:22Z</time></trkpt><trkpt lat="40.62130813923086" lon="17.06718743195854"><ele>181.0</ele><time>2026-03-29T09:56:23Z</time></trkpt><trkpt lat="40.621031051610885" lon="17.06723100958257"><ele>179.0</ele><time>2026-03-29T09:56:24Z</time></trkpt><trkpt lat="40.62075159616534" lon="17.067263244124863"><ele>179.0</ele><time>2026-03-29T09:56:25Z</time></trkpt><trkpt lat="40.62046866670598" lon="17.06730828692172"><ele>179.0</ele><time>2026-03-29T09:56:26Z</time></trkpt><trkpt lat="40.62018611358638" lon="17.067343401040894"><ele>176.5</ele><time>2026-03-29T09:56:27Z</time></trkpt><trkpt lat="40.619903304017015" lon="17.06736967357975"><ele>174.0</ele><time>2026-03-29T09:56:28Z</time></trkpt><trkpt lat="40.61962146455346" lon="17.067390361136216"><ele>171.0</ele><time>2026-03-29T09:56:29Z</time></trkpt><trkpt lat="40.61934508070255" lon="17.067401365182544"><ele>168.0</ele><time>2026-03-29T09:56:30Z</time></trkpt><trkpt lat="40.61906334458061" lon="17.06740966669271"><ele>168.0</ele><time>2026-03-29T09:56:31Z</time></trkpt><trkpt lat="40.618780996559295" lon="17.067411103124495"><ele>168.0</ele><time>2026-03-29T09:56:32Z</time></trkpt><trkpt lat="40.6184996947811" lon="17.067420217801352"><ele>165.0</ele><time>2026-03-29T09:56:33Z</time></trkpt><trkpt lat="40.618215570849785" lon="17.067428717172394"><ele>162.0</ele><time>2026-03-29T09:56:34Z</time></trkpt><trkpt lat="40.61792798286281" lon="17.06743783657083"><ele>159.0</ele><time>2026-03-29T09:56:35Z</time></trkpt><trkpt lat="40.61765033753763" lon="17.06744463399171"><ele>156.0</ele><time>2026-03-29T09:56:36Z</time></trkpt><trkpt lat="40.617371144136655" lon="17.067454049876638"><ele>156.0</ele><time>2026-03-29T09:56:37Z</time></trkpt><trkpt lat="40.61708430422187" lon="17.067463207079058"><ele>156.0</ele><time>2026-03-29T09:56:38Z</time></trkpt><trkpt lat="40.616800381457224" lon="17.067470819452964"><ele>154.0</ele><time>2026-03-29T09:56:39Z</time></trkpt><trkpt lat="40.61651676830683" lon="17.067474676981846"><ele>152.0</ele><time>2026-03-29T09:56:40Z</time></trkpt><trkpt lat="40.616228380358216" lon="17.067482346110854"><ele>150.0</ele><time>2026-03-29T09:56:41Z</time></trkpt><trkpt lat="40.61594628791822" lon="17.067490272714664"><ele>148.0</ele><time>2026-03-29T09:56:42Z</time></trkpt><trkpt lat="40.615659210524896" lon="17.067500979566905"><ele>148.0</ele><time>2026-03-29T09:56:43Z</time></trkpt><trkpt lat="40.61537913082463" lon="17.067507943352734"><ele>148.0</ele><time>2026-03-29T09:56:44Z</time></trkpt><trkpt lat="40.61509723129668" lon="17.067515505743064"><ele>146.5</ele><time>2026-03-29T09:56:45Z</time></trkpt><trkpt lat="40.61481486608411" lon="17.067521989975756"><ele>145.0</ele><time>2026-03-29T09:56:46Z</time></trkpt><trkpt lat="40.61453306787891" lon="17.067529909649995"><ele>142.5</ele><time>2026-03-29T09:56:47Z</time></trkpt><trkpt lat="40.614247918689784" lon="17.067537942265968"><ele>140.0</ele><time>2026-03-29T09:56:48Z</time></trkpt><trkpt lat="40.613966193808395" lon="17.067546341084775"><ele>140.0</ele><time>2026-03-29T09:56:49Z</time></trkpt><trkpt lat="40.613678185954925" lon="17.067556070031646"><ele>140.0</ele><time>2026-03-29T09:56:50Z</time></trkpt><trkpt lat="40.61339469702477" lon="17.067563210667743"><ele>138.5</ele><time>2026-03-29T09:56:51Z</time></trkpt><trkpt lat="40.61309872096777" lon="17.067574107753575"><ele>137.0</ele><time>2026-03-29T09:56:52Z</time></trkpt><trkpt lat="40.6127963868767" lon="17.067584779311545"><ele>134.0</ele><time>2026-03-29T09:56:53Z</time></trkpt><trkpt lat="40.61249054144604" lon="17.067596792100026"><ele>131.0</ele><time>2026-03-29T09:56:54Z</time></trkpt><trkpt lat="40.612185671362525" lon="17.06760853794213"><ele>129.0</ele><time>2026-03-29T09:56:55Z</time></trkpt><trkpt lat="40.611882814315855" lon="17.0676197560779"><ele>127.0</ele><time>2026-03-29T09:56:56Z</time></trkpt><trkpt lat="40.611588447466524" lon="17.067626993759248"><ele>127.0</ele><time>2026-03-29T09:56:57Z</time></trkpt><trkpt lat="40.611311962409616" lon="17.06765662772374"><ele>127.0</ele><time>2026-03-29T09:56:58Z</time></trkpt><trkpt lat="40.611085724603015" lon="17.067655852125547"><ele>124.5</ele><time>2026-03-29T09:56:59Z</time></trkpt><trkpt lat="40.61085406080111" lon="17.067673171961072"><ele>122.0</ele><time>2026-03-29T09:57:00Z</time></trkpt><trkpt lat="40.61062091827078" lon="17.06769371095065"><ele>122.0</ele><time>2026-03-29T09:57:01Z</time></trkpt><trkpt lat="40.61038740914108" lon="17.06771475135378"><ele>122.0</ele><time>2026-03-29T09:57:02Z</time></trkpt><trkpt lat="40.61015109345944" lon="17.06773666622691"><ele>119.5</ele><time>2026-03-29T09:57:03Z</time></trkpt><trkpt lat="40.6099089547601" lon="17.067762792327034"><ele>117.0</ele><time>2026-03-29T09:57:04Z</time></trkpt><trkpt lat="40.60967624423136" lon="17.067772137664846"><ele>114.0</ele><time>2026-03-29T09:57:05Z</time></trkpt><trkpt lat="40.60943323727783" lon="17.067815254588034"><ele>111.0</ele><time>2026-03-29T09:57:06Z</time></trkpt><trkpt lat="40.60918899560599" lon="17.067843417173524"><ele>111.0</ele><time>2026-03-29T09:57:07Z</time></trkpt><trkpt lat="40.608959194697675" lon="17.067867601302023"><ele>111.0</ele><time>2026-03-29T09:57:08Z</time></trkpt><trkpt lat="40.608739993496535" lon="17.06789181655066"><ele>107.66666666666666</ele><time>2026-03-29T09:57:09Z</time></trkpt><trkpt lat="40.60852276332728" lon="17.06790967772548"><ele>104.33333333333333</ele><time>2026-03-29T09:57:10Z</time></trkpt><trkpt lat="40.60829753387811" lon="17.067927537996134"><ele>101.0</ele><time>2026-03-29T09:57:11Z</time></trkpt><trkpt lat="40.60806961855938" lon="17.067951086621196"><ele>101.0</ele><time>2026-03-29T09:57:12Z</time></trkpt><trkpt lat="40.60783794373349" lon="17.06797152938233"><ele>101.0</ele><time>2026-03-29T09:57:13Z</time></trkpt><trkpt lat="40.607599396046794" lon="17.06799853376229"><ele>95.5</ele><time>2026-03-29T09:57:14Z</time></trkpt><trkpt lat="40.60736092692956" lon="17.068022297112606"><ele>90.0</ele><time>2026-03-29T09:57:15Z</time></trkpt><trkpt lat="40.6071180727084" lon="17.0680443189232"><ele>87.5</ele><time>2026-03-29T09:57:16Z</time></trkpt><trkpt lat="40.60687841726914" lon="17.068070098110386"><ele>85.0</ele><time>2026-03-29T09:57:17Z</time></trkpt><trkpt lat="40.60663101879589" lon="17.068097801635748"><ele>85.0</ele><time>2026-03-29T09:57:18Z</time></trkpt><trkpt lat="40.606378319753745" lon="17.068127162474212"><ele>85.0</ele><time>2026-03-29T09:57:19Z</time></trkpt><trkpt lat="40.60613653952251" lon="17.068152768390608"><ele>82.5</ele><time>2026-03-29T09:57:20Z</time></trkpt><trkpt lat="40.60590636924431" lon="17.068180311808334"><ele>80.0</ele><time>2026-03-29T09:57:21Z</time></trkpt><trkpt lat="40.60567830712498" lon="17.068206258850125"><ele>80.0</ele><time>2026-03-29T09:57:22Z</time></trkpt><trkpt lat="40.60545009176824" lon="17.06824637554598"><ele>80.0</ele><time>2026-03-29T09:57:23Z</time></trkpt><trkpt lat="40.60522881272559" lon="17.068294831314457"><ele>81.0</ele><time>2026-03-29T09:57:24Z</time></trkpt><trkpt lat="40.60501277208044" lon="17.068365315098156"><ele>82.0</ele><time>2026-03-29T09:57:25Z</time></trkpt><trkpt lat="40.6048055703028" lon="17.06844373923806"><ele>83.0</ele><time>2026-03-29T09:57:26Z</time></trkpt><trkpt lat="40.604608475559125" lon="17.068521863514803"><ele>81.0</ele><time>2026-03-29T09:57:27Z</time></trkpt><trkpt lat="40.60441875316256" lon="17.068603901980534"><ele>79.0</ele><time>2026-03-29T09:57:28Z</time></trkpt><trkpt lat="40.60423415400701" lon="17.068690582112662"><ele>77.0</ele><time>2026-03-29T09:57:29Z</time></trkpt><trkpt lat="40.60405674484511" lon="17.068788007171396"><ele>77.0</ele><time>2026-03-29T09:57:30Z</time></trkpt><trkpt lat="40.603890696954714" lon="17.0688876942149"><ele>77.0</ele><time>2026-03-29T09:57:31Z</time></trkpt><trkpt lat="40.603721587635526" lon="17.06899011709271"><ele>77.0</ele><time>2026-03-29T09:57:32Z</time></trkpt><trkpt lat="40.60354447977822" lon="17.069102646725145"><ele>77.0</ele><time>2026-03-29T09:57:33Z</time></trkpt><trkpt lat="40.603366907222835" lon="17.069220021043535"><ele>77.0</ele><time>2026-03-29T09:57:34Z</time></trkpt><trkpt lat="40.60319524185463" lon="17.069346045358785"><ele>77.0</ele><time>2026-03-29T09:57:35Z</time></trkpt><trkpt lat="40.60304233322598" lon="17.069469267955753"><ele>77.0</ele><time>2026-03-29T09:57:36Z</time></trkpt><trkpt lat="40.602890952575386" lon="17.069598100885514"><ele>77.0</ele><time>2026-03-29T09:57:37Z</time></trkpt><trkpt lat="40.60274611836842" lon="17.06973754304446"><ele>77.0</ele><time>2026-03-29T09:57:38Z</time></trkpt><trkpt lat="40.60261182924071" lon="17.069881529013713"><ele>76.66666666666667</ele><time>2026-03-29T09:57:39Z</time></trkpt><trkpt lat="40.60248907133268" lon="17.070025688723366"><ele>76.33333333333333</ele><time>2026-03-29T09:57:40Z</time></trkpt><trkpt lat="40.6023707950334" lon="17.070167322155417"><ele>76.0</ele><time>2026-03-29T09:57:41Z</time></trkpt><trkpt lat="40.60224576673153" lon="17.070318400983897"><ele>76.0</ele><time>2026-03-29T09:57:42Z</time></trkpt><trkpt lat="40.60211651094783" lon="17.070476810295077"><ele>76.0</ele><time>2026-03-29T09:57:43Z</time></trkpt><trkpt lat="40.601989064348174" lon="17.07063787763894"><ele>76.0</ele><time>2026-03-29T09:57:44Z</time></trkpt><trkpt lat="40.60186329460129" lon="17.070806679231595"><ele>75.0</ele><time>2026-03-29T09:57:45Z</time></trkpt><trkpt lat="40.60173716720173" lon="17.070986956199338"><ele>74.0</ele><time>2026-03-29T09:57:46Z</time></trkpt><trkpt lat="40.601613068185685" lon="17.071177893895502"><ele>73.0</ele><time>2026-03-29T09:57:47Z</time></trkpt><trkpt lat="40.60149207123318" lon="17.071384518167207"><ele>73.0</ele><time>2026-03-29T09:57:48Z</time></trkpt><trkpt lat="40.601379502589964" lon="17.0715960430625"><ele>73.0</ele><time>2026-03-29T09:57:49Z</time></trkpt><trkpt lat="40.60126861849041" lon="17.071812981774677"><ele>73.0</ele><time>2026-03-29T09:57:50Z</time></trkpt><trkpt lat="40.601168208863804" lon="17.072018525705495"><ele>71.66666666666666</ele><time>2026-03-29T09:57:51Z</time></trkpt><trkpt lat="40.6010805087067" lon="17.072211969118314"><ele>70.33333333333333</ele><time>2026-03-29T09:57:52Z</time></trkpt><trkpt lat="40.60099683889197" lon="17.072414072713006"><ele>69.0</ele><time>2026-03-29T09:57:53Z</time></trkpt><trkpt lat="40.60091564432592" lon="17.072623377308666"><ele>68.66666666666667</ele><time>2026-03-29T09:57:54Z</time></trkpt><trkpt lat="40.60083081016479" lon="17.072838917356766"><ele>68.33333333333334</ele><time>2026-03-29T09:57:55Z</time></trkpt><trkpt lat="40.60074927421406" lon="17.073056859177633"><ele>68.0</ele><time>2026-03-29T09:57:56Z</time></trkpt><trkpt lat="40.6006730505447" lon="17.073266852886785"><ele>68.0</ele><time>2026-03-29T09:57:57Z</time></trkpt><trkpt lat="40.600599460800154" lon="17.073460244705206"><ele>68.0</ele><time>2026-03-29T09:57:58Z</time></trkpt><trkpt lat="40.60052790618319" lon="17.07365670578681"><ele>68.0</ele><time>2026-03-29T09:57:59Z</time></trkpt><trkpt lat="40.60046749057183" lon="17.073861822877873"><ele>68.0</ele><time>2026-03-29T09:58:00Z</time></trkpt><trkpt lat="40.60040617819601" lon="17.07405139191582"><ele>68.0</ele><time>2026-03-29T09:58:01Z</time></trkpt><trkpt lat="40.60034545780233" lon="17.07423686418396"><ele>68.0</ele><time>2026-03-29T09:58:02Z</time></trkpt><trkpt lat="40.600282479471005" lon="17.074430282377282"><ele>67.0</ele><time>2026-03-29T09:58:03Z</time></trkpt><trkpt lat="40.60021818442864" lon="17.074629490486696"><ele>66.0</ele><time>2026-03-29T09:58:04Z</time></trkpt><trkpt lat="40.6001472494758" lon="17.074835055857328"><ele>65.0</ele><time>2026-03-29T09:58:05Z</time></trkpt><trkpt lat="40.60007382720222" lon="17.075052359090925"><ele>65.0</ele><time>2026-03-29T09:58:06Z</time></trkpt><trkpt lat="40.600000002996886" lon="17.075280848337073"><ele>65.0</ele><time>2026-03-29T09:58:07Z</time></trkpt><trkpt lat="40.59992231437145" lon="17.075518313413813"><ele>65.0</ele><time>2026-03-29T09:58:08Z</time></trkpt><trkpt lat="40.59984167520914" lon="17.075768015410514"><ele>65.33333333333334</ele><time>2026-03-29T09:58:09Z</time></trkpt><trkpt lat="40.59975796246161" lon="17.07602190161246"><ele>65.66666666666667</ele><time>2026-03-29T09:58:10Z</time></trkpt><trkpt lat="40.599669627081205" lon="17.076283216604228"><ele>66.0</ele><time>2026-03-29T09:58:11Z</time></trkpt><trkpt lat="40.59957874763662" lon="17.076545447924506"><ele>64.5</ele><time>2026-03-29T09:58:12Z</time></trkpt><trkpt lat="40.59948284040067" lon="17.076816938985893"><ele>63.0</ele><time>2026-03-29T09:58:13Z</time></trkpt><trkpt lat="40.599384584386435" lon="17.07709374192864"><ele>63.0</ele><time>2026-03-29T09:58:14Z</time></trkpt><trkpt lat="40.599281537669974" lon="17.077377729481483"><ele>63.0</ele><time>2026-03-29T09:58:15Z</time></trkpt><trkpt lat="40.59917269158328" lon="17.077668474410995"><ele>63.5</ele><time>2026-03-29T09:58:16Z</time></trkpt><trkpt lat="40.59906168606075" lon="17.07796369590093"><ele>64.0</ele><time>2026-03-29T09:58:17Z</time></trkpt><trkpt lat="40.598949249305576" lon="17.078268146037797"><ele>65.5</ele><time>2026-03-29T09:58:18Z</time></trkpt><trkpt lat="40.5988324829116" lon="17.078575460250857"><ele>67.0</ele><time>2026-03-29T09:58:19Z</time></trkpt><trkpt lat="40.59871235269089" lon="17.078890854840576"><ele>64.5</ele><time>2026-03-29T09:58:20Z</time></trkpt><trkpt lat="40.5985961028005" lon="17.079201576227778"><ele>62.0</ele><time>2026-03-29T09:58:21Z</time></trkpt><trkpt lat="40.59848100511711" lon="17.079521957454872"><ele>62.0</ele><time>2026-03-29T09:58:22Z</time></trkpt><trkpt lat="40.59836987055911" lon="17.07983535823793"><ele>62.0</ele><time>2026-03-29T09:58:23Z</time></trkpt><trkpt lat="40.59825659401579" lon="17.080144927738715"><ele>63.0</ele><time>2026-03-29T09:58:24Z</time></trkpt><trkpt lat="40.59814908039802" lon="17.08045268391687"><ele>64.0</ele><time>2026-03-29T09:58:25Z</time></trkpt><trkpt lat="40.59803902092019" lon="17.080759655728542"><ele>63.5</ele><time>2026-03-29T09:58:26Z</time></trkpt><trkpt lat="40.59792844328291" lon="17.081064674626017"><ele>63.0</ele><time>2026-03-29T09:58:27Z</time></trkpt><trkpt lat="40.59781857612535" lon="17.081368922701397"><ele>63.0</ele><time>2026-03-29T09:58:28Z</time></trkpt><trkpt lat="40.59770913678749" lon="17.08167169978512"><ele>63.0</ele><time>2026-03-29T09:58:29Z</time></trkpt><trkpt lat="40.59759862154652" lon="17.081972078533457"><ele>63.0</ele><time>2026-03-29T09:58:30Z</time></trkpt><trkpt lat="40.597485442052886" lon="17.08227397737754"><ele>63.0</ele><time>2026-03-29T09:58:31Z</time></trkpt><trkpt lat="40.59737226120965" lon="17.082572923751435"><ele>63.5</ele><time>2026-03-29T09:58:32Z</time></trkpt><trkpt lat="40.59725952435693" lon="17.082870871285536"><ele>64.0</ele><time>2026-03-29T09:58:33Z</time></trkpt><trkpt lat="40.597147478621416" lon="17.0831687266765"><ele>65.0</ele><time>2026-03-29T09:58:34Z</time></trkpt><trkpt lat="40.597035098039896" lon="17.083467796787296"><ele>66.0</ele><time>2026-03-29T09:58:35Z</time></trkpt><trkpt lat="40.59692159197933" lon="17.083771576787083"><ele>63.5</ele><time>2026-03-29T09:58:36Z</time></trkpt><trkpt lat="40.59680719834193" lon="17.084079017626653"><ele>61.0</ele><time>2026-03-29T09:58:37Z</time></trkpt><trkpt lat="40.59669109496118" lon="17.084387606249933"><ele>60.0</ele><time>2026-03-29T09:58:38Z</time></trkpt><trkpt lat="40.5965723668062" lon="17.0846979570482"><ele>59.0</ele><time>2026-03-29T09:58:39Z</time></trkpt><trkpt lat="40.59645106805214" lon="17.08501216926974"><ele>59.0</ele><time>2026-03-29T09:58:40Z</time></trkpt><trkpt lat="40.596331505322404" lon="17.085324465866307"><ele>59.0</ele><time>2026-03-29T09:58:41Z</time></trkpt><trkpt lat="40.59620780846953" lon="17.08563788876773"><ele>58.0</ele><time>2026-03-29T09:58:42Z</time></trkpt><trkpt lat="40.596082776170626" lon="17.085950128877148"><ele>57.0</ele><time>2026-03-29T09:58:43Z</time></trkpt><trkpt lat="40.595956016740736" lon="17.086262310237334"><ele>57.0</ele><time>2026-03-29T09:58:44Z</time></trkpt><trkpt lat="40.595825307944246" lon="17.086573909973826"><ele>57.0</ele><time>2026-03-29T09:58:45Z</time></trkpt><trkpt lat="40.59569292404227" lon="17.08688753109712"><ele>57.5</ele><time>2026-03-29T09:58:46Z</time></trkpt><trkpt lat="40.5955593403508" lon="17.08720603226867"><ele>58.0</ele><time>2026-03-29T09:58:47Z</time></trkpt><trkpt lat="40.59542912521708" lon="17.087524537990944"><ele>58.5</ele><time>2026-03-29T09:58:48Z</time></trkpt><trkpt lat="40.595299108565456" lon="17.087836198112925"><ele>59.0</ele><time>2026-03-29T09:58:49Z</time></trkpt><trkpt lat="40.59516689122782" lon="17.08814474767975"><ele>59.0</ele><time>2026-03-29T09:58:50Z</time></trkpt><trkpt lat="40.59503416758189" lon="17.088451236140443"><ele>59.0</ele><time>2026-03-29T09:58:51Z</time></trkpt><trkpt lat="40.5948982042447" lon="17.088757936214833"><ele>59.0</ele><time>2026-03-29T09:58:52Z</time></trkpt><trkpt lat="40.594761221166266" lon="17.089064938359215"><ele>59.0</ele><time>2026-03-29T09:58:53Z</time></trkpt><trkpt lat="40.5946233960019" lon="17.089367872509413"><ele>58.5</ele><time>2026-03-29T09:58:54Z</time></trkpt><trkpt lat="40.59448431778647" lon="17.08966869091004"><ele>58.0</ele><time>2026-03-29T09:58:55Z</time></trkpt><trkpt lat="40.59434706462717" lon="17.08996472058857"><ele>58.0</ele><time>2026-03-29T09:58:56Z</time></trkpt><trkpt lat="40.594208930660685" lon="17.09026479696553"><ele>58.0</ele><time>2026-03-29T09:58:57Z</time></trkpt><trkpt lat="40.594069977806875" lon="17.09056249346597"><ele>58.5</ele><time>2026-03-29T09:58:58Z</time></trkpt><trkpt lat="40.5939311816098" lon="17.090860614514508"><ele>59.0</ele><time>2026-03-29T09:58:59Z</time></trkpt><trkpt lat="40.59379342736982" lon="17.09115878191415"><ele>58.0</ele><time>2026-03-29T09:59:00Z</time></trkpt><trkpt lat="40.59365575398482" lon="17.091460086194207"><ele>57.0</ele><time>2026-03-29T09:59:01Z</time></trkpt><trkpt lat="40.59351928140172" lon="17.091760391522666"><ele>57.0</ele><time>2026-03-29T09:59:02Z</time></trkpt><trkpt lat="40.59337961679172" lon="17.092056387344147"><ele>57.0</ele><time>2026-03-29T09:59:03Z</time></trkpt><trkpt lat="40.59323922558619" lon="17.092349694501564"><ele>57.5</ele><time>2026-03-29T09:59:04Z</time></trkpt><trkpt lat="40.59309742044934" lon="17.092642304690013"><ele>58.0</ele><time>2026-03-29T09:59:05Z</time></trkpt><trkpt lat="40.59295816482696" lon="17.092931354861047"><ele>58.0</ele><time>2026-03-29T09:59:06Z</time></trkpt><trkpt lat="40.59281905929306" lon="17.09321943358798"><ele>58.0</ele><time>2026-03-29T09:59:07Z</time></trkpt><trkpt lat="40.592681601895805" lon="17.093510290477788"><ele>58.5</ele><time>2026-03-29T09:59:08Z</time></trkpt><trkpt lat="40.59254573053745" lon="17.093803563771544"><ele>59.0</ele><time>2026-03-29T09:59:09Z</time></trkpt><trkpt lat="40.59240612420254" lon="17.094100609176056"><ele>59.0</ele><time>2026-03-29T09:59:10Z</time></trkpt><trkpt lat="40.59226743241059" lon="17.094400224114164"><ele>59.0</ele><time>2026-03-29T09:59:11Z</time></trkpt><trkpt lat="40.59212741801777" lon="17.094703623865783"><ele>59.5</ele><time>2026-03-29T09:59:12Z</time></trkpt><trkpt lat="40.59198629237348" lon="17.095011462259787"><ele>60.0</ele><time>2026-03-29T09:59:13Z</time></trkpt><trkpt lat="40.59184722901118" lon="17.095319763261436"><ele>60.0</ele><time>2026-03-29T09:59:14Z</time></trkpt><trkpt lat="40.59170750332679" lon="17.095626314775874"><ele>60.0</ele><time>2026-03-29T09:59:15Z</time></trkpt><trkpt lat="40.59157118024264" lon="17.09592764851236"><ele>59.5</ele><time>2026-03-29T09:59:16Z</time></trkpt><trkpt lat="40.59143032075226" lon="17.096228099189574"><ele>59.0</ele><time>2026-03-29T09:59:17Z</time></trkpt><trkpt lat="40.59128887817509" lon="17.09653005749472"><ele>58.0</ele><time>2026-03-29T09:59:18Z</time></trkpt><trkpt lat="40.591146794617984" lon="17.09683225987918"><ele>57.0</ele><time>2026-03-29T09:59:19Z</time></trkpt><trkpt lat="40.59100594844037" lon="17.09713475813149"><ele>56.0</ele><time>2026-03-29T09:59:20Z</time></trkpt><trkpt lat="40.590867065725945" lon="17.097435347457033"><ele>55.0</ele><time>2026-03-29T09:59:21Z</time></trkpt><trkpt lat="40.590723219218496" lon="17.097739194323776"><ele>55.0</ele><time>2026-03-29T09:59:22Z</time></trkpt><trkpt lat="40.59058396157893" lon="17.098041833780176"><ele>55.0</ele><time>2026-03-29T09:59:23Z</time></trkpt><trkpt lat="40.59044947060184" lon="17.0983430571968"><ele>54.5</ele><time>2026-03-29T09:59:24Z</time></trkpt><trkpt lat="40.5903134388861" lon="17.09864046062451"><ele>54.0</ele><time>2026-03-29T09:59:25Z</time></trkpt><trkpt lat="40.59017549927457" lon="17.098937074944665"><ele>54.5</ele><time>2026-03-29T09:59:26Z</time></trkpt><trkpt lat="40.59003885371862" lon="17.09923247993577"><ele>55.0</ele><time>2026-03-29T09:59:27Z</time></trkpt><trkpt lat="40.589904086559756" lon="17.09952421386842"><ele>55.0</ele><time>2026-03-29T09:59:28Z</time></trkpt><trkpt lat="40.58977028883645" lon="17.09981635437903"><ele>55.0</ele><time>2026-03-29T09:59:29Z</time></trkpt><trkpt lat="40.58963738872892" lon="17.100103742137147"><ele>54.0</ele><time>2026-03-29T09:59:30Z</time></trkpt><trkpt lat="40.589503799122326" lon="17.100385614426056"><ele>53.0</ele><time>2026-03-29T09:59:31Z</time></trkpt><trkpt lat="40.589370530395094" lon="17.10066640565637"><ele>53.0</ele><time>2026-03-29T09:59:32Z</time></trkpt><trkpt lat="40.58923838027267" lon="17.10094548585792"><ele>53.0</ele><time>2026-03-29T09:59:33Z</time></trkpt><trkpt lat="40.589112601926765" lon="17.101221739058598"><ele>53.0</ele><time>2026-03-29T09:59:34Z</time></trkpt><trkpt lat="40.588986534068546" lon="17.10149197117162"><ele>53.0</ele><time>2026-03-29T09:59:35Z</time></trkpt><trkpt lat="40.58885785025771" lon="17.101761610974222"><ele>53.0</ele><time>2026-03-29T09:59:36Z</time></trkpt><trkpt lat="40.58873319430325" lon="17.102027797690525"><ele>53.0</ele><time>2026-03-29T09:59:37Z</time></trkpt><trkpt lat="40.588610791300006" lon="17.102294579233277"><ele>52.0</ele><time>2026-03-29T09:59:38Z</time></trkpt><trkpt lat="40.58849191652191" lon="17.10255807122773"><ele>51.0</ele><time>2026-03-29T09:59:39Z</time></trkpt><trkpt lat="40.58837426246287" lon="17.10281243417666"><ele>51.0</ele><time>2026-03-29T09:59:40Z</time></trkpt><trkpt lat="40.588261315253945" lon="17.103063070965902"><ele>51.0</ele><time>2026-03-29T09:59:41Z</time></trkpt><trkpt lat="40.58815046266824" lon="17.10330941735353"><ele>51.0</ele><time>2026-03-29T09:59:42Z</time></trkpt><trkpt lat="40.588041553855696" lon="17.10354816165334"><ele>50.66666666666667</ele><time>2026-03-29T09:59:43Z</time></trkpt><trkpt lat="40.58793044773456" lon="17.10378967740757"><ele>50.333333333333336</ele><time>2026-03-29T09:59:44Z</time></trkpt><trkpt lat="40.58781814154197" lon="17.10403183521614"><ele>50.0</ele><time>2026-03-29T09:59:45Z</time></trkpt><trkpt lat="40.58770731411484" lon="17.104273358558327"><ele>49.66666666666667</ele><time>2026-03-29T09:59:46Z</time></trkpt><trkpt lat="40.587595800053414" lon="17.104516002817142"><ele>49.33333333333333</ele><time>2026-03-29T09:59:47Z</time></trkpt><trkpt lat="40.58748534837899" lon="17.104759311244237"><ele>49.0</ele><time>2026-03-29T09:59:48Z</time></trkpt><trkpt lat="40.58738358647777" lon="17.104998618140215"><ele>49.0</ele><time>2026-03-29T09:59:49Z</time></trkpt><trkpt lat="40.587277050964076" lon="17.105234355345054"><ele>49.0</ele><time>2026-03-29T09:59:50Z</time></trkpt><trkpt lat="40.58717330111659" lon="17.105470124604665"><ele>49.0</ele><time>2026-03-29T09:59:51Z</time></trkpt><trkpt lat="40.58706526720988" lon="17.105704053074707"><ele>49.0</ele><time>2026-03-29T09:59:52Z</time></trkpt><trkpt lat="40.58695522332914" lon="17.10593971924112"><ele>49.0</ele><time>2026-03-29T09:59:53Z</time></trkpt><trkpt lat="40.586843288587104" lon="17.10617540541553"><ele>49.0</ele><time>2026-03-29T09:59:54Z</time></trkpt><trkpt lat="40.586739338107954" lon="17.106402027250766"><ele>49.33333333333333</ele><time>2026-03-29T09:59:55Z</time></trkpt><trkpt lat="40.58663959822084" lon="17.10661196006348"><ele>49.66666666666667</ele><time>2026-03-29T09:59:56Z</time></trkpt><trkpt lat="40.58654330030175" lon="17.106807445261246"><ele>50.0</ele><time>2026-03-29T09:59:57Z</time></trkpt><trkpt lat="40.58644971344887" lon="17.106990211455145"><ele>50.0</ele><time>2026-03-29T09:59:58Z</time></trkpt><trkpt lat="40.586359883450996" lon="17.10715692367751"><ele>50.0</ele><time>2026-03-29T09:59:59Z</time></trkpt><trkpt lat="40.58627306455759" lon="17.107311209716677"><ele>50.0</ele><time>2026-03-29T10:00:00Z</time></trkpt><trkpt lat="40.586193162505445" lon="17.107449636379542"><ele>50.0</ele><time>2026-03-29T10:00:01Z</time></trkpt><trkpt lat="40.5861152880795" lon="17.10758013229942"><ele>50.00000000000001</ele><time>2026-03-29T10:00:02Z</time></trkpt><trkpt lat="40.586045134042905" lon="17.107682676327993"><ele>50.0</ele><time>2026-03-29T10:00:03Z</time></trkpt><trkpt lat="40.58597695029158" lon="17.10776563865885"><ele>50.0</ele><time>2026-03-29T10:00:04Z</time></trkpt><trkpt lat="40.585900788279886" lon="17.107810001392252"><ele>50.0</ele><time>2026-03-29T10:00:05Z</time></trkpt><trkpt lat="40.585826961205875" lon="17.10780254727462"><ele>50.00000000000001</ele><time>2026-03-29T10:00:06Z</time></trkpt><trkpt lat="40.58576002194897" lon="17.107796527407928"><ele>50.0</ele><time>2026-03-29T10:00:07Z</time></trkpt><trkpt lat="40.585701424804775" lon="17.10784132874041"><ele>50.0</ele><time>2026-03-29T10:00:08Z</time></trkpt><trkpt lat="40.585675075787464" lon="17.107992218579867"><ele>50.0</ele><time>2026-03-29T10:00:10Z</time></trkpt><trkpt lat="40.585693066492034" lon="17.108141384533607"><ele>50.0</ele><time>2026-03-29T10:00:12Z</time></trkpt><trkpt lat="40.58565356427724" lon="17.108235121896055"><ele>50.0</ele><time>2026-03-29T10:00:14Z</time></trkpt><trkpt lat="40.585579683308765" lon="17.10833232639376"><ele>50.0</ele><time>2026-03-29T10:00:16Z</time></trkpt><trkpt lat="40.585498258649395" lon="17.108411451206656"><ele>49.833333333333336</ele><time>2026-03-29T10:00:18Z</time></trkpt><trkpt lat="40.58546270742342" lon="17.10848645398593"><ele>49.66666666666667</ele><time>2026-03-29T10:00:19Z</time></trkpt><trkpt lat="40.585374863656305" lon="17.10859615279164"><ele>49.5</ele><time>2026-03-29T10:00:21Z</time></trkpt><trkpt lat="40.58532957044626" lon="17.108663968600776"><ele>49.33333333333333</ele><time>2026-03-29T10:00:22Z</time></trkpt><trkpt lat="40.585285953815166" lon="17.108725818474994"><ele>49.166666666666664</ele><time>2026-03-29T10:00:23Z</time></trkpt><trkpt lat="40.585229079118015" lon="17.108800188613905"><ele>49.0</ele><time>2026-03-29T10:00:24Z</time></trkpt><trkpt lat="40.5851570484816" lon="17.10885558371815"><ele>49.0</ele><time>2026-03-29T10:00:25Z</time></trkpt><trkpt lat="40.58509111129311" lon="17.108941323467572"><ele>49.0</ele><time>2026-03-29T10:00:26Z</time></trkpt><trkpt lat="40.58501595681477" lon="17.109039114838957"><ele>49.0</ele><time>2026-03-29T10:00:27Z</time></trkpt><trkpt lat="40.58492841735516" lon="17.10915366909561"><ele>49.0</ele><time>2026-03-29T10:00:28Z</time></trkpt><trkpt lat="40.58482751358471" lon="17.109285829427883"><ele>49.0</ele><time>2026-03-29T10:00:29Z</time></trkpt><trkpt lat="40.58471807962658" lon="17.109429096520657"><ele>49.0</ele><time>2026-03-29T10:00:30Z</time></trkpt><trkpt lat="40.58460671832323" lon="17.10959997342302"><ele>49.0</ele><time>2026-03-29T10:00:31Z</time></trkpt><trkpt lat="40.58447504780793" lon="17.109759164875786"><ele>49.666666666666664</ele><time>2026-03-29T10:00:32Z</time></trkpt><trkpt lat="40.58435035488616" lon="17.10991913866543"><ele>50.33333333333333</ele><time>2026-03-29T10:00:33Z</time></trkpt><trkpt lat="40.584240994771356" lon="17.110066024390214"><ele>51.0</ele><time>2026-03-29T10:00:34Z</time></trkpt><trkpt lat="40.58414093933993" lon="17.110201580289793"><ele>51.0</ele><time>2026-03-29T10:00:35Z</time></trkpt><trkpt lat="40.58404772523958" lon="17.110325007390816"><ele>51.0</ele><time>2026-03-29T10:00:36Z</time></trkpt><trkpt lat="40.5839601247664" lon="17.110441175151255"><ele>51.0</ele><time>2026-03-29T10:00:37Z</time></trkpt><trkpt lat="40.58388212025168" lon="17.110544381526818"><ele>51.0</ele><time>2026-03-29T10:00:38Z</time></trkpt><trkpt lat="40.583812091204415" lon="17.110636873002445"><ele>51.0</ele><time>2026-03-29T10:00:39Z</time></trkpt><trkpt lat="40.58375277698936" lon="17.11071480471305"><ele>51.0</ele><time>2026-03-29T10:00:40Z</time></trkpt><trkpt lat="40.58368919708795" lon="17.110798195655597"><ele>51.0</ele><time>2026-03-29T10:00:41Z</time></trkpt><trkpt lat="40.58362729607018" lon="17.11088069746958"><ele>51.0</ele><time>2026-03-29T10:00:42Z</time></trkpt><trkpt lat="40.58356819479213" lon="17.110963729869713"><ele>51.0</ele><time>2026-03-29T10:00:43Z</time></trkpt><trkpt lat="40.583513712114055" lon="17.111036972383"><ele>51.0</ele><time>2026-03-29T10:00:44Z</time></trkpt><trkpt lat="40.58344067542426" lon="17.111116983052856"><ele>51.0</ele><time>2026-03-29T10:00:46Z</time></trkpt><trkpt lat="40.583374401252236" lon="17.111189396831247"><ele>51.0</ele><time>2026-03-29T10:00:48Z</time></trkpt><trkpt lat="40.58332084056279" lon="17.111258996085144"><ele>51.0</ele><time>2026-03-29T10:00:49Z</time></trkpt><trkpt lat="40.583257097464006" lon="17.111345633707646"><ele>51.0</ele><time>2026-03-29T10:00:50Z</time></trkpt><trkpt lat="40.58318048774026" lon="17.111455418733044"><ele>51.0</ele><time>2026-03-29T10:00:51Z</time></trkpt><trkpt lat="40.58309051911488" lon="17.111578985200012"><ele>50.8</ele><time>2026-03-29T10:00:52Z</time></trkpt><trkpt lat="40.583004106556054" lon="17.11169527893331"><ele>50.599999999999994</ele><time>2026-03-29T10:00:53Z</time></trkpt><trkpt lat="40.582937849748596" lon="17.111809226000126"><ele>50.4</ele><time>2026-03-29T10:00:54Z</time></trkpt><trkpt lat="40.582891919236616" lon="17.11190237077358"><ele>50.2</ele><time>2026-03-29T10:00:55Z</time></trkpt><trkpt lat="40.58284061718931" lon="17.111952455747964"><ele>50.0</ele><time>2026-03-29T10:00:56Z</time></trkpt><trkpt lat="40.58275899413158" lon="17.112008821951466"><ele>50.0</ele><time>2026-03-29T10:00:57Z</time></trkpt><trkpt lat="40.58264858015083" lon="17.112080070452972"><ele>50.0</ele><time>2026-03-29T10:00:58Z</time></trkpt><trkpt lat="40.58253084206437" lon="17.11220021610322"><ele>50.0</ele><time>2026-03-29T10:00:59Z</time></trkpt><trkpt lat="40.58240820645158" lon="17.11234642176954"><ele>50.0</ele><time>2026-03-29T10:01:00Z</time></trkpt><trkpt lat="40.58226725184439" lon="17.112513297568764"><ele>50.333333333333336</ele><time>2026-03-29T10:01:01Z</time></trkpt><trkpt lat="40.582118079934276" lon="17.112687973096715"><ele>50.66666666666667</ele><time>2026-03-29T10:01:02Z</time></trkpt><trkpt lat="40.5819572713928" lon="17.112864881592454"><ele>51.0</ele><time>2026-03-29T10:01:03Z</time></trkpt><trkpt lat="40.58178383197075" lon="17.11304642478217"><ele>51.0</ele><time>2026-03-29T10:01:04Z</time></trkpt><trkpt lat="40.581601363181704" lon="17.113229371324238"><ele>51.0</ele><time>2026-03-29T10:01:05Z</time></trkpt><trkpt lat="40.58141887891815" lon="17.11340835941913"><ele>51.0</ele><time>2026-03-29T10:01:06Z</time></trkpt><trkpt lat="40.58122596998928" lon="17.113595495145375"><ele>51.0</ele><time>2026-03-29T10:01:07Z</time></trkpt><trkpt lat="40.58102666066644" lon="17.11378951010139"><ele>50.0</ele><time>2026-03-29T10:01:08Z</time></trkpt><trkpt lat="40.580825019857954" lon="17.11398489024505"><ele>49.0</ele><time>2026-03-29T10:01:09Z</time></trkpt><trkpt lat="40.58061739984839" lon="17.114184682039614"><ele>49.0</ele><time>2026-03-29T10:01:10Z</time></trkpt><trkpt lat="40.580405017253234" lon="17.114387286695866"><ele>49.0</ele><time>2026-03-29T10:01:11Z</time></trkpt><trkpt lat="40.58018895229242" lon="17.114587374077995"><ele>48.0</ele><time>2026-03-29T10:01:12Z</time></trkpt><trkpt lat="40.57996498521876" lon="17.114799608925956"><ele>47.0</ele><time>2026-03-29T10:01:13Z</time></trkpt><trkpt lat="40.579743280793075" lon="17.11500641939566"><ele>47.0</ele><time>2026-03-29T10:01:14Z</time></trkpt><trkpt lat="40.57951864201767" lon="17.115216355077536"><ele>47.0</ele><time>2026-03-29T10:01:15Z</time></trkpt><trkpt lat="40.579294204247645" lon="17.115427417346243"><ele>47.5</ele><time>2026-03-29T10:01:16Z</time></trkpt><trkpt lat="40.57906726702499" lon="17.115641669704505"><ele>48.0</ele><time>2026-03-29T10:01:17Z</time></trkpt><trkpt lat="40.57883890020604" lon="17.11585646906886"><ele>48.0</ele><time>2026-03-29T10:01:18Z</time></trkpt><trkpt lat="40.57861185907481" lon="17.116070410166422"><ele>48.0</ele><time>2026-03-29T10:01:19Z</time></trkpt><trkpt lat="40.57838434067428" lon="17.11628574344596"><ele>48.0</ele><time>2026-03-29T10:01:20Z</time></trkpt><trkpt lat="40.57815696952296" lon="17.116496165662003"><ele>48.0</ele><time>2026-03-29T10:01:21Z</time></trkpt><trkpt lat="40.577933759380635" lon="17.11671002795389"><ele>47.5</ele><time>2026-03-29T10:01:22Z</time></trkpt><trkpt lat="40.57771044120104" lon="17.116923908572538"><ele>47.0</ele><time>2026-03-29T10:01:23Z</time></trkpt><trkpt lat="40.57748824231579" lon="17.11713571857028"><ele>47.0</ele><time>2026-03-29T10:01:24Z</time></trkpt><trkpt lat="40.5772679731342" lon="17.117343864155693"><ele>47.0</ele><time>2026-03-29T10:01:25Z</time></trkpt><trkpt lat="40.57704832074235" lon="17.117548284305542"><ele>45.5</ele><time>2026-03-29T10:01:26Z</time></trkpt><trkpt lat="40.57683748906086" lon="17.117742934404422"><ele>44.0</ele><time>2026-03-29T10:01:27Z</time></trkpt><trkpt lat="40.57665366474199" lon="17.11792546604519"><ele>44.0</ele><time>2026-03-29T10:01:28Z</time></trkpt><trkpt lat="40.57649608440045" lon="17.118094227857263"><ele>44.0</ele><time>2026-03-29T10:01:29Z</time></trkpt><trkpt lat="40.576364744716535" lon="17.11825318437094"><ele>44.0</ele><time>2026-03-29T10:01:30Z</time></trkpt><trkpt lat="40.57625823044872" lon="17.11840077808473"><ele>43.5</ele><time>2026-03-29T10:01:31Z</time></trkpt><trkpt lat="40.57616777176819" lon="17.118534339003503"><ele>43.0</ele><time>2026-03-29T10:01:32Z</time></trkpt><trkpt lat="40.57607266376076" lon="17.11863956745861"><ele>42.5</ele><time>2026-03-29T10:01:33Z</time></trkpt><trkpt lat="40.5759689708709" lon="17.1187015330187"><ele>42.0</ele><time>2026-03-29T10:01:34Z</time></trkpt><trkpt lat="40.575864928663464" lon="17.11873355084083"><ele>42.0</ele><time>2026-03-29T10:01:35Z</time></trkpt><trkpt lat="40.575769698939936" lon="17.118784364825366"><ele>42.0</ele><time>2026-03-29T10:01:36Z</time></trkpt><trkpt lat="40.57568606861038" lon="17.118889373797398"><ele>42.0</ele><time>2026-03-29T10:01:37Z</time></trkpt><trkpt lat="40.575620845852335" lon="17.119024786163692"><ele>42.0</ele><time>2026-03-29T10:01:38Z</time></trkpt><trkpt lat="40.57555365103771" lon="17.119143615320812"><ele>42.0</ele><time>2026-03-29T10:01:39Z</time></trkpt><trkpt lat="40.57546295098171" lon="17.119232805176438"><ele>42.0</ele><time>2026-03-29T10:01:40Z</time></trkpt><trkpt lat="40.57534769416935" lon="17.11930293351491"><ele>42.0</ele><time>2026-03-29T10:01:41Z</time></trkpt><trkpt lat="40.57520996248463" lon="17.119391996681404"><ele>42.0</ele><time>2026-03-29T10:01:42Z</time></trkpt><trkpt lat="40.57504380499305" lon="17.119479559625667"><ele>42.0</ele><time>2026-03-29T10:01:43Z</time></trkpt><trkpt lat="40.57487476888735" lon="17.119614271850626"><ele>42.0</ele><time>2026-03-29T10:01:44Z</time></trkpt><trkpt lat="40.57470654691583" lon="17.11978773174548"><ele>42.0</ele><time>2026-03-29T10:01:45Z</time></trkpt><trkpt lat="40.574514968300456" lon="17.11994088670277"><ele>42.0</ele><time>2026-03-29T10:01:46Z</time></trkpt><trkpt lat="40.57431967265702" lon="17.120125383231073"><ele>42.0</ele><time>2026-03-29T10:01:47Z</time></trkpt><trkpt lat="40.57411100108122" lon="17.120322515660916"><ele>42.0</ele><time>2026-03-29T10:01:48Z</time></trkpt><trkpt lat="40.57389320621639" lon="17.120528267465286"><ele>42.0</ele><time>2026-03-29T10:01:49Z</time></trkpt><trkpt lat="40.573674409607534" lon="17.120758913440298"><ele>41.0</ele><time>2026-03-29T10:01:50Z</time></trkpt><trkpt lat="40.57344317474066" lon="17.1209730094773"><ele>40.0</ele><time>2026-03-29T10:01:51Z</time></trkpt><trkpt lat="40.573208747967556" lon="17.12119428459668"><ele>40.0</ele><time>2026-03-29T10:01:52Z</time></trkpt><trkpt lat="40.57296917643975" lon="17.121423999085234"><ele>40.0</ele><time>2026-03-29T10:01:53Z</time></trkpt><trkpt lat="40.57272860097051" lon="17.121658339028926"><ele>40.5</ele><time>2026-03-29T10:01:54Z</time></trkpt><trkpt lat="40.57248807196513" lon="17.121891510144714"><ele>41.0</ele><time>2026-03-29T10:01:55Z</time></trkpt><trkpt lat="40.57224431288813" lon="17.122124015915038"><ele>40.0</ele><time>2026-03-29T10:01:56Z</time></trkpt><trkpt lat="40.57200103862975" lon="17.122354975395986"><ele>39.0</ele><time>2026-03-29T10:01:57Z</time></trkpt><trkpt lat="40.57176406142395" lon="17.122575978228884"><ele>39.0</ele><time>2026-03-29T10:01:58Z</time></trkpt><trkpt lat="40.57153428893897" lon="17.122792125333188"><ele>39.0</ele><time>2026-03-29T10:01:59Z</time></trkpt><trkpt lat="40.57130520193969" lon="17.123008800293206"><ele>38.5</ele><time>2026-03-29T10:02:00Z</time></trkpt><trkpt lat="40.571074601618626" lon="17.123229825189572"><ele>38.0</ele><time>2026-03-29T10:02:01Z</time></trkpt><trkpt lat="40.57084169998523" lon="17.123454647429966"><ele>38.0</ele><time>2026-03-29T10:02:02Z</time></trkpt><trkpt lat="40.57060834602956" lon="17.1236775886347"><ele>38.0</ele><time>2026-03-29T10:02:03Z</time></trkpt><trkpt lat="40.57037591830482" lon="17.12390160746974"><ele>37.5</ele><time>2026-03-29T10:02:04Z</time></trkpt><trkpt lat="40.57014397674711" lon="17.12412542822104"><ele>37.0</ele><time>2026-03-29T10:02:05Z</time></trkpt><trkpt lat="40.5699113602116" lon="17.124347963102792"><ele>37.0</ele><time>2026-03-29T10:02:06Z</time></trkpt><trkpt lat="40.56968141325382" lon="17.124566345939186"><ele>37.0</ele><time>2026-03-29T10:02:07Z</time></trkpt><trkpt lat="40.56945740283051" lon="17.124782958706408"><ele>37.0</ele><time>2026-03-29T10:02:08Z</time></trkpt><trkpt lat="40.5692362860859" lon="17.124995586034743"><ele>37.0</ele><time>2026-03-29T10:02:09Z</time></trkpt><trkpt lat="40.56901381812805" lon="17.125210332787585"><ele>37.0</ele><time>2026-03-29T10:02:10Z</time></trkpt><trkpt lat="40.5687936125932" lon="17.125422665184814"><ele>37.0</ele><time>2026-03-29T10:02:11Z</time></trkpt><trkpt lat="40.56857624350549" lon="17.125632262475484"><ele>36.0</ele><time>2026-03-29T10:02:12Z</time></trkpt><trkpt lat="40.56835879464737" lon="17.125843476703043"><ele>35.0</ele><time>2026-03-29T10:02:13Z</time></trkpt><trkpt lat="40.56814179613296" lon="17.126055877437963"><ele>35.0</ele><time>2026-03-29T10:02:14Z</time></trkpt><trkpt lat="40.567919043958206" lon="17.126271178303767"><ele>35.0</ele><time>2026-03-29T10:02:15Z</time></trkpt><trkpt lat="40.56769272525522" lon="17.126490136953123"><ele>36.5</ele><time>2026-03-29T10:02:16Z</time></trkpt><trkpt lat="40.56747602280638" lon="17.12670194371388"><ele>38.0</ele><time>2026-03-29T10:02:17Z</time></trkpt><trkpt lat="40.56727249641729" lon="17.126902959968174"><ele>38.0</ele><time>2026-03-29T10:02:18Z</time></trkpt><trkpt lat="40.56706391557411" lon="17.127103131258526"><ele>38.0</ele><time>2026-03-29T10:02:19Z</time></trkpt><trkpt lat="40.56685453973222" lon="17.12730576122903"><ele>37.5</ele><time>2026-03-29T10:02:20Z</time></trkpt><trkpt lat="40.56664258430612" lon="17.127488401144017"><ele>37.0</ele><time>2026-03-29T10:02:21Z</time></trkpt><trkpt lat="40.566445583384514" lon="17.12767841939414"><ele>37.0</ele><time>2026-03-29T10:02:22Z</time></trkpt><trkpt lat="40.56624598247482" lon="17.127872240777876"><ele>37.0</ele><time>2026-03-29T10:02:23Z</time></trkpt><trkpt lat="40.56604530109334" lon="17.12806722259202"><ele>37.0</ele><time>2026-03-29T10:02:24Z</time></trkpt><trkpt lat="40.56584645382418" lon="17.128260065731794"><ele>37.0</ele><time>2026-03-29T10:02:25Z</time></trkpt><trkpt lat="40.56564668400672" lon="17.128454349909997"><ele>37.0</ele><time>2026-03-29T10:02:26Z</time></trkpt><trkpt lat="40.56545022342435" lon="17.128646235323846"><ele>37.0</ele><time>2026-03-29T10:02:27Z</time></trkpt><trkpt lat="40.565263802288584" lon="17.128827273682962"><ele>36.333333333333336</ele><time>2026-03-29T10:02:28Z</time></trkpt><trkpt lat="40.565086366607154" lon="17.12899965861957"><ele>35.666666666666664</ele><time>2026-03-29T10:02:29Z</time></trkpt><trkpt lat="40.56491013259709" lon="17.129170876091838"><ele>35.0</ele><time>2026-03-29T10:02:30Z</time></trkpt><trkpt lat="40.564733073621206" lon="17.129342895046765"><ele>35.0</ele><time>2026-03-29T10:02:31Z</time></trkpt><trkpt lat="40.56455620453583" lon="17.12951472951503"><ele>35.0</ele><time>2026-03-29T10:02:32Z</time></trkpt><trkpt lat="40.56438071405264" lon="17.129684361670062"><ele>35.0</ele><time>2026-03-29T10:02:33Z</time></trkpt><trkpt lat="40.56421572013316" lon="17.129870086061405"><ele>35.0</ele><time>2026-03-29T10:02:34Z</time></trkpt><trkpt lat="40.56404301211528" lon="17.13003673729723"><ele>35.0</ele><time>2026-03-29T10:02:35Z</time></trkpt><trkpt lat="40.563868153777285" lon="17.13017992032669"><ele>35.0</ele><time>2026-03-29T10:02:36Z</time></trkpt><trkpt lat="40.563709763056664" lon="17.130332962418077"><ele>34.666666666666664</ele><time>2026-03-29T10:02:37Z</time></trkpt><trkpt lat="40.56356236274522" lon="17.13049885950509"><ele>34.333333333333336</ele><time>2026-03-29T10:02:38Z</time></trkpt><trkpt lat="40.56340957282447" lon="17.130642669417718"><ele>34.0</ele><time>2026-03-29T10:02:39Z</time></trkpt><trkpt lat="40.56325988050026" lon="17.13078665548831"><ele>34.0</ele><time>2026-03-29T10:02:40Z</time></trkpt><trkpt lat="40.563120367629246" lon="17.13092726421875"><ele>34.0</ele><time>2026-03-29T10:02:41Z</time></trkpt><trkpt lat="40.56298362857242" lon="17.131056848050758"><ele>34.0</ele><time>2026-03-29T10:02:42Z</time></trkpt><trkpt lat="40.562843762301924" lon="17.13117827641896"><ele>34.0</ele><time>2026-03-29T10:02:43Z</time></trkpt><trkpt lat="40.56270260200461" lon="17.13130201334481"><ele>34.0</ele><time>2026-03-29T10:02:44Z</time></trkpt><trkpt lat="40.56257223249331" lon="17.131426249448957"><ele>34.0</ele><time>2026-03-29T10:02:45Z</time></trkpt><trkpt lat="40.56244100664061" lon="17.13153757618975"><ele>34.0</ele><time>2026-03-29T10:02:46Z</time></trkpt><trkpt lat="40.56231745386929" lon="17.131653547319946"><ele>34.0</ele><time>2026-03-29T10:02:47Z</time></trkpt><trkpt lat="40.56221214982707" lon="17.131777272260152"><ele>34.0</ele><time>2026-03-29T10:02:48Z</time></trkpt><trkpt lat="40.5621249122083" lon="17.13191092412808"><ele>34.0</ele><time>2026-03-29T10:02:49Z</time></trkpt><trkpt lat="40.562049095925765" lon="17.13203590768651"><ele>34.2</ele><time>2026-03-29T10:02:50Z</time></trkpt><trkpt lat="40.56197111102719" lon="17.132148116675303"><ele>34.4</ele><time>2026-03-29T10:02:51Z</time></trkpt><trkpt lat="40.56189040670286" lon="17.13224944018513"><ele>34.6</ele><time>2026-03-29T10:02:52Z</time></trkpt><trkpt lat="40.561804861534156" lon="17.132320656257434"><ele>34.8</ele><time>2026-03-29T10:02:53Z</time></trkpt><trkpt lat="40.56171976215601" lon="17.13236466812563"><ele>35.0</ele><time>2026-03-29T10:02:54Z</time></trkpt><trkpt lat="40.561636031845566" lon="17.132395012417476"><ele>35.0</ele><time>2026-03-29T10:02:55Z</time></trkpt><trkpt lat="40.56156395008121" lon="17.13245165485093"><ele>35.0</ele><time>2026-03-29T10:02:56Z</time></trkpt><trkpt lat="40.561510978757525" lon="17.132538321195206"><ele>35.0</ele><time>2026-03-29T10:02:57Z</time></trkpt><trkpt lat="40.561474423912564" lon="17.13263714814092"><ele>35.0</ele><time>2026-03-29T10:02:58Z</time></trkpt><trkpt lat="40.5614315981254" lon="17.132732174766428"><ele>35.0</ele><time>2026-03-29T10:02:59Z</time></trkpt><trkpt lat="40.56134794547166" lon="17.132806380145603"><ele>35.0</ele><time>2026-03-29T10:03:00Z</time></trkpt><trkpt lat="40.561227709307204" lon="17.132836307533168"><ele>35.33333333333333</ele><time>2026-03-29T10:03:01Z</time></trkpt><trkpt lat="40.561100700266174" lon="17.13291453828003"><ele>35.666666666666664</ele><time>2026-03-29T10:03:02Z</time></trkpt><trkpt lat="40.56096550393945" lon="17.133017935024153"><ele>36.0</ele><time>2026-03-29T10:03:03Z</time></trkpt><trkpt lat="40.56082143067037" lon="17.133143663655773"><ele>35.333333333333336</ele><time>2026-03-29T10:03:04Z</time></trkpt><trkpt lat="40.56067584935555" lon="17.133312538815137"><ele>34.66666666666667</ele><time>2026-03-29T10:03:05Z</time></trkpt><trkpt lat="40.560509178872934" lon="17.133484249320528"><ele>34.0</ele><time>2026-03-29T10:03:06Z</time></trkpt><trkpt lat="40.560322825516494" lon="17.133676749751515"><ele>33.5</ele><time>2026-03-29T10:03:07Z</time></trkpt><trkpt lat="40.56011566629996" lon="17.133870840474835"><ele>33.0</ele><time>2026-03-29T10:03:08Z</time></trkpt><trkpt lat="40.55989783820882" lon="17.13406792512585"><ele>33.5</ele><time>2026-03-29T10:03:09Z</time></trkpt><trkpt lat="40.55966808337894" lon="17.134277346075375"><ele>34.0</ele><time>2026-03-29T10:03:10Z</time></trkpt><trkpt lat="40.55944391950394" lon="17.134486057042494"><ele>34.0</ele><time>2026-03-29T10:03:11Z</time></trkpt><trkpt lat="40.55921734761028" lon="17.13470009342378"><ele>34.0</ele><time>2026-03-29T10:03:12Z</time></trkpt><trkpt lat="40.55899931576052" lon="17.13491353985657"><ele>33.0</ele><time>2026-03-29T10:03:13Z</time></trkpt><trkpt lat="40.55879525257933" lon="17.135110703666722"><ele>32.0</ele><time>2026-03-29T10:03:14Z</time></trkpt><trkpt lat="40.55860196855956" lon="17.135294502922928"><ele>32.0</ele><time>2026-03-29T10:03:15Z</time></trkpt><trkpt lat="40.55841849035476" lon="17.13546836107656"><ele>32.0</ele><time>2026-03-29T10:03:16Z</time></trkpt><trkpt lat="40.55824431709321" lon="17.13563489930665"><ele>32.0</ele><time>2026-03-29T10:03:17Z</time></trkpt><trkpt lat="40.55807951798055" lon="17.13579321468321"><ele>32.0</ele><time>2026-03-29T10:03:18Z</time></trkpt><trkpt lat="40.55792096356157" lon="17.135948049772814"><ele>32.0</ele><time>2026-03-29T10:03:19Z</time></trkpt><trkpt lat="40.55776081190766" lon="17.136104435143565"><ele>32.0</ele><time>2026-03-29T10:03:20Z</time></trkpt><trkpt lat="40.55760344251924" lon="17.13625830262774"><ele>31.666666666666664</ele><time>2026-03-29T10:03:21Z</time></trkpt><trkpt lat="40.557455942995944" lon="17.136403864921586"><ele>31.333333333333336</ele><time>2026-03-29T10:03:22Z</time></trkpt><trkpt lat="40.55731493017296" lon="17.13654048853928"><ele>31.0</ele><time>2026-03-29T10:03:23Z</time></trkpt><trkpt lat="40.557184895660654" lon="17.13667244541605"><ele>31.0</ele><time>2026-03-29T10:03:24Z</time></trkpt><trkpt lat="40.557068272493574" lon="17.13680163879187"><ele>31.0</ele><time>2026-03-29T10:03:25Z</time></trkpt><trkpt lat="40.55696699376538" lon="17.136933598248334"><ele>31.0</ele><time>2026-03-29T10:03:26Z</time></trkpt><trkpt lat="40.55687131485142" lon="17.137055534896206"><ele>31.0</ele><time>2026-03-29T10:03:27Z</time></trkpt><trkpt lat="40.556776152124954" lon="17.137150926131206"><ele>31.0</ele><time>2026-03-29T10:03:28Z</time></trkpt><trkpt lat="40.55665864130317" lon="17.13722091636363"><ele>31.0</ele><time>2026-03-29T10:03:29Z</time></trkpt><trkpt lat="40.556532313998666" lon="17.137296682008284"><ele>31.0</ele><time>2026-03-29T10:03:30Z</time></trkpt><trkpt lat="40.556424425735926" lon="17.137424364237418"><ele>31.0</ele><time>2026-03-29T10:03:31Z</time></trkpt><trkpt lat="40.55634934274101" lon="17.137575593413096"><ele>31.0</ele><time>2026-03-29T10:03:32Z</time></trkpt><trkpt lat="40.55626257443919" lon="17.137696607254373"><ele>31.0</ele><time>2026-03-29T10:03:33Z</time></trkpt><trkpt lat="40.55612837779328" lon="17.137790906395594"><ele>31.0</ele><time>2026-03-29T10:03:34Z</time></trkpt><trkpt lat="40.555987968251515" lon="17.1379022648884"><ele>31.0</ele><time>2026-03-29T10:03:35Z</time></trkpt><trkpt lat="40.55584112057203" lon="17.13799501131692"><ele>31.0</ele><time>2026-03-29T10:03:36Z</time></trkpt><trkpt lat="40.55569576911116" lon="17.13811156249595"><ele>31.0</ele><time>2026-03-29T10:03:37Z</time></trkpt><trkpt lat="40.555539392892356" lon="17.138259999551906"><ele>31.0</ele><time>2026-03-29T10:03:38Z</time></trkpt><trkpt lat="40.555363136258244" lon="17.138428003261254"><ele>31.0</ele><time>2026-03-29T10:03:39Z</time></trkpt><trkpt lat="40.55517312577788" lon="17.138609583245206"><ele>31.0</ele><time>2026-03-29T10:03:40Z</time></trkpt><trkpt lat="40.55497864459218" lon="17.13881727248151"><ele>31.0</ele><time>2026-03-29T10:03:41Z</time></trkpt><trkpt lat="40.55476548240557" lon="17.13901989166919"><ele>31.0</ele><time>2026-03-29T10:03:42Z</time></trkpt><trkpt lat="40.554545454726146" lon="17.13922957581032"><ele>30.0</ele><time>2026-03-29T10:03:43Z</time></trkpt><trkpt lat="40.55431663885455" lon="17.139445333624987"><ele>29.0</ele><time>2026-03-29T10:03:44Z</time></trkpt><trkpt lat="40.554081767059444" lon="17.13966973636051"><ele>29.0</ele><time>2026-03-29T10:03:45Z</time></trkpt><trkpt lat="40.5538443615141" lon="17.139897148555782"><ele>29.0</ele><time>2026-03-29T10:03:46Z</time></trkpt><trkpt lat="40.553602626840195" lon="17.140129253774386"><ele>29.0</ele><time>2026-03-29T10:03:47Z</time></trkpt><trkpt lat="40.55336184676153" lon="17.140362092088615"><ele>29.0</ele><time>2026-03-29T10:03:48Z</time></trkpt><trkpt lat="40.55312184407302" lon="17.140597624152637"><ele>29.0</ele><time>2026-03-29T10:03:49Z</time></trkpt><trkpt lat="40.5528811561103" lon="17.14083387085963"><ele>29.0</ele><time>2026-03-29T10:03:50Z</time></trkpt><trkpt lat="40.552638093945745" lon="17.141070590988164"><ele>28.5</ele><time>2026-03-29T10:03:51Z</time></trkpt><trkpt lat="40.55239098014356" lon="17.14130910193197"><ele>28.0</ele><time>2026-03-29T10:03:52Z</time></trkpt><trkpt lat="40.55214163875658" lon="17.141551028348314"><ele>26.0</ele><time>2026-03-29T10:03:53Z</time></trkpt><trkpt lat="40.551892993479505" lon="17.14179452686116"><ele>24.0</ele><time>2026-03-29T10:03:54Z</time></trkpt><trkpt lat="40.55164425476422" lon="17.142038092626397"><ele>24.0</ele><time>2026-03-29T10:03:55Z</time></trkpt><trkpt lat="40.551395106814624" lon="17.14228019194805"><ele>24.0</ele><time>2026-03-29T10:03:56Z</time></trkpt><trkpt lat="40.551145728743776" lon="17.142522092000195"><ele>24.5</ele><time>2026-03-29T10:03:57Z</time></trkpt><trkpt lat="40.550895146510804" lon="17.142765446670317"><ele>25.0</ele><time>2026-03-29T10:03:58Z</time></trkpt><trkpt lat="40.5506442432835" lon="17.14300734718352"><ele>25.0</ele><time>2026-03-29T10:03:59Z</time></trkpt><trkpt lat="40.55039120510731" lon="17.143253619937806"><ele>25.0</ele><time>2026-03-29T10:04:00Z</time></trkpt><trkpt lat="40.550137853484365" lon="17.143500310201013"><ele>25.0</ele><time>2026-03-29T10:04:01Z</time></trkpt><trkpt lat="40.54988662433282" lon="17.14374573543989"><ele>25.0</ele><time>2026-03-29T10:04:02Z</time></trkpt><trkpt lat="40.54963562789664" lon="17.14399384442835"><ele>24.5</ele><time>2026-03-29T10:04:03Z</time></trkpt><trkpt lat="40.549384700714135" lon="17.144241339626323"><ele>24.0</ele><time>2026-03-29T10:04:04Z</time></trkpt><trkpt lat="40.54913138451869" lon="17.144490700419038"><ele>24.0</ele><time>2026-03-29T10:04:05Z</time></trkpt><trkpt lat="40.54887830141312" lon="17.14473887991782"><ele>24.0</ele><time>2026-03-29T10:04:06Z</time></trkpt><trkpt lat="40.548624695761205" lon="17.14498728039968"><ele>24.5</ele><time>2026-03-29T10:04:07Z</time></trkpt><trkpt lat="40.54837390012102" lon="17.14523193715811"><ele>25.0</ele><time>2026-03-29T10:04:08Z</time></trkpt><trkpt lat="40.54812380068743" lon="17.145475922735578"><ele>24.5</ele><time>2026-03-29T10:04:09Z</time></trkpt><trkpt lat="40.547872627061274" lon="17.145721287213863"><ele>24.0</ele><time>2026-03-29T10:04:10Z</time></trkpt><trkpt lat="40.547617272184404" lon="17.145970990932398"><ele>24.0</ele><time>2026-03-29T10:04:11Z</time></trkpt><trkpt lat="40.54735913004439" lon="17.146224344288004"><ele>24.0</ele><time>2026-03-29T10:04:12Z</time></trkpt><trkpt lat="40.54709745631325" lon="17.146480136520825"><ele>23.5</ele><time>2026-03-29T10:04:13Z</time></trkpt><trkpt lat="40.54683483390578" lon="17.14673458090981"><ele>23.0</ele><time>2026-03-29T10:04:14Z</time></trkpt><trkpt lat="40.54657208109935" lon="17.146988722199506"><ele>23.0</ele><time>2026-03-29T10:04:15Z</time></trkpt><trkpt lat="40.54631117838418" lon="17.14724437868115"><ele>23.0</ele><time>2026-03-29T10:04:16Z</time></trkpt><trkpt lat="40.54605486586138" lon="17.147503079619995"><ele>23.0</ele><time>2026-03-29T10:04:17Z</time></trkpt><trkpt lat="40.54580389366946" lon="17.147768662499416"><ele>23.0</ele><time>2026-03-29T10:04:18Z</time></trkpt><trkpt lat="40.5455659075809" lon="17.148052710058234"><ele>22.5</ele><time>2026-03-29T10:04:19Z</time></trkpt><trkpt lat="40.54533547468297" lon="17.14835030300748"><ele>22.0</ele><time>2026-03-29T10:04:20Z</time></trkpt><trkpt lat="40.545102224076224" lon="17.148651877891194"><ele>22.0</ele><time>2026-03-29T10:04:21Z</time></trkpt><trkpt lat="40.54486742234903" lon="17.148951777051334"><ele>22.0</ele><time>2026-03-29T10:04:22Z</time></trkpt><trkpt lat="40.544633120755584" lon="17.149249023830546"><ele>22.0</ele><time>2026-03-29T10:04:23Z</time></trkpt><trkpt lat="40.54439973230445" lon="17.14954361985129"><ele>22.0</ele><time>2026-03-29T10:04:24Z</time></trkpt><trkpt lat="40.544167109735355" lon="17.14983579947768"><ele>23.0</ele><time>2026-03-29T10:04:25Z</time></trkpt><trkpt lat="40.54393862768576" lon="17.150124385124784"><ele>24.0</ele><time>2026-03-29T10:04:26Z</time></trkpt><trkpt lat="40.54371465937689" lon="17.150414808786564"><ele>24.0</ele><time>2026-03-29T10:04:27Z</time></trkpt><trkpt lat="40.54349166758419" lon="17.150701799989893"><ele>24.0</ele><time>2026-03-29T10:04:28Z</time></trkpt><trkpt lat="40.54326757474013" lon="17.15098339749489"><ele>24.5</ele><time>2026-03-29T10:04:29Z</time></trkpt><trkpt lat="40.54304326430348" lon="17.151263287828005"><ele>25.0</ele><time>2026-03-29T10:04:29.999Z</time></trkpt><trkpt lat="40.54281919711942" lon="17.151544702671387"><ele>23.5</ele><time>2026-03-29T10:04:30.999Z</time></trkpt><trkpt lat="40.54259619688622" lon="17.151826999683962"><ele>22.0</ele><time>2026-03-29T10:04:31.999Z</time></trkpt><trkpt lat="40.54237261471649" lon="17.152108850120666"><ele>22.0</ele><time>2026-03-29T10:04:32.999Z</time></trkpt><trkpt lat="40.54214594732608" lon="17.152389811449645"><ele>22.0</ele><time>2026-03-29T10:04:33.999Z</time></trkpt><trkpt lat="40.54191804377456" lon="17.152675722912864"><ele>22.0</ele><time>2026-03-29T10:04:34.999Z</time></trkpt><trkpt lat="40.5416913726817" lon="17.152962494878203"><ele>22.0</ele><time>2026-03-29T10:04:35.999Z</time></trkpt><trkpt lat="40.54146389824329" lon="17.15324895440176"><ele>22.5</ele><time>2026-03-29T10:04:36.999Z</time></trkpt><trkpt lat="40.541235188124446" lon="17.153536305424602"><ele>23.0</ele><time>2026-03-29T10:04:37.999Z</time></trkpt><trkpt lat="40.541004909611516" lon="17.153825222696458"><ele>23.0</ele><time>2026-03-29T10:04:38.999Z</time></trkpt><trkpt lat="40.54077427241214" lon="17.154113838603415"><ele>23.0</ele><time>2026-03-29T10:04:39.999Z</time></trkpt><trkpt lat="40.54054405235382" lon="17.15440165192748"><ele>22.5</ele><time>2026-03-29T10:04:40.999Z</time></trkpt><trkpt lat="40.5403123679002" lon="17.154693537277055"><ele>22.0</ele><time>2026-03-29T10:04:41.999Z</time></trkpt><trkpt lat="40.54007869309951" lon="17.154984906373308"><ele>22.0</ele><time>2026-03-29T10:04:42.999Z</time></trkpt><trkpt lat="40.539843704557036" lon="17.155275995695035"><ele>22.0</ele><time>2026-03-29T10:04:43.999Z</time></trkpt><trkpt lat="40.53961100742692" lon="17.155566653132084"><ele>22.0</ele><time>2026-03-29T10:04:44.999Z</time></trkpt><trkpt lat="40.53938269870795" lon="17.1558562231824"><ele>22.0</ele><time>2026-03-29T10:04:45.999Z</time></trkpt><trkpt lat="40.53915599728086" lon="17.156145964035815"><ele>22.0</ele><time>2026-03-29T10:04:46.999Z</time></trkpt><trkpt lat="40.538927718562675" lon="17.15643423951726"><ele>22.0</ele><time>2026-03-29T10:04:47.999Z</time></trkpt><trkpt lat="40.5387011420464" lon="17.156720713757704"><ele>21.5</ele><time>2026-03-29T10:04:48.999Z</time></trkpt><trkpt lat="40.53849039297443" lon="17.15698536691607"><ele>21.0</ele><time>2026-03-29T10:04:49.999Z</time></trkpt><trkpt lat="40.538296103335604" lon="17.157228083954863"><ele>22.0</ele><time>2026-03-29T10:04:50.999Z</time></trkpt><trkpt lat="40.53811095874395" lon="17.15746032043717"><ele>23.0</ele><time>2026-03-29T10:04:51.999Z</time></trkpt><trkpt lat="40.53793412709054" lon="17.157684028101276"><ele>22.0</ele><time>2026-03-29T10:04:52.999Z</time></trkpt><trkpt lat="40.53775746359218" lon="17.15790580328075"><ele>21.0</ele><time>2026-03-29T10:04:53.999Z</time></trkpt><trkpt lat="40.53757835487149" lon="17.158131620181376"><ele>21.0</ele><time>2026-03-29T10:04:54.999Z</time></trkpt><trkpt lat="40.53739980221988" lon="17.158360598248574"><ele>21.0</ele><time>2026-03-29T10:04:55.999Z</time></trkpt><trkpt lat="40.53721772539826" lon="17.158590118891674"><ele>20.5</ele><time>2026-03-29T10:04:56.999Z</time></trkpt><trkpt lat="40.53703387610895" lon="17.15881812501455"><ele>20.0</ele><time>2026-03-29T10:04:57.999Z</time></trkpt><trkpt lat="40.536849833603675" lon="17.15904584027145"><ele>21.0</ele><time>2026-03-29T10:04:58.999Z</time></trkpt><trkpt lat="40.536677578870886" lon="17.15925953206319"><ele>22.0</ele><time>2026-03-29T10:04:59.999Z</time></trkpt><trkpt lat="40.536515325173546" lon="17.15946352898081"><ele>22.0</ele><time>2026-03-29T10:05:00.999Z</time></trkpt><trkpt lat="40.536359744675366" lon="17.159657841399664"><ele>22.0</ele><time>2026-03-29T10:05:01.999Z</time></trkpt><trkpt lat="40.5362121004941" lon="17.159839832925087"><ele>22.0</ele><time>2026-03-29T10:05:02.999Z</time></trkpt><trkpt lat="40.53607270880899" lon="17.160010477030543"><ele>21.666666666666664</ele><time>2026-03-29T10:05:03.999Z</time></trkpt><trkpt lat="40.53594203049896" lon="17.16017098793442"><ele>21.333333333333332</ele><time>2026-03-29T10:05:04.999Z</time></trkpt><trkpt lat="40.53582149527692" lon="17.16031762258909"><ele>21.0</ele><time>2026-03-29T10:05:05.999Z</time></trkpt><trkpt lat="40.535706006624444" lon="17.16045040820517"><ele>21.0</ele><time>2026-03-29T10:05:06.999Z</time></trkpt><trkpt lat="40.53560355993256" lon="17.160572510781165"><ele>21.0</ele><time>2026-03-29T10:05:07.999Z</time></trkpt><trkpt lat="40.53551577059909" lon="17.160677936513466"><ele>21.0</ele><time>2026-03-29T10:05:08.999Z</time></trkpt><trkpt lat="40.535429266969466" lon="17.16075597384525"><ele>21.0</ele><time>2026-03-29T10:05:09.999Z</time></trkpt><trkpt lat="40.535348482066276" lon="17.160806053758357"><ele>21.200000000000003</ele><time>2026-03-29T10:05:10.999Z</time></trkpt><trkpt lat="40.535275914146865" lon="17.160859275359456"><ele>21.400000000000002</ele><time>2026-03-29T10:05:11.999Z</time></trkpt><trkpt lat="40.53521381235247" lon="17.160938779414515"><ele>21.6</ele><time>2026-03-29T10:05:12.999Z</time></trkpt><trkpt lat="40.5351627653154" lon="17.16106139284295"><ele>21.8</ele><time>2026-03-29T10:05:13.999Z</time></trkpt><trkpt lat="40.53510513907469" lon="17.161207417171127"><ele>22.0</ele><time>2026-03-29T10:05:14.999Z</time></trkpt><trkpt lat="40.535014870415566" lon="17.161348925213534"><ele>22.0</ele><time>2026-03-29T10:05:15.999Z</time></trkpt><trkpt lat="40.53490306474817" lon="17.16149678143764"><ele>22.0</ele><time>2026-03-29T10:05:16.999Z</time></trkpt><trkpt lat="40.534773544149076" lon="17.161671216942285"><ele>22.0</ele><time>2026-03-29T10:05:17.999Z</time></trkpt><trkpt lat="40.53462218217767" lon="17.16185868165047"><ele>22.5</ele><time>2026-03-29T10:05:18.999Z</time></trkpt><trkpt lat="40.534450612818446" lon="17.16206187682726"><ele>23.0</ele><time>2026-03-29T10:05:19.999Z</time></trkpt><trkpt lat="40.53426496870324" lon="17.16228675166556"><ele>23.0</ele><time>2026-03-29T10:05:20.999Z</time></trkpt><trkpt lat="40.5340664040235" lon="17.162531310939265"><ele>23.0</ele><time>2026-03-29T10:05:21.999Z</time></trkpt><trkpt lat="40.53385887540329" lon="17.16278986072398"><ele>23.0</ele><time>2026-03-29T10:05:22.999Z</time></trkpt><trkpt lat="40.53364357094511" lon="17.163060065314937"><ele>23.0</ele><time>2026-03-29T10:05:23.999Z</time></trkpt><trkpt lat="40.53342096111042" lon="17.16333832118138"><ele>23.0</ele><time>2026-03-29T10:05:24.999Z</time></trkpt><trkpt lat="40.53319285175514" lon="17.163623483246987"><ele>23.0</ele><time>2026-03-29T10:05:25.999Z</time></trkpt><trkpt lat="40.532960854883925" lon="17.163913856559088"><ele>23.0</ele><time>2026-03-29T10:05:26.999Z</time></trkpt><trkpt lat="40.53272679833421" lon="17.16420692106817"><ele>23.0</ele><time>2026-03-29T10:05:27.999Z</time></trkpt><trkpt lat="40.532490532957056" lon="17.164500742679877"><ele>23.0</ele><time>2026-03-29T10:05:28.999Z</time></trkpt><trkpt lat="40.532254017467864" lon="17.16479542580063"><ele>23.0</ele><time>2026-03-29T10:05:29.999Z</time></trkpt><trkpt lat="40.53201798527055" lon="17.165090785559553"><ele>22.0</ele><time>2026-03-29T10:05:30.999Z</time></trkpt><trkpt lat="40.53178295898212" lon="17.165387693601264"><ele>21.0</ele><time>2026-03-29T10:05:31.999Z</time></trkpt><trkpt lat="40.53155072408886" lon="17.165681805260373"><ele>21.0</ele><time>2026-03-29T10:05:32.999Z</time></trkpt><trkpt lat="40.531324253565224" lon="17.165965420834972"><ele>21.0</ele><time>2026-03-29T10:05:33.999Z</time></trkpt><trkpt lat="40.53109938081332" lon="17.16624587880218"><ele>21.0</ele><time>2026-03-29T10:05:34.999Z</time></trkpt><trkpt lat="40.53087440360928" lon="17.1665281483598"><ele>21.0</ele><time>2026-03-29T10:05:35.999Z</time></trkpt><trkpt lat="40.53064773644746" lon="17.166813695455257"><ele>21.0</ele><time>2026-03-29T10:05:36.999Z</time></trkpt><trkpt lat="40.53042130894804" lon="17.16709610994199"><ele>21.0</ele><time>2026-03-29T10:05:37.999Z</time></trkpt><trkpt lat="40.53019627216647" lon="17.16737778490384"><ele>21.0</ele><time>2026-03-29T10:05:38.999Z</time></trkpt><trkpt lat="40.529972621273075" lon="17.16765724461558"><ele>21.0</ele><time>2026-03-29T10:05:39.999Z</time></trkpt><trkpt lat="40.529750303534556" lon="17.16793727407088"><ele>21.5</ele><time>2026-03-29T10:05:40.999Z</time></trkpt><trkpt lat="40.52952996374871" lon="17.168215066486272"><ele>22.0</ele><time>2026-03-29T10:05:41.999Z</time></trkpt><trkpt lat="40.52931135313089" lon="17.16848426226332"><ele>22.0</ele><time>2026-03-29T10:05:42.999Z</time></trkpt><trkpt lat="40.52909665778652" lon="17.16874568661498"><ele>22.0</ele><time>2026-03-29T10:05:44Z</time></trkpt><trkpt lat="40.528883905019086" lon="17.16900580467191"><ele>21.0</ele><time>2026-03-29T10:05:45Z</time></trkpt><trkpt lat="40.528669789477185" lon="17.16926663374214"><ele>20.0</ele><time>2026-03-29T10:05:46Z</time></trkpt><trkpt lat="40.52845748070837" lon="17.169528514232827"><ele>20.0</ele><time>2026-03-29T10:05:47Z</time></trkpt><trkpt lat="40.52824362430289" lon="17.169789259834737"><ele>20.0</ele><time>2026-03-29T10:05:48Z</time></trkpt><trkpt lat="40.52802670789258" lon="17.170056932183133"><ele>17.0</ele><time>2026-03-29T10:05:49Z</time></trkpt><trkpt lat="40.52781204757744" lon="17.170322701800387"><ele>14.0</ele><time>2026-03-29T10:05:50Z</time></trkpt><trkpt lat="40.52759703860083" lon="17.170590237915288"><ele>15.5</ele><time>2026-03-29T10:05:51Z</time></trkpt><trkpt lat="40.52738084370819" lon="17.17085467616004"><ele>17.0</ele><time>2026-03-29T10:05:52Z</time></trkpt><trkpt lat="40.52716109340112" lon="17.171122483193358"><ele>16.0</ele><time>2026-03-29T10:05:53Z</time></trkpt><trkpt lat="40.52694270717823" lon="17.17139103974554"><ele>15.0</ele><time>2026-03-29T10:05:54Z</time></trkpt><trkpt lat="40.52672393885018" lon="17.171657132765855"><ele>18.0</ele><time>2026-03-29T10:05:55Z</time></trkpt><trkpt lat="40.526504026644304" lon="17.17192386606349"><ele>21.0</ele><time>2026-03-29T10:05:56Z</time></trkpt><trkpt lat="40.52628883161176" lon="17.17219518434381"><ele>22.0</ele><time>2026-03-29T10:05:57Z</time></trkpt><trkpt lat="40.52607195588492" lon="17.172467412314948"><ele>23.0</ele><time>2026-03-29T10:05:58Z</time></trkpt><trkpt lat="40.52585229825505" lon="17.172742276089874"><ele>23.0</ele><time>2026-03-29T10:05:59Z</time></trkpt><trkpt lat="40.52562801404002" lon="17.173022043638348"><ele>23.0</ele><time>2026-03-29T10:06:00Z</time></trkpt><trkpt lat="40.52540285390376" lon="17.17329739370818"><ele>22.5</ele><time>2026-03-29T10:06:01Z</time></trkpt><trkpt lat="40.52517223246952" lon="17.173577568433586"><ele>22.0</ele><time>2026-03-29T10:06:02Z</time></trkpt><trkpt lat="40.52494168808562" lon="17.173857493056197"><ele>22.5</ele><time>2026-03-29T10:06:03Z</time></trkpt><trkpt lat="40.524707464958745" lon="17.17414035226329"><ele>23.0</ele><time>2026-03-29T10:06:04Z</time></trkpt><trkpt lat="40.52447024363602" lon="17.174427613805996"><ele>23.0</ele><time>2026-03-29T10:06:05Z</time></trkpt><trkpt lat="40.524234897141085" lon="17.174713141980103"><ele>23.0</ele><time>2026-03-29T10:06:06Z</time></trkpt><trkpt lat="40.523999408467894" lon="17.175001840172722"><ele>23.0</ele><time>2026-03-29T10:06:07Z</time></trkpt><trkpt lat="40.52376230205119" lon="17.17529541708693"><ele>23.0</ele><time>2026-03-29T10:06:08Z</time></trkpt><trkpt lat="40.52352608110978" lon="17.175590802404212"><ele>21.5</ele><time>2026-03-29T10:06:09Z</time></trkpt><trkpt lat="40.52329095938952" lon="17.17588312405747"><ele>20.0</ele><time>2026-03-29T10:06:10Z</time></trkpt><trkpt lat="40.5230571382925" lon="17.176169200612584"><ele>20.0</ele><time>2026-03-29T10:06:11Z</time></trkpt><trkpt lat="40.522823656064865" lon="17.1764552881881"><ele>20.0</ele><time>2026-03-29T10:06:12Z</time></trkpt><trkpt lat="40.5225906257698" lon="17.17674417903662"><ele>20.0</ele><time>2026-03-29T10:06:13Z</time></trkpt><trkpt lat="40.52235561510594" lon="17.177030531757126"><ele>20.0</ele><time>2026-03-29T10:06:14Z</time></trkpt><trkpt lat="40.52211891111773" lon="17.177317773014718"><ele>21.0</ele><time>2026-03-29T10:06:15Z</time></trkpt><trkpt lat="40.521881874983166" lon="17.177607876202977"><ele>22.0</ele><time>2026-03-29T10:06:16Z</time></trkpt><trkpt lat="40.52164868173108" lon="17.177897445588204"><ele>22.0</ele><time>2026-03-29T10:06:17Z</time></trkpt><trkpt lat="40.52141630974672" lon="17.178181919111903"><ele>22.0</ele><time>2026-03-29T10:06:18Z</time></trkpt><trkpt lat="40.521186425708784" lon="17.178467648646084"><ele>22.0</ele><time>2026-03-29T10:06:19Z</time></trkpt><trkpt lat="40.52095829753779" lon="17.17874960076966"><ele>22.0</ele><time>2026-03-29T10:06:20Z</time></trkpt><trkpt lat="40.5207290396755" lon="17.17903189093313"><ele>22.0</ele><time>2026-03-29T10:06:21Z</time></trkpt><trkpt lat="40.520497190972755" lon="17.179313814353225"><ele>22.0</ele><time>2026-03-29T10:06:22Z</time></trkpt><trkpt lat="40.52026481606713" lon="17.17959472403276"><ele>21.5</ele><time>2026-03-29T10:06:23Z</time></trkpt><trkpt lat="40.520030487555886" lon="17.179876353156647"><ele>21.0</ele><time>2026-03-29T10:06:24Z</time></trkpt><trkpt lat="40.51979525947345" lon="17.180159810309583"><ele>20.5</ele><time>2026-03-29T10:06:25Z</time></trkpt><trkpt lat="40.51955769519925" lon="17.180443934825252"><ele>20.0</ele><time>2026-03-29T10:06:26Z</time></trkpt><trkpt lat="40.51931966226787" lon="17.18072258032221"><ele>20.0</ele><time>2026-03-29T10:06:27Z</time></trkpt><trkpt lat="40.51908771743566" lon="17.1809914575908"><ele>20.0</ele><time>2026-03-29T10:06:28Z</time></trkpt><trkpt lat="40.51886543451733" lon="17.18125719231718"><ele>20.5</ele><time>2026-03-29T10:06:29Z</time></trkpt><trkpt lat="40.51864485113209" lon="17.181514877075024"><ele>21.0</ele><time>2026-03-29T10:06:30Z</time></trkpt><trkpt lat="40.51842521603204" lon="17.1817706677544"><ele>21.0</ele><time>2026-03-29T10:06:31Z</time></trkpt><trkpt lat="40.518206900523026" lon="17.18202556633333"><ele>21.0</ele><time>2026-03-29T10:06:32Z</time></trkpt><trkpt lat="40.51799310451685" lon="17.18227780194277"><ele>20.5</ele><time>2026-03-29T10:06:33Z</time></trkpt><trkpt lat="40.51778474236318" lon="17.18252272902919"><ele>20.0</ele><time>2026-03-29T10:06:34Z</time></trkpt><trkpt lat="40.517578074459145" lon="17.18276240324494"><ele>20.0</ele><time>2026-03-29T10:06:35Z</time></trkpt><trkpt lat="40.51737968167132" lon="17.182989161345017"><ele>20.0</ele><time>2026-03-29T10:06:36Z</time></trkpt><trkpt lat="40.517191395576205" lon="17.183199756078302"><ele>17.0</ele><time>2026-03-29T10:06:37Z</time></trkpt><trkpt lat="40.517012568421016" lon="17.183393575482462"><ele>14.0</ele><time>2026-03-29T10:06:38Z</time></trkpt><trkpt lat="40.51684258182501" lon="17.183577183064305"><ele>14.0</ele><time>2026-03-29T10:06:39Z</time></trkpt><trkpt lat="40.51668221254922" lon="17.18374952240919"><ele>14.0</ele><time>2026-03-29T10:06:40Z</time></trkpt><trkpt lat="40.51653104365143" lon="17.183910473239912"><ele>14.0</ele><time>2026-03-29T10:06:41Z</time></trkpt><trkpt lat="40.51639009292004" lon="17.18406340054492"><ele>13.333333333333334</ele><time>2026-03-29T10:06:42Z</time></trkpt><trkpt lat="40.51625841450602" lon="17.184209024833574"><ele>12.666666666666668</ele><time>2026-03-29T10:06:43Z</time></trkpt><trkpt lat="40.516135480096075" lon="17.184351074654987"><ele>12.0</ele><time>2026-03-29T10:06:44Z</time></trkpt><trkpt lat="40.51601815443009" lon="17.184482517760998"><ele>12.0</ele><time>2026-03-29T10:06:45Z</time></trkpt><trkpt lat="40.51590604292466" lon="17.184607979013663"><ele>12.0</ele><time>2026-03-29T10:06:46Z</time></trkpt><trkpt lat="40.51580124753727" lon="17.1847248842502"><ele>12.0</ele><time>2026-03-29T10:06:47Z</time></trkpt><trkpt lat="40.5157077949956" lon="17.184838631519067"><ele>12.0</ele><time>2026-03-29T10:06:48Z</time></trkpt><trkpt lat="40.51561620004795" lon="17.184963307281517"><ele>12.25</ele><time>2026-03-29T10:06:49Z</time></trkpt><trkpt lat="40.51552705056469" lon="17.18508686835526"><ele>12.5</ele><time>2026-03-29T10:06:50Z</time></trkpt><trkpt lat="40.51544006572955" lon="17.185208766716315"><ele>12.75</ele><time>2026-03-29T10:06:51Z</time></trkpt><trkpt lat="40.51536726517466" lon="17.18531869612699"><ele>13.0</ele><time>2026-03-29T10:06:52Z</time></trkpt><trkpt lat="40.515314141039404" lon="17.185407926942464"><ele>12.833333333333332</ele><time>2026-03-29T10:06:53Z</time></trkpt><trkpt lat="40.515264856377414" lon="17.18548499228527"><ele>12.666666666666666</ele><time>2026-03-29T10:06:54Z</time></trkpt><trkpt lat="40.51521521226658" lon="17.185557291883363"><ele>12.5</ele><time>2026-03-29T10:06:55Z</time></trkpt><trkpt lat="40.51516780023634" lon="17.185632388035604"><ele>12.333333333333332</ele><time>2026-03-29T10:06:56Z</time></trkpt><trkpt lat="40.51512430932559" lon="17.185708209144178"><ele>12.166666666666666</ele><time>2026-03-29T10:06:57Z</time></trkpt><trkpt lat="40.51508353165064" lon="17.185785133745224"><ele>12.0</ele><time>2026-03-29T10:06:58Z</time></trkpt><trkpt lat="40.51502490954906" lon="17.185885964359404"><ele>12.0</ele><time>2026-03-29T10:07:00Z</time></trkpt><trkpt lat="40.514981948472204" lon="17.18597273516862"><ele>12.0</ele><time>2026-03-29T10:07:26Z</time></trkpt><trkpt lat="40.51489421519167" lon="17.186133995746864"><ele>12.0</ele><time>2026-03-29T10:07:28Z</time></trkpt><trkpt lat="40.51482794729123" lon="17.186250047053594"><ele>12.0</ele><time>2026-03-29T10:07:29Z</time></trkpt><trkpt lat="40.514749598264736" lon="17.18638364441033"><ele>12.666666666666668</ele><time>2026-03-29T10:07:30Z</time></trkpt><trkpt lat="40.51466135395209" lon="17.18653047993194"><ele>13.333333333333334</ele><time>2026-03-29T10:07:31Z</time></trkpt><trkpt lat="40.51456981619795" lon="17.186688641435378"><ele>14.0</ele><time>2026-03-29T10:07:32Z</time></trkpt><trkpt lat="40.51447514932814" lon="17.186864916685046"><ele>14.0</ele><time>2026-03-29T10:07:33Z</time></trkpt><trkpt lat="40.51437410665864" lon="17.18705120295257"><ele>14.0</ele><time>2026-03-29T10:07:34Z</time></trkpt><trkpt lat="40.514263074752996" lon="17.18724695884797"><ele>14.0</ele><time>2026-03-29T10:07:35Z</time></trkpt><trkpt lat="40.51414885046583" lon="17.187449102877437"><ele>14.333333333333334</ele><time>2026-03-29T10:07:36Z</time></trkpt><trkpt lat="40.514030654322404" lon="17.18765966588501"><ele>14.666666666666668</ele><time>2026-03-29T10:07:37Z</time></trkpt><trkpt lat="40.51390663016975" lon="17.187881178387972"><ele>15.0</ele><time>2026-03-29T10:07:38Z</time></trkpt><trkpt lat="40.51377348104998" lon="17.188111947053777"><ele>15.5</ele><time>2026-03-29T10:07:39Z</time></trkpt><trkpt lat="40.51364402122357" lon="17.188353200208496"><ele>16.0</ele><time>2026-03-29T10:07:40Z</time></trkpt><trkpt lat="40.51350730848289" lon="17.1885999086901"><ele>16.0</ele><time>2026-03-29T10:07:41Z</time></trkpt><trkpt lat="40.51335701818792" lon="17.188842680180525"><ele>16.0</ele><time>2026-03-29T10:07:42Z</time></trkpt><trkpt lat="40.51319182587643" lon="17.189074958601662"><ele>17.5</ele><time>2026-03-29T10:07:43Z</time></trkpt><trkpt lat="40.51301788447384" lon="17.189304366086137"><ele>19.0</ele><time>2026-03-29T10:07:44Z</time></trkpt><trkpt lat="40.512838868486035" lon="17.189530984535956"><ele>18.5</ele><time>2026-03-29T10:07:45Z</time></trkpt><trkpt lat="40.51265453559565" lon="17.189755507248968"><ele>18.0</ele><time>2026-03-29T10:07:46Z</time></trkpt><trkpt lat="40.512461908909685" lon="17.189975831357188"><ele>18.0</ele><time>2026-03-29T10:07:47Z</time></trkpt><trkpt lat="40.51226206391713" lon="17.190191755971522"><ele>18.0</ele><time>2026-03-29T10:07:48Z</time></trkpt><trkpt lat="40.51205574823779" lon="17.19040137835753"><ele>17.5</ele><time>2026-03-29T10:07:49Z</time></trkpt><trkpt lat="40.51184310137879" lon="17.190606627599696"><ele>17.0</ele><time>2026-03-29T10:07:50Z</time></trkpt><trkpt lat="40.511623207763066" lon="17.190810627433155"><ele>17.0</ele><time>2026-03-29T10:07:51Z</time></trkpt><trkpt lat="40.511398893741166" lon="17.19101527007689"><ele>17.0</ele><time>2026-03-29T10:07:52Z</time></trkpt><trkpt lat="40.51117294892781" lon="17.19122172776638"><ele>17.0</ele><time>2026-03-29T10:07:53Z</time></trkpt><trkpt lat="40.510945239185126" lon="17.191431581473555"><ele>17.0</ele><time>2026-03-29T10:07:54Z</time></trkpt><trkpt lat="40.51071225281326" lon="17.19165042503891"><ele>17.0</ele><time>2026-03-29T10:07:55Z</time></trkpt><trkpt lat="40.51047365912765" lon="17.191872183054876"><ele>17.0</ele><time>2026-03-29T10:07:56Z</time></trkpt><trkpt lat="40.51023271841" lon="17.192093851242625"><ele>17.5</ele><time>2026-03-29T10:07:57Z</time></trkpt><trkpt lat="40.50998861334591" lon="17.192318576210187"><ele>18.0</ele><time>2026-03-29T10:07:58Z</time></trkpt><trkpt lat="40.509736458278006" lon="17.192558074345918"><ele>17.5</ele><time>2026-03-29T10:07:59Z</time></trkpt><trkpt lat="40.50949960988931" lon="17.192781426308727"><ele>17.0</ele><time>2026-03-29T10:08:00Z</time></trkpt><trkpt lat="40.509256299727205" lon="17.193008813687737"><ele>19.0</ele><time>2026-03-29T10:08:01Z</time></trkpt><trkpt lat="40.50900904340264" lon="17.193238948733313"><ele>21.0</ele><time>2026-03-29T10:08:02Z</time></trkpt><trkpt lat="40.508758748441856" lon="17.193469302357492"><ele>20.5</ele><time>2026-03-29T10:08:03Z</time></trkpt><trkpt lat="40.50850521174814" lon="17.193700356896535"><ele>20.0</ele><time>2026-03-29T10:08:04Z</time></trkpt><trkpt lat="40.50824757293786" lon="17.193934079593078"><ele>20.0</ele><time>2026-03-29T10:08:05Z</time></trkpt><trkpt lat="40.507988489180164" lon="17.194171838293915"><ele>20.0</ele><time>2026-03-29T10:08:06Z</time></trkpt><trkpt lat="40.507730787467274" lon="17.194410972574094"><ele>20.0</ele><time>2026-03-29T10:08:07Z</time></trkpt><trkpt lat="40.50747136646248" lon="17.194650882624494"><ele>20.0</ele><time>2026-03-29T10:08:08Z</time></trkpt><trkpt lat="40.507212141498634" lon="17.194889682596433"><ele>20.0</ele><time>2026-03-29T10:08:09Z</time></trkpt><trkpt lat="40.50694992564529" lon="17.195129189734182"><ele>20.0</ele><time>2026-03-29T10:08:10Z</time></trkpt><trkpt lat="40.506688620494515" lon="17.195368583484527"><ele>20.0</ele><time>2026-03-29T10:08:11Z</time></trkpt><trkpt lat="40.50642727430723" lon="17.195609845132434"><ele>20.0</ele><time>2026-03-29T10:08:12Z</time></trkpt><trkpt lat="40.506163839960315" lon="17.19585380227192"><ele>20.0</ele><time>2026-03-29T10:08:13Z</time></trkpt><trkpt lat="40.505897945313095" lon="17.196101459307123"><ele>20.0</ele><time>2026-03-29T10:08:14Z</time></trkpt><trkpt lat="40.505628322473534" lon="17.196348751523036"><ele>19.0</ele><time>2026-03-29T10:08:15Z</time></trkpt><trkpt lat="40.50535848277888" lon="17.196597372057642"><ele>18.0</ele><time>2026-03-29T10:08:16Z</time></trkpt><trkpt lat="40.505088389576" lon="17.196848747224475"><ele>18.0</ele><time>2026-03-29T10:08:17Z</time></trkpt><trkpt lat="40.504819299271155" lon="17.197097737699522"><ele>18.0</ele><time>2026-03-29T10:08:18Z</time></trkpt><trkpt lat="40.504549412644984" lon="17.19734171288497"><ele>17.5</ele><time>2026-03-29T10:08:19Z</time></trkpt><trkpt lat="40.50428241733357" lon="17.197582444303926"><ele>17.0</ele><time>2026-03-29T10:08:20Z</time></trkpt><trkpt lat="40.50401980751993" lon="17.197821453413635"><ele>17.0</ele><time>2026-03-29T10:08:21Z</time></trkpt><trkpt lat="40.50375672043774" lon="17.198057268604845"><ele>17.0</ele><time>2026-03-29T10:08:22Z</time></trkpt><trkpt lat="40.503497725812956" lon="17.198295796826987"><ele>19.0</ele><time>2026-03-29T10:08:23Z</time></trkpt><trkpt lat="40.50323756840936" lon="17.19853497337532"><ele>21.0</ele><time>2026-03-29T10:08:24Z</time></trkpt><trkpt lat="40.50297469153864" lon="17.198774727955524"><ele>21.0</ele><time>2026-03-29T10:08:25Z</time></trkpt><trkpt lat="40.50271184625616" lon="17.199012757593295"><ele>21.0</ele><time>2026-03-29T10:08:26Z</time></trkpt><trkpt lat="40.50244868924796" lon="17.199249910777553"><ele>21.0</ele><time>2026-03-29T10:08:27Z</time></trkpt><trkpt lat="40.50218588049434" lon="17.199488709804516"><ele>21.0</ele><time>2026-03-29T10:08:28Z</time></trkpt><trkpt lat="40.50192314562597" lon="17.19972746185878"><ele>20.0</ele><time>2026-03-29T10:08:29Z</time></trkpt><trkpt lat="40.50165755421979" lon="17.199969257555292"><ele>19.0</ele><time>2026-03-29T10:08:30Z</time></trkpt><trkpt lat="40.50139051789217" lon="17.200209547624144"><ele>19.0</ele><time>2026-03-29T10:08:31Z</time></trkpt><trkpt lat="40.50112477378458" lon="17.200451675985164"><ele>19.0</ele><time>2026-03-29T10:08:32Z</time></trkpt><trkpt lat="40.50085681503702" lon="17.200692309411423"><ele>19.0</ele><time>2026-03-29T10:08:33Z</time></trkpt><trkpt lat="40.50058974207505" lon="17.200934420247425"><ele>19.0</ele><time>2026-03-29T10:08:34Z</time></trkpt><trkpt lat="40.50032575310264" lon="17.201177516008364"><ele>18.5</ele><time>2026-03-29T10:08:35Z</time></trkpt><trkpt lat="40.50006183949973" lon="17.201426389956083"><ele>18.0</ele><time>2026-03-29T10:08:36Z</time></trkpt><trkpt lat="40.499797919674954" lon="17.201668786599985"><ele>18.5</ele><time>2026-03-29T10:08:37Z</time></trkpt><trkpt lat="40.49953267578372" lon="17.20191130552722"><ele>19.0</ele><time>2026-03-29T10:08:38Z</time></trkpt><trkpt lat="40.49926881803186" lon="17.202153503815158"><ele>19.5</ele><time>2026-03-29T10:08:39Z</time></trkpt><trkpt lat="40.49900273598466" lon="17.202398794801187"><ele>20.0</ele><time>2026-03-29T10:08:40Z</time></trkpt><trkpt lat="40.49873604350832" lon="17.202644687370615"><ele>21.5</ele><time>2026-03-29T10:08:41Z</time></trkpt><trkpt lat="40.49846865763593" lon="17.20288887404003"><ele>23.0</ele><time>2026-03-29T10:08:42Z</time></trkpt><trkpt lat="40.49820046424505" lon="17.203133085337306"><ele>22.5</ele><time>2026-03-29T10:08:43Z</time></trkpt><trkpt lat="40.49793133335222" lon="17.203380193468988"><ele>22.0</ele><time>2026-03-29T10:08:44Z</time></trkpt><trkpt lat="40.49766134146962" lon="17.203631752522572"><ele>20.5</ele><time>2026-03-29T10:08:45Z</time></trkpt><trkpt lat="40.49739132408976" lon="17.203882437267023"><ele>19.0</ele><time>2026-03-29T10:08:46Z</time></trkpt><trkpt lat="40.49712427037455" lon="17.204125992544135"><ele>19.5</ele><time>2026-03-29T10:08:47Z</time></trkpt><trkpt lat="40.49685914717745" lon="17.204371859167395"><ele>20.0</ele><time>2026-03-29T10:08:48Z</time></trkpt><trkpt lat="40.496610665463535" lon="17.204601694997972"><ele>20.0</ele><time>2026-03-29T10:08:49Z</time></trkpt><trkpt lat="40.49637726897371" lon="17.20481559768145"><ele>20.0</ele><time>2026-03-29T10:08:50Z</time></trkpt><trkpt lat="40.49615660803061" lon="17.20501651452504"><ele>19.0</ele><time>2026-03-29T10:08:51Z</time></trkpt><trkpt lat="40.49594861847645" lon="17.205198584044002"><ele>18.0</ele><time>2026-03-29T10:08:52Z</time></trkpt><trkpt lat="40.49575682265939" lon="17.205372965173403"><ele>18.0</ele><time>2026-03-29T10:08:53Z</time></trkpt><trkpt lat="40.49558302741335" lon="17.20553311059935"><ele>18.0</ele><time>2026-03-29T10:08:54Z</time></trkpt><trkpt lat="40.49542668966989" lon="17.205671989463497"><ele>18.0</ele><time>2026-03-29T10:08:55Z</time></trkpt><trkpt lat="40.495288599126255" lon="17.205794698851232"><ele>18.25</ele><time>2026-03-29T10:08:56Z</time></trkpt><trkpt lat="40.495162412162976" lon="17.205900765014267"><ele>18.5</ele><time>2026-03-29T10:08:57Z</time></trkpt><trkpt lat="40.49505247712365" lon="17.205989998503902"><ele>18.75</ele><time>2026-03-29T10:08:58Z</time></trkpt><trkpt lat="40.49494518797533" lon="17.206055170241875"><ele>19.0</ele><time>2026-03-29T10:08:59Z</time></trkpt><trkpt lat="40.494849855443086" lon="17.206099254019822"><ele>19.0</ele><time>2026-03-29T10:09:00Z</time></trkpt><trkpt lat="40.49476373202581" lon="17.206137828629622"><ele>19.0</ele><time>2026-03-29T10:09:01Z</time></trkpt><trkpt lat="40.49468412240279" lon="17.206158601611964"><ele>19.0</ele><time>2026-03-29T10:09:02Z</time></trkpt><trkpt lat="40.494608880243185" lon="17.206165936066053"><ele>19.0</ele><time>2026-03-29T10:09:03Z</time></trkpt><trkpt lat="40.49453706821129" lon="17.20618769480858"><ele>19.0</ele><time>2026-03-29T10:09:04Z</time></trkpt><trkpt lat="40.49447730613128" lon="17.206248803524552"><ele>19.0</ele><time>2026-03-29T10:09:05Z</time></trkpt><trkpt lat="40.49444659183908" lon="17.206337035926428"><ele>18.8</ele><time>2026-03-29T10:09:06Z</time></trkpt><trkpt lat="40.49442571987458" lon="17.20642018554269"><ele>18.599999999999998</ele><time>2026-03-29T10:09:07Z</time></trkpt><trkpt lat="40.4944197684089" lon="17.206506498701927"><ele>18.4</ele><time>2026-03-29T10:09:08Z</time></trkpt><trkpt lat="40.49435420288337" lon="17.206596539766196"><ele>18.2</ele><time>2026-03-29T10:09:09Z</time></trkpt><trkpt lat="40.494275128140174" lon="17.206703334342347"><ele>18.0</ele><time>2026-03-29T10:09:10Z</time></trkpt><trkpt lat="40.49417382187072" lon="17.206829456904813"><ele>17.666666666666668</ele><time>2026-03-29T10:09:11Z</time></trkpt><trkpt lat="40.49404429216057" lon="17.20697023074305"><ele>17.333333333333336</ele><time>2026-03-29T10:09:12Z</time></trkpt><trkpt lat="40.49389920908417" lon="17.207116213200212"><ele>17.0</ele><time>2026-03-29T10:09:13Z</time></trkpt><trkpt lat="40.4937321322865" lon="17.207271355505657"><ele>16.0</ele><time>2026-03-29T10:09:14Z</time></trkpt><trkpt lat="40.493548090014045" lon="17.207440731899553"><ele>15.0</ele><time>2026-03-29T10:09:15Z</time></trkpt><trkpt lat="40.49334368794243" lon="17.207631938165942"><ele>15.0</ele><time>2026-03-29T10:09:16Z</time></trkpt><trkpt lat="40.49312638132692" lon="17.207831125336234"><ele>15.0</ele><time>2026-03-29T10:09:17Z</time></trkpt><trkpt lat="40.49289967133148" lon="17.208040550409194"><ele>15.5</ele><time>2026-03-29T10:09:18Z</time></trkpt><trkpt lat="40.49267363418927" lon="17.208249316460535"><ele>16.0</ele><time>2026-03-29T10:09:19Z</time></trkpt><trkpt lat="40.49244523685951" lon="17.208452490726437"><ele>16.0</ele><time>2026-03-29T10:09:20Z</time></trkpt><trkpt lat="40.4922139388003" lon="17.208659657695023"><ele>16.0</ele><time>2026-03-29T10:09:21Z</time></trkpt><trkpt lat="40.491981336649395" lon="17.208871984233397"><ele>17.0</ele><time>2026-03-29T10:09:22Z</time></trkpt><trkpt lat="40.491746883682346" lon="17.2090874285488"><ele>18.0</ele><time>2026-03-29T10:09:23Z</time></trkpt><trkpt lat="40.491514923690225" lon="17.20930521310345"><ele>18.0</ele><time>2026-03-29T10:09:24Z</time></trkpt><trkpt lat="40.4912802657955" lon="17.20952231200099"><ele>18.0</ele><time>2026-03-29T10:09:25Z</time></trkpt><trkpt lat="40.49104726791203" lon="17.209733505090515"><ele>19.0</ele><time>2026-03-29T10:09:26Z</time></trkpt><trkpt lat="40.49081773764482" lon="17.209943534000637"><ele>20.0</ele><time>2026-03-29T10:09:27Z</time></trkpt><trkpt lat="40.49060035216723" lon="17.210139610464843"><ele>19.0</ele><time>2026-03-29T10:09:28Z</time></trkpt><trkpt lat="40.49039781907911" lon="17.210320968907425"><ele>18.0</ele><time>2026-03-29T10:09:29Z</time></trkpt><trkpt lat="40.49021209674103" lon="17.210494162581266"><ele>18.0</ele><time>2026-03-29T10:09:30Z</time></trkpt><trkpt lat="40.490041715410975" lon="17.210655292752637"><ele>18.0</ele><time>2026-03-29T10:09:31Z</time></trkpt><trkpt lat="40.48987351382291" lon="17.21079942024508"><ele>18.0</ele><time>2026-03-29T10:09:32Z</time></trkpt><trkpt lat="40.48971776190754" lon="17.210929010015512"><ele>18.0</ele><time>2026-03-29T10:09:33Z</time></trkpt><trkpt lat="40.48956827937559" lon="17.211051262165473"><ele>18.0</ele><time>2026-03-29T10:09:34Z</time></trkpt><trkpt lat="40.48943200144921" lon="17.211169138250114"><ele>18.0</ele><time>2026-03-29T10:09:35Z</time></trkpt><trkpt lat="40.48930953549996" lon="17.211272226953525"><ele>18.0</ele><time>2026-03-29T10:09:36Z</time></trkpt><trkpt lat="40.48920094517358" lon="17.21135498145058"><ele>18.0</ele><time>2026-03-29T10:09:37Z</time></trkpt><trkpt lat="40.489100336990624" lon="17.211421371476735"><ele>18.0</ele><time>2026-03-29T10:09:38Z</time></trkpt><trkpt lat="40.48900468269394" lon="17.211463378939918"><ele>18.0</ele><time>2026-03-29T10:09:39Z</time></trkpt><trkpt lat="40.48891200258287" lon="17.21145147285997"><ele>18.0</ele><time>2026-03-29T10:09:40Z</time></trkpt><trkpt lat="40.488821265482166" lon="17.21140203960415"><ele>18.0</ele><time>2026-03-29T10:09:41Z</time></trkpt><trkpt lat="40.488748480929324" lon="17.211311840748266"><ele>18.0</ele><time>2026-03-29T10:09:42Z</time></trkpt><trkpt lat="40.488717134109145" lon="17.211198687836344"><ele>18.0</ele><time>2026-03-29T10:09:43Z</time></trkpt><trkpt lat="40.48872086857463" lon="17.211072401900168"><ele>18.0</ele><time>2026-03-29T10:09:44Z</time></trkpt><trkpt lat="40.488743134565496" lon="17.210932329935723"><ele>18.0</ele><time>2026-03-29T10:09:45Z</time></trkpt><trkpt lat="40.48877379721685" lon="17.210783387854008"><ele>17.2</ele><time>2026-03-29T10:09:46Z</time></trkpt><trkpt lat="40.488805534754164" lon="17.210649870623286"><ele>16.4</ele><time>2026-03-29T10:09:47Z</time></trkpt><trkpt lat="40.48884363070276" lon="17.210530340914517"><ele>15.599999999999998</ele><time>2026-03-29T10:09:48Z</time></trkpt><trkpt lat="40.48888411013219" lon="17.210419207413825"><ele>14.799999999999999</ele><time>2026-03-29T10:09:49Z</time></trkpt><trkpt lat="40.488941803732345" lon="17.210308588414126"><ele>14.0</ele><time>2026-03-29T10:09:50Z</time></trkpt><trkpt lat="40.48901852327416" lon="17.210229220937112"><ele>14.000000000000002</ele><time>2026-03-29T10:09:51Z</time></trkpt><trkpt lat="40.48910340033175" lon="17.210184951883914"><ele>14.0</ele><time>2026-03-29T10:09:52Z</time></trkpt><trkpt lat="40.48918689878693" lon="17.210173336305473"><ele>14.0</ele><time>2026-03-29T10:09:53Z</time></trkpt><trkpt lat="40.489262357342064" lon="17.210187134850255"><ele>14.0</ele><time>2026-03-29T10:09:54Z</time></trkpt><trkpt lat="40.48934422800186" lon="17.21021025767357"><ele>14.000000000000002</ele><time>2026-03-29T10:09:55Z</time></trkpt><trkpt lat="40.48943128910211" lon="17.21025162313499"><ele>14.0</ele><time>2026-03-29T10:09:56Z</time></trkpt><trkpt lat="40.48951019029742" lon="17.210325201168178"><ele>14.0</ele><time>2026-03-29T10:09:57Z</time></trkpt><trkpt lat="40.489577903334464" lon="17.210442028546467"><ele>14.0</ele><time>2026-03-29T10:09:58Z</time></trkpt><trkpt lat="40.48965847856395" lon="17.210575007684604"><ele>14.0</ele><time>2026-03-29T10:09:59Z</time></trkpt><trkpt lat="40.48975227764979" lon="17.21072632898606"><ele>14.0</ele><time>2026-03-29T10:10:00Z</time></trkpt><trkpt lat="40.48985943264093" lon="17.21090102548347"><ele>14.333333333333334</ele><time>2026-03-29T10:10:01Z</time></trkpt><trkpt lat="40.489979049603804" lon="17.211088002427385"><ele>14.666666666666668</ele><time>2026-03-29T10:10:02Z</time></trkpt><trkpt lat="40.49010564247149" lon="17.21130142698763"><ele>15.0</ele><time>2026-03-29T10:10:03Z</time></trkpt><trkpt lat="40.49023267303464" lon="17.21151828099733"><ele>15.0</ele><time>2026-03-29T10:10:04Z</time></trkpt><trkpt lat="40.49036720236162" lon="17.211751245235472"><ele>15.0</ele><time>2026-03-29T10:10:05Z</time></trkpt><trkpt lat="40.490511325769326" lon="17.212010823005432"><ele>15.0</ele><time>2026-03-29T10:10:06Z</time></trkpt><trkpt lat="40.49066192876599" lon="17.21227847948206"><ele>15.0</ele><time>2026-03-29T10:10:07Z</time></trkpt><trkpt lat="40.490819190921286" lon="17.21255921203684"><ele>13.5</ele><time>2026-03-29T10:10:08Z</time></trkpt><trkpt lat="40.49097618863984" lon="17.2128525248695"><ele>12.0</ele><time>2026-03-29T10:10:09Z</time></trkpt><trkpt lat="40.49113253340178" lon="17.213154585624444"><ele>16.0</ele><time>2026-03-29T10:10:10Z</time></trkpt><trkpt lat="40.49129236156012" lon="17.213459319285118"><ele>20.0</ele><time>2026-03-29T10:10:11Z</time></trkpt><trkpt lat="40.49145400565906" lon="17.213764536772587"><ele>20.0</ele><time>2026-03-29T10:10:12Z</time></trkpt><trkpt lat="40.491619069658256" lon="17.214072878905093"><ele>20.0</ele><time>2026-03-29T10:10:13Z</time></trkpt><trkpt lat="40.49178314121127" lon="17.214380162000626"><ele>20.0</ele><time>2026-03-29T10:10:14Z</time></trkpt><trkpt lat="40.49194638878343" lon="17.21468818487404"><ele>20.0</ele><time>2026-03-29T10:10:15Z</time></trkpt><trkpt lat="40.49210865526332" lon="17.21500374992416"><ele>19.5</ele><time>2026-03-29T10:10:16Z</time></trkpt><trkpt lat="40.49227884853606" lon="17.21531175828204"><ele>19.0</ele><time>2026-03-29T10:10:17Z</time></trkpt><trkpt lat="40.492453267716435" lon="17.215623632350077"><ele>19.5</ele><time>2026-03-29T10:10:18Z</time></trkpt><trkpt lat="40.49262177067638" lon="17.215932884258645"><ele>20.0</ele><time>2026-03-29T10:10:19Z</time></trkpt><trkpt lat="40.49279540522593" lon="17.216246652410433"><ele>17.5</ele><time>2026-03-29T10:10:20Z</time></trkpt><trkpt lat="40.49296444008514" lon="17.216561362790145"><ele>15.0</ele><time>2026-03-29T10:10:21Z</time></trkpt><trkpt lat="40.493136171487436" lon="17.216876865034028"><ele>15.0</ele><time>2026-03-29T10:10:22Z</time></trkpt><trkpt lat="40.493306195991856" lon="17.217192065091847"><ele>15.0</ele><time>2026-03-29T10:10:23Z</time></trkpt><trkpt lat="40.49347655967854" lon="17.217508281792433"><ele>15.5</ele><time>2026-03-29T10:10:24Z</time></trkpt><trkpt lat="40.49364900347683" lon="17.217826660164768"><ele>16.0</ele><time>2026-03-29T10:10:25Z</time></trkpt><trkpt lat="40.49382234115861" lon="17.218149726916288"><ele>18.0</ele><time>2026-03-29T10:10:26Z</time></trkpt><trkpt lat="40.493996893751536" lon="17.218471456716433"><ele>20.0</ele><time>2026-03-29T10:10:27Z</time></trkpt><trkpt lat="40.49417236877185" lon="17.21879163165603"><ele>19.5</ele><time>2026-03-29T10:10:28Z</time></trkpt><trkpt lat="40.494348324949144" lon="17.21911400742003"><ele>19.0</ele><time>2026-03-29T10:10:29Z</time></trkpt><trkpt lat="40.49452242259911" lon="17.21943371513934"><ele>17.5</ele><time>2026-03-29T10:10:30Z</time></trkpt><trkpt lat="40.49469425035187" lon="17.219746544489364"><ele>16.0</ele><time>2026-03-29T10:10:31Z</time></trkpt><trkpt lat="40.49486464394276" lon="17.22005981318368"><ele>19.0</ele><time>2026-03-29T10:10:32Z</time></trkpt><trkpt lat="40.49503563218049" lon="17.220373589553798"><ele>22.0</ele><time>2026-03-29T10:10:33Z</time></trkpt><trkpt lat="40.4952072033134" lon="17.22069129799945"><ele>24.0</ele><time>2026-03-29T10:10:34Z</time></trkpt><trkpt lat="40.495381930287344" lon="17.221018879463365"><ele>26.0</ele><time>2026-03-29T10:10:35Z</time></trkpt><trkpt lat="40.495550129170645" lon="17.22134933288064"><ele>23.5</ele><time>2026-03-29T10:10:36Z</time></trkpt><trkpt lat="40.495714533041074" lon="17.221683017456744"><ele>21.0</ele><time>2026-03-29T10:10:37Z</time></trkpt><trkpt lat="40.49587266005253" lon="17.22201210911888"><ele>23.5</ele><time>2026-03-29T10:10:38Z</time></trkpt><trkpt lat="40.496027292392924" lon="17.222347481946663"><ele>26.0</ele><time>2026-03-29T10:10:39Z</time></trkpt><trkpt lat="40.496181341164046" lon="17.222687886173784"><ele>24.0</ele><time>2026-03-29T10:10:40Z</time></trkpt><trkpt lat="40.496333269620955" lon="17.223027951086888"><ele>22.0</ele><time>2026-03-29T10:10:41Z</time></trkpt><trkpt lat="40.49647833794747" lon="17.223368273919828"><ele>22.0</ele><time>2026-03-29T10:10:42Z</time></trkpt><trkpt lat="40.496622183107895" lon="17.22370577181382"><ele>22.0</ele><time>2026-03-29T10:10:43Z</time></trkpt><trkpt lat="40.49676495233344" lon="17.224043464641877"><ele>23.5</ele><time>2026-03-29T10:10:44Z</time></trkpt><trkpt lat="40.49690644051568" lon="17.22438439522573"><ele>25.0</ele><time>2026-03-29T10:10:45Z</time></trkpt><trkpt lat="40.49704872091649" lon="17.22472282233173"><ele>21.0</ele><time>2026-03-29T10:10:46Z</time></trkpt><trkpt lat="40.49718610817265" lon="17.225059128905222"><ele>17.0</ele><time>2026-03-29T10:10:47Z</time></trkpt><trkpt lat="40.497324470694565" lon="17.225395965656187"><ele>17.0</ele><time>2026-03-29T10:10:48Z</time></trkpt><trkpt lat="40.49746435435997" lon="17.22573229926609"><ele>17.0</ele><time>2026-03-29T10:10:49Z</time></trkpt><trkpt lat="40.49760345705185" lon="17.226062182000852"><ele>17.0</ele><time>2026-03-29T10:10:50Z</time></trkpt><trkpt lat="40.49774409312789" lon="17.22639762391892"><ele>17.0</ele><time>2026-03-29T10:10:51Z</time></trkpt><trkpt lat="40.49788813786974" lon="17.22673900718612"><ele>18.0</ele><time>2026-03-29T10:10:52Z</time></trkpt><trkpt lat="40.49803370593571" lon="17.227076725109338"><ele>19.0</ele><time>2026-03-29T10:10:53Z</time></trkpt><trkpt lat="40.498182414027774" lon="17.227418804925534"><ele>19.0</ele><time>2026-03-29T10:10:54Z</time></trkpt><trkpt lat="40.49832661109102" lon="17.22776238648028"><ele>19.0</ele><time>2026-03-29T10:10:55Z</time></trkpt><trkpt lat="40.4984707775279" lon="17.22810845955029"><ele>18.5</ele><time>2026-03-29T10:10:56Z</time></trkpt><trkpt lat="40.49861355198989" lon="17.228457593564602"><ele>18.0</ele><time>2026-03-29T10:10:57Z</time></trkpt><trkpt lat="40.49875142287403" lon="17.228813976147876"><ele>16.5</ele><time>2026-03-29T10:10:58Z</time></trkpt><trkpt lat="40.49888322152421" lon="17.229169088136903"><ele>15.0</ele><time>2026-03-29T10:10:59Z</time></trkpt><trkpt lat="40.49900632517748" lon="17.229533066636517"><ele>15.0</ele><time>2026-03-29T10:11:00Z</time></trkpt><trkpt lat="40.49911673389265" lon="17.229903798017514"><ele>15.0</ele><time>2026-03-29T10:11:01Z</time></trkpt><trkpt lat="40.49921369866364" lon="17.23027877746946"><ele>14.5</ele><time>2026-03-29T10:11:02Z</time></trkpt><trkpt lat="40.499297091567676" lon="17.230657525529985"><ele>14.0</ele><time>2026-03-29T10:11:03Z</time></trkpt><trkpt lat="40.499370300543916" lon="17.231032778135535"><ele>14.0</ele><time>2026-03-29T10:11:04Z</time></trkpt><trkpt lat="40.49942931400908" lon="17.231402604427277"><ele>14.0</ele><time>2026-03-29T10:11:05Z</time></trkpt><trkpt lat="40.499483627423686" lon="17.231771446403073"><ele>14.0</ele><time>2026-03-29T10:11:06Z</time></trkpt><trkpt lat="40.499535342485906" lon="17.23214176470695"><ele>14.0</ele><time>2026-03-29T10:11:07Z</time></trkpt><trkpt lat="40.49958010635021" lon="17.232510755435722"><ele>13.0</ele><time>2026-03-29T10:11:08Z</time></trkpt><trkpt lat="40.49961498505184" lon="17.23288525899726"><ele>12.0</ele><time>2026-03-29T10:11:09Z</time></trkpt><trkpt lat="40.499652484978235" lon="17.233261473925765"><ele>12.0</ele><time>2026-03-29T10:11:10Z</time></trkpt><trkpt lat="40.49968965528545" lon="17.233641327078175"><ele>12.0</ele><time>2026-03-29T10:11:11Z</time></trkpt><trkpt lat="40.49972940555549" lon="17.234024356787504"><ele>13.5</ele><time>2026-03-29T10:11:12Z</time></trkpt><trkpt lat="40.49977315848722" lon="17.23440994769879"><ele>15.0</ele><time>2026-03-29T10:11:13Z</time></trkpt><trkpt lat="40.49981413508019" lon="17.234800199014536"><ele>15.5</ele><time>2026-03-29T10:11:14Z</time></trkpt><trkpt lat="40.499856174351756" lon="17.23519295909481"><ele>16.0</ele><time>2026-03-29T10:11:15Z</time></trkpt><trkpt lat="40.49990046285036" lon="17.235582891174907"><ele>16.5</ele><time>2026-03-29T10:11:16Z</time></trkpt><trkpt lat="40.4999401869311" lon="17.23597357474265"><ele>17.0</ele><time>2026-03-29T10:11:17Z</time></trkpt><trkpt lat="40.49997847497599" lon="17.23636690224497"><ele>18.5</ele><time>2026-03-29T10:11:18Z</time></trkpt><trkpt lat="40.500018243435484" lon="17.236761424668494"><ele>20.0</ele><time>2026-03-29T10:11:19Z</time></trkpt><trkpt lat="40.50005995778291" lon="17.237154872961664"><ele>21.0</ele><time>2026-03-29T10:11:20Z</time></trkpt><trkpt lat="40.50009934013777" lon="17.237550177475335"><ele>22.0</ele><time>2026-03-29T10:11:21Z</time></trkpt><trkpt lat="40.500140075010115" lon="17.237947494333095"><ele>21.0</ele><time>2026-03-29T10:11:22Z</time></trkpt><trkpt lat="40.5001811962537" lon="17.23834379914688"><ele>20.0</ele><time>2026-03-29T10:11:23Z</time></trkpt><trkpt lat="40.500222399760936" lon="17.23874009477061"><ele>19.5</ele><time>2026-03-29T10:11:24Z</time></trkpt><trkpt lat="40.50026555831223" lon="17.239135938845354"><ele>19.0</ele><time>2026-03-29T10:11:25Z</time></trkpt><trkpt lat="40.5003066824787" lon="17.23953652147147"><ele>18.0</ele><time>2026-03-29T10:11:26Z</time></trkpt><trkpt lat="40.50034732232907" lon="17.23993178677689"><ele>17.0</ele><time>2026-03-29T10:11:27Z</time></trkpt><trkpt lat="40.50038727348998" lon="17.24032655767362"><ele>17.0</ele><time>2026-03-29T10:11:28Z</time></trkpt><trkpt lat="40.500423864464786" lon="17.24072198008466"><ele>17.0</ele><time>2026-03-29T10:11:29Z</time></trkpt><trkpt lat="40.50046096759259" lon="17.241118420877278"><ele>17.5</ele><time>2026-03-29T10:11:30Z</time></trkpt><trkpt lat="40.50050113078783" lon="17.24151711184185"><ele>18.0</ele><time>2026-03-29T10:11:31Z</time></trkpt><trkpt lat="40.50054076907194" lon="17.24191669826791"><ele>17.5</ele><time>2026-03-29T10:11:32Z</time></trkpt><trkpt lat="40.500580354831904" lon="17.24231815971522"><ele>17.0</ele><time>2026-03-29T10:11:33Z</time></trkpt><trkpt lat="40.500625457498714" lon="17.242720897522"><ele>17.0</ele><time>2026-03-29T10:11:34Z</time></trkpt><trkpt lat="40.50066785495461" lon="17.243122940365385"><ele>17.0</ele><time>2026-03-29T10:11:35Z</time></trkpt><trkpt lat="40.500707364169166" lon="17.243523914286115"><ele>16.5</ele><time>2026-03-29T10:11:36Z</time></trkpt><trkpt lat="40.50074550909" lon="17.243926097504982"><ele>16.0</ele><time>2026-03-29T10:11:37Z</time></trkpt><trkpt lat="40.50077357100622" lon="17.244329418416395"><ele>15.0</ele><time>2026-03-29T10:11:38Z</time></trkpt><trkpt lat="40.500796489674876" lon="17.244735083260863"><ele>14.0</ele><time>2026-03-29T10:11:39Z</time></trkpt><trkpt lat="40.50081718896761" lon="17.245140962390032"><ele>14.0</ele><time>2026-03-29T10:11:40Z</time></trkpt><trkpt lat="40.5008374149135" lon="17.245546835834965"><ele>14.0</ele><time>2026-03-29T10:11:41Z</time></trkpt><trkpt lat="40.500864512462805" lon="17.245951295030757"><ele>12.0</ele><time>2026-03-29T10:11:42Z</time></trkpt><trkpt lat="40.50090017970701" lon="17.24635640400283"><ele>10.0</ele><time>2026-03-29T10:11:43Z</time></trkpt><trkpt lat="40.50095054054032" lon="17.246762750749994"><ele>8.0</ele><time>2026-03-29T10:11:44Z</time></trkpt><trkpt lat="40.50101507994242" lon="17.2471665634757"><ele>6.0</ele><time>2026-03-29T10:11:45Z</time></trkpt><trkpt lat="40.50109123203838" lon="17.247566869502624"><ele>4.5</ele><time>2026-03-29T10:11:46Z</time></trkpt><trkpt lat="40.501175833808325" lon="17.24796811983412"><ele>3.0</ele><time>2026-03-29T10:11:47Z</time></trkpt><trkpt lat="40.50126633911283" lon="17.248365641714884"><ele>3.0</ele><time>2026-03-29T10:11:48Z</time></trkpt><trkpt lat="40.50136404372334" lon="17.24876267761547"><ele>3.0</ele><time>2026-03-29T10:11:49Z</time></trkpt><trkpt lat="40.50146709506773" lon="17.24916061348114"><ele>3.0</ele><time>2026-03-29T10:11:50Z</time></trkpt><trkpt lat="40.501571122837625" lon="17.249559065778374"><ele>3.0</ele><time>2026-03-29T10:11:51Z</time></trkpt><trkpt lat="40.5016737213895" lon="17.249959223997244"><ele>2.5</ele><time>2026-03-29T10:11:52Z</time></trkpt><trkpt lat="40.50177449032906" lon="17.250361523503784"><ele>2.0</ele><time>2026-03-29T10:11:53Z</time></trkpt><trkpt lat="40.5018770784818" lon="17.250766108159876"><ele>2.0</ele><time>2026-03-29T10:11:54Z</time></trkpt><trkpt lat="40.501977220993865" lon="17.251169718570036"><ele>2.0</ele><time>2026-03-29T10:11:55Z</time></trkpt><trkpt lat="40.502076174062985" lon="17.251569597376857"><ele>3.0</ele><time>2026-03-29T10:11:56Z</time></trkpt><trkpt lat="40.50217521242668" lon="17.251970009827044"><ele>4.0</ele><time>2026-03-29T10:11:57Z</time></trkpt><trkpt lat="40.50227300339844" lon="17.25237416517641"><ele>5.0</ele><time>2026-03-29T10:11:58Z</time></trkpt><trkpt lat="40.502371238217286" lon="17.252779347688648"><ele>6.0</ele><time>2026-03-29T10:11:59Z</time></trkpt><trkpt lat="40.50247393509664" lon="17.25318225599486"><ele>6.0</ele><time>2026-03-29T10:12:00Z</time></trkpt><trkpt lat="40.50257688989747" lon="17.253585413028752"><ele>6.0</ele><time>2026-03-29T10:12:01Z</time></trkpt><trkpt lat="40.502678685753416" lon="17.253987797263804"><ele>6.0</ele><time>2026-03-29T10:12:02Z</time></trkpt><trkpt lat="40.50277951017228" lon="17.254386457614864"><ele>6.0</ele><time>2026-03-29T10:12:03Z</time></trkpt><trkpt lat="40.50288209454611" lon="17.254784014393625"><ele>6.0</ele><time>2026-03-29T10:12:04Z</time></trkpt><trkpt lat="40.50298731610325" lon="17.255182830927552"><ele>6.0</ele><time>2026-03-29T10:12:05Z</time></trkpt><trkpt lat="40.50308751306918" lon="17.25557847475927"><ele>5.0</ele><time>2026-03-29T10:12:06Z</time></trkpt><trkpt lat="40.503187436470476" lon="17.255973872457282"><ele>4.0</ele><time>2026-03-29T10:12:07Z</time></trkpt><trkpt lat="40.50328483405733" lon="17.25636563452599"><ele>3.0</ele><time>2026-03-29T10:12:08Z</time></trkpt><trkpt lat="40.50338114162807" lon="17.256757671364"><ele>2.0</ele><time>2026-03-29T10:12:09Z</time></trkpt><trkpt lat="40.50347761759006" lon="17.257148061701724"><ele>1.0</ele><time>2026-03-29T10:12:10Z</time></trkpt><trkpt lat="40.50357455154156" lon="17.257537660528175"><ele>0.0</ele><time>2026-03-29T10:12:11Z</time></trkpt><trkpt lat="40.503673652644586" lon="17.257928663414916"><ele>3.5</ele><time>2026-03-29T10:12:12Z</time></trkpt><trkpt lat="40.503774686791395" lon="17.258323712776082"><ele>7.0</ele><time>2026-03-29T10:12:13Z</time></trkpt><trkpt lat="40.5038777593191" lon="17.258723991130132"><ele>8.5</ele><time>2026-03-29T10:12:14Z</time></trkpt><trkpt lat="40.503980771089694" lon="17.259124738735828"><ele>10.0</ele><time>2026-03-29T10:12:15Z</time></trkpt><trkpt lat="40.504081422869646" lon="17.259522505631246"><ele>10.0</ele><time>2026-03-29T10:12:16Z</time></trkpt><trkpt lat="40.50418276291684" lon="17.259922917591776"><ele>10.0</ele><time>2026-03-29T10:12:17Z</time></trkpt><trkpt lat="40.50428504764106" lon="17.260324443016646"><ele>10.0</ele><time>2026-03-29T10:12:18Z</time></trkpt><trkpt lat="40.504385101079826" lon="17.260727514767574"><ele>10.0</ele><time>2026-03-29T10:12:19Z</time></trkpt><trkpt lat="40.50448737319759" lon="17.2611331044956"><ele>11.0</ele><time>2026-03-29T10:12:20Z</time></trkpt><trkpt lat="40.504591664991295" lon="17.261540497547127"><ele>12.0</ele><time>2026-03-29T10:12:21Z</time></trkpt><trkpt lat="40.504695217458746" lon="17.261951256259103"><ele>11.0</ele><time>2026-03-29T10:12:22Z</time></trkpt><trkpt lat="40.504798145706175" lon="17.262362417392836"><ele>10.0</ele><time>2026-03-29T10:12:23Z</time></trkpt><trkpt lat="40.50489703263178" lon="17.262765787255024"><ele>10.0</ele><time>2026-03-29T10:12:24Z</time></trkpt><trkpt lat="40.50499788385187" lon="17.263167341932036"><ele>10.0</ele><time>2026-03-29T10:12:25Z</time></trkpt><trkpt lat="40.505097107179594" lon="17.263564498194206"><ele>8.0</ele><time>2026-03-29T10:12:26Z</time></trkpt><trkpt lat="40.505196302295026" lon="17.2639576507131"><ele>6.0</ele><time>2026-03-29T10:12:27Z</time></trkpt><trkpt lat="40.50529544348625" lon="17.2643504931464"><ele>6.0</ele><time>2026-03-29T10:12:28Z</time></trkpt><trkpt lat="40.505392571467766" lon="17.264741696059193"><ele>6.0</ele><time>2026-03-29T10:12:29Z</time></trkpt><trkpt lat="40.50548746354814" lon="17.265134630146665"><ele>6.0</ele><time>2026-03-29T10:12:30Z</time></trkpt><trkpt lat="40.505585596548705" lon="17.265526242638344"><ele>6.0</ele><time>2026-03-29T10:12:31Z</time></trkpt><trkpt lat="40.5056833816641" lon="17.265910219369584"><ele>7.5</ele><time>2026-03-29T10:12:32Z</time></trkpt><trkpt lat="40.505780043445256" lon="17.266291842044257"><ele>9.0</ele><time>2026-03-29T10:12:33Z</time></trkpt><trkpt lat="40.50587709575545" lon="17.266671466898607"><ele>9.5</ele><time>2026-03-29T10:12:34Z</time></trkpt><trkpt lat="40.50597455715851" lon="17.267050733308498"><ele>10.0</ele><time>2026-03-29T10:12:35Z</time></trkpt><trkpt lat="40.50607106770228" lon="17.26743129243963"><ele>10.0</ele><time>2026-03-29T10:12:36Z</time></trkpt><trkpt lat="40.506164710684025" lon="17.267809769297784"><ele>10.0</ele><time>2026-03-29T10:12:37Z</time></trkpt><trkpt lat="40.50625818717763" lon="17.268183472370957"><ele>11.0</ele><time>2026-03-29T10:12:38Z</time></trkpt><trkpt lat="40.50635094853433" lon="17.268554524250987"><ele>12.0</ele><time>2026-03-29T10:12:39Z</time></trkpt><trkpt lat="40.506452146687174" lon="17.268925211418235"><ele>10.5</ele><time>2026-03-29T10:12:40Z</time></trkpt><trkpt lat="40.50654665763663" lon="17.269300668373102"><ele>9.0</ele><time>2026-03-29T10:12:41Z</time></trkpt><trkpt lat="40.50663922444878" lon="17.269673404115874"><ele>9.0</ele><time>2026-03-29T10:12:42Z</time></trkpt><trkpt lat="40.506734057372505" lon="17.2700518026914"><ele>9.0</ele><time>2026-03-29T10:12:43Z</time></trkpt><trkpt lat="40.5068287552062" lon="17.270429388395787"><ele>8.5</ele><time>2026-03-29T10:12:44Z</time></trkpt><trkpt lat="40.5069227227894" lon="17.270806244290103"><ele>8.0</ele><time>2026-03-29T10:12:45Z</time></trkpt><trkpt lat="40.50701594448515" lon="17.271183576857474"><ele>9.0</ele><time>2026-03-29T10:12:46Z</time></trkpt><trkpt lat="40.50711003188597" lon="17.271562416486745"><ele>10.0</ele><time>2026-03-29T10:12:47Z</time></trkpt><trkpt lat="40.507203828289796" lon="17.27194018172189"><ele>9.0</ele><time>2026-03-29T10:12:48Z</time></trkpt><trkpt lat="40.507298233905246" lon="17.27231749910897"><ele>8.0</ele><time>2026-03-29T10:12:49Z</time></trkpt><trkpt lat="40.50739644766153" lon="17.27269460847789"><ele>8.0</ele><time>2026-03-29T10:12:50Z</time></trkpt><trkpt lat="40.50749303714167" lon="17.27307306753292"><ele>8.0</ele><time>2026-03-29T10:12:51Z</time></trkpt><trkpt lat="40.50759159803386" lon="17.273452165971477"><ele>7.0</ele><time>2026-03-29T10:12:52Z</time></trkpt><trkpt lat="40.50768944928973" lon="17.273832865591643"><ele>6.0</ele><time>2026-03-29T10:12:53Z</time></trkpt><trkpt lat="40.507785883085276" lon="17.274215331105207"><ele>5.5</ele><time>2026-03-29T10:12:54Z</time></trkpt><trkpt lat="40.50788161616871" lon="17.27459660441151"><ele>5.0</ele><time>2026-03-29T10:12:55Z</time></trkpt><trkpt lat="40.50797665784122" lon="17.274978434598115"><ele>6.0</ele><time>2026-03-29T10:12:56Z</time></trkpt><trkpt lat="40.50807206720746" lon="17.275356807236406"><ele>7.0</ele><time>2026-03-29T10:12:57Z</time></trkpt><trkpt lat="40.508167093606176" lon="17.27573576803002"><ele>8.5</ele><time>2026-03-29T10:12:58Z</time></trkpt><trkpt lat="40.50826340843239" lon="17.27611727142545"><ele>10.0</ele><time>2026-03-29T10:12:59Z</time></trkpt><trkpt lat="40.508360147751" lon="17.27650230635652"><ele>11.0</ele><time>2026-03-29T10:13:00Z</time></trkpt><trkpt lat="40.50845705454953" lon="17.27688995814051"><ele>12.0</ele><time>2026-03-29T10:13:01Z</time></trkpt><trkpt lat="40.508552908587646" lon="17.277275812449325"><ele>12.0</ele><time>2026-03-29T10:13:02Z</time></trkpt><trkpt lat="40.50865116671594" lon="17.277663033132658"><ele>12.0</ele><time>2026-03-29T10:13:03Z</time></trkpt><trkpt lat="40.50875232313621" lon="17.27805790461467"><ele>12.0</ele><time>2026-03-29T10:13:04Z</time></trkpt><trkpt lat="40.508853003759306" lon="17.278453611755918"><ele>12.0</ele><time>2026-03-29T10:13:05Z</time></trkpt><trkpt lat="40.50895750057583" lon="17.278851160760254"><ele>13.0</ele><time>2026-03-29T10:13:06Z</time></trkpt><trkpt lat="40.50905800227385" lon="17.27924597053198"><ele>14.0</ele><time>2026-03-29T10:13:07Z</time></trkpt><trkpt lat="40.50915887312627" lon="17.279640645157425"><ele>14.5</ele><time>2026-03-29T10:13:08Z</time></trkpt><trkpt lat="40.50925916883174" lon="17.280043029633003"><ele>15.0</ele><time>2026-03-29T10:13:09Z</time></trkpt><trkpt lat="40.50935859516605" lon="17.280446713106464"><ele>15.5</ele><time>2026-03-29T10:13:10Z</time></trkpt><trkpt lat="40.50945939563604" lon="17.28085730865335"><ele>16.0</ele><time>2026-03-29T10:13:11Z</time></trkpt><trkpt lat="40.509562748141896" lon="17.28127705270663"><ele>17.0</ele><time>2026-03-29T10:13:12Z</time></trkpt><trkpt lat="40.50966866847539" lon="17.281705525311146"><ele>18.0</ele><time>2026-03-29T10:13:13Z</time></trkpt><trkpt lat="40.50977934455421" lon="17.282149198663692"><ele>18.5</ele><time>2026-03-29T10:13:14Z</time></trkpt><trkpt lat="40.50989257936213" lon="17.28259623043046"><ele>19.0</ele><time>2026-03-29T10:13:15Z</time></trkpt><trkpt lat="40.510004939881604" lon="17.28304251686211"><ele>19.5</ele><time>2026-03-29T10:13:16Z</time></trkpt><trkpt lat="40.51011862972511" lon="17.28349198144058"><ele>20.0</ele><time>2026-03-29T10:13:17Z</time></trkpt><trkpt lat="40.51023196068692" lon="17.283935496036126"><ele>20.0</ele><time>2026-03-29T10:13:18Z</time></trkpt><trkpt lat="40.51034811837371" lon="17.284383274308638"><ele>20.0</ele><time>2026-03-29T10:13:19Z</time></trkpt><trkpt lat="40.5104606441328" lon="17.284829737201765"><ele>21.0</ele><time>2026-03-29T10:13:20Z</time></trkpt><trkpt lat="40.510570392668534" lon="17.285274712537262"><ele>22.0</ele><time>2026-03-29T10:13:21Z</time></trkpt><trkpt lat="40.510680407177965" lon="17.285718915698634"><ele>22.5</ele><time>2026-03-29T10:13:22Z</time></trkpt><trkpt lat="40.5107938128818" lon="17.286167243596438"><ele>23.0</ele><time>2026-03-29T10:13:23Z</time></trkpt><trkpt lat="40.5109067067309" lon="17.286615951563892"><ele>24.0</ele><time>2026-03-29T10:13:24Z</time></trkpt><trkpt lat="40.51101938609665" lon="17.287068417804104"><ele>25.0</ele><time>2026-03-29T10:13:25Z</time></trkpt><trkpt lat="40.511133103699024" lon="17.28751941754481"><ele>27.0</ele><time>2026-03-29T10:13:26Z</time></trkpt><trkpt lat="40.51124612730386" lon="17.287962562278633"><ele>29.0</ele><time>2026-03-29T10:13:27Z</time></trkpt><trkpt lat="40.51135922627987" lon="17.288401248560056"><ele>29.5</ele><time>2026-03-29T10:13:28Z</time></trkpt><trkpt lat="40.51147205518069" lon="17.288838150192106"><ele>30.0</ele><time>2026-03-29T10:13:29Z</time></trkpt><trkpt lat="40.51158292052218" lon="17.28927489820333"><ele>30.5</ele><time>2026-03-29T10:13:30Z</time></trkpt><trkpt lat="40.51169121476164" lon="17.289710047468922"><ele>31.0</ele><time>2026-03-29T10:13:31Z</time></trkpt><trkpt lat="40.51179960777159" lon="17.290139888956947"><ele>31.0</ele><time>2026-03-29T10:13:32Z</time></trkpt><trkpt lat="40.51190727217552" lon="17.290569255264572"><ele>31.0</ele><time>2026-03-29T10:13:33Z</time></trkpt><trkpt lat="40.51200546043104" lon="17.2910038938369"><ele>31.0</ele><time>2026-03-29T10:13:34Z</time></trkpt><trkpt lat="40.512087447377205" lon="17.29144477359981"><ele>31.0</ele><time>2026-03-29T10:13:35Z</time></trkpt><trkpt lat="40.512159870962854" lon="17.29188978541343"><ele>30.5</ele><time>2026-03-29T10:13:36Z</time></trkpt><trkpt lat="40.51222509143934" lon="17.29234304549721"><ele>30.0</ele><time>2026-03-29T10:13:37Z</time></trkpt><trkpt lat="40.51228712142238" lon="17.29280695398463"><ele>30.0</ele><time>2026-03-29T10:13:38Z</time></trkpt><trkpt lat="40.51234906201325" lon="17.29327339189394"><ele>30.0</ele><time>2026-03-29T10:13:39Z</time></trkpt><trkpt lat="40.51241021368386" lon="17.293734531421897"><ele>30.5</ele><time>2026-03-29T10:13:40Z</time></trkpt><trkpt lat="40.51246931442502" lon="17.29418156083523"><ele>31.0</ele><time>2026-03-29T10:13:41Z</time></trkpt><trkpt lat="40.51252686848344" lon="17.29462462914234"><ele>31.5</ele><time>2026-03-29T10:13:42Z</time></trkpt><trkpt lat="40.51258548189413" lon="17.295060164947408"><ele>32.0</ele><time>2026-03-29T10:13:43Z</time></trkpt><trkpt lat="40.51264067877398" lon="17.295494214583996"><ele>30.0</ele><time>2026-03-29T10:13:44Z</time></trkpt><trkpt lat="40.512692423639585" lon="17.295924139706383"><ele>28.0</ele><time>2026-03-29T10:13:45Z</time></trkpt><trkpt lat="40.51274816876756" lon="17.296347502496403"><ele>26.5</ele><time>2026-03-29T10:13:46Z</time></trkpt><trkpt lat="40.512805612354796" lon="17.296771636657553"><ele>25.0</ele><time>2026-03-29T10:13:47Z</time></trkpt><trkpt lat="40.51286053864783" lon="17.29719692835486"><ele>27.5</ele><time>2026-03-29T10:13:48Z</time></trkpt><trkpt lat="40.51291926166294" lon="17.297623550972027"><ele>30.0</ele><time>2026-03-29T10:13:49Z</time></trkpt><trkpt lat="40.51298190215224" lon="17.298056854406404"><ele>31.0</ele><time>2026-03-29T10:13:50Z</time></trkpt><trkpt lat="40.513042084028044" lon="17.298488291385457"><ele>32.0</ele><time>2026-03-29T10:13:51Z</time></trkpt><trkpt lat="40.51310210682533" lon="17.298918551953953"><ele>32.0</ele><time>2026-03-29T10:13:52Z</time></trkpt><trkpt lat="40.51316051232888" lon="17.299346979316613"><ele>32.0</ele><time>2026-03-29T10:13:53Z</time></trkpt><trkpt lat="40.51321955292451" lon="17.299775008092386"><ele>32.5</ele><time>2026-03-29T10:13:54Z</time></trkpt><trkpt lat="40.513282004319514" lon="17.300207646226177"><ele>33.0</ele><time>2026-03-29T10:13:55Z</time></trkpt><trkpt lat="40.51334228460151" lon="17.300644152505047"><ele>33.0</ele><time>2026-03-29T10:13:56Z</time></trkpt><trkpt lat="40.51340373870488" lon="17.301080633002734"><ele>33.0</ele><time>2026-03-29T10:13:57Z</time></trkpt><trkpt lat="40.51346641048794" lon="17.301521233768476"><ele>33.5</ele><time>2026-03-29T10:13:58Z</time></trkpt><trkpt lat="40.51352484879083" lon="17.301964145975465"><ele>34.0</ele><time>2026-03-29T10:13:59Z</time></trkpt><trkpt lat="40.513584897720314" lon="17.30240940047276"><ele>34.0</ele><time>2026-03-29T10:14:00Z</time></trkpt><trkpt lat="40.51364390618546" lon="17.30285569584966"><ele>34.0</ele><time>2026-03-29T10:14:01Z</time></trkpt><trkpt lat="40.51370467164642" lon="17.303303156726262"><ele>35.0</ele><time>2026-03-29T10:14:02Z</time></trkpt><trkpt lat="40.51376466101574" lon="17.303751867967343"><ele>36.0</ele><time>2026-03-29T10:14:03Z</time></trkpt><trkpt lat="40.51381968612492" lon="17.3041885120307"><ele>36.0</ele><time>2026-03-29T10:14:04Z</time></trkpt><trkpt lat="40.51387803669466" lon="17.304628856192473"><ele>36.0</ele><time>2026-03-29T10:14:05Z</time></trkpt><trkpt lat="40.51393989133764" lon="17.305066417819337"><ele>36.0</ele><time>2026-03-29T10:14:06Z</time></trkpt><trkpt lat="40.51399894572349" lon="17.305500397540534"><ele>36.0</ele><time>2026-03-29T10:14:07Z</time></trkpt><trkpt lat="40.51405883526465" lon="17.305935333722147"><ele>35.0</ele><time>2026-03-29T10:14:08Z</time></trkpt><trkpt lat="40.514116897484485" lon="17.306371453850435"><ele>34.0</ele><time>2026-03-29T10:14:09Z</time></trkpt><trkpt lat="40.51417290377174" lon="17.30681162348809"><ele>34.0</ele><time>2026-03-29T10:14:10Z</time></trkpt></trkseg><trkseg><trkpt lat="40.51959173127024" lon="17.367660376346308"><ele>52.0</ele><time>2026-03-29T10:17:01Z</time></trkpt><trkpt lat="40.51939982042937" lon="17.367794239754087"><ele>52.0</ele><time>2026-03-29T10:17:02Z</time></trkpt></trkseg></trk></gpx>